<?xml version='1.0' encoding='UTF-8'?><gpx version="1.1" creator="JPX - https://github.com/jenetics/jpx" xmlns="http://www.topografix.com/GPX/1/1"><trk><trkseg><trkpt lat="44.2668677" lon="8.4318491"><ele>10.0</ele><time>2026-03-28T08:42:39.334Z</time></trkpt><trkpt lat="44.2668492" lon="8.4317613"><ele>10.0</ele><time>2026-03-28T08:42:40.326Z</time></trkpt><trkpt lat="44.266817" lon="8.4316125"><ele>10.0</ele><time>2026-03-28T08:42:42.335Z</time></trkpt><trkpt lat="44.266795" lon="8.4315073"><ele>10.0</ele><time>2026-03-28T08:42:44.333Z</time></trkpt><trkpt lat="44.2667611" lon="8.431394"><ele>10.0</ele><time>2026-03-28T08:42:46.333Z</time></trkpt><trkpt lat="44.2667158" lon="8.4312638"><ele>10.0</ele><time>2026-03-28T08:42:48.334Z</time></trkpt><trkpt lat="44.2666753" lon="8.431159"><ele>10.0</ele><time>2026-03-28T08:42:50.335Z</time></trkpt><trkpt lat="44.266644" lon="8.4310636"><ele>10.0</ele><time>2026-03-28T08:42:52.341Z</time></trkpt><trkpt lat="44.2666127" lon="8.4309583"><ele>10.0</ele><time>2026-03-28T08:43:01.332Z</time></trkpt><trkpt lat="44.2665805" lon="8.430837"><ele>10.0</ele><time>2026-03-28T08:43:04.325Z</time></trkpt><trkpt lat="44.2665251" lon="8.4307189"><ele>10.0</ele><time>2026-03-28T08:43:06.339Z</time></trkpt><trkpt lat="44.266415" lon="8.4307286"><ele>11.166666666666668</ele><time>2026-03-28T08:43:08.33Z</time></trkpt><trkpt lat="44.2663413" lon="8.4307651"><ele>12.333333333333334</ele><time>2026-03-28T08:43:09.325Z</time></trkpt><trkpt lat="44.266262" lon="8.4308085"><ele>13.5</ele><time>2026-03-28T08:43:10.335Z</time></trkpt><trkpt lat="44.2661871" lon="8.430841"><ele>14.666666666666668</ele><time>2026-03-28T08:43:11.321Z</time></trkpt><trkpt lat="44.2661217" lon="8.4308472"><ele>15.833333333333334</ele><time>2026-03-28T08:43:12.328Z</time></trkpt><trkpt lat="44.2660573" lon="8.4308109"><ele>17.0</ele><time>2026-03-28T08:43:13.325Z</time></trkpt><trkpt lat="44.2660022" lon="8.4307299"><ele>17.0</ele><time>2026-03-28T08:43:14.328Z</time></trkpt><trkpt lat="44.2659442" lon="8.4306227"><ele>17.0</ele><time>2026-03-28T08:43:15.326Z</time></trkpt><trkpt lat="44.2658814" lon="8.4305108"><ele>17.0</ele><time>2026-03-28T08:43:16.332Z</time></trkpt><trkpt lat="44.265806" lon="8.4304075"><ele>17.0</ele><time>2026-03-28T08:43:17.319Z</time></trkpt><trkpt lat="44.2657224" lon="8.4303176"><ele>17.0</ele><time>2026-03-28T08:43:18.332Z</time></trkpt><trkpt lat="44.2656127" lon="8.4302682"><ele>17.5</ele><time>2026-03-28T08:43:19.323Z</time></trkpt><trkpt lat="44.2654851" lon="8.4302698"><ele>18.0</ele><time>2026-03-28T08:43:20.317Z</time></trkpt><trkpt lat="44.2653559" lon="8.4303076"><ele>18.5</ele><time>2026-03-28T08:43:21.307Z</time></trkpt><trkpt lat="44.2652222" lon="8.4303457"><ele>19.0</ele><time>2026-03-28T08:43:22.319Z</time></trkpt><trkpt lat="44.2650977" lon="8.4303828"><ele>19.0</ele><time>2026-03-28T08:43:23.304Z</time></trkpt><trkpt lat="44.2649752" lon="8.4304064"><ele>19.0</ele><time>2026-03-28T08:43:24.3Z</time></trkpt><trkpt lat="44.2648583" lon="8.430412"><ele>19.0</ele><time>2026-03-28T08:43:25.302Z</time></trkpt><trkpt lat="44.2647537" lon="8.4303648"><ele>19.0</ele><time>2026-03-28T08:43:26.298Z</time></trkpt><trkpt lat="44.2646559" lon="8.4302821"><ele>23.75</ele><time>2026-03-28T08:43:27.302Z</time></trkpt><trkpt lat="44.2645597" lon="8.430196"><ele>28.5</ele><time>2026-03-28T08:43:28.307Z</time></trkpt><trkpt lat="44.2644668" lon="8.4300996"><ele>33.25</ele><time>2026-03-28T08:43:29.296Z</time></trkpt><trkpt lat="44.2643796" lon="8.42999"><ele>38.0</ele><time>2026-03-28T08:43:30.309Z</time></trkpt><trkpt lat="44.2642957" lon="8.4298774"><ele>38.0</ele><time>2026-03-28T08:43:31.317Z</time></trkpt><trkpt lat="44.2642151" lon="8.429772"><ele>38.0</ele><time>2026-03-28T08:43:32.294Z</time></trkpt><trkpt lat="44.2641276" lon="8.4296831"><ele>38.0</ele><time>2026-03-28T08:43:33.313Z</time></trkpt><trkpt lat="44.2640426" lon="8.4296443"><ele>38.0</ele><time>2026-03-28T08:43:34.307Z</time></trkpt><trkpt lat="44.2639592" lon="8.4296676"><ele>38.0</ele><time>2026-03-28T08:43:35.308Z</time></trkpt><trkpt lat="44.2638699" lon="8.4297338"><ele>40.0</ele><time>2026-03-28T08:43:36.303Z</time></trkpt><trkpt lat="44.2637678" lon="8.4297843"><ele>42.0</ele><time>2026-03-28T08:43:37.302Z</time></trkpt><trkpt lat="44.2636726" lon="8.429797"><ele>44.0</ele><time>2026-03-28T08:43:38.313Z</time></trkpt><trkpt lat="44.2635841" lon="8.4297725"><ele>46.0</ele><time>2026-03-28T08:43:39.296Z</time></trkpt><trkpt lat="44.2634985" lon="8.4297332"><ele>48.0</ele><time>2026-03-28T08:43:40.312Z</time></trkpt><trkpt lat="44.2634193" lon="8.4297167"><ele>48.0</ele><time>2026-03-28T08:43:41.305Z</time></trkpt><trkpt lat="44.2633418" lon="8.4297511"><ele>48.0</ele><time>2026-03-28T08:43:42.307Z</time></trkpt><trkpt lat="44.263268" lon="8.4298072"><ele>48.0</ele><time>2026-03-28T08:43:43.302Z</time></trkpt><trkpt lat="44.2631884" lon="8.4298381"><ele>48.0</ele><time>2026-03-28T08:43:44.31Z</time></trkpt><trkpt lat="44.2631066" lon="8.4298504"><ele>48.0</ele><time>2026-03-28T08:43:45.299Z</time></trkpt><trkpt lat="44.2630223" lon="8.4298365"><ele>48.0</ele><time>2026-03-28T08:43:46.307Z</time></trkpt><trkpt lat="44.2629422" lon="8.4297939"><ele>48.833333333333336</ele><time>2026-03-28T08:43:47.305Z</time></trkpt><trkpt lat="44.2628661" lon="8.4297359"><ele>49.66666666666667</ele><time>2026-03-28T08:43:48.312Z</time></trkpt><trkpt lat="44.262808" lon="8.4296635"><ele>50.5</ele><time>2026-03-28T08:43:49.301Z</time></trkpt><trkpt lat="44.2627748" lon="8.4295537"><ele>51.333333333333336</ele><time>2026-03-28T08:43:50.301Z</time></trkpt><trkpt lat="44.2627348" lon="8.429434"><ele>52.16666666666667</ele><time>2026-03-28T08:43:51.304Z</time></trkpt><trkpt lat="44.2626724" lon="8.429351"><ele>53.0</ele><time>2026-03-28T08:43:52.309Z</time></trkpt><trkpt lat="44.2625861" lon="8.4293043"><ele>53.25</ele><time>2026-03-28T08:43:53.305Z</time></trkpt><trkpt lat="44.2624848" lon="8.4292763"><ele>53.5</ele><time>2026-03-28T08:43:54.317Z</time></trkpt><trkpt lat="44.2623709" lon="8.4292507"><ele>53.75</ele><time>2026-03-28T08:43:55.306Z</time></trkpt><trkpt lat="44.2622551" lon="8.4291992"><ele>54.0</ele><time>2026-03-28T08:43:56.307Z</time></trkpt><trkpt lat="44.2621403" lon="8.4291144"><ele>54.0</ele><time>2026-03-28T08:43:57.315Z</time></trkpt><trkpt lat="44.2620172" lon="8.429035"><ele>54.0</ele><time>2026-03-28T08:43:58.317Z</time></trkpt><trkpt lat="44.2618948" lon="8.4289498"><ele>54.0</ele><time>2026-03-28T08:43:59.311Z</time></trkpt><trkpt lat="44.2617762" lon="8.428865"><ele>54.0</ele><time>2026-03-28T08:44:00.319Z</time></trkpt><trkpt lat="44.2616584" lon="8.428804"><ele>53.0</ele><time>2026-03-28T08:44:01.322Z</time></trkpt><trkpt lat="44.2615342" lon="8.4287874"><ele>52.00000000000001</ele><time>2026-03-28T08:44:02.33Z</time></trkpt><trkpt lat="44.2614137" lon="8.4287826"><ele>51.0</ele><time>2026-03-28T08:44:03.314Z</time></trkpt><trkpt lat="44.2613062" lon="8.4287762"><ele>50.0</ele><time>2026-03-28T08:44:04.324Z</time></trkpt><trkpt lat="44.2612215" lon="8.428777"><ele>49.0</ele><time>2026-03-28T08:44:05.317Z</time></trkpt><trkpt lat="44.2611386" lon="8.4287854"><ele>51.400000000000006</ele><time>2026-03-28T08:44:06.326Z</time></trkpt><trkpt lat="44.2610501" lon="8.4288098"><ele>53.8</ele><time>2026-03-28T08:44:07.317Z</time></trkpt><trkpt lat="44.2609555" lon="8.4288466"><ele>56.199999999999996</ele><time>2026-03-28T08:44:08.323Z</time></trkpt><trkpt lat="44.2608648" lon="8.4289074"><ele>58.599999999999994</ele><time>2026-03-28T08:44:09.307Z</time></trkpt><trkpt lat="44.2607803" lon="8.4289402"><ele>61.0</ele><time>2026-03-28T08:44:10.318Z</time></trkpt><trkpt lat="44.2607032" lon="8.4289303"><ele>60.99999999999999</ele><time>2026-03-28T08:44:11.32Z</time></trkpt><trkpt lat="44.2606549" lon="8.4288633"><ele>61.0</ele><time>2026-03-28T08:44:12.32Z</time></trkpt><trkpt lat="44.2606351" lon="8.4287621"><ele>61.0</ele><time>2026-03-28T08:44:13.312Z</time></trkpt><trkpt lat="44.2606159" lon="8.4286421"><ele>61.0</ele><time>2026-03-28T08:44:14.319Z</time></trkpt><trkpt lat="44.2605746" lon="8.4285481"><ele>60.99999999999999</ele><time>2026-03-28T08:44:15.317Z</time></trkpt><trkpt lat="44.2605029" lon="8.4284982"><ele>61.0</ele><time>2026-03-28T08:44:16.327Z</time></trkpt><trkpt lat="44.2604038" lon="8.4285048"><ele>58.4</ele><time>2026-03-28T08:44:17.315Z</time></trkpt><trkpt lat="44.2602984" lon="8.4285319"><ele>55.8</ele><time>2026-03-28T08:44:18.312Z</time></trkpt><trkpt lat="44.2601868" lon="8.4285775"><ele>53.199999999999996</ele><time>2026-03-28T08:44:19.312Z</time></trkpt><trkpt lat="44.2600768" lon="8.4286229"><ele>50.599999999999994</ele><time>2026-03-28T08:44:20.315Z</time></trkpt><trkpt lat="44.2599711" lon="8.4286622"><ele>48.0</ele><time>2026-03-28T08:44:21.312Z</time></trkpt><trkpt lat="44.2598762" lon="8.4287001"><ele>48.0</ele><time>2026-03-28T08:44:22.314Z</time></trkpt><trkpt lat="44.2597933" lon="8.4287412"><ele>48.0</ele><time>2026-03-28T08:44:23.3Z</time></trkpt><trkpt lat="44.2597236" lon="8.4287856"><ele>48.0</ele><time>2026-03-28T08:44:24.308Z</time></trkpt><trkpt lat="44.2596445" lon="8.428886"><ele>48.0</ele><time>2026-03-28T08:44:26.306Z</time></trkpt><trkpt lat="44.2596507" lon="8.4289984"><ele>48.0</ele><time>2026-03-28T08:44:28.328Z</time></trkpt><trkpt lat="44.2597655" lon="8.4290268"><ele>48.0</ele><time>2026-03-28T08:44:30.315Z</time></trkpt><trkpt lat="44.2598544" lon="8.4289861"><ele>48.0</ele><time>2026-03-28T08:44:31.3Z</time></trkpt><trkpt lat="44.25995" lon="8.428915"><ele>48.0</ele><time>2026-03-28T08:44:32.299Z</time></trkpt><trkpt lat="44.2600569" lon="8.4288496"><ele>48.0</ele><time>2026-03-28T08:44:33.321Z</time></trkpt><trkpt lat="44.2601623" lon="8.4288015"><ele>48.0</ele><time>2026-03-28T08:44:34.302Z</time></trkpt><trkpt lat="44.2602581" lon="8.4288194"><ele>51.8</ele><time>2026-03-28T08:44:35.317Z</time></trkpt><trkpt lat="44.260321" lon="8.4288983"><ele>55.599999999999994</ele><time>2026-03-28T08:44:36.307Z</time></trkpt><trkpt lat="44.260358" lon="8.4290071"><ele>59.400000000000006</ele><time>2026-03-28T08:44:37.328Z</time></trkpt><trkpt lat="44.2603749" lon="8.4291501"><ele>63.2</ele><time>2026-03-28T08:44:38.308Z</time></trkpt><trkpt lat="44.2603901" lon="8.4293042"><ele>67.0</ele><time>2026-03-28T08:44:39.31Z</time></trkpt><trkpt lat="44.2604034" lon="8.4294495"><ele>67.0</ele><time>2026-03-28T08:44:40.312Z</time></trkpt><trkpt lat="44.2604237" lon="8.4295812"><ele>67.0</ele><time>2026-03-28T08:44:41.322Z</time></trkpt><trkpt lat="44.2604401" lon="8.4296975"><ele>67.0</ele><time>2026-03-28T08:44:42.31Z</time></trkpt><trkpt lat="44.2604444" lon="8.4297943"><ele>67.0</ele><time>2026-03-28T08:44:43.331Z</time></trkpt><trkpt lat="44.260405" lon="8.4298869"><ele>67.0</ele><time>2026-03-28T08:44:45.327Z</time></trkpt><trkpt lat="44.2603127" lon="8.4298149"><ele>67.0</ele><time>2026-03-28T08:44:47.316Z</time></trkpt><trkpt lat="44.260269" lon="8.4297212"><ele>67.0</ele><time>2026-03-28T08:44:48.311Z</time></trkpt><trkpt lat="44.260239" lon="8.4296018"><ele>67.0</ele><time>2026-03-28T08:44:49.311Z</time></trkpt><trkpt lat="44.2601985" lon="8.4294795"><ele>67.0</ele><time>2026-03-28T08:44:50.313Z</time></trkpt><trkpt lat="44.2601287" lon="8.4293834"><ele>67.0</ele><time>2026-03-28T08:44:51.321Z</time></trkpt><trkpt lat="44.260035" lon="8.4293343"><ele>67.0</ele><time>2026-03-28T08:44:52.316Z</time></trkpt><trkpt lat="44.2599363" lon="8.4293282"><ele>67.0</ele><time>2026-03-28T08:44:53.321Z</time></trkpt><trkpt lat="44.2598358" lon="8.4293726"><ele>67.0</ele><time>2026-03-28T08:44:54.314Z</time></trkpt><trkpt lat="44.2597475" lon="8.4294588"><ele>67.0</ele><time>2026-03-28T08:44:55.306Z</time></trkpt><trkpt lat="44.2596558" lon="8.4295433"><ele>67.0</ele><time>2026-03-28T08:44:56.308Z</time></trkpt><trkpt lat="44.2595655" lon="8.4296365"><ele>67.0</ele><time>2026-03-28T08:44:57.305Z</time></trkpt><trkpt lat="44.2594642" lon="8.4297204"><ele>71.5</ele><time>2026-03-28T08:44:58.306Z</time></trkpt><trkpt lat="44.2593605" lon="8.4297925"><ele>76.0</ele><time>2026-03-28T08:44:59.3Z</time></trkpt><trkpt lat="44.2592462" lon="8.4298241"><ele>80.5</ele><time>2026-03-28T08:45:00.303Z</time></trkpt><trkpt lat="44.2591313" lon="8.4298106"><ele>85.0</ele><time>2026-03-28T08:45:01.304Z</time></trkpt><trkpt lat="44.2590267" lon="8.4298044"><ele>82.5</ele><time>2026-03-28T08:45:02.31Z</time></trkpt><trkpt lat="44.2589268" lon="8.4298493"><ele>80.0</ele><time>2026-03-28T08:45:03.302Z</time></trkpt><trkpt lat="44.2588341" lon="8.4299283"><ele>77.5</ele><time>2026-03-28T08:45:04.319Z</time></trkpt><trkpt lat="44.2587453" lon="8.4300357"><ele>75.0</ele><time>2026-03-28T08:45:05.308Z</time></trkpt><trkpt lat="44.2586479" lon="8.4301445"><ele>75.0</ele><time>2026-03-28T08:45:06.311Z</time></trkpt><trkpt lat="44.2585476" lon="8.4302589"><ele>75.0</ele><time>2026-03-28T08:45:07.304Z</time></trkpt><trkpt lat="44.2584438" lon="8.4303709"><ele>75.0</ele><time>2026-03-28T08:45:08.306Z</time></trkpt><trkpt lat="44.2583298" lon="8.4304875"><ele>75.0</ele><time>2026-03-28T08:45:09.305Z</time></trkpt><trkpt lat="44.2582137" lon="8.4306049"><ele>79.25</ele><time>2026-03-28T08:45:10.307Z</time></trkpt><trkpt lat="44.2581007" lon="8.4307096"><ele>83.5</ele><time>2026-03-28T08:45:11.289Z</time></trkpt><trkpt lat="44.2579816" lon="8.4307888"><ele>87.75</ele><time>2026-03-28T08:45:12.3Z</time></trkpt><trkpt lat="44.257869" lon="8.4308373"><ele>92.0</ele><time>2026-03-28T08:45:13.295Z</time></trkpt><trkpt lat="44.2577554" lon="8.4308902"><ele>92.0</ele><time>2026-03-28T08:45:14.304Z</time></trkpt><trkpt lat="44.2576333" lon="8.4309405"><ele>92.0</ele><time>2026-03-28T08:45:15.294Z</time></trkpt><trkpt lat="44.2574948" lon="8.4309817"><ele>92.0</ele><time>2026-03-28T08:45:16.3Z</time></trkpt><trkpt lat="44.2573534" lon="8.4310176"><ele>92.0</ele><time>2026-03-28T08:45:17.294Z</time></trkpt><trkpt lat="44.2572137" lon="8.4310437"><ele>92.75</ele><time>2026-03-28T08:45:18.3Z</time></trkpt><trkpt lat="44.2570736" lon="8.4310582"><ele>93.5</ele><time>2026-03-28T08:45:19.284Z</time></trkpt><trkpt lat="44.2569418" lon="8.4310287"><ele>94.25</ele><time>2026-03-28T08:45:20.297Z</time></trkpt><trkpt lat="44.2568106" lon="8.4309835"><ele>95.0</ele><time>2026-03-28T08:45:21.289Z</time></trkpt><trkpt lat="44.2566908" lon="8.4309793"><ele>95.0</ele><time>2026-03-28T08:45:22.293Z</time></trkpt><trkpt lat="44.2565707" lon="8.43097"><ele>95.0</ele><time>2026-03-28T08:45:23.295Z</time></trkpt><trkpt lat="44.2564526" lon="8.4309659"><ele>95.0</ele><time>2026-03-28T08:45:24.293Z</time></trkpt><trkpt lat="44.2563444" lon="8.4309679"><ele>95.0</ele><time>2026-03-28T08:45:25.3Z</time></trkpt><trkpt lat="44.2562441" lon="8.4309764"><ele>95.0</ele><time>2026-03-28T08:45:26.294Z</time></trkpt><trkpt lat="44.2561398" lon="8.4309815"><ele>97.0</ele><time>2026-03-28T08:45:27.301Z</time></trkpt><trkpt lat="44.2560405" lon="8.4309709"><ele>99.0</ele><time>2026-03-28T08:45:28.297Z</time></trkpt><trkpt lat="44.2559308" lon="8.4309472"><ele>101.0</ele><time>2026-03-28T08:45:29.296Z</time></trkpt><trkpt lat="44.2558146" lon="8.4309275"><ele>103.0</ele><time>2026-03-28T08:45:30.298Z</time></trkpt><trkpt lat="44.2556941" lon="8.4309195"><ele>105.0</ele><time>2026-03-28T08:45:31.298Z</time></trkpt><trkpt lat="44.2555538" lon="8.4309299"><ele>107.0</ele><time>2026-03-28T08:45:32.296Z</time></trkpt><trkpt lat="44.2554097" lon="8.4309508"><ele>109.0</ele><time>2026-03-28T08:45:33.294Z</time></trkpt><trkpt lat="44.2552725" lon="8.4309653"><ele>111.0</ele><time>2026-03-28T08:45:34.301Z</time></trkpt><trkpt lat="44.255143" lon="8.4309981"><ele>113.0</ele><time>2026-03-28T08:45:35.312Z</time></trkpt><trkpt lat="44.2550194" lon="8.4310512"><ele>113.0</ele><time>2026-03-28T08:45:36.292Z</time></trkpt><trkpt lat="44.254899" lon="8.4310919"><ele>113.00000000000001</ele><time>2026-03-28T08:45:37.297Z</time></trkpt><trkpt lat="44.254788" lon="8.4311385"><ele>113.00000000000001</ele><time>2026-03-28T08:45:38.289Z</time></trkpt><trkpt lat="44.2546934" lon="8.4311964"><ele>113.0</ele><time>2026-03-28T08:45:39.298Z</time></trkpt><trkpt lat="44.2546227" lon="8.4312358"><ele>113.0</ele><time>2026-03-28T08:45:40.293Z</time></trkpt><trkpt lat="44.2545556" lon="8.4312299"><ele>117.0</ele><time>2026-03-28T08:45:41.297Z</time></trkpt><trkpt lat="44.2544914" lon="8.4310746"><ele>121.00000000000001</ele><time>2026-03-28T08:45:43.29Z</time></trkpt><trkpt lat="44.2545024" lon="8.4309424"><ele>125.00000000000001</ele><time>2026-03-28T08:45:44.286Z</time></trkpt><trkpt lat="44.2545368" lon="8.4308038"><ele>129.0</ele><time>2026-03-28T08:45:45.29Z</time></trkpt><trkpt lat="44.2545815" lon="8.4306658"><ele>133.0</ele><time>2026-03-28T08:45:46.291Z</time></trkpt><trkpt lat="44.2546321" lon="8.4305318"><ele>132.8</ele><time>2026-03-28T08:45:47.295Z</time></trkpt><trkpt lat="44.2546785" lon="8.4303985"><ele>132.60000000000002</ele><time>2026-03-28T08:45:48.291Z</time></trkpt><trkpt lat="44.2547213" lon="8.4302573"><ele>132.39999999999998</ele><time>2026-03-28T08:45:49.312Z</time></trkpt><trkpt lat="44.2547564" lon="8.4301068"><ele>132.2</ele><time>2026-03-28T08:45:50.306Z</time></trkpt><trkpt lat="44.2547792" lon="8.4299544"><ele>132.0</ele><time>2026-03-28T08:45:51.316Z</time></trkpt><trkpt lat="44.2547977" lon="8.4298001"><ele>130.5</ele><time>2026-03-28T08:45:52.312Z</time></trkpt><trkpt lat="44.2548168" lon="8.4296433"><ele>129.0</ele><time>2026-03-28T08:45:53.319Z</time></trkpt><trkpt lat="44.2548335" lon="8.4294776"><ele>127.5</ele><time>2026-03-28T08:45:54.308Z</time></trkpt><trkpt lat="44.254864" lon="8.4293182"><ele>126.0</ele><time>2026-03-28T08:45:55.311Z</time></trkpt><trkpt lat="44.254903" lon="8.429174"><ele>126.0</ele><time>2026-03-28T08:45:56.309Z</time></trkpt><trkpt lat="44.2549473" lon="8.4290462"><ele>126.0</ele><time>2026-03-28T08:45:57.317Z</time></trkpt><trkpt lat="44.2549965" lon="8.4289318"><ele>126.0</ele><time>2026-03-28T08:45:58.316Z</time></trkpt><trkpt lat="44.2550601" lon="8.4288271"><ele>126.0</ele><time>2026-03-28T08:45:59.315Z</time></trkpt><trkpt lat="44.2551346" lon="8.4287411"><ele>126.0</ele><time>2026-03-28T08:46:00.316Z</time></trkpt><trkpt lat="44.2551976" lon="8.428651"><ele>124.83333333333333</ele><time>2026-03-28T08:46:01.302Z</time></trkpt><trkpt lat="44.2552486" lon="8.4285549"><ele>123.66666666666666</ele><time>2026-03-28T08:46:02.326Z</time></trkpt><trkpt lat="44.2552562" lon="8.4284636"><ele>122.5</ele><time>2026-03-28T08:46:03.322Z</time></trkpt><trkpt lat="44.2551987" lon="8.4283928"><ele>121.33333333333333</ele><time>2026-03-28T08:46:04.327Z</time></trkpt><trkpt lat="44.2551048" lon="8.4283503"><ele>120.16666666666666</ele><time>2026-03-28T08:46:05.327Z</time></trkpt><trkpt lat="44.2549861" lon="8.4283462"><ele>119.0</ele><time>2026-03-28T08:46:06.345Z</time></trkpt><trkpt lat="44.2548539" lon="8.4283699"><ele>117.5</ele><time>2026-03-28T08:46:07.309Z</time></trkpt><trkpt lat="44.25472" lon="8.4284043"><ele>116.0</ele><time>2026-03-28T08:46:08.323Z</time></trkpt><trkpt lat="44.2545817" lon="8.428442"><ele>114.5</ele><time>2026-03-28T08:46:09.309Z</time></trkpt><trkpt lat="44.2544438" lon="8.4284781"><ele>113.0</ele><time>2026-03-28T08:46:10.315Z</time></trkpt><trkpt lat="44.2543167" lon="8.4285308"><ele>113.0</ele><time>2026-03-28T08:46:11.315Z</time></trkpt><trkpt lat="44.2542109" lon="8.4286208"><ele>113.0</ele><time>2026-03-28T08:46:12.322Z</time></trkpt><trkpt lat="44.2541313" lon="8.4287315"><ele>113.0</ele><time>2026-03-28T08:46:13.305Z</time></trkpt><trkpt lat="44.254081" lon="8.4288703"><ele>113.0</ele><time>2026-03-28T08:46:14.309Z</time></trkpt><trkpt lat="44.2540554" lon="8.4290274"><ele>117.25</ele><time>2026-03-28T08:46:15.302Z</time></trkpt><trkpt lat="44.254038" lon="8.4291951"><ele>121.5</ele><time>2026-03-28T08:46:16.308Z</time></trkpt><trkpt lat="44.2540178" lon="8.4293777"><ele>125.75</ele><time>2026-03-28T08:46:17.3Z</time></trkpt><trkpt lat="44.2539886" lon="8.429573"><ele>130.0</ele><time>2026-03-28T08:46:18.302Z</time></trkpt><trkpt lat="44.2539548" lon="8.4297653"><ele>130.0</ele><time>2026-03-28T08:46:19.308Z</time></trkpt><trkpt lat="44.2539172" lon="8.4299486"><ele>130.0</ele><time>2026-03-28T08:46:20.304Z</time></trkpt><trkpt lat="44.2538772" lon="8.4301155"><ele>130.0</ele><time>2026-03-28T08:46:21.302Z</time></trkpt><trkpt lat="44.2538246" lon="8.4302565"><ele>130.0</ele><time>2026-03-28T08:46:22.312Z</time></trkpt><trkpt lat="44.2537611" lon="8.4303854"><ele>134.75</ele><time>2026-03-28T08:46:23.304Z</time></trkpt><trkpt lat="44.2536895" lon="8.430504"><ele>139.5</ele><time>2026-03-28T08:46:24.307Z</time></trkpt><trkpt lat="44.2535991" lon="8.4306157"><ele>144.25</ele><time>2026-03-28T08:46:25.299Z</time></trkpt><trkpt lat="44.2534956" lon="8.4307083"><ele>149.0</ele><time>2026-03-28T08:46:26.305Z</time></trkpt><trkpt lat="44.2533901" lon="8.4307799"><ele>149.0</ele><time>2026-03-28T08:46:27.304Z</time></trkpt><trkpt lat="44.2532728" lon="8.4308144"><ele>149.0</ele><time>2026-03-28T08:46:28.313Z</time></trkpt><trkpt lat="44.2531438" lon="8.4308084"><ele>149.0</ele><time>2026-03-28T08:46:29.293Z</time></trkpt><trkpt lat="44.2530002" lon="8.4307853"><ele>149.0</ele><time>2026-03-28T08:46:30.3Z</time></trkpt><trkpt lat="44.252852" lon="8.4307603"><ele>151.66666666666666</ele><time>2026-03-28T08:46:31.295Z</time></trkpt><trkpt lat="44.2526926" lon="8.4307266"><ele>154.33333333333334</ele><time>2026-03-28T08:46:32.298Z</time></trkpt><trkpt lat="44.2525353" lon="8.4307009"><ele>157.0</ele><time>2026-03-28T08:46:33.292Z</time></trkpt><trkpt lat="44.2523909" lon="8.4306728"><ele>162.25</ele><time>2026-03-28T08:46:34.298Z</time></trkpt><trkpt lat="44.2522519" lon="8.4306448"><ele>167.5</ele><time>2026-03-28T08:46:35.298Z</time></trkpt><trkpt lat="44.2521273" lon="8.4306224"><ele>172.75</ele><time>2026-03-28T08:46:36.301Z</time></trkpt><trkpt lat="44.252017" lon="8.4306073"><ele>178.0</ele><time>2026-03-28T08:46:37.319Z</time></trkpt><trkpt lat="44.251922" lon="8.4305834"><ele>178.0</ele><time>2026-03-28T08:46:38.304Z</time></trkpt><trkpt lat="44.2518426" lon="8.4305239"><ele>178.0</ele><time>2026-03-28T08:46:39.306Z</time></trkpt><trkpt lat="44.2517945" lon="8.4304235"><ele>178.0</ele><time>2026-03-28T08:46:40.301Z</time></trkpt><trkpt lat="44.2517856" lon="8.430291"><ele>178.0</ele><time>2026-03-28T08:46:41.301Z</time></trkpt><trkpt lat="44.2517893" lon="8.4301398"><ele>178.0</ele><time>2026-03-28T08:46:42.301Z</time></trkpt><trkpt lat="44.2517779" lon="8.4299972"><ele>175.4</ele><time>2026-03-28T08:46:43.305Z</time></trkpt><trkpt lat="44.25173" lon="8.4298832"><ele>172.8</ele><time>2026-03-28T08:46:44.304Z</time></trkpt><trkpt lat="44.251646" lon="8.4297997"><ele>170.2</ele><time>2026-03-28T08:46:45.303Z</time></trkpt><trkpt lat="44.2515817" lon="8.4296961"><ele>167.6</ele><time>2026-03-28T08:46:46.31Z</time></trkpt><trkpt lat="44.2515546" lon="8.4295811"><ele>165.0</ele><time>2026-03-28T08:46:47.292Z</time></trkpt><trkpt lat="44.2515454" lon="8.4294674"><ele>162.0</ele><time>2026-03-28T08:46:48.307Z</time></trkpt><trkpt lat="44.2515315" lon="8.4293617"><ele>159.0</ele><time>2026-03-28T08:46:49.307Z</time></trkpt><trkpt lat="44.2514937" lon="8.429256"><ele>156.0</ele><time>2026-03-28T08:46:50.306Z</time></trkpt><trkpt lat="44.2514367" lon="8.4291545"><ele>153.0</ele><time>2026-03-28T08:46:51.311Z</time></trkpt><trkpt lat="44.2513728" lon="8.4290575"><ele>150.0</ele><time>2026-03-28T08:46:52.311Z</time></trkpt><trkpt lat="44.2513022" lon="8.4289463"><ele>151.8</ele><time>2026-03-28T08:46:53.305Z</time></trkpt><trkpt lat="44.2512383" lon="8.4288394"><ele>153.6</ele><time>2026-03-28T08:46:54.312Z</time></trkpt><trkpt lat="44.2511669" lon="8.4287479"><ele>155.4</ele><time>2026-03-28T08:46:55.302Z</time></trkpt><trkpt lat="44.2510932" lon="8.4286709"><ele>157.2</ele><time>2026-03-28T08:46:56.317Z</time></trkpt><trkpt lat="44.2510116" lon="8.4286148"><ele>159.0</ele><time>2026-03-28T08:46:57.312Z</time></trkpt><trkpt lat="44.2509159" lon="8.4285817"><ele>159.0</ele><time>2026-03-28T08:46:58.312Z</time></trkpt><trkpt lat="44.2508182" lon="8.4285513"><ele>159.0</ele><time>2026-03-28T08:46:59.308Z</time></trkpt><trkpt lat="44.2507188" lon="8.4285249"><ele>159.0</ele><time>2026-03-28T08:47:00.31Z</time></trkpt><trkpt lat="44.2506164" lon="8.4284932"><ele>159.0</ele><time>2026-03-28T08:47:01.3Z</time></trkpt><trkpt lat="44.25052" lon="8.4284671"><ele>159.0</ele><time>2026-03-28T08:47:02.308Z</time></trkpt><trkpt lat="44.2504195" lon="8.4284381"><ele>163.75</ele><time>2026-03-28T08:47:03.307Z</time></trkpt><trkpt lat="44.2503069" lon="8.4284085"><ele>168.5</ele><time>2026-03-28T08:47:04.306Z</time></trkpt><trkpt lat="44.2501865" lon="8.4283425"><ele>173.25</ele><time>2026-03-28T08:47:05.307Z</time></trkpt><trkpt lat="44.2500646" lon="8.4282575"><ele>178.0</ele><time>2026-03-28T08:47:06.308Z</time></trkpt><trkpt lat="44.2499431" lon="8.4281795"><ele>178.0</ele><time>2026-03-28T08:47:07.303Z</time></trkpt><trkpt lat="44.2498225" lon="8.4281142"><ele>178.0</ele><time>2026-03-28T08:47:08.323Z</time></trkpt><trkpt lat="44.2497062" lon="8.4280351"><ele>178.0</ele><time>2026-03-28T08:47:09.3Z</time></trkpt><trkpt lat="44.2495864" lon="8.427944"><ele>178.0</ele><time>2026-03-28T08:47:10.307Z</time></trkpt><trkpt lat="44.2494739" lon="8.4278443"><ele>178.75</ele><time>2026-03-28T08:47:11.295Z</time></trkpt><trkpt lat="44.2493697" lon="8.4277485"><ele>179.5</ele><time>2026-03-28T08:47:12.306Z</time></trkpt><trkpt lat="44.2492779" lon="8.4276464"><ele>180.25</ele><time>2026-03-28T08:47:13.296Z</time></trkpt><trkpt lat="44.2491947" lon="8.4275455"><ele>181.0</ele><time>2026-03-28T08:47:14.306Z</time></trkpt><trkpt lat="44.2491295" lon="8.4274249"><ele>181.0</ele><time>2026-03-28T08:47:15.301Z</time></trkpt><trkpt lat="44.2490868" lon="8.4272962"><ele>181.0</ele><time>2026-03-28T08:47:16.303Z</time></trkpt><trkpt lat="44.2490662" lon="8.4271747"><ele>181.0</ele><time>2026-03-28T08:47:17.298Z</time></trkpt><trkpt lat="44.2490517" lon="8.427068"><ele>181.0</ele><time>2026-03-28T08:47:18.309Z</time></trkpt><trkpt lat="44.2490008" lon="8.4269375"><ele>181.0</ele><time>2026-03-28T08:47:20.308Z</time></trkpt><trkpt lat="44.2489178" lon="8.4269638"><ele>181.0</ele><time>2026-03-28T08:47:22.312Z</time></trkpt><trkpt lat="44.2488846" lon="8.4270465"><ele>181.0</ele><time>2026-03-28T08:47:23.311Z</time></trkpt><trkpt lat="44.2488677" lon="8.4271535"><ele>181.0</ele><time>2026-03-28T08:47:24.299Z</time></trkpt><trkpt lat="44.2488759" lon="8.4272704"><ele>181.0</ele><time>2026-03-28T08:47:25.316Z</time></trkpt><trkpt lat="44.2489037" lon="8.4274078"><ele>181.0</ele><time>2026-03-28T08:47:26.311Z</time></trkpt><trkpt lat="44.2489609" lon="8.4275694"><ele>181.0</ele><time>2026-03-28T08:47:27.307Z</time></trkpt><trkpt lat="44.2490251" lon="8.4277314"><ele>181.0</ele><time>2026-03-28T08:47:28.311Z</time></trkpt><trkpt lat="44.2490905" lon="8.4278968"><ele>181.0</ele><time>2026-03-28T08:47:29.307Z</time></trkpt><trkpt lat="44.2491556" lon="8.428062"><ele>181.0</ele><time>2026-03-28T08:47:30.303Z</time></trkpt><trkpt lat="44.24922" lon="8.4282241"><ele>183.60000000000002</ele><time>2026-03-28T08:47:31.303Z</time></trkpt><trkpt lat="44.2492778" lon="8.4283765"><ele>186.2</ele><time>2026-03-28T08:47:32.301Z</time></trkpt><trkpt lat="44.2493403" lon="8.42851"><ele>188.8</ele><time>2026-03-28T08:47:33.305Z</time></trkpt><trkpt lat="44.2494114" lon="8.4286071"><ele>191.39999999999998</ele><time>2026-03-28T08:47:34.305Z</time></trkpt><trkpt lat="44.2494984" lon="8.4286596"><ele>194.0</ele><time>2026-03-28T08:47:35.303Z</time></trkpt><trkpt lat="44.2495843" lon="8.4286832"><ele>194.0</ele><time>2026-03-28T08:47:36.304Z</time></trkpt><trkpt lat="44.2496595" lon="8.4286917"><ele>194.0</ele><time>2026-03-28T08:47:37.306Z</time></trkpt><trkpt lat="44.2497428" lon="8.4287418"><ele>194.0</ele><time>2026-03-28T08:47:39.324Z</time></trkpt><trkpt lat="44.2497037" lon="8.4288363"><ele>194.0</ele><time>2026-03-28T08:47:41.308Z</time></trkpt><trkpt lat="44.2495727" lon="8.428866"><ele>194.0</ele><time>2026-03-28T08:47:43.308Z</time></trkpt><trkpt lat="44.2494772" lon="8.428836"><ele>194.0</ele><time>2026-03-28T08:47:44.308Z</time></trkpt><trkpt lat="44.2493574" lon="8.4287781"><ele>194.0</ele><time>2026-03-28T08:47:45.306Z</time></trkpt><trkpt lat="44.2492268" lon="8.4286833"><ele>194.0</ele><time>2026-03-28T08:47:46.311Z</time></trkpt><trkpt lat="44.2491077" lon="8.4285461"><ele>194.0</ele><time>2026-03-28T08:47:47.305Z</time></trkpt><trkpt lat="44.2490118" lon="8.4283742"><ele>194.33333333333334</ele><time>2026-03-28T08:47:48.306Z</time></trkpt><trkpt lat="44.2489123" lon="8.4281912"><ele>194.66666666666669</ele><time>2026-03-28T08:47:49.308Z</time></trkpt><trkpt lat="44.2488091" lon="8.4280188"><ele>195.0</ele><time>2026-03-28T08:47:50.301Z</time></trkpt><trkpt lat="44.2487314" lon="8.427868"><ele>195.0</ele><time>2026-03-28T08:47:51.306Z</time></trkpt><trkpt lat="44.2486676" lon="8.4277556"><ele>195.0</ele><time>2026-03-28T08:47:52.314Z</time></trkpt><trkpt lat="44.2485838" lon="8.4276554"><ele>195.0</ele><time>2026-03-28T08:47:54.316Z</time></trkpt><trkpt lat="44.2484964" lon="8.4277351"><ele>195.0</ele><time>2026-03-28T08:47:56.309Z</time></trkpt><trkpt lat="44.2484648" lon="8.427829"><ele>195.0</ele><time>2026-03-28T08:47:57.314Z</time></trkpt><trkpt lat="44.2484694" lon="8.4279412"><ele>201.0</ele><time>2026-03-28T08:47:58.316Z</time></trkpt><trkpt lat="44.2485153" lon="8.4280766"><ele>207.0</ele><time>2026-03-28T08:47:59.314Z</time></trkpt><trkpt lat="44.2485848" lon="8.4282523"><ele>213.0</ele><time>2026-03-28T08:48:00.31Z</time></trkpt><trkpt lat="44.2486609" lon="8.4284282"><ele>219.0</ele><time>2026-03-28T08:48:01.304Z</time></trkpt><trkpt lat="44.2487448" lon="8.4286011"><ele>219.0</ele><time>2026-03-28T08:48:02.307Z</time></trkpt><trkpt lat="44.2488465" lon="8.4287569"><ele>219.0</ele><time>2026-03-28T08:48:03.301Z</time></trkpt><trkpt lat="44.2489622" lon="8.4289146"><ele>219.0</ele><time>2026-03-28T08:48:04.304Z</time></trkpt><trkpt lat="44.2490895" lon="8.4290786"><ele>217.75</ele><time>2026-03-28T08:48:05.295Z</time></trkpt><trkpt lat="44.2491901" lon="8.4292176"><ele>216.5</ele><time>2026-03-28T08:48:06.303Z</time></trkpt><trkpt lat="44.2492858" lon="8.4293143"><ele>215.25</ele><time>2026-03-28T08:48:07.305Z</time></trkpt><trkpt lat="44.2493989" lon="8.4293663"><ele>214.0</ele><time>2026-03-28T08:48:08.297Z</time></trkpt><trkpt lat="44.2495311" lon="8.429375"><ele>214.0</ele><time>2026-03-28T08:48:09.311Z</time></trkpt><trkpt lat="44.2496633" lon="8.4293592"><ele>214.0</ele><time>2026-03-28T08:48:10.309Z</time></trkpt><trkpt lat="44.2498048" lon="8.4293913"><ele>214.0</ele><time>2026-03-28T08:48:11.304Z</time></trkpt><trkpt lat="44.2499308" lon="8.4294184"><ele>214.0</ele><time>2026-03-28T08:48:12.301Z</time></trkpt><trkpt lat="44.250035" lon="8.4294635"><ele>211.75</ele><time>2026-03-28T08:48:13.306Z</time></trkpt><trkpt lat="44.2501333" lon="8.4295174"><ele>209.5</ele><time>2026-03-28T08:48:14.313Z</time></trkpt><trkpt lat="44.2502287" lon="8.429622"><ele>207.25</ele><time>2026-03-28T08:48:15.308Z</time></trkpt><trkpt lat="44.2503221" lon="8.429737"><ele>205.0</ele><time>2026-03-28T08:48:16.317Z</time></trkpt><trkpt lat="44.250401" lon="8.4298721"><ele>212.0</ele><time>2026-03-28T08:48:17.319Z</time></trkpt><trkpt lat="44.2504431" lon="8.4300195"><ele>219.0</ele><time>2026-03-28T08:48:18.321Z</time></trkpt><trkpt lat="44.2504754" lon="8.4302046"><ele>226.0</ele><time>2026-03-28T08:48:19.308Z</time></trkpt><trkpt lat="44.2505053" lon="8.4304002"><ele>233.0</ele><time>2026-03-28T08:48:20.312Z</time></trkpt><trkpt lat="44.2505389" lon="8.4306019"><ele>230.2</ele><time>2026-03-28T08:48:21.308Z</time></trkpt><trkpt lat="44.2505825" lon="8.4307837"><ele>227.4</ele><time>2026-03-28T08:48:22.311Z</time></trkpt><trkpt lat="44.2506312" lon="8.4309378"><ele>224.59999999999997</ele><time>2026-03-28T08:48:23.305Z</time></trkpt><trkpt lat="44.2506615" lon="8.4310573"><ele>221.79999999999998</ele><time>2026-03-28T08:48:24.305Z</time></trkpt><trkpt lat="44.2506823" lon="8.4311703"><ele>219.0</ele><time>2026-03-28T08:48:25.3Z</time></trkpt><trkpt lat="44.2506716" lon="8.4312674"><ele>220.5</ele><time>2026-03-28T08:48:26.31Z</time></trkpt><trkpt lat="44.250651" lon="8.4313511"><ele>222.0</ele><time>2026-03-28T08:48:27.305Z</time></trkpt><trkpt lat="44.2506438" lon="8.4314424"><ele>223.5</ele><time>2026-03-28T08:48:28.308Z</time></trkpt><trkpt lat="44.2506468" lon="8.4315578"><ele>225.0</ele><time>2026-03-28T08:48:30.316Z</time></trkpt><trkpt lat="44.2506434" lon="8.4316723"><ele>226.5</ele><time>2026-03-28T08:48:32.311Z</time></trkpt><trkpt lat="44.2505765" lon="8.4315525"><ele>228.0</ele><time>2026-03-28T08:48:35.309Z</time></trkpt><trkpt lat="44.2505744" lon="8.4314171"><ele>232.60000000000002</ele><time>2026-03-28T08:48:36.309Z</time></trkpt><trkpt lat="44.2505705" lon="8.4312731"><ele>237.20000000000002</ele><time>2026-03-28T08:48:37.303Z</time></trkpt><trkpt lat="44.2505523" lon="8.4311281"><ele>241.8</ele><time>2026-03-28T08:48:38.308Z</time></trkpt><trkpt lat="44.2505174" lon="8.4310027"><ele>246.4</ele><time>2026-03-28T08:48:39.308Z</time></trkpt><trkpt lat="44.2504661" lon="8.4309016"><ele>251.0</ele><time>2026-03-28T08:48:40.311Z</time></trkpt><trkpt lat="44.2503984" lon="8.4308118"><ele>251.00000000000003</ele><time>2026-03-28T08:48:41.333Z</time></trkpt><trkpt lat="44.2503332" lon="8.4307248"><ele>251.0</ele><time>2026-03-28T08:48:42.305Z</time></trkpt><trkpt lat="44.2502762" lon="8.4306474"><ele>251.0</ele><time>2026-03-28T08:48:43.312Z</time></trkpt><trkpt lat="44.2502249" lon="8.4305747"><ele>251.0</ele><time>2026-03-28T08:48:44.306Z</time></trkpt><trkpt lat="44.2501709" lon="8.4304918"><ele>251.00000000000003</ele><time>2026-03-28T08:48:45.308Z</time></trkpt><trkpt lat="44.2501121" lon="8.4304084"><ele>251.0</ele><time>2026-03-28T08:48:46.303Z</time></trkpt><trkpt lat="44.250058" lon="8.430323"><ele>250.4285714285714</ele><time>2026-03-28T08:48:47.308Z</time></trkpt><trkpt lat="44.2500141" lon="8.4302428"><ele>249.85714285714283</ele><time>2026-03-28T08:48:48.299Z</time></trkpt><trkpt lat="44.2499719" lon="8.4301681"><ele>249.28571428571428</ele><time>2026-03-28T08:48:49.309Z</time></trkpt><trkpt lat="44.2499223" lon="8.4300962"><ele>248.7142857142857</ele><time>2026-03-28T08:48:50.306Z</time></trkpt><trkpt lat="44.2498726" lon="8.430015"><ele>248.1428571428571</ele><time>2026-03-28T08:48:51.309Z</time></trkpt><trkpt lat="44.2498195" lon="8.4299335"><ele>247.57142857142858</ele><time>2026-03-28T08:48:52.301Z</time></trkpt><trkpt lat="44.2497653" lon="8.4298508"><ele>247.0</ele><time>2026-03-28T08:48:53.313Z</time></trkpt><trkpt lat="44.2497054" lon="8.4297806"><ele>246.99999999999997</ele><time>2026-03-28T08:48:54.31Z</time></trkpt><trkpt lat="44.2496396" lon="8.4297235"><ele>247.0</ele><time>2026-03-28T08:48:55.316Z</time></trkpt><trkpt lat="44.2495623" lon="8.4296892"><ele>247.0</ele><time>2026-03-28T08:48:56.31Z</time></trkpt><trkpt lat="44.2494715" lon="8.4296769"><ele>247.0</ele><time>2026-03-28T08:48:57.313Z</time></trkpt><trkpt lat="44.2493761" lon="8.4296925"><ele>246.99999999999997</ele><time>2026-03-28T08:48:58.309Z</time></trkpt><trkpt lat="44.2492792" lon="8.4297021"><ele>247.0</ele><time>2026-03-28T08:48:59.312Z</time></trkpt><trkpt lat="44.2491964" lon="8.4297169"><ele>247.0</ele><time>2026-03-28T08:49:00.299Z</time></trkpt><trkpt lat="44.249118" lon="8.4297163"><ele>247.0</ele><time>2026-03-28T08:49:01.303Z</time></trkpt><trkpt lat="44.2490323" lon="8.4297064"><ele>247.0</ele><time>2026-03-28T08:49:02.307Z</time></trkpt><trkpt lat="44.2489316" lon="8.4296956"><ele>247.0</ele><time>2026-03-28T08:49:03.304Z</time></trkpt><trkpt lat="44.2488257" lon="8.4296877"><ele>247.0</ele><time>2026-03-28T08:49:04.306Z</time></trkpt><trkpt lat="44.2487149" lon="8.4296628"><ele>245.0</ele><time>2026-03-28T08:49:05.304Z</time></trkpt><trkpt lat="44.248604" lon="8.4296408"><ele>243.0</ele><time>2026-03-28T08:49:06.308Z</time></trkpt><trkpt lat="44.2484993" lon="8.4296217"><ele>241.0</ele><time>2026-03-28T08:49:07.306Z</time></trkpt><trkpt lat="44.2483987" lon="8.4296174"><ele>239.0</ele><time>2026-03-28T08:49:08.31Z</time></trkpt><trkpt lat="44.248298" lon="8.4296099"><ele>237.0</ele><time>2026-03-28T08:49:09.304Z</time></trkpt><trkpt lat="44.2482037" lon="8.4295993"><ele>239.6</ele><time>2026-03-28T08:49:10.307Z</time></trkpt><trkpt lat="44.2481126" lon="8.4295698"><ele>242.2</ele><time>2026-03-28T08:49:11.316Z</time></trkpt><trkpt lat="44.2480251" lon="8.4295231"><ele>244.8</ele><time>2026-03-28T08:49:12.305Z</time></trkpt><trkpt lat="44.247948" lon="8.429448"><ele>247.4</ele><time>2026-03-28T08:49:13.309Z</time></trkpt><trkpt lat="44.2478798" lon="8.4293487"><ele>250.0</ele><time>2026-03-28T08:49:14.308Z</time></trkpt><trkpt lat="44.2478174" lon="8.4292438"><ele>250.0</ele><time>2026-03-28T08:49:15.316Z</time></trkpt><trkpt lat="44.247762" lon="8.4291354"><ele>250.0</ele><time>2026-03-28T08:49:16.314Z</time></trkpt><trkpt lat="44.2477038" lon="8.4290258"><ele>250.0</ele><time>2026-03-28T08:49:17.314Z</time></trkpt><trkpt lat="44.2476367" lon="8.4289359"><ele>250.0</ele><time>2026-03-28T08:49:18.318Z</time></trkpt><trkpt lat="44.2475571" lon="8.4288744"><ele>250.0</ele><time>2026-03-28T08:49:19.308Z</time></trkpt><trkpt lat="44.2474658" lon="8.4288371"><ele>250.0</ele><time>2026-03-28T08:49:20.319Z</time></trkpt><trkpt lat="44.2473794" lon="8.4288196"><ele>250.0</ele><time>2026-03-28T08:49:21.31Z</time></trkpt><trkpt lat="44.2472972" lon="8.4288101"><ele>250.0</ele><time>2026-03-28T08:49:22.319Z</time></trkpt><trkpt lat="44.2472258" lon="8.4288038"><ele>250.0</ele><time>2026-03-28T08:49:23.313Z</time></trkpt><trkpt lat="44.2471121" lon="8.4287854"><ele>250.0</ele><time>2026-03-28T08:49:25.308Z</time></trkpt><trkpt lat="44.2470178" lon="8.4287838"><ele>248.83333333333331</ele><time>2026-03-28T08:49:27.314Z</time></trkpt><trkpt lat="44.246926" lon="8.4287776"><ele>247.66666666666666</ele><time>2026-03-28T08:49:29.31Z</time></trkpt><trkpt lat="44.2468248" lon="8.4287836"><ele>246.5</ele><time>2026-03-28T08:49:31.314Z</time></trkpt><trkpt lat="44.2467426" lon="8.4287814"><ele>245.33333333333331</ele><time>2026-03-28T08:49:33.313Z</time></trkpt><trkpt lat="44.2466795" lon="8.4287692"><ele>244.16666666666666</ele><time>2026-03-28T08:49:44.32Z</time></trkpt><trkpt lat="44.2466075" lon="8.4287775"><ele>243.0</ele><time>2026-03-28T08:49:47.32Z</time></trkpt><trkpt lat="44.246518" lon="8.428777"><ele>245.83333333333334</ele><time>2026-03-28T08:49:50.318Z</time></trkpt><trkpt lat="44.2464427" lon="8.428768"><ele>248.66666666666669</ele><time>2026-03-28T08:49:52.32Z</time></trkpt><trkpt lat="44.2463627" lon="8.4287531"><ele>251.5</ele><time>2026-03-28T08:49:54.309Z</time></trkpt><trkpt lat="44.2462721" lon="8.4287288"><ele>254.33333333333334</ele><time>2026-03-28T08:49:56.308Z</time></trkpt><trkpt lat="44.2461789" lon="8.4287365"><ele>257.1666666666667</ele><time>2026-03-28T08:49:58.317Z</time></trkpt><trkpt lat="44.2460808" lon="8.4287566"><ele>260.0</ele><time>2026-03-28T08:50:00.31Z</time></trkpt><trkpt lat="44.2459865" lon="8.4287526"><ele>260.0</ele><time>2026-03-28T08:50:02.321Z</time></trkpt><trkpt lat="44.2459101" lon="8.428717"><ele>260.0</ele><time>2026-03-28T08:50:04.324Z</time></trkpt><trkpt lat="44.2458529" lon="8.4286329"><ele>260.0</ele><time>2026-03-28T08:50:06.325Z</time></trkpt><trkpt lat="44.2458807" lon="8.4285144"><ele>260.0</ele><time>2026-03-28T08:50:08.319Z</time></trkpt><trkpt lat="44.245942" lon="8.4284225"><ele>260.0</ele><time>2026-03-28T08:50:10.317Z</time></trkpt><trkpt lat="44.2460097" lon="8.4283424"><ele>260.0</ele><time>2026-03-28T08:50:12.319Z</time></trkpt><trkpt lat="44.2460909" lon="8.4282426"><ele>260.0</ele><time>2026-03-28T08:50:14.315Z</time></trkpt><trkpt lat="44.246142" lon="8.4281311"><ele>260.0</ele><time>2026-03-28T08:50:16.321Z</time></trkpt><trkpt lat="44.2461595" lon="8.428019"><ele>260.0</ele><time>2026-03-28T08:50:18.319Z</time></trkpt><trkpt lat="44.24613" lon="8.4279031"><ele>260.0</ele><time>2026-03-28T08:50:20.325Z</time></trkpt><trkpt lat="44.2460724" lon="8.4277878"><ele>260.0</ele><time>2026-03-28T08:50:22.315Z</time></trkpt><trkpt lat="44.2459969" lon="8.4276592"><ele>261.5</ele><time>2026-03-28T08:50:24.317Z</time></trkpt><trkpt lat="44.2458988" lon="8.4275584"><ele>263.0</ele><time>2026-03-28T08:50:26.321Z</time></trkpt><trkpt lat="44.2457917" lon="8.4274946"><ele>264.5</ele><time>2026-03-28T08:50:28.328Z</time></trkpt><trkpt lat="44.2456883" lon="8.4274598"><ele>266.0</ele><time>2026-03-28T08:50:30.32Z</time></trkpt><trkpt lat="44.2455749" lon="8.4274416"><ele>266.6</ele><time>2026-03-28T08:50:32.326Z</time></trkpt><trkpt lat="44.2454729" lon="8.4273971"><ele>267.20000000000005</ele><time>2026-03-28T08:50:34.325Z</time></trkpt><trkpt lat="44.2453796" lon="8.4273235"><ele>267.79999999999995</ele><time>2026-03-28T08:50:36.33Z</time></trkpt><trkpt lat="44.2452923" lon="8.4272314"><ele>268.4</ele><time>2026-03-28T08:50:38.334Z</time></trkpt><trkpt lat="44.2452103" lon="8.4271669"><ele>269.0</ele><time>2026-03-28T08:50:40.338Z</time></trkpt><trkpt lat="44.2451558" lon="8.4270454"><ele>270.59999999999997</ele><time>2026-03-28T08:50:42.335Z</time></trkpt><trkpt lat="44.2451415" lon="8.4268989"><ele>272.2</ele><time>2026-03-28T08:50:44.356Z</time></trkpt><trkpt lat="44.2451259" lon="8.4267392"><ele>273.79999999999995</ele><time>2026-03-28T08:50:46.336Z</time></trkpt><trkpt lat="44.2450708" lon="8.4265835"><ele>275.4</ele><time>2026-03-28T08:50:48.337Z</time></trkpt><trkpt lat="44.2450401" lon="8.4264945"><ele>277.0</ele><time>2026-03-28T08:50:49.337Z</time></trkpt><trkpt lat="44.2450183" lon="8.4264057"><ele>277.8</ele><time>2026-03-28T08:50:50.338Z</time></trkpt><trkpt lat="44.2449754" lon="8.4262585"><ele>278.6</ele><time>2026-03-28T08:50:52.338Z</time></trkpt><trkpt lat="44.2449365" lon="8.4261368"><ele>279.40000000000003</ele><time>2026-03-28T08:50:54.338Z</time></trkpt><trkpt lat="44.2448744" lon="8.4260455"><ele>280.2</ele><time>2026-03-28T08:50:56.333Z</time></trkpt><trkpt lat="44.244786" lon="8.425967"><ele>281.0</ele><time>2026-03-28T08:50:58.342Z</time></trkpt><trkpt lat="44.2447188" lon="8.425882"><ele>281.0</ele><time>2026-03-28T08:51:00.34Z</time></trkpt><trkpt lat="44.2446812" lon="8.4257577"><ele>281.0</ele><time>2026-03-28T08:51:02.336Z</time></trkpt><trkpt lat="44.24468" lon="8.4256337"><ele>281.0</ele><time>2026-03-28T08:51:04.34Z</time></trkpt><trkpt lat="44.2446952" lon="8.4255421"><ele>281.0</ele><time>2026-03-28T08:51:06.338Z</time></trkpt><trkpt lat="44.2447028" lon="8.4253887"><ele>281.0</ele><time>2026-03-28T08:51:20.326Z</time></trkpt><trkpt lat="44.2447041" lon="8.4252038"><ele>282.0</ele><time>2026-03-28T08:51:22.332Z</time></trkpt><trkpt lat="44.2447089" lon="8.4250837"><ele>283.0</ele><time>2026-03-28T08:51:23.332Z</time></trkpt><trkpt lat="44.244711" lon="8.4249599"><ele>284.0</ele><time>2026-03-28T08:51:24.336Z</time></trkpt><trkpt lat="44.2447084" lon="8.4248377"><ele>285.0</ele><time>2026-03-28T08:51:25.337Z</time></trkpt><trkpt lat="44.2447033" lon="8.4247142"><ele>286.0</ele><time>2026-03-28T08:51:26.333Z</time></trkpt><trkpt lat="44.2446954" lon="8.424596"><ele>287.0</ele><time>2026-03-28T08:51:27.339Z</time></trkpt><trkpt lat="44.244687" lon="8.4244889"><ele>289.33333333333337</ele><time>2026-03-28T08:51:28.335Z</time></trkpt><trkpt lat="44.2446858" lon="8.4243795"><ele>291.6666666666667</ele><time>2026-03-28T08:51:29.337Z</time></trkpt><trkpt lat="44.2446953" lon="8.4242699"><ele>294.0</ele><time>2026-03-28T08:51:30.328Z</time></trkpt><trkpt lat="44.2447104" lon="8.4241663"><ele>296.3333333333333</ele><time>2026-03-28T08:51:31.329Z</time></trkpt><trkpt lat="44.2447293" lon="8.4240809"><ele>298.66666666666663</ele><time>2026-03-28T08:51:32.318Z</time></trkpt><trkpt lat="44.2447685" lon="8.4239187"><ele>301.0</ele><time>2026-03-28T08:51:34.319Z</time></trkpt><trkpt lat="44.2447887" lon="8.4238323"><ele>305.5</ele><time>2026-03-28T08:51:35.324Z</time></trkpt><trkpt lat="44.2448187" lon="8.4237458"><ele>310.0</ele><time>2026-03-28T08:51:36.31Z</time></trkpt><trkpt lat="44.2448592" lon="8.4236602"><ele>314.5</ele><time>2026-03-28T08:51:37.319Z</time></trkpt><trkpt lat="44.2449062" lon="8.4235839"><ele>319.0</ele><time>2026-03-28T08:51:38.314Z</time></trkpt><trkpt lat="44.2449528" lon="8.4235208"><ele>323.5</ele><time>2026-03-28T08:51:39.321Z</time></trkpt><trkpt lat="44.2450591" lon="8.4234463"><ele>328.0</ele><time>2026-03-28T08:51:41.309Z</time></trkpt><trkpt lat="44.2451734" lon="8.4234177"><ele>328.0</ele><time>2026-03-28T08:51:43.308Z</time></trkpt><trkpt lat="44.2452899" lon="8.4233923"><ele>328.0</ele><time>2026-03-28T08:51:45.31Z</time></trkpt><trkpt lat="44.2454081" lon="8.4233407"><ele>328.0</ele><time>2026-03-28T08:51:47.311Z</time></trkpt><trkpt lat="44.2455242" lon="8.4232675"><ele>328.0</ele><time>2026-03-28T08:51:49.308Z</time></trkpt><trkpt lat="44.2455879" lon="8.423227"><ele>328.0</ele><time>2026-03-28T08:51:50.322Z</time></trkpt><trkpt lat="44.2456483" lon="8.4231914"><ele>326.0</ele><time>2026-03-28T08:51:51.318Z</time></trkpt><trkpt lat="44.2457403" lon="8.4231247"><ele>324.0</ele><time>2026-03-28T08:51:53.317Z</time></trkpt><trkpt lat="44.2457854" lon="8.4230359"><ele>322.0</ele><time>2026-03-28T08:51:55.322Z</time></trkpt><trkpt lat="44.2457561" lon="8.4229467"><ele>320.0</ele><time>2026-03-28T08:51:57.318Z</time></trkpt><trkpt lat="44.2457038" lon="8.422788"><ele>318.0</ele><time>2026-03-28T08:51:59.318Z</time></trkpt><trkpt lat="44.2456775" lon="8.4226841"><ele>318.0</ele><time>2026-03-28T08:52:00.32Z</time></trkpt><trkpt lat="44.2456656" lon="8.4225734"><ele>318.0</ele><time>2026-03-28T08:52:01.313Z</time></trkpt><trkpt lat="44.2456625" lon="8.4224726"><ele>318.0</ele><time>2026-03-28T08:52:02.322Z</time></trkpt><trkpt lat="44.245656" lon="8.4223733"><ele>318.0</ele><time>2026-03-28T08:52:03.319Z</time></trkpt><trkpt lat="44.2456389" lon="8.4222691"><ele>318.0</ele><time>2026-03-28T08:52:04.323Z</time></trkpt><trkpt lat="44.2456114" lon="8.4221654"><ele>318.0</ele><time>2026-03-28T08:52:05.314Z</time></trkpt><trkpt lat="44.2455873" lon="8.4220607"><ele>324.57142857142856</ele><time>2026-03-28T08:52:06.324Z</time></trkpt><trkpt lat="44.2455707" lon="8.4219621"><ele>331.14285714285717</ele><time>2026-03-28T08:52:07.312Z</time></trkpt><trkpt lat="44.2455645" lon="8.4218683"><ele>337.7142857142857</ele><time>2026-03-28T08:52:08.314Z</time></trkpt><trkpt lat="44.245569" lon="8.4217749"><ele>344.2857142857143</ele><time>2026-03-28T08:52:09.311Z</time></trkpt><trkpt lat="44.2455863" lon="8.4216882"><ele>350.8571428571429</ele><time>2026-03-28T08:52:10.313Z</time></trkpt><trkpt lat="44.2455908" lon="8.4215982"><ele>357.42857142857144</ele><time>2026-03-28T08:52:11.311Z</time></trkpt><trkpt lat="44.2455926" lon="8.4214437"><ele>364.0</ele><time>2026-03-28T08:52:13.318Z</time></trkpt><trkpt lat="44.2455626" lon="8.4213386"><ele>362.3333333333333</ele><time>2026-03-28T08:52:15.309Z</time></trkpt><trkpt lat="44.2455246" lon="8.4212325"><ele>360.66666666666663</ele><time>2026-03-28T08:52:17.33Z</time></trkpt><trkpt lat="44.2455028" lon="8.4211114"><ele>359.0</ele><time>2026-03-28T08:52:19.323Z</time></trkpt><trkpt lat="44.245489" lon="8.4209752"><ele>357.3333333333333</ele><time>2026-03-28T08:52:21.319Z</time></trkpt><trkpt lat="44.2454686" lon="8.4208661"><ele>355.6666666666667</ele><time>2026-03-28T08:52:23.326Z</time></trkpt><trkpt lat="44.2454236" lon="8.4207609"><ele>354.0</ele><time>2026-03-28T08:52:25.313Z</time></trkpt><trkpt lat="44.2453392" lon="8.4206449"><ele>354.0</ele><time>2026-03-28T08:52:27.317Z</time></trkpt><trkpt lat="44.2452299" lon="8.4205736"><ele>354.0</ele><time>2026-03-28T08:52:29.308Z</time></trkpt><trkpt lat="44.2451662" lon="8.420555"><ele>354.0</ele><time>2026-03-28T08:52:30.303Z</time></trkpt><trkpt lat="44.2450651" lon="8.4205029"><ele>354.0</ele><time>2026-03-28T08:52:32.304Z</time></trkpt><trkpt lat="44.244975" lon="8.4203962"><ele>354.0</ele><time>2026-03-28T08:52:34.304Z</time></trkpt><trkpt lat="44.2449197" lon="8.4203421"><ele>351.42857142857144</ele><time>2026-03-28T08:52:35.303Z</time></trkpt><trkpt lat="44.2448604" lon="8.4202991"><ele>348.85714285714283</ele><time>2026-03-28T08:52:36.3Z</time></trkpt><trkpt lat="44.2448025" lon="8.4202621"><ele>346.2857142857143</ele><time>2026-03-28T08:52:37.308Z</time></trkpt><trkpt lat="44.2447229" lon="8.4201522"><ele>343.7142857142857</ele><time>2026-03-28T08:52:39.309Z</time></trkpt><trkpt lat="44.2446922" lon="8.4200742"><ele>341.1428571428571</ele><time>2026-03-28T08:52:40.304Z</time></trkpt><trkpt lat="44.2446691" lon="8.419989"><ele>338.57142857142856</ele><time>2026-03-28T08:52:41.309Z</time></trkpt><trkpt lat="44.2446411" lon="8.4199029"><ele>336.0</ele><time>2026-03-28T08:52:42.3Z</time></trkpt><trkpt lat="44.2446122" lon="8.4198159"><ele>344.5</ele><time>2026-03-28T08:52:43.31Z</time></trkpt><trkpt lat="44.2445785" lon="8.4197259"><ele>353.0</ele><time>2026-03-28T08:52:44.3Z</time></trkpt><trkpt lat="44.24454" lon="8.4196442"><ele>361.5</ele><time>2026-03-28T08:52:45.309Z</time></trkpt><trkpt lat="44.2445039" lon="8.419496"><ele>370.0</ele><time>2026-03-28T08:52:47.307Z</time></trkpt><trkpt lat="44.2445358" lon="8.4193547"><ele>378.5</ele><time>2026-03-28T08:52:49.304Z</time></trkpt><trkpt lat="44.2445691" lon="8.419275"><ele>387.0</ele><time>2026-03-28T08:52:50.313Z</time></trkpt><trkpt lat="44.244609" lon="8.4191935"><ele>387.40000000000003</ele><time>2026-03-28T08:52:51.305Z</time></trkpt><trkpt lat="44.2446536" lon="8.4191048"><ele>387.8</ele><time>2026-03-28T08:52:52.311Z</time></trkpt><trkpt lat="44.2447009" lon="8.4190161"><ele>388.2</ele><time>2026-03-28T08:52:53.309Z</time></trkpt><trkpt lat="44.2447444" lon="8.4189359"><ele>388.6</ele><time>2026-03-28T08:52:54.315Z</time></trkpt><trkpt lat="44.2447899" lon="8.4187898"><ele>389.0</ele><time>2026-03-28T08:52:56.319Z</time></trkpt><trkpt lat="44.2447874" lon="8.4186145"><ele>388.99999999999994</ele><time>2026-03-28T08:52:58.324Z</time></trkpt><trkpt lat="44.2447693" lon="8.4185128"><ele>389.0</ele><time>2026-03-28T08:52:59.307Z</time></trkpt><trkpt lat="44.2447495" lon="8.4183984"><ele>389.0</ele><time>2026-03-28T08:53:00.32Z</time></trkpt><trkpt lat="44.2447312" lon="8.4182834"><ele>389.0</ele><time>2026-03-28T08:53:01.306Z</time></trkpt><trkpt lat="44.244722" lon="8.418173"><ele>388.99999999999994</ele><time>2026-03-28T08:53:02.314Z</time></trkpt><trkpt lat="44.24472" lon="8.4180619"><ele>389.0</ele><time>2026-03-28T08:53:03.313Z</time></trkpt><trkpt lat="44.2447294" lon="8.4179511"><ele>388.42857142857144</ele><time>2026-03-28T08:53:04.317Z</time></trkpt><trkpt lat="44.2447338" lon="8.4178407"><ele>387.85714285714283</ele><time>2026-03-28T08:53:05.312Z</time></trkpt><trkpt lat="44.2447393" lon="8.4177318"><ele>387.2857142857143</ele><time>2026-03-28T08:53:06.322Z</time></trkpt><trkpt lat="44.2447401" lon="8.4176301"><ele>386.7142857142857</ele><time>2026-03-28T08:53:07.316Z</time></trkpt><trkpt lat="44.2447368" lon="8.4175337"><ele>386.1428571428571</ele><time>2026-03-28T08:53:08.324Z</time></trkpt><trkpt lat="44.2447327" lon="8.4174397"><ele>385.57142857142856</ele><time>2026-03-28T08:53:09.32Z</time></trkpt><trkpt lat="44.244721" lon="8.4173413"><ele>385.0</ele><time>2026-03-28T08:53:10.321Z</time></trkpt><trkpt lat="44.244707" lon="8.4172412"><ele>384.00000000000006</ele><time>2026-03-28T08:53:11.321Z</time></trkpt><trkpt lat="44.2446915" lon="8.4171464"><ele>383.0</ele><time>2026-03-28T08:53:12.318Z</time></trkpt><trkpt lat="44.2446788" lon="8.4170526"><ele>382.0</ele><time>2026-03-28T08:53:13.321Z</time></trkpt><trkpt lat="44.244669" lon="8.4169534"><ele>381.0</ele><time>2026-03-28T08:53:14.316Z</time></trkpt><trkpt lat="44.2446636" lon="8.4168621"><ele>380.0</ele><time>2026-03-28T08:53:15.32Z</time></trkpt><trkpt lat="44.2446918" lon="8.4166896"><ele>379.0</ele><time>2026-03-28T08:53:17.32Z</time></trkpt><trkpt lat="44.2447289" lon="8.4166033"><ele>379.0</ele><time>2026-03-28T08:53:18.315Z</time></trkpt><trkpt lat="44.2447707" lon="8.4165212"><ele>379.0</ele><time>2026-03-28T08:53:19.353Z</time></trkpt><trkpt lat="44.2448123" lon="8.4164511"><ele>379.0</ele><time>2026-03-28T08:53:20.316Z</time></trkpt><trkpt lat="44.244904" lon="8.4163636"><ele>379.0</ele><time>2026-03-28T08:53:22.317Z</time></trkpt><trkpt lat="44.2450035" lon="8.4163122"><ele>379.0</ele><time>2026-03-28T08:53:24.324Z</time></trkpt><trkpt lat="44.2450714" lon="8.4162678"><ele>379.0</ele><time>2026-03-28T08:53:26.324Z</time></trkpt><trkpt lat="44.245117" lon="8.4161823"><ele>377.2</ele><time>2026-03-28T08:53:29.329Z</time></trkpt><trkpt lat="44.2451399" lon="8.4160717"><ele>375.4</ele><time>2026-03-28T08:53:31.326Z</time></trkpt><trkpt lat="44.2451431" lon="8.4159224"><ele>373.6</ele><time>2026-03-28T08:53:33.32Z</time></trkpt><trkpt lat="44.245129" lon="8.4157656"><ele>371.8</ele><time>2026-03-28T08:53:35.318Z</time></trkpt><trkpt lat="44.2451215" lon="8.4156779"><ele>370.0</ele><time>2026-03-28T08:53:36.322Z</time></trkpt><trkpt lat="44.2451075" lon="8.4155065"><ele>369.2</ele><time>2026-03-28T08:53:38.32Z</time></trkpt><trkpt lat="44.2450971" lon="8.4153366"><ele>368.4</ele><time>2026-03-28T08:53:40.317Z</time></trkpt><trkpt lat="44.245084" lon="8.4152497"><ele>367.6</ele><time>2026-03-28T08:53:41.315Z</time></trkpt><trkpt lat="44.2450615" lon="8.4150773"><ele>366.8</ele><time>2026-03-28T08:53:43.31Z</time></trkpt><trkpt lat="44.2450468" lon="8.4149772"><ele>366.0</ele><time>2026-03-28T08:53:44.308Z</time></trkpt><trkpt lat="44.2450271" lon="8.4148755"><ele>366.0</ele><time>2026-03-28T08:53:45.315Z</time></trkpt><trkpt lat="44.2450066" lon="8.4147799"><ele>366.0</ele><time>2026-03-28T08:53:46.308Z</time></trkpt><trkpt lat="44.2449888" lon="8.414693"><ele>366.0</ele><time>2026-03-28T08:53:47.311Z</time></trkpt><trkpt lat="44.244982" lon="8.4145334"><ele>366.0</ele><time>2026-03-28T08:53:49.327Z</time></trkpt><trkpt lat="44.2450054" lon="8.4143823"><ele>366.0</ele><time>2026-03-28T08:53:51.314Z</time></trkpt><trkpt lat="44.2450213" lon="8.4142553"><ele>364.20000000000005</ele><time>2026-03-28T08:53:53.316Z</time></trkpt><trkpt lat="44.2450423" lon="8.4141223"><ele>362.40000000000003</ele><time>2026-03-28T08:53:55.308Z</time></trkpt><trkpt lat="44.24505" lon="8.4139696"><ele>360.6</ele><time>2026-03-28T08:53:57.311Z</time></trkpt><trkpt lat="44.2450476" lon="8.4138192"><ele>358.8</ele><time>2026-03-28T08:53:59.305Z</time></trkpt><trkpt lat="44.245036" lon="8.4136861"><ele>357.0</ele><time>2026-03-28T08:54:01.304Z</time></trkpt><trkpt lat="44.2450418" lon="8.4135647"><ele>356.0</ele><time>2026-03-28T08:54:03.3Z</time></trkpt><trkpt lat="44.2450625" lon="8.4134516"><ele>355.0</ele><time>2026-03-28T08:54:05.307Z</time></trkpt><trkpt lat="44.2450769" lon="8.4133544"><ele>354.0</ele><time>2026-03-28T08:54:07.312Z</time></trkpt><trkpt lat="44.2450825" lon="8.4132494"><ele>353.0</ele><time>2026-03-28T08:54:10.326Z</time></trkpt><trkpt lat="44.2450794" lon="8.4131596"><ele>352.0</ele><time>2026-03-28T08:54:46.337Z</time></trkpt><trkpt lat="44.2450299" lon="8.4130615"><ele>351.0</ele><time>2026-03-28T08:54:49.327Z</time></trkpt><trkpt lat="44.2449659" lon="8.4129393"><ele>348.8</ele><time>2026-03-28T08:54:51.334Z</time></trkpt><trkpt lat="44.2449531" lon="8.4127729"><ele>346.6</ele><time>2026-03-28T08:54:53.325Z</time></trkpt><trkpt lat="44.244978" lon="8.4126542"><ele>344.4</ele><time>2026-03-28T08:54:54.309Z</time></trkpt><trkpt lat="44.2450168" lon="8.4125373"><ele>342.2</ele><time>2026-03-28T08:54:55.313Z</time></trkpt><trkpt lat="44.2450588" lon="8.4124377"><ele>340.0</ele><time>2026-03-28T08:54:56.317Z</time></trkpt><trkpt lat="44.2450863" lon="8.4123534"><ele>340.0</ele><time>2026-03-28T08:54:57.314Z</time></trkpt><trkpt lat="44.2451146" lon="8.412206"><ele>340.0</ele><time>2026-03-28T08:54:59.313Z</time></trkpt><trkpt lat="44.2451231" lon="8.4120334"><ele>340.0</ele><time>2026-03-28T08:55:01.316Z</time></trkpt><trkpt lat="44.2451361" lon="8.411856"><ele>340.0</ele><time>2026-03-28T08:55:03.314Z</time></trkpt><trkpt lat="44.2451426" lon="8.4117578"><ele>340.0</ele><time>2026-03-28T08:55:04.318Z</time></trkpt><trkpt lat="44.24516" lon="8.4116602"><ele>338.14285714285717</ele><time>2026-03-28T08:55:05.314Z</time></trkpt><trkpt lat="44.2451759" lon="8.4115597"><ele>336.2857142857143</ele><time>2026-03-28T08:55:06.323Z</time></trkpt><trkpt lat="44.2451922" lon="8.4114646"><ele>334.42857142857144</ele><time>2026-03-28T08:55:07.32Z</time></trkpt><trkpt lat="44.2452089" lon="8.4113659"><ele>332.57142857142856</ele><time>2026-03-28T08:55:08.32Z</time></trkpt><trkpt lat="44.2452166" lon="8.411263"><ele>330.7142857142857</ele><time>2026-03-28T08:55:09.324Z</time></trkpt><trkpt lat="44.2452168" lon="8.4111593"><ele>328.85714285714283</ele><time>2026-03-28T08:55:10.318Z</time></trkpt><trkpt lat="44.2452196" lon="8.4110448"><ele>327.0</ele><time>2026-03-28T08:55:11.323Z</time></trkpt><trkpt lat="44.2452287" lon="8.4109184"><ele>325.6666666666667</ele><time>2026-03-28T08:55:12.315Z</time></trkpt><trkpt lat="44.2452422" lon="8.4107921"><ele>324.3333333333333</ele><time>2026-03-28T08:55:13.325Z</time></trkpt><trkpt lat="44.2452565" lon="8.4106732"><ele>323.0</ele><time>2026-03-28T08:55:14.32Z</time></trkpt><trkpt lat="44.2452711" lon="8.4105615"><ele>321.66666666666663</ele><time>2026-03-28T08:55:15.325Z</time></trkpt><trkpt lat="44.2452836" lon="8.4104575"><ele>320.3333333333333</ele><time>2026-03-28T08:55:16.319Z</time></trkpt><trkpt lat="44.2452964" lon="8.4103604"><ele>319.0</ele><time>2026-03-28T08:55:17.325Z</time></trkpt><trkpt lat="44.2452989" lon="8.4102706"><ele>318.66666666666663</ele><time>2026-03-28T08:55:18.316Z</time></trkpt><trkpt lat="44.2452934" lon="8.4101746"><ele>318.3333333333333</ele><time>2026-03-28T08:55:19.33Z</time></trkpt><trkpt lat="44.2452862" lon="8.4100741"><ele>318.0</ele><time>2026-03-28T08:55:20.319Z</time></trkpt><trkpt lat="44.2452787" lon="8.409961"><ele>317.6666666666667</ele><time>2026-03-28T08:55:21.324Z</time></trkpt><trkpt lat="44.2452649" lon="8.4098426"><ele>317.33333333333337</ele><time>2026-03-28T08:55:22.332Z</time></trkpt><trkpt lat="44.245255" lon="8.4097247"><ele>317.0</ele><time>2026-03-28T08:55:23.329Z</time></trkpt><trkpt lat="44.2452511" lon="8.4096089"><ele>317.0</ele><time>2026-03-28T08:55:24.334Z</time></trkpt><trkpt lat="44.2452493" lon="8.409508"><ele>317.0</ele><time>2026-03-28T08:55:25.328Z</time></trkpt><trkpt lat="44.245243" lon="8.4093394"><ele>317.0</ele><time>2026-03-28T08:55:27.333Z</time></trkpt><trkpt lat="44.2452421" lon="8.4092145"><ele>317.0</ele><time>2026-03-28T08:55:29.337Z</time></trkpt><trkpt lat="44.2452234" lon="8.4091059"><ele>317.0</ele><time>2026-03-28T08:56:23.335Z</time></trkpt><trkpt lat="44.2451912" lon="8.4089844"><ele>317.0</ele><time>2026-03-28T08:56:25.342Z</time></trkpt><trkpt lat="44.245154" lon="8.4088316"><ele>317.0</ele><time>2026-03-28T08:56:27.335Z</time></trkpt><trkpt lat="44.2451444" lon="8.4087427"><ele>317.0</ele><time>2026-03-28T08:56:28.344Z</time></trkpt><trkpt lat="44.2451431" lon="8.4086465"><ele>317.0</ele><time>2026-03-28T08:56:29.336Z</time></trkpt><trkpt lat="44.2451382" lon="8.4085523"><ele>317.0</ele><time>2026-03-28T08:56:30.339Z</time></trkpt><trkpt lat="44.2451212" lon="8.4084626"><ele>317.0</ele><time>2026-03-28T08:56:31.333Z</time></trkpt><trkpt lat="44.2450963" lon="8.4083767"><ele>317.0</ele><time>2026-03-28T08:56:32.341Z</time></trkpt><trkpt lat="44.2450359" lon="8.4082339"><ele>318.0</ele><time>2026-03-28T08:56:34.339Z</time></trkpt><trkpt lat="44.2450075" lon="8.4080577"><ele>319.0</ele><time>2026-03-28T08:56:36.346Z</time></trkpt><trkpt lat="44.2449937" lon="8.4079551"><ele>320.0</ele><time>2026-03-28T08:56:37.337Z</time></trkpt><trkpt lat="44.2449786" lon="8.4078503"><ele>321.0</ele><time>2026-03-28T08:56:38.341Z</time></trkpt><trkpt lat="44.2449598" lon="8.4077535"><ele>322.0</ele><time>2026-03-28T08:56:39.33Z</time></trkpt><trkpt lat="44.2449333" lon="8.4076579"><ele>323.0</ele><time>2026-03-28T08:56:40.333Z</time></trkpt><trkpt lat="44.2449053" lon="8.4075591"><ele>323.33333333333337</ele><time>2026-03-28T08:56:41.332Z</time></trkpt><trkpt lat="44.2448639" lon="8.4074618"><ele>323.6666666666667</ele><time>2026-03-28T08:56:42.339Z</time></trkpt><trkpt lat="44.2448226" lon="8.4073729"><ele>324.0</ele><time>2026-03-28T08:56:43.332Z</time></trkpt><trkpt lat="44.2447831" lon="8.4072929"><ele>324.3333333333333</ele><time>2026-03-28T08:56:44.344Z</time></trkpt><trkpt lat="44.2447413" lon="8.4072086"><ele>324.66666666666663</ele><time>2026-03-28T08:56:45.337Z</time></trkpt><trkpt lat="44.2447034" lon="8.4071265"><ele>325.0</ele><time>2026-03-28T08:56:46.341Z</time></trkpt><trkpt lat="44.2446579" lon="8.40698"><ele>324.0</ele><time>2026-03-28T08:56:48.338Z</time></trkpt><trkpt lat="44.2446453" lon="8.406824"><ele>323.0</ele><time>2026-03-28T08:56:50.328Z</time></trkpt><trkpt lat="44.2446545" lon="8.4067327"><ele>322.0</ele><time>2026-03-28T08:56:51.331Z</time></trkpt><trkpt lat="44.244666" lon="8.40663"><ele>321.0</ele><time>2026-03-28T08:56:52.334Z</time></trkpt><trkpt lat="44.2446742" lon="8.4065259"><ele>320.0</ele><time>2026-03-28T08:56:53.343Z</time></trkpt><trkpt lat="44.244671" lon="8.4064244"><ele>319.0</ele><time>2026-03-28T08:56:54.328Z</time></trkpt><trkpt lat="44.2446558" lon="8.406324"><ele>321.4</ele><time>2026-03-28T08:56:55.34Z</time></trkpt><trkpt lat="44.2446397" lon="8.4062319"><ele>323.79999999999995</ele><time>2026-03-28T08:56:56.332Z</time></trkpt><trkpt lat="44.2446012" lon="8.4060798"><ele>326.20000000000005</ele><time>2026-03-28T08:56:58.335Z</time></trkpt><trkpt lat="44.2445635" lon="8.4059678"><ele>328.6</ele><time>2026-03-28T08:57:00.338Z</time></trkpt><trkpt lat="44.2445023" lon="8.40587"><ele>331.0</ele><time>2026-03-28T08:57:02.335Z</time></trkpt><trkpt lat="44.2444261" lon="8.4057564"><ele>331.0</ele><time>2026-03-28T08:57:04.326Z</time></trkpt><trkpt lat="44.2443823" lon="8.4056928"><ele>331.0</ele><time>2026-03-28T08:57:05.322Z</time></trkpt><trkpt lat="44.2443301" lon="8.4056325"><ele>331.0</ele><time>2026-03-28T08:57:06.324Z</time></trkpt><trkpt lat="44.2442682" lon="8.4055666"><ele>331.0</ele><time>2026-03-28T08:57:07.32Z</time></trkpt><trkpt lat="44.2441944" lon="8.4055141"><ele>331.0</ele><time>2026-03-28T08:57:08.321Z</time></trkpt><trkpt lat="44.2441129" lon="8.4054624"><ele>331.0</ele><time>2026-03-28T08:57:09.316Z</time></trkpt><trkpt lat="44.2440322" lon="8.4053971"><ele>332.20000000000005</ele><time>2026-03-28T08:57:10.321Z</time></trkpt><trkpt lat="44.2439584" lon="8.4053237"><ele>333.40000000000003</ele><time>2026-03-28T08:57:11.308Z</time></trkpt><trkpt lat="44.2438753" lon="8.4052498"><ele>334.6</ele><time>2026-03-28T08:57:12.322Z</time></trkpt><trkpt lat="44.2437892" lon="8.4051665"><ele>335.8</ele><time>2026-03-28T08:57:13.308Z</time></trkpt><trkpt lat="44.2437084" lon="8.4050973"><ele>337.0</ele><time>2026-03-28T08:57:14.318Z</time></trkpt><trkpt lat="44.2436273" lon="8.4050324"><ele>337.0</ele><time>2026-03-28T08:57:15.309Z</time></trkpt><trkpt lat="44.2435372" lon="8.4049825"><ele>337.0</ele><time>2026-03-28T08:57:16.315Z</time></trkpt><trkpt lat="44.2434487" lon="8.4049272"><ele>337.0</ele><time>2026-03-28T08:57:17.308Z</time></trkpt><trkpt lat="44.2433612" lon="8.4048708"><ele>337.0</ele><time>2026-03-28T08:57:18.32Z</time></trkpt><trkpt lat="44.2432674" lon="8.4048152"><ele>337.0</ele><time>2026-03-28T08:57:19.314Z</time></trkpt><trkpt lat="44.243164" lon="8.4047674"><ele>335.6</ele><time>2026-03-28T08:57:20.311Z</time></trkpt><trkpt lat="44.2430589" lon="8.4047091"><ele>334.20000000000005</ele><time>2026-03-28T08:57:21.309Z</time></trkpt><trkpt lat="44.242956" lon="8.4046465"><ele>332.8</ele><time>2026-03-28T08:57:22.319Z</time></trkpt><trkpt lat="44.2428566" lon="8.4045831"><ele>331.4</ele><time>2026-03-28T08:57:23.308Z</time></trkpt><trkpt lat="44.2427539" lon="8.4045276"><ele>330.0</ele><time>2026-03-28T08:57:24.31Z</time></trkpt><trkpt lat="44.2426551" lon="8.4044765"><ele>330.2</ele><time>2026-03-28T08:57:25.31Z</time></trkpt><trkpt lat="44.2425612" lon="8.4044167"><ele>330.4</ele><time>2026-03-28T08:57:26.337Z</time></trkpt><trkpt lat="44.2424817" lon="8.4043574"><ele>330.6</ele><time>2026-03-28T08:57:27.317Z</time></trkpt><trkpt lat="44.242407" lon="8.4042772"><ele>330.8</ele><time>2026-03-28T08:57:28.333Z</time></trkpt><trkpt lat="44.2423261" lon="8.4041951"><ele>331.0</ele><time>2026-03-28T08:57:29.321Z</time></trkpt><trkpt lat="44.2422511" lon="8.4041206"><ele>331.0</ele><time>2026-03-28T08:57:30.323Z</time></trkpt><trkpt lat="44.2421774" lon="8.4040667"><ele>331.0</ele><time>2026-03-28T08:57:31.312Z</time></trkpt><trkpt lat="44.242107" lon="8.4040252"><ele>331.0</ele><time>2026-03-28T08:57:32.317Z</time></trkpt><trkpt lat="44.2420351" lon="8.4039908"><ele>331.0</ele><time>2026-03-28T08:57:33.315Z</time></trkpt><trkpt lat="44.2419613" lon="8.403991"><ele>331.0</ele><time>2026-03-28T08:57:34.317Z</time></trkpt><trkpt lat="44.241832" lon="8.404012"><ele>331.0</ele><time>2026-03-28T08:57:36.334Z</time></trkpt><trkpt lat="44.2417687" lon="8.4040332"><ele>331.0</ele><time>2026-03-28T08:57:37.326Z</time></trkpt><trkpt lat="44.2416666" lon="8.4040141"><ele>331.0</ele><time>2026-03-28T08:57:39.335Z</time></trkpt><trkpt lat="44.241658" lon="8.4039139"><ele>331.0</ele><time>2026-03-28T08:57:55.335Z</time></trkpt><trkpt lat="44.2416964" lon="8.4037914"><ele>331.0</ele><time>2026-03-28T08:57:58.346Z</time></trkpt><trkpt lat="44.2417577" lon="8.4036828"><ele>331.0</ele><time>2026-03-28T08:58:00.34Z</time></trkpt><trkpt lat="44.2418323" lon="8.4035551"><ele>330.5</ele><time>2026-03-28T08:58:02.326Z</time></trkpt><trkpt lat="44.2418977" lon="8.4034054"><ele>330.0</ele><time>2026-03-28T08:58:04.319Z</time></trkpt><trkpt lat="44.2419287" lon="8.4033252"><ele>329.5</ele><time>2026-03-28T08:58:05.33Z</time></trkpt><trkpt lat="44.2419571" lon="8.4032319"><ele>329.0</ele><time>2026-03-28T08:58:06.319Z</time></trkpt><trkpt lat="44.2419854" lon="8.4031425"><ele>328.5</ele><time>2026-03-28T08:58:07.322Z</time></trkpt><trkpt lat="44.2420127" lon="8.4030559"><ele>328.0</ele><time>2026-03-28T08:58:08.313Z</time></trkpt><trkpt lat="44.2420383" lon="8.4029676"><ele>327.4285714285714</ele><time>2026-03-28T08:58:09.322Z</time></trkpt><trkpt lat="44.2420706" lon="8.4028774"><ele>326.85714285714283</ele><time>2026-03-28T08:58:10.319Z</time></trkpt><trkpt lat="44.2421029" lon="8.402787"><ele>326.2857142857143</ele><time>2026-03-28T08:58:11.329Z</time></trkpt><trkpt lat="44.2421305" lon="8.4026948"><ele>325.71428571428567</ele><time>2026-03-28T08:58:12.321Z</time></trkpt><trkpt lat="44.2421564" lon="8.4025971"><ele>325.1428571428571</ele><time>2026-03-28T08:58:13.322Z</time></trkpt><trkpt lat="44.2421808" lon="8.4025061"><ele>324.57142857142856</ele><time>2026-03-28T08:58:14.319Z</time></trkpt><trkpt lat="44.2421822" lon="8.4024118"><ele>324.0</ele><time>2026-03-28T08:58:15.314Z</time></trkpt><trkpt lat="44.2421653" lon="8.4023106"><ele>324.0</ele><time>2026-03-28T08:58:16.324Z</time></trkpt><trkpt lat="44.2421318" lon="8.4022076"><ele>324.0</ele><time>2026-03-28T08:58:17.323Z</time></trkpt><trkpt lat="44.2420813" lon="8.4021252"><ele>324.0</ele><time>2026-03-28T08:58:18.321Z</time></trkpt><trkpt lat="44.242018" lon="8.4020392"><ele>324.0</ele><time>2026-03-28T08:58:19.311Z</time></trkpt><trkpt lat="44.2419517" lon="8.4019386"><ele>324.0</ele><time>2026-03-28T08:58:20.312Z</time></trkpt><trkpt lat="44.2418994" lon="8.4018408"><ele>324.0</ele><time>2026-03-28T08:58:21.312Z</time></trkpt><trkpt lat="44.2418478" lon="8.401758"><ele>325.0</ele><time>2026-03-28T08:58:22.321Z</time></trkpt><trkpt lat="44.2418134" lon="8.4016535"><ele>326.0</ele><time>2026-03-28T08:58:24.322Z</time></trkpt><trkpt lat="44.2418108" lon="8.4015548"><ele>327.0</ele><time>2026-03-28T08:58:43.341Z</time></trkpt><trkpt lat="44.241835" lon="8.4013997"><ele>328.0</ele><time>2026-03-28T08:58:45.325Z</time></trkpt><trkpt lat="44.241857" lon="8.4013005"><ele>329.0</ele><time>2026-03-28T08:58:46.334Z</time></trkpt><trkpt lat="44.2418898" lon="8.4011961"><ele>330.0</ele><time>2026-03-28T08:58:47.325Z</time></trkpt><trkpt lat="44.2419176" lon="8.4010998"><ele>331.0</ele><time>2026-03-28T08:58:48.318Z</time></trkpt><trkpt lat="44.2419327" lon="8.4010092"><ele>332.0</ele><time>2026-03-28T08:58:49.318Z</time></trkpt><trkpt lat="44.2419439" lon="8.4009082"><ele>333.0</ele><time>2026-03-28T08:58:50.321Z</time></trkpt><trkpt lat="44.2419432" lon="8.400799"><ele>334.0</ele><time>2026-03-28T08:58:51.319Z</time></trkpt><trkpt lat="44.2419363" lon="8.400672"><ele>335.0</ele><time>2026-03-28T08:58:52.318Z</time></trkpt><trkpt lat="44.2419227" lon="8.400539"><ele>336.0</ele><time>2026-03-28T08:58:53.318Z</time></trkpt><trkpt lat="44.2419002" lon="8.4004159"><ele>337.6</ele><time>2026-03-28T08:58:54.318Z</time></trkpt><trkpt lat="44.2418832" lon="8.4002876"><ele>339.20000000000005</ele><time>2026-03-28T08:58:55.31Z</time></trkpt><trkpt lat="44.2418643" lon="8.4001563"><ele>340.79999999999995</ele><time>2026-03-28T08:58:56.313Z</time></trkpt><trkpt lat="44.2418416" lon="8.4000276"><ele>342.4</ele><time>2026-03-28T08:58:57.312Z</time></trkpt><trkpt lat="44.2418105" lon="8.3999215"><ele>344.0</ele><time>2026-03-28T08:58:58.338Z</time></trkpt><trkpt lat="44.2417698" lon="8.3998176"><ele>344.0</ele><time>2026-03-28T08:58:59.314Z</time></trkpt><trkpt lat="44.2417104" lon="8.3997289"><ele>344.0</ele><time>2026-03-28T08:59:00.313Z</time></trkpt><trkpt lat="44.2416424" lon="8.3996451"><ele>344.0</ele><time>2026-03-28T08:59:01.312Z</time></trkpt><trkpt lat="44.2415709" lon="8.3995628"><ele>344.0</ele><time>2026-03-28T08:59:02.325Z</time></trkpt><trkpt lat="44.2415019" lon="8.3994802"><ele>344.0</ele><time>2026-03-28T08:59:03.317Z</time></trkpt><trkpt lat="44.2414429" lon="8.3994015"><ele>344.0</ele><time>2026-03-28T08:59:04.327Z</time></trkpt><trkpt lat="44.2413932" lon="8.3993242"><ele>343.5</ele><time>2026-03-28T08:59:05.319Z</time></trkpt><trkpt lat="44.2413681" lon="8.3992192"><ele>343.0</ele><time>2026-03-28T08:59:06.332Z</time></trkpt><trkpt lat="44.2413679" lon="8.3991076"><ele>342.5</ele><time>2026-03-28T08:59:07.326Z</time></trkpt><trkpt lat="44.2413904" lon="8.3989968"><ele>342.0</ele><time>2026-03-28T08:59:08.325Z</time></trkpt><trkpt lat="44.2414242" lon="8.3988988"><ele>341.5</ele><time>2026-03-28T08:59:09.323Z</time></trkpt><trkpt lat="44.2414681" lon="8.3988073"><ele>341.0</ele><time>2026-03-28T08:59:10.325Z</time></trkpt><trkpt lat="44.2415221" lon="8.3987076"><ele>341.0</ele><time>2026-03-28T08:59:11.311Z</time></trkpt><trkpt lat="44.2415831" lon="8.3986091"><ele>341.0</ele><time>2026-03-28T08:59:12.324Z</time></trkpt><trkpt lat="44.2416477" lon="8.398495"><ele>341.0</ele><time>2026-03-28T08:59:13.311Z</time></trkpt><trkpt lat="44.2417163" lon="8.398371"><ele>341.0</ele><time>2026-03-28T08:59:14.321Z</time></trkpt><trkpt lat="44.2417888" lon="8.3982573"><ele>341.0</ele><time>2026-03-28T08:59:15.32Z</time></trkpt><trkpt lat="44.2418545" lon="8.3981508"><ele>341.0</ele><time>2026-03-28T08:59:16.309Z</time></trkpt><trkpt lat="44.2419203" lon="8.3980545"><ele>341.0</ele><time>2026-03-28T08:59:17.317Z</time></trkpt><trkpt lat="44.2419936" lon="8.3979618"><ele>341.0</ele><time>2026-03-28T08:59:18.312Z</time></trkpt><trkpt lat="44.2420591" lon="8.397864"><ele>341.0</ele><time>2026-03-28T08:59:19.314Z</time></trkpt><trkpt lat="44.242109" lon="8.3977545"><ele>341.0</ele><time>2026-03-28T08:59:20.32Z</time></trkpt><trkpt lat="44.2421421" lon="8.3976294"><ele>339.20000000000005</ele><time>2026-03-28T08:59:21.317Z</time></trkpt><trkpt lat="44.2421614" lon="8.3974958"><ele>337.40000000000003</ele><time>2026-03-28T08:59:22.319Z</time></trkpt><trkpt lat="44.2421834" lon="8.3973669"><ele>335.6</ele><time>2026-03-28T08:59:23.32Z</time></trkpt><trkpt lat="44.2422085" lon="8.3972562"><ele>333.8</ele><time>2026-03-28T08:59:24.316Z</time></trkpt><trkpt lat="44.2422253" lon="8.3971574"><ele>332.0</ele><time>2026-03-28T08:59:25.327Z</time></trkpt><trkpt lat="44.2421955" lon="8.3969903"><ele>332.0</ele><time>2026-03-28T08:59:27.322Z</time></trkpt><trkpt lat="44.242165" lon="8.3968879"><ele>332.0</ele><time>2026-03-28T08:59:28.322Z</time></trkpt><trkpt lat="44.2421486" lon="8.3967561"><ele>332.0</ele><time>2026-03-28T08:59:29.332Z</time></trkpt><trkpt lat="44.2421247" lon="8.3966188"><ele>332.0</ele><time>2026-03-28T08:59:30.313Z</time></trkpt><trkpt lat="44.2421044" lon="8.3964888"><ele>332.0</ele><time>2026-03-28T08:59:31.325Z</time></trkpt><trkpt lat="44.2420913" lon="8.3963701"><ele>332.6666666666667</ele><time>2026-03-28T08:59:32.313Z</time></trkpt><trkpt lat="44.2420769" lon="8.3962674"><ele>333.33333333333337</ele><time>2026-03-28T08:59:33.32Z</time></trkpt><trkpt lat="44.2420607" lon="8.3961707"><ele>334.0</ele><time>2026-03-28T08:59:34.313Z</time></trkpt><trkpt lat="44.2420167" lon="8.3960192"><ele>334.6666666666667</ele><time>2026-03-28T08:59:36.317Z</time></trkpt><trkpt lat="44.2419575" lon="8.3958954"><ele>335.3333333333333</ele><time>2026-03-28T08:59:38.32Z</time></trkpt><trkpt lat="44.2419214" lon="8.3958095"><ele>336.0</ele><time>2026-03-28T08:59:40.322Z</time></trkpt><trkpt lat="44.2418914" lon="8.3956922"><ele>336.0</ele><time>2026-03-28T08:59:43.32Z</time></trkpt><trkpt lat="44.2419034" lon="8.3955957"><ele>336.0</ele><time>2026-03-28T08:59:46.335Z</time></trkpt><trkpt lat="44.2419052" lon="8.3955077"><ele>336.0</ele><time>2026-03-28T08:59:48.333Z</time></trkpt><trkpt lat="44.2418958" lon="8.3953906"><ele>336.0</ele><time>2026-03-28T08:59:50.337Z</time></trkpt><trkpt lat="44.2418846" lon="8.3952722"><ele>336.0</ele><time>2026-03-28T08:59:52.328Z</time></trkpt><trkpt lat="44.2418659" lon="8.3951572"><ele>336.0</ele><time>2026-03-28T08:59:54.322Z</time></trkpt><trkpt lat="44.2418574" lon="8.3950157"><ele>336.3333333333333</ele><time>2026-03-28T08:59:56.324Z</time></trkpt><trkpt lat="44.2418471" lon="8.3949215"><ele>336.6666666666667</ele><time>2026-03-28T08:59:57.323Z</time></trkpt><trkpt lat="44.2418236" lon="8.3948131"><ele>337.0</ele><time>2026-03-28T08:59:58.329Z</time></trkpt><trkpt lat="44.2417891" lon="8.3946978"><ele>337.33333333333337</ele><time>2026-03-28T08:59:59.315Z</time></trkpt><trkpt lat="44.2417492" lon="8.3945806"><ele>337.6666666666667</ele><time>2026-03-28T09:00:00.334Z</time></trkpt><trkpt lat="44.2417145" lon="8.3944494"><ele>338.0</ele><time>2026-03-28T09:00:01.313Z</time></trkpt><trkpt lat="44.2416874" lon="8.3943063"><ele>338.59999999999997</ele><time>2026-03-28T09:00:02.317Z</time></trkpt><trkpt lat="44.2416603" lon="8.3941529"><ele>339.2</ele><time>2026-03-28T09:00:03.315Z</time></trkpt><trkpt lat="44.2416425" lon="8.3940067"><ele>339.8</ele><time>2026-03-28T09:00:04.318Z</time></trkpt><trkpt lat="44.2416304" lon="8.3938647"><ele>340.4</ele><time>2026-03-28T09:00:05.307Z</time></trkpt><trkpt lat="44.2416096" lon="8.3937259"><ele>341.0</ele><time>2026-03-28T09:00:06.314Z</time></trkpt><trkpt lat="44.2415831" lon="8.3935827"><ele>341.6666666666667</ele><time>2026-03-28T09:00:07.315Z</time></trkpt><trkpt lat="44.2415635" lon="8.3934529"><ele>342.33333333333337</ele><time>2026-03-28T09:00:08.311Z</time></trkpt><trkpt lat="44.2415487" lon="8.3933279"><ele>343.0</ele><time>2026-03-28T09:00:09.31Z</time></trkpt><trkpt lat="44.2415408" lon="8.3932038"><ele>343.6666666666667</ele><time>2026-03-28T09:00:10.31Z</time></trkpt><trkpt lat="44.2415455" lon="8.3930873"><ele>344.3333333333333</ele><time>2026-03-28T09:00:11.318Z</time></trkpt><trkpt lat="44.2415668" lon="8.3929824"><ele>345.0</ele><time>2026-03-28T09:00:12.305Z</time></trkpt><trkpt lat="44.2415963" lon="8.3928727"><ele>346.1666666666667</ele><time>2026-03-28T09:00:13.304Z</time></trkpt><trkpt lat="44.2416146" lon="8.3927625"><ele>347.3333333333333</ele><time>2026-03-28T09:00:14.307Z</time></trkpt><trkpt lat="44.2416065" lon="8.3926716"><ele>348.5</ele><time>2026-03-28T09:00:15.309Z</time></trkpt><trkpt lat="44.2415832" lon="8.3925876"><ele>349.66666666666663</ele><time>2026-03-28T09:00:16.308Z</time></trkpt><trkpt lat="44.2415328" lon="8.3924912"><ele>350.8333333333333</ele><time>2026-03-28T09:00:17.303Z</time></trkpt><trkpt lat="44.2414697" lon="8.3923635"><ele>352.0</ele><time>2026-03-28T09:00:18.299Z</time></trkpt><trkpt lat="44.2413984" lon="8.3922289"><ele>352.20000000000005</ele><time>2026-03-28T09:00:19.304Z</time></trkpt><trkpt lat="44.2413241" lon="8.3921109"><ele>352.4</ele><time>2026-03-28T09:00:20.299Z</time></trkpt><trkpt lat="44.2412569" lon="8.3920006"><ele>352.6</ele><time>2026-03-28T09:00:21.31Z</time></trkpt><trkpt lat="44.2412064" lon="8.391909"><ele>352.79999999999995</ele><time>2026-03-28T09:00:22.297Z</time></trkpt><trkpt lat="44.2410959" lon="8.3918358"><ele>353.0</ele><time>2026-03-28T09:00:24.301Z</time></trkpt><trkpt lat="44.2410103" lon="8.3918275"><ele>353.0</ele><time>2026-03-28T09:00:25.307Z</time></trkpt><trkpt lat="44.2409064" lon="8.3918247"><ele>353.0</ele><time>2026-03-28T09:00:26.294Z</time></trkpt><trkpt lat="44.2407891" lon="8.3918207"><ele>353.0</ele><time>2026-03-28T09:00:27.301Z</time></trkpt><trkpt lat="44.2406644" lon="8.3917831"><ele>353.0</ele><time>2026-03-28T09:00:28.313Z</time></trkpt><trkpt lat="44.240527" lon="8.3917715"><ele>348.5</ele><time>2026-03-28T09:00:29.31Z</time></trkpt><trkpt lat="44.2403975" lon="8.3917332"><ele>344.0</ele><time>2026-03-28T09:00:30.307Z</time></trkpt><trkpt lat="44.2402787" lon="8.3917033"><ele>339.5</ele><time>2026-03-28T09:00:31.32Z</time></trkpt><trkpt lat="44.2401679" lon="8.3916761"><ele>335.0</ele><time>2026-03-28T09:00:32.304Z</time></trkpt><trkpt lat="44.2400633" lon="8.3916381"><ele>335.0</ele><time>2026-03-28T09:00:33.314Z</time></trkpt><trkpt lat="44.2399688" lon="8.3916221"><ele>335.0</ele><time>2026-03-28T09:00:34.313Z</time></trkpt><trkpt lat="44.2398856" lon="8.3915916"><ele>335.0</ele><time>2026-03-28T09:00:35.313Z</time></trkpt><trkpt lat="44.2398308" lon="8.3915398"><ele>335.0</ele><time>2026-03-28T09:00:36.326Z</time></trkpt><trkpt lat="44.239796" lon="8.3914545"><ele>335.0</ele><time>2026-03-28T09:00:37.32Z</time></trkpt><trkpt lat="44.2397769" lon="8.3913455"><ele>335.0</ele><time>2026-03-28T09:00:38.325Z</time></trkpt><trkpt lat="44.2397653" lon="8.3912247"><ele>337.4</ele><time>2026-03-28T09:00:39.322Z</time></trkpt><trkpt lat="44.2397547" lon="8.3911044"><ele>339.8</ele><time>2026-03-28T09:00:40.322Z</time></trkpt><trkpt lat="44.2397637" lon="8.3909921"><ele>342.20000000000005</ele><time>2026-03-28T09:00:41.327Z</time></trkpt><trkpt lat="44.2398117" lon="8.3908803"><ele>344.6</ele><time>2026-03-28T09:00:42.328Z</time></trkpt><trkpt lat="44.2398767" lon="8.3907723"><ele>347.0</ele><time>2026-03-28T09:00:43.324Z</time></trkpt><trkpt lat="44.2399464" lon="8.3906544"><ele>347.0</ele><time>2026-03-28T09:00:44.314Z</time></trkpt><trkpt lat="44.2400164" lon="8.3905348"><ele>347.0</ele><time>2026-03-28T09:00:45.323Z</time></trkpt><trkpt lat="44.240068" lon="8.390427"><ele>347.0</ele><time>2026-03-28T09:00:46.308Z</time></trkpt><trkpt lat="44.2401059" lon="8.3903002"><ele>347.0</ele><time>2026-03-28T09:00:47.309Z</time></trkpt><trkpt lat="44.2401304" lon="8.39017"><ele>347.0</ele><time>2026-03-28T09:00:48.309Z</time></trkpt><trkpt lat="44.240155" lon="8.390027"><ele>347.40000000000003</ele><time>2026-03-28T09:00:49.31Z</time></trkpt><trkpt lat="44.2401785" lon="8.3898938"><ele>347.8</ele><time>2026-03-28T09:00:50.302Z</time></trkpt><trkpt lat="44.2401967" lon="8.3897641"><ele>348.2</ele><time>2026-03-28T09:00:51.311Z</time></trkpt><trkpt lat="44.2402043" lon="8.38967"><ele>348.6</ele><time>2026-03-28T09:00:52.315Z</time></trkpt><trkpt lat="44.240142" lon="8.3895151"><ele>349.0</ele><time>2026-03-28T09:00:54.309Z</time></trkpt><trkpt lat="44.2400693" lon="8.389436"><ele>349.0</ele><time>2026-03-28T09:00:55.31Z</time></trkpt><trkpt lat="44.2400071" lon="8.38935"><ele>349.0</ele><time>2026-03-28T09:00:56.312Z</time></trkpt><trkpt lat="44.2399631" lon="8.3892592"><ele>349.0</ele><time>2026-03-28T09:00:57.308Z</time></trkpt><trkpt lat="44.2399317" lon="8.3891714"><ele>349.0</ele><time>2026-03-28T09:00:58.318Z</time></trkpt><trkpt lat="44.2399135" lon="8.3890607"><ele>349.0</ele><time>2026-03-28T09:00:59.315Z</time></trkpt><trkpt lat="44.239898" lon="8.388939"><ele>349.0</ele><time>2026-03-28T09:01:00.312Z</time></trkpt><trkpt lat="44.2398845" lon="8.3888287"><ele>353.2</ele><time>2026-03-28T09:01:01.311Z</time></trkpt><trkpt lat="44.2398607" lon="8.3887273"><ele>357.4</ele><time>2026-03-28T09:01:02.324Z</time></trkpt><trkpt lat="44.2398248" lon="8.3886257"><ele>361.6</ele><time>2026-03-28T09:01:03.303Z</time></trkpt><trkpt lat="44.2397599" lon="8.3885193"><ele>365.8</ele><time>2026-03-28T09:01:04.317Z</time></trkpt><trkpt lat="44.2396832" lon="8.3884093"><ele>370.0</ele><time>2026-03-28T09:01:05.307Z</time></trkpt><trkpt lat="44.2396088" lon="8.3883077"><ele>367.16666666666663</ele><time>2026-03-28T09:01:06.319Z</time></trkpt><trkpt lat="44.2395391" lon="8.3881955"><ele>364.3333333333333</ele><time>2026-03-28T09:01:07.31Z</time></trkpt><trkpt lat="44.2394837" lon="8.388104"><ele>361.5</ele><time>2026-03-28T09:01:08.321Z</time></trkpt><trkpt lat="44.2394483" lon="8.3880084"><ele>358.6666666666667</ele><time>2026-03-28T09:01:09.31Z</time></trkpt><trkpt lat="44.2394268" lon="8.387913"><ele>355.83333333333337</ele><time>2026-03-28T09:01:10.322Z</time></trkpt><trkpt lat="44.2394199" lon="8.3878129"><ele>353.0</ele><time>2026-03-28T09:01:11.304Z</time></trkpt><trkpt lat="44.2393663" lon="8.387672"><ele>353.0</ele><time>2026-03-28T09:01:13.308Z</time></trkpt><trkpt lat="44.2392444" lon="8.3875866"><ele>353.0</ele><time>2026-03-28T09:01:15.303Z</time></trkpt><trkpt lat="44.2391523" lon="8.3875481"><ele>353.0</ele><time>2026-03-28T09:01:16.313Z</time></trkpt><trkpt lat="44.2390493" lon="8.3875214"><ele>353.0</ele><time>2026-03-28T09:01:17.308Z</time></trkpt><trkpt lat="44.2389511" lon="8.3874894"><ele>353.0</ele><time>2026-03-28T09:01:18.319Z</time></trkpt><trkpt lat="44.2388591" lon="8.3874701"><ele>349.0</ele><time>2026-03-28T09:01:19.319Z</time></trkpt><trkpt lat="44.2387767" lon="8.3874297"><ele>345.0</ele><time>2026-03-28T09:01:20.332Z</time></trkpt><trkpt lat="44.2387195" lon="8.3873685"><ele>341.0</ele><time>2026-03-28T09:01:21.323Z</time></trkpt><trkpt lat="44.2386778" lon="8.3872679"><ele>337.0</ele><time>2026-03-28T09:01:22.334Z</time></trkpt><trkpt lat="44.2386355" lon="8.3871232"><ele>333.0</ele><time>2026-03-28T09:01:23.317Z</time></trkpt><trkpt lat="44.2385892" lon="8.3869713"><ele>333.0</ele><time>2026-03-28T09:01:24.319Z</time></trkpt><trkpt lat="44.2385624" lon="8.3868362"><ele>333.0</ele><time>2026-03-28T09:01:25.318Z</time></trkpt><trkpt lat="44.238539" lon="8.386709"><ele>333.0</ele><time>2026-03-28T09:01:26.313Z</time></trkpt><trkpt lat="44.238518" lon="8.3865823"><ele>333.0</ele><time>2026-03-28T09:01:27.315Z</time></trkpt><trkpt lat="44.2385106" lon="8.3864496"><ele>333.0</ele><time>2026-03-28T09:01:28.319Z</time></trkpt><trkpt lat="44.238482" lon="8.3863181"><ele>335.79999999999995</ele><time>2026-03-28T09:01:29.314Z</time></trkpt><trkpt lat="44.2384346" lon="8.3861957"><ele>338.6</ele><time>2026-03-28T09:01:30.32Z</time></trkpt><trkpt lat="44.2383788" lon="8.386082"><ele>341.4</ele><time>2026-03-28T09:01:31.323Z</time></trkpt><trkpt lat="44.2383127" lon="8.385981"><ele>344.20000000000005</ele><time>2026-03-28T09:01:32.315Z</time></trkpt><trkpt lat="44.2382527" lon="8.385896"><ele>347.0</ele><time>2026-03-28T09:01:33.336Z</time></trkpt><trkpt lat="44.238212" lon="8.3858134"><ele>347.0</ele><time>2026-03-28T09:01:34.317Z</time></trkpt><trkpt lat="44.2381684" lon="8.3857374"><ele>347.0</ele><time>2026-03-28T09:01:35.318Z</time></trkpt><trkpt lat="44.2381224" lon="8.3856555"><ele>347.0</ele><time>2026-03-28T09:01:36.321Z</time></trkpt><trkpt lat="44.2380929" lon="8.3855642"><ele>347.0</ele><time>2026-03-28T09:01:37.326Z</time></trkpt><trkpt lat="44.2380647" lon="8.385476"><ele>347.0</ele><time>2026-03-28T09:01:38.317Z</time></trkpt><trkpt lat="44.2380393" lon="8.385389"><ele>347.0</ele><time>2026-03-28T09:01:39.318Z</time></trkpt><trkpt lat="44.2380207" lon="8.3852891"><ele>347.0</ele><time>2026-03-28T09:01:40.313Z</time></trkpt><trkpt lat="44.2380101" lon="8.3851902"><ele>347.33333333333337</ele><time>2026-03-28T09:01:41.316Z</time></trkpt><trkpt lat="44.2379981" lon="8.3850834"><ele>347.6666666666667</ele><time>2026-03-28T09:01:42.306Z</time></trkpt><trkpt lat="44.2379665" lon="8.3849843"><ele>348.0</ele><time>2026-03-28T09:01:43.308Z</time></trkpt><trkpt lat="44.23792" lon="8.3848843"><ele>348.3333333333333</ele><time>2026-03-28T09:01:44.303Z</time></trkpt><trkpt lat="44.2378643" lon="8.3847844"><ele>348.66666666666663</ele><time>2026-03-28T09:01:45.306Z</time></trkpt><trkpt lat="44.2377981" lon="8.3847043"><ele>349.0</ele><time>2026-03-28T09:01:46.307Z</time></trkpt><trkpt lat="44.2377364" lon="8.3846239"><ele>349.0</ele><time>2026-03-28T09:01:47.313Z</time></trkpt><trkpt lat="44.2376753" lon="8.3845301"><ele>349.0</ele><time>2026-03-28T09:01:48.304Z</time></trkpt><trkpt lat="44.2376099" lon="8.3844561"><ele>349.0</ele><time>2026-03-28T09:01:49.313Z</time></trkpt><trkpt lat="44.2375472" lon="8.3843799"><ele>349.0</ele><time>2026-03-28T09:01:50.325Z</time></trkpt><trkpt lat="44.2374891" lon="8.3843217"><ele>349.0</ele><time>2026-03-28T09:01:51.329Z</time></trkpt><trkpt lat="44.2374127" lon="8.3842191"><ele>349.0</ele><time>2026-03-28T09:01:53.33Z</time></trkpt><trkpt lat="44.2373696" lon="8.3840386"><ele>349.0</ele><time>2026-03-28T09:01:55.331Z</time></trkpt><trkpt lat="44.2373621" lon="8.383916"><ele>349.0</ele><time>2026-03-28T09:01:56.33Z</time></trkpt><trkpt lat="44.2373385" lon="8.383819"><ele>349.0</ele><time>2026-03-28T09:01:57.336Z</time></trkpt><trkpt lat="44.237298" lon="8.3837419"><ele>349.0</ele><time>2026-03-28T09:01:58.335Z</time></trkpt><trkpt lat="44.237251" lon="8.3836568"><ele>349.0</ele><time>2026-03-28T09:01:59.326Z</time></trkpt><trkpt lat="44.2371864" lon="8.3835747"><ele>349.0</ele><time>2026-03-28T09:02:00.32Z</time></trkpt><trkpt lat="44.237103" lon="8.3834946"><ele>344.5</ele><time>2026-03-28T09:02:01.322Z</time></trkpt><trkpt lat="44.2370373" lon="8.3834163"><ele>340.0</ele><time>2026-03-28T09:02:02.318Z</time></trkpt><trkpt lat="44.2369637" lon="8.3833535"><ele>335.5</ele><time>2026-03-28T09:02:03.332Z</time></trkpt><trkpt lat="44.2369264" lon="8.3832723"><ele>331.0</ele><time>2026-03-28T09:02:04.34Z</time></trkpt><trkpt lat="44.2369163" lon="8.3831822"><ele>326.5</ele><time>2026-03-28T09:02:05.328Z</time></trkpt><trkpt lat="44.2369281" lon="8.3830564"><ele>322.0</ele><time>2026-03-28T09:02:06.326Z</time></trkpt><trkpt lat="44.2369674" lon="8.3829042"><ele>322.0</ele><time>2026-03-28T09:02:07.323Z</time></trkpt><trkpt lat="44.2370054" lon="8.3827509"><ele>322.0</ele><time>2026-03-28T09:02:08.322Z</time></trkpt><trkpt lat="44.2370515" lon="8.3825971"><ele>322.0</ele><time>2026-03-28T09:02:09.306Z</time></trkpt><trkpt lat="44.2370989" lon="8.3824589"><ele>322.0</ele><time>2026-03-28T09:02:10.317Z</time></trkpt><trkpt lat="44.2371351" lon="8.3823539"><ele>322.0</ele><time>2026-03-28T09:02:11.313Z</time></trkpt><trkpt lat="44.2371586" lon="8.3822682"><ele>325.40000000000003</ele><time>2026-03-28T09:02:12.311Z</time></trkpt><trkpt lat="44.2371444" lon="8.3821665"><ele>328.8</ele><time>2026-03-28T09:02:14.306Z</time></trkpt><trkpt lat="44.2370296" lon="8.3820858"><ele>332.2</ele><time>2026-03-28T09:02:16.301Z</time></trkpt><trkpt lat="44.2369519" lon="8.3820162"><ele>335.6</ele><time>2026-03-28T09:02:17.303Z</time></trkpt><trkpt lat="44.2368666" lon="8.3819388"><ele>339.0</ele><time>2026-03-28T09:02:18.303Z</time></trkpt><trkpt lat="44.2367863" lon="8.3818791"><ele>339.0</ele><time>2026-03-28T09:02:19.315Z</time></trkpt><trkpt lat="44.236752" lon="8.3818003"><ele>339.0</ele><time>2026-03-28T09:02:20.311Z</time></trkpt><trkpt lat="44.2367282" lon="8.3817172"><ele>339.0</ele><time>2026-03-28T09:02:21.31Z</time></trkpt><trkpt lat="44.2366667" lon="8.3815673"><ele>339.0</ele><time>2026-03-28T09:02:23.314Z</time></trkpt><trkpt lat="44.2366137" lon="8.3815036"><ele>339.0</ele><time>2026-03-28T09:02:24.305Z</time></trkpt><trkpt lat="44.2365472" lon="8.3814288"><ele>339.0</ele><time>2026-03-28T09:02:25.307Z</time></trkpt><trkpt lat="44.2364799" lon="8.3813373"><ele>336.79999999999995</ele><time>2026-03-28T09:02:26.305Z</time></trkpt><trkpt lat="44.2364037" lon="8.3812379"><ele>334.59999999999997</ele><time>2026-03-28T09:02:27.319Z</time></trkpt><trkpt lat="44.2363163" lon="8.3811375"><ele>332.4</ele><time>2026-03-28T09:02:28.317Z</time></trkpt><trkpt lat="44.2362299" lon="8.3810358"><ele>330.2</ele><time>2026-03-28T09:02:29.32Z</time></trkpt><trkpt lat="44.2361437" lon="8.3809441"><ele>328.0</ele><time>2026-03-28T09:02:30.315Z</time></trkpt><trkpt lat="44.2360564" lon="8.3808661"><ele>328.0</ele><time>2026-03-28T09:02:31.319Z</time></trkpt><trkpt lat="44.2359825" lon="8.3807804"><ele>328.0</ele><time>2026-03-28T09:02:32.322Z</time></trkpt><trkpt lat="44.2359203" lon="8.3806801"><ele>328.0</ele><time>2026-03-28T09:02:33.308Z</time></trkpt><trkpt lat="44.2358658" lon="8.3805574"><ele>328.0</ele><time>2026-03-28T09:02:34.319Z</time></trkpt><trkpt lat="44.2358172" lon="8.3804084"><ele>328.0</ele><time>2026-03-28T09:02:35.351Z</time></trkpt><trkpt lat="44.2357748" lon="8.3802433"><ele>331.0</ele><time>2026-03-28T09:02:36.317Z</time></trkpt><trkpt lat="44.23574" lon="8.3800908"><ele>334.0</ele><time>2026-03-28T09:02:37.325Z</time></trkpt><trkpt lat="44.2357088" lon="8.3799546"><ele>337.0</ele><time>2026-03-28T09:02:38.32Z</time></trkpt><trkpt lat="44.2356746" lon="8.3798115"><ele>340.0</ele><time>2026-03-28T09:02:39.336Z</time></trkpt><trkpt lat="44.2356466" lon="8.3796611"><ele>343.0</ele><time>2026-03-28T09:02:40.328Z</time></trkpt><trkpt lat="44.2356347" lon="8.379513"><ele>334.75</ele><time>2026-03-28T09:02:41.333Z</time></trkpt><trkpt lat="44.2356262" lon="8.3793552"><ele>326.5</ele><time>2026-03-28T09:02:42.327Z</time></trkpt><trkpt lat="44.2356194" lon="8.3791887"><ele>318.25</ele><time>2026-03-28T09:02:43.33Z</time></trkpt><trkpt lat="44.235594" lon="8.3790242"><ele>310.0</ele><time>2026-03-28T09:02:44.323Z</time></trkpt><trkpt lat="44.235568" lon="8.3788754"><ele>311.4</ele><time>2026-03-28T09:02:45.328Z</time></trkpt><trkpt lat="44.2355475" lon="8.3787395"><ele>312.8</ele><time>2026-03-28T09:02:46.317Z</time></trkpt><trkpt lat="44.2355372" lon="8.3786096"><ele>314.2</ele><time>2026-03-28T09:02:47.328Z</time></trkpt><trkpt lat="44.2355361" lon="8.3784811"><ele>315.6</ele><time>2026-03-28T09:02:48.32Z</time></trkpt><trkpt lat="44.2355413" lon="8.3783396"><ele>317.0</ele><time>2026-03-28T09:02:49.325Z</time></trkpt><trkpt lat="44.2355614" lon="8.3781836"><ele>316.5</ele><time>2026-03-28T09:02:50.32Z</time></trkpt><trkpt lat="44.2355916" lon="8.3780104"><ele>316.0</ele><time>2026-03-28T09:02:51.326Z</time></trkpt><trkpt lat="44.235624" lon="8.3778278"><ele>315.5</ele><time>2026-03-28T09:02:52.32Z</time></trkpt><trkpt lat="44.2356472" lon="8.3776571"><ele>315.0</ele><time>2026-03-28T09:02:53.331Z</time></trkpt><trkpt lat="44.2356683" lon="8.3774993"><ele>320.5</ele><time>2026-03-28T09:02:54.326Z</time></trkpt><trkpt lat="44.2356853" lon="8.3773737"><ele>326.0</ele><time>2026-03-28T09:02:55.325Z</time></trkpt><trkpt lat="44.2357089" lon="8.377272"><ele>331.5</ele><time>2026-03-28T09:02:56.322Z</time></trkpt><trkpt lat="44.2357346" lon="8.377176"><ele>337.0</ele><time>2026-03-28T09:02:57.326Z</time></trkpt><trkpt lat="44.2357615" lon="8.3770765"><ele>342.5</ele><time>2026-03-28T09:02:58.332Z</time></trkpt><trkpt lat="44.2357948" lon="8.3769651"><ele>348.0</ele><time>2026-03-28T09:02:59.314Z</time></trkpt><trkpt lat="44.2358201" lon="8.3768413"><ele>348.2</ele><time>2026-03-28T09:03:00.315Z</time></trkpt><trkpt lat="44.2358293" lon="8.3767121"><ele>348.4</ele><time>2026-03-28T09:03:01.313Z</time></trkpt><trkpt lat="44.2358194" lon="8.3765741"><ele>348.59999999999997</ele><time>2026-03-28T09:03:02.322Z</time></trkpt><trkpt lat="44.2357886" lon="8.3764351"><ele>348.79999999999995</ele><time>2026-03-28T09:03:03.308Z</time></trkpt><trkpt lat="44.2357598" lon="8.3763036"><ele>349.0</ele><time>2026-03-28T09:03:04.32Z</time></trkpt><trkpt lat="44.2357152" lon="8.3761824"><ele>349.8333333333333</ele><time>2026-03-28T09:03:05.328Z</time></trkpt><trkpt lat="44.2356728" lon="8.3760875"><ele>350.66666666666663</ele><time>2026-03-28T09:03:06.305Z</time></trkpt><trkpt lat="44.2356279" lon="8.3760072"><ele>351.5</ele><time>2026-03-28T09:03:07.311Z</time></trkpt><trkpt lat="44.2355591" lon="8.3759052"><ele>352.3333333333333</ele><time>2026-03-28T09:03:09.313Z</time></trkpt><trkpt lat="44.2355047" lon="8.3758367"><ele>353.1666666666667</ele><time>2026-03-28T09:03:12.315Z</time></trkpt><trkpt lat="44.2355654" lon="8.375884"><ele>354.0</ele><time>2026-03-28T09:06:54.325Z</time></trkpt><trkpt lat="44.2356327" lon="8.3759824"><ele>354.0</ele><time>2026-03-28T09:06:56.326Z</time></trkpt><trkpt lat="44.2357366" lon="8.3760858"><ele>354.0</ele><time>2026-03-28T09:06:58.325Z</time></trkpt><trkpt lat="44.2357897" lon="8.3761471"><ele>354.0</ele><time>2026-03-28T09:06:59.318Z</time></trkpt><trkpt lat="44.2358453" lon="8.3762107"><ele>354.0</ele><time>2026-03-28T09:07:00.317Z</time></trkpt><trkpt lat="44.2359049" lon="8.3762932"><ele>354.0</ele><time>2026-03-28T09:07:01.31Z</time></trkpt><trkpt lat="44.2359648" lon="8.3763779"><ele>354.0</ele><time>2026-03-28T09:07:02.313Z</time></trkpt><trkpt lat="44.2360251" lon="8.3764633"><ele>353.0</ele><time>2026-03-28T09:07:03.309Z</time></trkpt><trkpt lat="44.2360866" lon="8.376557"><ele>352.0</ele><time>2026-03-28T09:07:04.313Z</time></trkpt><trkpt lat="44.2361401" lon="8.376668"><ele>351.0</ele><time>2026-03-28T09:07:05.31Z</time></trkpt><trkpt lat="44.2361866" lon="8.3767973"><ele>350.0</ele><time>2026-03-28T09:07:06.321Z</time></trkpt><trkpt lat="44.2362223" lon="8.3769343"><ele>349.0</ele><time>2026-03-28T09:07:07.314Z</time></trkpt><trkpt lat="44.2362583" lon="8.3770675"><ele>348.8333333333333</ele><time>2026-03-28T09:07:08.313Z</time></trkpt><trkpt lat="44.2362815" lon="8.3772074"><ele>348.66666666666663</ele><time>2026-03-28T09:07:09.316Z</time></trkpt><trkpt lat="44.2362926" lon="8.3773475"><ele>348.5</ele><time>2026-03-28T09:07:10.321Z</time></trkpt><trkpt lat="44.236307" lon="8.3774686"><ele>348.3333333333333</ele><time>2026-03-28T09:07:11.323Z</time></trkpt><trkpt lat="44.2362972" lon="8.3775572"><ele>348.1666666666667</ele><time>2026-03-28T09:07:12.329Z</time></trkpt><trkpt lat="44.2362402" lon="8.3776497"><ele>348.0</ele><time>2026-03-28T09:07:14.321Z</time></trkpt><trkpt lat="44.2361774" lon="8.3776934"><ele>348.0</ele><time>2026-03-28T09:07:16.325Z</time></trkpt><trkpt lat="44.2362486" lon="8.3776472"><ele>348.0</ele><time>2026-03-28T09:15:29.304Z</time></trkpt><trkpt lat="44.2363172" lon="8.3775239"><ele>348.0</ele><time>2026-03-28T09:15:31.31Z</time></trkpt><trkpt lat="44.236355" lon="8.3774438"><ele>348.0</ele><time>2026-03-28T09:15:32.305Z</time></trkpt><trkpt lat="44.236375" lon="8.3773549"><ele>348.0</ele><time>2026-03-28T09:15:33.299Z</time></trkpt><trkpt lat="44.2364042" lon="8.3772679"><ele>348.0</ele><time>2026-03-28T09:15:34.303Z</time></trkpt><trkpt lat="44.236468" lon="8.3771168"><ele>355.79999999999995</ele><time>2026-03-28T09:15:36.303Z</time></trkpt><trkpt lat="44.2364916" lon="8.3769746"><ele>363.6</ele><time>2026-03-28T09:15:38.298Z</time></trkpt><trkpt lat="44.2365039" lon="8.3768477"><ele>371.4</ele><time>2026-03-28T09:15:40.301Z</time></trkpt><trkpt lat="44.2365046" lon="8.3767074"><ele>379.20000000000005</ele><time>2026-03-28T09:15:42.303Z</time></trkpt><trkpt lat="44.2365177" lon="8.3765503"><ele>387.0</ele><time>2026-03-28T09:15:44.306Z</time></trkpt><trkpt lat="44.236531" lon="8.3764059"><ele>386.6666666666667</ele><time>2026-03-28T09:15:46.314Z</time></trkpt><trkpt lat="44.2365366" lon="8.3762711"><ele>386.33333333333337</ele><time>2026-03-28T09:15:48.307Z</time></trkpt><trkpt lat="44.2365762" lon="8.3761585"><ele>386.0</ele><time>2026-03-28T09:15:50.306Z</time></trkpt><trkpt lat="44.2366366" lon="8.3760612"><ele>385.6666666666667</ele><time>2026-03-28T09:15:52.309Z</time></trkpt><trkpt lat="44.236702" lon="8.3760037"><ele>385.33333333333337</ele><time>2026-03-28T09:15:54.306Z</time></trkpt><trkpt lat="44.2367772" lon="8.3759453"><ele>385.0</ele><time>2026-03-28T09:15:57.308Z</time></trkpt><trkpt lat="44.2368611" lon="8.3759342"><ele>385.0</ele><time>2026-03-28T09:15:59.317Z</time></trkpt><trkpt lat="44.2369579" lon="8.3758841"><ele>385.0</ele><time>2026-03-28T09:16:01.307Z</time></trkpt><trkpt lat="44.2370297" lon="8.3758198"><ele>385.0</ele><time>2026-03-28T09:16:03.307Z</time></trkpt><trkpt lat="44.2370612" lon="8.3757186"><ele>385.0</ele><time>2026-03-28T09:16:05.309Z</time></trkpt><trkpt lat="44.2370715" lon="8.3755529"><ele>385.0</ele><time>2026-03-28T09:16:07.309Z</time></trkpt><trkpt lat="44.2370726" lon="8.3754052"><ele>385.2</ele><time>2026-03-28T09:16:09.311Z</time></trkpt><trkpt lat="44.2370818" lon="8.3752782"><ele>385.4</ele><time>2026-03-28T09:16:11.315Z</time></trkpt><trkpt lat="44.2370984" lon="8.375119"><ele>385.6</ele><time>2026-03-28T09:16:13.313Z</time></trkpt><trkpt lat="44.2371048" lon="8.374965"><ele>385.8</ele><time>2026-03-28T09:16:15.314Z</time></trkpt><trkpt lat="44.2371423" lon="8.3748141"><ele>386.0</ele><time>2026-03-28T09:16:17.307Z</time></trkpt><trkpt lat="44.2371793" lon="8.3747408"><ele>388.99999999999994</ele><time>2026-03-28T09:16:18.3Z</time></trkpt><trkpt lat="44.2372199" lon="8.3746608"><ele>392.0</ele><time>2026-03-28T09:16:19.31Z</time></trkpt><trkpt lat="44.2372669" lon="8.3745123"><ele>395.0</ele><time>2026-03-28T09:16:21.308Z</time></trkpt><trkpt lat="44.2373147" lon="8.3743827"><ele>398.0</ele><time>2026-03-28T09:16:23.309Z</time></trkpt><trkpt lat="44.2373607" lon="8.3742918"><ele>400.99999999999994</ele><time>2026-03-28T09:16:25.313Z</time></trkpt><trkpt lat="44.2374041" lon="8.3742027"><ele>404.0</ele><time>2026-03-28T09:16:27.316Z</time></trkpt><trkpt lat="44.2373675" lon="8.3741242"><ele>404.4</ele><time>2026-03-28T09:17:24.311Z</time></trkpt><trkpt lat="44.2374065" lon="8.3740156"><ele>404.79999999999995</ele><time>2026-03-28T09:19:27.311Z</time></trkpt><trkpt lat="44.2374633" lon="8.3739264"><ele>405.20000000000005</ele><time>2026-03-28T09:19:30.316Z</time></trkpt><trkpt lat="44.2375442" lon="8.3738531"><ele>405.6</ele><time>2026-03-28T09:19:33.309Z</time></trkpt><trkpt lat="44.2375974" lon="8.3737419"><ele>406.0</ele><time>2026-03-28T09:19:35.328Z</time></trkpt><trkpt lat="44.2376511" lon="8.3736156"><ele>408.6</ele><time>2026-03-28T09:19:37.315Z</time></trkpt><trkpt lat="44.2376801" lon="8.3734811"><ele>411.20000000000005</ele><time>2026-03-28T09:19:39.321Z</time></trkpt><trkpt lat="44.237694" lon="8.3733422"><ele>413.79999999999995</ele><time>2026-03-28T09:19:41.321Z</time></trkpt><trkpt lat="44.2377206" lon="8.3731917"><ele>416.4</ele><time>2026-03-28T09:19:43.317Z</time></trkpt><trkpt lat="44.2377866" lon="8.3730453"><ele>419.0</ele><time>2026-03-28T09:19:45.31Z</time></trkpt><trkpt lat="44.237862" lon="8.3729361"><ele>422.6</ele><time>2026-03-28T09:19:47.312Z</time></trkpt><trkpt lat="44.2379125" lon="8.372863"><ele>426.2</ele><time>2026-03-28T09:19:49.311Z</time></trkpt><trkpt lat="44.2379296" lon="8.3727715"><ele>429.80000000000007</ele><time>2026-03-28T09:20:33.326Z</time></trkpt><trkpt lat="44.2379219" lon="8.3726161"><ele>433.40000000000003</ele><time>2026-03-28T09:20:36.306Z</time></trkpt><trkpt lat="44.2378923" lon="8.3724475"><ele>437.0</ele><time>2026-03-28T09:20:38.306Z</time></trkpt><trkpt lat="44.2378789" lon="8.3723277"><ele>436.99999999999994</ele><time>2026-03-28T09:20:40.303Z</time></trkpt><trkpt lat="44.2379149" lon="8.3722398"><ele>437.0</ele><time>2026-03-28T09:20:42.31Z</time></trkpt><trkpt lat="44.2379712" lon="8.3721346"><ele>437.0</ele><time>2026-03-28T09:20:44.302Z</time></trkpt><trkpt lat="44.2380422" lon="8.372033"><ele>437.0</ele><time>2026-03-28T09:20:46.31Z</time></trkpt><trkpt lat="44.2381108" lon="8.3719507"><ele>436.99999999999994</ele><time>2026-03-28T09:20:48.313Z</time></trkpt><trkpt lat="44.2381855" lon="8.3719018"><ele>437.0</ele><time>2026-03-28T09:20:50.312Z</time></trkpt><trkpt lat="44.2382643" lon="8.3718703"><ele>436.66666666666663</ele><time>2026-03-28T09:20:52.307Z</time></trkpt><trkpt lat="44.2383551" lon="8.3718065"><ele>436.3333333333333</ele><time>2026-03-28T09:20:54.314Z</time></trkpt><trkpt lat="44.2384148" lon="8.3717655"><ele>436.0</ele><time>2026-03-28T09:20:57.319Z</time></trkpt><trkpt lat="44.2384667" lon="8.3717038"><ele>435.66666666666663</ele><time>2026-03-28T09:23:49.331Z</time></trkpt><trkpt lat="44.2385141" lon="8.3715986"><ele>435.3333333333333</ele><time>2026-03-28T09:23:52.302Z</time></trkpt><trkpt lat="44.2385775" lon="8.3714908"><ele>435.0</ele><time>2026-03-28T09:23:54.315Z</time></trkpt><trkpt lat="44.2386417" lon="8.3713665"><ele>440.5</ele><time>2026-03-28T09:23:56.311Z</time></trkpt><trkpt lat="44.238701" lon="8.3712557"><ele>446.0</ele><time>2026-03-28T09:23:58.322Z</time></trkpt><trkpt lat="44.2387497" lon="8.3711572"><ele>451.5</ele><time>2026-03-28T09:24:00.325Z</time></trkpt><trkpt lat="44.2387806" lon="8.3710757"><ele>457.0</ele><time>2026-03-28T09:24:02.318Z</time></trkpt><trkpt lat="44.2388082" lon="8.3709919"><ele>462.5</ele><time>2026-03-28T09:24:11.331Z</time></trkpt><trkpt lat="44.2388123" lon="8.3708691"><ele>468.0</ele><time>2026-03-28T09:24:14.306Z</time></trkpt><trkpt lat="44.2388205" lon="8.3707584"><ele>468.0</ele><time>2026-03-28T09:24:16.309Z</time></trkpt><trkpt lat="44.238829" lon="8.3705945"><ele>468.0</ele><time>2026-03-28T09:24:18.307Z</time></trkpt><trkpt lat="44.2388319" lon="8.3704994"><ele>468.0</ele><time>2026-03-28T09:24:19.314Z</time></trkpt><trkpt lat="44.2388418" lon="8.3704037"><ele>468.0</ele><time>2026-03-28T09:24:20.308Z</time></trkpt><trkpt lat="44.2388498" lon="8.3703146"><ele>468.0</ele><time>2026-03-28T09:24:21.309Z</time></trkpt><trkpt lat="44.2388715" lon="8.3701807"><ele>468.0</ele><time>2026-03-28T09:24:23.319Z</time></trkpt><trkpt lat="44.2389218" lon="8.3700616"><ele>465.0</ele><time>2026-03-28T09:24:25.315Z</time></trkpt><trkpt lat="44.2390125" lon="8.3699258"><ele>461.99999999999994</ele><time>2026-03-28T09:24:27.312Z</time></trkpt><trkpt lat="44.2390626" lon="8.3698633"><ele>458.99999999999994</ele><time>2026-03-28T09:24:28.319Z</time></trkpt><trkpt lat="44.2391572" lon="8.3697526"><ele>456.0</ele><time>2026-03-28T09:24:30.328Z</time></trkpt><trkpt lat="44.2392501" lon="8.3696523"><ele>453.0</ele><time>2026-03-28T09:24:32.322Z</time></trkpt><trkpt lat="44.2392885" lon="8.3694861"><ele>453.0</ele><time>2026-03-28T09:24:34.316Z</time></trkpt><trkpt lat="44.239297" lon="8.3693892"><ele>453.0</ele><time>2026-03-28T09:24:35.313Z</time></trkpt><trkpt lat="44.2392786" lon="8.3692885"><ele>453.0</ele><time>2026-03-28T09:24:36.317Z</time></trkpt><trkpt lat="44.2392561" lon="8.369196"><ele>453.0</ele><time>2026-03-28T09:24:37.308Z</time></trkpt><trkpt lat="44.2392296" lon="8.3691061"><ele>453.0</ele><time>2026-03-28T09:24:38.319Z</time></trkpt><trkpt lat="44.2392084" lon="8.3690162"><ele>453.0</ele><time>2026-03-28T09:24:39.313Z</time></trkpt><trkpt lat="44.2392174" lon="8.3688452"><ele>452.59999999999997</ele><time>2026-03-28T09:24:41.313Z</time></trkpt><trkpt lat="44.2392194" lon="8.3686919"><ele>452.19999999999993</ele><time>2026-03-28T09:24:43.309Z</time></trkpt><trkpt lat="44.2392025" lon="8.3685451"><ele>451.8</ele><time>2026-03-28T09:24:45.309Z</time></trkpt><trkpt lat="44.2391743" lon="8.368411"><ele>451.4</ele><time>2026-03-28T09:24:47.311Z</time></trkpt><trkpt lat="44.2391422" lon="8.3682718"><ele>451.0</ele><time>2026-03-28T09:24:49.312Z</time></trkpt><trkpt lat="44.2390979" lon="8.3681366"><ele>450.4</ele><time>2026-03-28T09:24:51.309Z</time></trkpt><trkpt lat="44.2390582" lon="8.367992"><ele>449.8</ele><time>2026-03-28T09:24:53.314Z</time></trkpt><trkpt lat="44.2390631" lon="8.3678494"><ele>449.19999999999993</ele><time>2026-03-28T09:24:55.311Z</time></trkpt><trkpt lat="44.2390873" lon="8.3677054"><ele>448.59999999999997</ele><time>2026-03-28T09:24:57.316Z</time></trkpt><trkpt lat="44.2391005" lon="8.3675861"><ele>448.0</ele><time>2026-03-28T09:24:59.32Z</time></trkpt><trkpt lat="44.239095" lon="8.3674947"><ele>448.00000000000006</ele><time>2026-03-28T09:26:02.317Z</time></trkpt><trkpt lat="44.2390562" lon="8.3674044"><ele>448.0</ele><time>2026-03-28T09:26:04.302Z</time></trkpt><trkpt lat="44.2390485" lon="8.3673006"><ele>448.0</ele><time>2026-03-28T09:26:05.297Z</time></trkpt><trkpt lat="44.2390213" lon="8.36712"><ele>448.0</ele><time>2026-03-28T09:26:07.292Z</time></trkpt><trkpt lat="44.2390298" lon="8.3670177"><ele>448.00000000000006</ele><time>2026-03-28T09:26:08.306Z</time></trkpt><trkpt lat="44.2390365" lon="8.3669142"><ele>448.0</ele><time>2026-03-28T09:26:09.3Z</time></trkpt><trkpt lat="44.2390404" lon="8.3667779"><ele>449.0</ele><time>2026-03-28T09:26:11.311Z</time></trkpt><trkpt lat="44.2390364" lon="8.366626"><ele>449.99999999999994</ele><time>2026-03-28T09:26:13.307Z</time></trkpt><trkpt lat="44.2390443" lon="8.36648"><ele>450.99999999999994</ele><time>2026-03-28T09:26:15.308Z</time></trkpt><trkpt lat="44.2390433" lon="8.366316"><ele>452.0</ele><time>2026-03-28T09:26:17.327Z</time></trkpt><trkpt lat="44.2390364" lon="8.3661676"><ele>453.0</ele><time>2026-03-28T09:26:19.313Z</time></trkpt><trkpt lat="44.2390006" lon="8.3660063"><ele>454.59999999999997</ele><time>2026-03-28T09:26:21.316Z</time></trkpt><trkpt lat="44.2389884" lon="8.3658537"><ele>456.19999999999993</ele><time>2026-03-28T09:26:23.308Z</time></trkpt><trkpt lat="44.2389959" lon="8.3657175"><ele>457.8</ele><time>2026-03-28T09:26:25.303Z</time></trkpt><trkpt lat="44.2390405" lon="8.3655469"><ele>459.4</ele><time>2026-03-28T09:26:27.305Z</time></trkpt><trkpt lat="44.239078" lon="8.3654572"><ele>461.0</ele><time>2026-03-28T09:26:28.309Z</time></trkpt><trkpt lat="44.2391062" lon="8.365361"><ele>462.99999999999994</ele><time>2026-03-28T09:26:29.306Z</time></trkpt><trkpt lat="44.2391329" lon="8.3652729"><ele>465.0</ele><time>2026-03-28T09:26:30.316Z</time></trkpt><trkpt lat="44.2391596" lon="8.3651809"><ele>467.0</ele><time>2026-03-28T09:26:31.305Z</time></trkpt><trkpt lat="44.2391733" lon="8.3650871"><ele>469.0</ele><time>2026-03-28T09:26:32.316Z</time></trkpt><trkpt lat="44.2391859" lon="8.3649999"><ele>470.99999999999994</ele><time>2026-03-28T09:26:33.306Z</time></trkpt><trkpt lat="44.2391831" lon="8.3648439"><ele>473.0</ele><time>2026-03-28T09:26:35.308Z</time></trkpt><trkpt lat="44.2391711" lon="8.3646723"><ele>475.79999999999995</ele><time>2026-03-28T09:26:37.301Z</time></trkpt><trkpt lat="44.2391893" lon="8.3645335"><ele>478.59999999999997</ele><time>2026-03-28T09:26:39.305Z</time></trkpt><trkpt lat="44.2391932" lon="8.3644165"><ele>481.40000000000003</ele><time>2026-03-28T09:26:41.305Z</time></trkpt><trkpt lat="44.2392196" lon="8.3642893"><ele>484.20000000000005</ele><time>2026-03-28T09:26:43.303Z</time></trkpt><trkpt lat="44.2392726" lon="8.3641796"><ele>487.0</ele><time>2026-03-28T09:26:45.305Z</time></trkpt><trkpt lat="44.2393438" lon="8.3640625"><ele>487.0</ele><time>2026-03-28T09:26:47.313Z</time></trkpt><trkpt lat="44.2394105" lon="8.3639334"><ele>487.0</ele><time>2026-03-28T09:26:49.31Z</time></trkpt><trkpt lat="44.2394464" lon="8.3638546"><ele>487.0</ele><time>2026-03-28T09:26:50.316Z</time></trkpt><trkpt lat="44.2394893" lon="8.3637829"><ele>487.0</ele><time>2026-03-28T09:26:51.309Z</time></trkpt><trkpt lat="44.2395372" lon="8.3637183"><ele>487.0</ele><time>2026-03-28T09:26:52.319Z</time></trkpt><trkpt lat="44.2395834" lon="8.3636551"><ele>487.0</ele><time>2026-03-28T09:26:53.317Z</time></trkpt><trkpt lat="44.2396338" lon="8.363597"><ele>487.0</ele><time>2026-03-28T09:26:54.317Z</time></trkpt><trkpt lat="44.2396948" lon="8.3635395"><ele>487.00000000000006</ele><time>2026-03-28T09:26:55.311Z</time></trkpt><trkpt lat="44.239762" lon="8.3634696"><ele>487.0</ele><time>2026-03-28T09:26:56.313Z</time></trkpt><trkpt lat="44.2398221" lon="8.3633853"><ele>487.0</ele><time>2026-03-28T09:26:57.315Z</time></trkpt><trkpt lat="44.2398806" lon="8.363304"><ele>487.0</ele><time>2026-03-28T09:26:58.309Z</time></trkpt><trkpt lat="44.2399267" lon="8.3632156"><ele>487.00000000000006</ele><time>2026-03-28T09:26:59.315Z</time></trkpt><trkpt lat="44.2399657" lon="8.3631272"><ele>487.0</ele><time>2026-03-28T09:27:00.319Z</time></trkpt><trkpt lat="44.2399991" lon="8.3630495"><ele>486.6666666666667</ele><time>2026-03-28T09:27:01.312Z</time></trkpt><trkpt lat="44.2400295" lon="8.3629632"><ele>486.33333333333337</ele><time>2026-03-28T09:27:02.321Z</time></trkpt><trkpt lat="44.2400642" lon="8.3628628"><ele>486.0</ele><time>2026-03-28T09:27:03.311Z</time></trkpt><trkpt lat="44.2401111" lon="8.3627629"><ele>485.66666666666663</ele><time>2026-03-28T09:27:04.312Z</time></trkpt><trkpt lat="44.2401629" lon="8.3626684"><ele>485.3333333333333</ele><time>2026-03-28T09:27:05.315Z</time></trkpt><trkpt lat="44.2402195" lon="8.3625858"><ele>485.0</ele><time>2026-03-28T09:27:06.319Z</time></trkpt><trkpt lat="44.2402723" lon="8.3625055"><ele>485.0</ele><time>2026-03-28T09:27:07.316Z</time></trkpt><trkpt lat="44.2403188" lon="8.3624342"><ele>485.0</ele><time>2026-03-28T09:27:08.314Z</time></trkpt><trkpt lat="44.2403569" lon="8.3623583"><ele>485.0</ele><time>2026-03-28T09:27:09.312Z</time></trkpt><trkpt lat="44.2404182" lon="8.3622255"><ele>485.0</ele><time>2026-03-28T09:27:11.325Z</time></trkpt><trkpt lat="44.2404881" lon="8.3621119"><ele>485.0</ele><time>2026-03-28T09:27:13.323Z</time></trkpt><trkpt lat="44.2405756" lon="8.3619816"><ele>485.0</ele><time>2026-03-28T09:27:15.324Z</time></trkpt><trkpt lat="44.2406618" lon="8.3619053"><ele>485.0</ele><time>2026-03-28T09:27:17.318Z</time></trkpt><trkpt lat="44.2407586" lon="8.3618495"><ele>485.0</ele><time>2026-03-28T09:27:19.344Z</time></trkpt><trkpt lat="44.2408432" lon="8.361769"><ele>485.0</ele><time>2026-03-28T09:27:21.321Z</time></trkpt><trkpt lat="44.2408993" lon="8.3616425"><ele>485.0</ele><time>2026-03-28T09:27:23.322Z</time></trkpt><trkpt lat="44.2409548" lon="8.3614953"><ele>485.0</ele><time>2026-03-28T09:27:25.323Z</time></trkpt><trkpt lat="44.241005" lon="8.3613693"><ele>485.0</ele><time>2026-03-28T09:27:27.323Z</time></trkpt><trkpt lat="44.2410557" lon="8.3612513"><ele>485.0</ele><time>2026-03-28T09:27:29.316Z</time></trkpt><trkpt lat="44.2411317" lon="8.3611574"><ele>485.0</ele><time>2026-03-28T09:27:31.316Z</time></trkpt><trkpt lat="44.2411989" lon="8.3610667"><ele>485.0</ele><time>2026-03-28T09:27:33.315Z</time></trkpt><trkpt lat="44.2412586" lon="8.3609887"><ele>483.8333333333333</ele><time>2026-03-28T09:27:36.332Z</time></trkpt><trkpt lat="44.2413214" lon="8.3608908"><ele>482.66666666666663</ele><time>2026-03-28T09:27:40.319Z</time></trkpt><trkpt lat="44.2413749" lon="8.3608141"><ele>481.5</ele><time>2026-03-28T09:27:42.314Z</time></trkpt><trkpt lat="44.2414524" lon="8.3607626"><ele>480.33333333333337</ele><time>2026-03-28T09:27:44.313Z</time></trkpt><trkpt lat="44.2415128" lon="8.3607219"><ele>479.1666666666667</ele><time>2026-03-28T09:27:46.312Z</time></trkpt><trkpt lat="44.2415814" lon="8.3606376"><ele>478.0</ele><time>2026-03-28T09:27:49.324Z</time></trkpt><trkpt lat="44.2416472" lon="8.3605964"><ele>478.2</ele><time>2026-03-28T09:27:51.305Z</time></trkpt><trkpt lat="44.2417504" lon="8.3605143"><ele>478.4</ele><time>2026-03-28T09:27:53.305Z</time></trkpt><trkpt lat="44.2418031" lon="8.3604625"><ele>478.59999999999997</ele><time>2026-03-28T09:27:54.308Z</time></trkpt><trkpt lat="44.2418733" lon="8.3604038"><ele>478.79999999999995</ele><time>2026-03-28T09:27:55.31Z</time></trkpt><trkpt lat="44.2419487" lon="8.3603311"><ele>479.0</ele><time>2026-03-28T09:27:56.307Z</time></trkpt><trkpt lat="44.2420318" lon="8.3602622"><ele>479.0</ele><time>2026-03-28T09:27:57.309Z</time></trkpt><trkpt lat="44.2421079" lon="8.3601955"><ele>479.0</ele><time>2026-03-28T09:27:58.312Z</time></trkpt><trkpt lat="44.2421822" lon="8.3601356"><ele>479.0</ele><time>2026-03-28T09:27:59.305Z</time></trkpt><trkpt lat="44.2422647" lon="8.3600707"><ele>479.0</ele><time>2026-03-28T09:28:00.316Z</time></trkpt><trkpt lat="44.2423492" lon="8.360008"><ele>479.0</ele><time>2026-03-28T09:28:01.302Z</time></trkpt><trkpt lat="44.24243" lon="8.3599448"><ele>478.49999999999994</ele><time>2026-03-28T09:28:02.312Z</time></trkpt><trkpt lat="44.2425103" lon="8.3598901"><ele>478.0</ele><time>2026-03-28T09:28:03.302Z</time></trkpt><trkpt lat="44.2425916" lon="8.359844"><ele>477.5</ele><time>2026-03-28T09:28:04.313Z</time></trkpt><trkpt lat="44.2426724" lon="8.3597994"><ele>477.0</ele><time>2026-03-28T09:28:05.304Z</time></trkpt><trkpt lat="44.2427491" lon="8.3597601"><ele>476.49999999999994</ele><time>2026-03-28T09:28:06.311Z</time></trkpt><trkpt lat="44.2428203" lon="8.3597116"><ele>476.0</ele><time>2026-03-28T09:28:07.302Z</time></trkpt><trkpt lat="44.2428978" lon="8.3596791"><ele>476.0</ele><time>2026-03-28T09:28:08.309Z</time></trkpt><trkpt lat="44.2429792" lon="8.3596468"><ele>476.0</ele><time>2026-03-28T09:28:09.312Z</time></trkpt><trkpt lat="44.2430717" lon="8.3596165"><ele>476.0</ele><time>2026-03-28T09:28:10.318Z</time></trkpt><trkpt lat="44.243169" lon="8.3595937"><ele>476.0</ele><time>2026-03-28T09:28:11.31Z</time></trkpt><trkpt lat="44.2432649" lon="8.359583"><ele>476.0</ele><time>2026-03-28T09:28:12.311Z</time></trkpt><trkpt lat="44.2433536" lon="8.3595748"><ele>477.66666666666663</ele><time>2026-03-28T09:28:13.308Z</time></trkpt><trkpt lat="44.2434431" lon="8.3595733"><ele>479.3333333333333</ele><time>2026-03-28T09:28:14.306Z</time></trkpt><trkpt lat="44.243528" lon="8.3595728"><ele>481.0</ele><time>2026-03-28T09:28:15.314Z</time></trkpt><trkpt lat="44.2436099" lon="8.3595738"><ele>482.66666666666663</ele><time>2026-03-28T09:28:16.304Z</time></trkpt><trkpt lat="44.2436864" lon="8.3595742"><ele>484.3333333333333</ele><time>2026-03-28T09:28:17.314Z</time></trkpt><trkpt lat="44.2437661" lon="8.3595657"><ele>486.0</ele><time>2026-03-28T09:28:18.306Z</time></trkpt><trkpt lat="44.2438437" lon="8.3595496"><ele>486.0</ele><time>2026-03-28T09:28:19.31Z</time></trkpt><trkpt lat="44.2439183" lon="8.3595347"><ele>486.0</ele><time>2026-03-28T09:28:20.321Z</time></trkpt><trkpt lat="44.2439847" lon="8.3595292"><ele>486.0</ele><time>2026-03-28T09:28:21.308Z</time></trkpt><trkpt lat="44.2440498" lon="8.3595537"><ele>486.0</ele><time>2026-03-28T09:28:22.312Z</time></trkpt><trkpt lat="44.2441152" lon="8.3595979"><ele>486.0</ele><time>2026-03-28T09:28:23.31Z</time></trkpt><trkpt lat="44.2441697" lon="8.3596683"><ele>486.0</ele><time>2026-03-28T09:28:24.301Z</time></trkpt><trkpt lat="44.2442213" lon="8.3597418"><ele>486.0</ele><time>2026-03-28T09:28:25.309Z</time></trkpt><trkpt lat="44.2442718" lon="8.3598201"><ele>489.8333333333333</ele><time>2026-03-28T09:28:26.306Z</time></trkpt><trkpt lat="44.2443266" lon="8.3598779"><ele>493.66666666666663</ele><time>2026-03-28T09:28:27.308Z</time></trkpt><trkpt lat="44.244396" lon="8.3599258"><ele>497.5</ele><time>2026-03-28T09:28:28.313Z</time></trkpt><trkpt lat="44.2444667" lon="8.359939"><ele>501.3333333333333</ele><time>2026-03-28T09:28:29.307Z</time></trkpt><trkpt lat="44.244542" lon="8.3599221"><ele>505.16666666666663</ele><time>2026-03-28T09:28:30.31Z</time></trkpt><trkpt lat="44.244623" lon="8.3598803"><ele>509.0</ele><time>2026-03-28T09:28:31.298Z</time></trkpt><trkpt lat="44.2446995" lon="8.3598393"><ele>508.99999999999994</ele><time>2026-03-28T09:28:32.312Z</time></trkpt><trkpt lat="44.2447704" lon="8.3597975"><ele>509.0</ele><time>2026-03-28T09:28:33.305Z</time></trkpt><trkpt lat="44.2448473" lon="8.3597629"><ele>509.0</ele><time>2026-03-28T09:28:34.31Z</time></trkpt><trkpt lat="44.2449269" lon="8.3597254"><ele>509.0</ele><time>2026-03-28T09:28:35.304Z</time></trkpt><trkpt lat="44.2450084" lon="8.3596777"><ele>508.99999999999994</ele><time>2026-03-28T09:28:36.308Z</time></trkpt><trkpt lat="44.2450793" lon="8.359627"><ele>509.0</ele><time>2026-03-28T09:28:37.304Z</time></trkpt><trkpt lat="44.2451416" lon="8.3595684"><ele>508.99999999999994</ele><time>2026-03-28T09:28:38.312Z</time></trkpt><trkpt lat="44.2451964" lon="8.3595064"><ele>509.0</ele><time>2026-03-28T09:28:39.3Z</time></trkpt><trkpt lat="44.2452515" lon="8.3594445"><ele>509.0</ele><time>2026-03-28T09:28:40.308Z</time></trkpt><trkpt lat="44.2453032" lon="8.359354"><ele>509.0</ele><time>2026-03-28T09:28:41.305Z</time></trkpt><trkpt lat="44.2453513" lon="8.3592609"><ele>508.99999999999994</ele><time>2026-03-28T09:28:42.308Z</time></trkpt><trkpt lat="44.2454072" lon="8.3591744"><ele>509.0</ele><time>2026-03-28T09:28:43.303Z</time></trkpt><trkpt lat="44.2454678" lon="8.3590987"><ele>508.99999999999994</ele><time>2026-03-28T09:28:44.309Z</time></trkpt><trkpt lat="44.2455334" lon="8.3590431"><ele>509.0</ele><time>2026-03-28T09:28:45.302Z</time></trkpt><trkpt lat="44.2455997" lon="8.3590024"><ele>509.0</ele><time>2026-03-28T09:28:46.308Z</time></trkpt><trkpt lat="44.2456799" lon="8.3589627"><ele>509.0</ele><time>2026-03-28T09:28:47.304Z</time></trkpt><trkpt lat="44.2457612" lon="8.3589182"><ele>508.99999999999994</ele><time>2026-03-28T09:28:48.307Z</time></trkpt><trkpt lat="44.2458406" lon="8.3588668"><ele>509.0</ele><time>2026-03-28T09:28:49.301Z</time></trkpt><trkpt lat="44.2459069" lon="8.3588071"><ele>510.3333333333333</ele><time>2026-03-28T09:28:50.307Z</time></trkpt><trkpt lat="44.2459762" lon="8.3587434"><ele>511.66666666666663</ele><time>2026-03-28T09:28:51.311Z</time></trkpt><trkpt lat="44.2460351" lon="8.3586618"><ele>513.0</ele><time>2026-03-28T09:28:52.301Z</time></trkpt><trkpt lat="44.246086" lon="8.3585703"><ele>514.3333333333334</ele><time>2026-03-28T09:28:53.306Z</time></trkpt><trkpt lat="44.2461262" lon="8.358471"><ele>515.6666666666667</ele><time>2026-03-28T09:28:54.297Z</time></trkpt><trkpt lat="44.2461562" lon="8.358379"><ele>517.0</ele><time>2026-03-28T09:28:55.304Z</time></trkpt><trkpt lat="44.2461822" lon="8.3582933"><ele>517.0</ele><time>2026-03-28T09:28:56.301Z</time></trkpt><trkpt lat="44.2462135" lon="8.3581811"><ele>517.0</ele><time>2026-03-28T09:28:58.306Z</time></trkpt><trkpt lat="44.2462721" lon="8.3581147"><ele>517.0</ele><time>2026-03-28T09:29:21.312Z</time></trkpt><trkpt lat="44.2463217" lon="8.3580516"><ele>517.0</ele><time>2026-03-28T09:29:22.324Z</time></trkpt><trkpt lat="44.2463671" lon="8.3579658"><ele>517.0</ele><time>2026-03-28T09:29:23.306Z</time></trkpt><trkpt lat="44.2464116" lon="8.35788"><ele>517.0</ele><time>2026-03-28T09:29:24.318Z</time></trkpt><trkpt lat="44.2464432" lon="8.3577833"><ele>519.3333333333334</ele><time>2026-03-28T09:29:25.3Z</time></trkpt><trkpt lat="44.2464712" lon="8.3576768"><ele>521.6666666666667</ele><time>2026-03-28T09:29:26.306Z</time></trkpt><trkpt lat="44.2465031" lon="8.3575789"><ele>524.0</ele><time>2026-03-28T09:29:27.308Z</time></trkpt><trkpt lat="44.2465294" lon="8.3574786"><ele>526.3333333333334</ele><time>2026-03-28T09:29:28.31Z</time></trkpt><trkpt lat="44.2465592" lon="8.3573864"><ele>528.6666666666666</ele><time>2026-03-28T09:29:29.305Z</time></trkpt><trkpt lat="44.246593" lon="8.3573041"><ele>531.0</ele><time>2026-03-28T09:29:30.318Z</time></trkpt><trkpt lat="44.246638" lon="8.3572194"><ele>529.6666666666666</ele><time>2026-03-28T09:29:31.313Z</time></trkpt><trkpt lat="44.2466792" lon="8.357136"><ele>528.3333333333334</ele><time>2026-03-28T09:29:32.307Z</time></trkpt><trkpt lat="44.2467286" lon="8.3570522"><ele>527.0</ele><time>2026-03-28T09:29:33.3Z</time></trkpt><trkpt lat="44.2467838" lon="8.3569691"><ele>525.6666666666667</ele><time>2026-03-28T09:29:34.308Z</time></trkpt><trkpt lat="44.2468504" lon="8.3569046"><ele>524.3333333333334</ele><time>2026-03-28T09:29:35.3Z</time></trkpt><trkpt lat="44.2469206" lon="8.3568383"><ele>523.0</ele><time>2026-03-28T09:29:36.312Z</time></trkpt><trkpt lat="44.2469953" lon="8.3567714"><ele>523.0</ele><time>2026-03-28T09:29:37.301Z</time></trkpt><trkpt lat="44.2470656" lon="8.3567094"><ele>523.0</ele><time>2026-03-28T09:29:38.308Z</time></trkpt><trkpt lat="44.2471404" lon="8.3566567"><ele>523.0</ele><time>2026-03-28T09:29:39.305Z</time></trkpt><trkpt lat="44.2472251" lon="8.356614"><ele>523.0</ele><time>2026-03-28T09:29:40.311Z</time></trkpt><trkpt lat="44.2472973" lon="8.3565808"><ele>523.0</ele><time>2026-03-28T09:29:41.299Z</time></trkpt><trkpt lat="44.2473632" lon="8.3565765"><ele>523.0</ele><time>2026-03-28T09:29:42.311Z</time></trkpt><trkpt lat="44.2474373" lon="8.3565705"><ele>524.3333333333334</ele><time>2026-03-28T09:29:43.303Z</time></trkpt><trkpt lat="44.2475212" lon="8.3565302"><ele>525.6666666666667</ele><time>2026-03-28T09:29:44.309Z</time></trkpt><trkpt lat="44.2475891" lon="8.3564662"><ele>527.0</ele><time>2026-03-28T09:29:45.298Z</time></trkpt><trkpt lat="44.2476482" lon="8.3563714"><ele>528.3333333333334</ele><time>2026-03-28T09:29:46.302Z</time></trkpt><trkpt lat="44.247692" lon="8.3562673"><ele>529.6666666666666</ele><time>2026-03-28T09:29:47.307Z</time></trkpt><trkpt lat="44.2477299" lon="8.3561587"><ele>531.0</ele><time>2026-03-28T09:29:48.305Z</time></trkpt><trkpt lat="44.2477664" lon="8.3560492"><ele>531.0</ele><time>2026-03-28T09:29:49.313Z</time></trkpt><trkpt lat="44.2478092" lon="8.3559579"><ele>531.0</ele><time>2026-03-28T09:29:50.301Z</time></trkpt><trkpt lat="44.247861" lon="8.3558787"><ele>531.0</ele><time>2026-03-28T09:29:51.308Z</time></trkpt><trkpt lat="44.247928" lon="8.3558256"><ele>531.0</ele><time>2026-03-28T09:29:52.303Z</time></trkpt><trkpt lat="44.2479906" lon="8.3557751"><ele>531.0</ele><time>2026-03-28T09:29:53.322Z</time></trkpt><trkpt lat="44.2480487" lon="8.3557309"><ele>531.0</ele><time>2026-03-28T09:29:54.299Z</time></trkpt><trkpt lat="44.2481426" lon="8.3556561"><ele>535.6</ele><time>2026-03-28T09:29:56.29Z</time></trkpt><trkpt lat="44.2482052" lon="8.3555479"><ele>540.2</ele><time>2026-03-28T09:29:58.301Z</time></trkpt><trkpt lat="44.2482099" lon="8.3553827"><ele>544.8</ele><time>2026-03-28T09:30:00.296Z</time></trkpt><trkpt lat="44.2481919" lon="8.3552828"><ele>549.4</ele><time>2026-03-28T09:30:01.296Z</time></trkpt><trkpt lat="44.2481816" lon="8.3551764"><ele>554.0</ele><time>2026-03-28T09:30:02.294Z</time></trkpt><trkpt lat="44.2481769" lon="8.3550233"><ele>549.2</ele><time>2026-03-28T09:30:04.297Z</time></trkpt><trkpt lat="44.2481151" lon="8.3548891"><ele>544.4</ele><time>2026-03-28T09:30:06.296Z</time></trkpt><trkpt lat="44.2480098" lon="8.3547775"><ele>539.6</ele><time>2026-03-28T09:30:08.303Z</time></trkpt><trkpt lat="44.2479589" lon="8.3547108"><ele>534.8</ele><time>2026-03-28T09:30:09.308Z</time></trkpt><trkpt lat="44.2479157" lon="8.354633"><ele>530.0</ele><time>2026-03-28T09:30:10.303Z</time></trkpt><trkpt lat="44.247881" lon="8.3545474"><ele>529.9999999999999</ele><time>2026-03-28T09:30:11.305Z</time></trkpt><trkpt lat="44.2478574" lon="8.3544482"><ele>530.0</ele><time>2026-03-28T09:30:12.307Z</time></trkpt><trkpt lat="44.247854" lon="8.3543501"><ele>530.0</ele><time>2026-03-28T09:30:13.302Z</time></trkpt><trkpt lat="44.2478605" lon="8.3542506"><ele>530.0</ele><time>2026-03-28T09:30:14.308Z</time></trkpt><trkpt lat="44.247878" lon="8.3541532"><ele>530.0</ele><time>2026-03-28T09:30:15.313Z</time></trkpt><trkpt lat="44.247898" lon="8.3540551"><ele>529.9999999999999</ele><time>2026-03-28T09:30:16.317Z</time></trkpt><trkpt lat="44.2479157" lon="8.3539515"><ele>530.0</ele><time>2026-03-28T09:30:17.308Z</time></trkpt><trkpt lat="44.2479216" lon="8.3538297"><ele>531.0</ele><time>2026-03-28T09:30:18.315Z</time></trkpt><trkpt lat="44.2479168" lon="8.3536993"><ele>532.0</ele><time>2026-03-28T09:30:19.313Z</time></trkpt><trkpt lat="44.2479105" lon="8.3535636"><ele>533.0</ele><time>2026-03-28T09:30:20.315Z</time></trkpt><trkpt lat="44.2479102" lon="8.3534248"><ele>534.0</ele><time>2026-03-28T09:30:21.311Z</time></trkpt><trkpt lat="44.2479135" lon="8.3532892"><ele>535.0</ele><time>2026-03-28T09:30:22.316Z</time></trkpt><trkpt lat="44.2479267" lon="8.3531627"><ele>535.0</ele><time>2026-03-28T09:30:23.317Z</time></trkpt><trkpt lat="44.2479544" lon="8.3530486"><ele>535.0</ele><time>2026-03-28T09:30:24.339Z</time></trkpt><trkpt lat="44.2479794" lon="8.3529387"><ele>535.0</ele><time>2026-03-28T09:30:25.318Z</time></trkpt><trkpt lat="44.2480138" lon="8.3528344"><ele>535.0</ele><time>2026-03-28T09:30:26.321Z</time></trkpt><trkpt lat="44.2480528" lon="8.3527324"><ele>535.0</ele><time>2026-03-28T09:30:27.317Z</time></trkpt><trkpt lat="44.2481015" lon="8.3526319"><ele>535.0</ele><time>2026-03-28T09:30:28.325Z</time></trkpt><trkpt lat="44.2481482" lon="8.3525277"><ele>538.5</ele><time>2026-03-28T09:30:29.318Z</time></trkpt><trkpt lat="44.2481917" lon="8.352425"><ele>542.0</ele><time>2026-03-28T09:30:30.32Z</time></trkpt><trkpt lat="44.2482336" lon="8.3523162"><ele>545.5</ele><time>2026-03-28T09:30:31.309Z</time></trkpt><trkpt lat="44.2482682" lon="8.3522014"><ele>549.0</ele><time>2026-03-28T09:30:32.318Z</time></trkpt><trkpt lat="44.2482944" lon="8.352086"><ele>552.5</ele><time>2026-03-28T09:30:33.313Z</time></trkpt><trkpt lat="44.2483198" lon="8.3519599"><ele>556.0</ele><time>2026-03-28T09:30:34.316Z</time></trkpt><trkpt lat="44.2483483" lon="8.3518373"><ele>556.0</ele><time>2026-03-28T09:30:35.316Z</time></trkpt><trkpt lat="44.2483737" lon="8.3517178"><ele>556.0</ele><time>2026-03-28T09:30:36.319Z</time></trkpt><trkpt lat="44.2483983" lon="8.3515995"><ele>556.0</ele><time>2026-03-28T09:30:37.313Z</time></trkpt><trkpt lat="44.2484134" lon="8.3514672"><ele>556.0</ele><time>2026-03-28T09:30:38.32Z</time></trkpt><trkpt lat="44.2484231" lon="8.3513318"><ele>556.0</ele><time>2026-03-28T09:30:39.321Z</time></trkpt><trkpt lat="44.2484186" lon="8.3511875"><ele>555.2</ele><time>2026-03-28T09:30:40.316Z</time></trkpt><trkpt lat="44.2484136" lon="8.3510479"><ele>554.4000000000001</ele><time>2026-03-28T09:30:41.316Z</time></trkpt><trkpt lat="44.2484122" lon="8.3509223"><ele>553.6</ele><time>2026-03-28T09:30:42.321Z</time></trkpt><trkpt lat="44.2484288" lon="8.3508025"><ele>552.8000000000001</ele><time>2026-03-28T09:30:43.313Z</time></trkpt><trkpt lat="44.2484642" lon="8.3506833"><ele>552.0</ele><time>2026-03-28T09:30:44.32Z</time></trkpt><trkpt lat="44.2485121" lon="8.3505808"><ele>551.4</ele><time>2026-03-28T09:30:45.311Z</time></trkpt><trkpt lat="44.2485747" lon="8.3504878"><ele>550.8000000000001</ele><time>2026-03-28T09:30:46.303Z</time></trkpt><trkpt lat="44.2486495" lon="8.3504039"><ele>550.2</ele><time>2026-03-28T09:30:47.307Z</time></trkpt><trkpt lat="44.248741" lon="8.3503267"><ele>549.6</ele><time>2026-03-28T09:30:48.312Z</time></trkpt><trkpt lat="44.2488451" lon="8.3502434"><ele>549.0</ele><time>2026-03-28T09:30:49.307Z</time></trkpt><trkpt lat="44.2489368" lon="8.3501625"><ele>552.0</ele><time>2026-03-28T09:30:50.318Z</time></trkpt><trkpt lat="44.2490357" lon="8.3501143"><ele>555.0</ele><time>2026-03-28T09:30:51.299Z</time></trkpt><trkpt lat="44.2491342" lon="8.3500881"><ele>558.0</ele><time>2026-03-28T09:30:52.309Z</time></trkpt><trkpt lat="44.2492232" lon="8.3500716"><ele>561.0</ele><time>2026-03-28T09:30:53.3Z</time></trkpt><trkpt lat="44.2493153" lon="8.3500472"><ele>564.0</ele><time>2026-03-28T09:30:54.3Z</time></trkpt><trkpt lat="44.2494162" lon="8.3500044"><ele>564.0</ele><time>2026-03-28T09:30:55.316Z</time></trkpt><trkpt lat="44.249517" lon="8.3499255"><ele>564.0</ele><time>2026-03-28T09:30:56.298Z</time></trkpt><trkpt lat="44.2496107" lon="8.3498375"><ele>564.0</ele><time>2026-03-28T09:30:57.304Z</time></trkpt><trkpt lat="44.2496964" lon="8.3497336"><ele>564.0</ele><time>2026-03-28T09:30:58.297Z</time></trkpt><trkpt lat="44.2497729" lon="8.3496303"><ele>564.0</ele><time>2026-03-28T09:30:59.296Z</time></trkpt><trkpt lat="44.2498351" lon="8.3495164"><ele>564.6</ele><time>2026-03-28T09:31:00.308Z</time></trkpt><trkpt lat="44.2498706" lon="8.3493927"><ele>565.2</ele><time>2026-03-28T09:31:01.305Z</time></trkpt><trkpt lat="44.2498759" lon="8.3492523"><ele>565.8000000000001</ele><time>2026-03-28T09:31:02.304Z</time></trkpt><trkpt lat="44.2498631" lon="8.3490869"><ele>566.4</ele><time>2026-03-28T09:31:03.299Z</time></trkpt><trkpt lat="44.2498626" lon="8.3489252"><ele>567.0</ele><time>2026-03-28T09:31:04.295Z</time></trkpt><trkpt lat="44.2498787" lon="8.3487686"><ele>564.8000000000001</ele><time>2026-03-28T09:31:05.296Z</time></trkpt><trkpt lat="44.2499209" lon="8.3486289"><ele>562.6</ele><time>2026-03-28T09:31:06.302Z</time></trkpt><trkpt lat="44.2499765" lon="8.3484977"><ele>560.4000000000001</ele><time>2026-03-28T09:31:07.295Z</time></trkpt><trkpt lat="44.2500391" lon="8.3483883"><ele>558.2</ele><time>2026-03-28T09:31:08.308Z</time></trkpt><trkpt lat="44.2501025" lon="8.3482787"><ele>556.0</ele><time>2026-03-28T09:31:09.301Z</time></trkpt><trkpt lat="44.2501723" lon="8.3481785"><ele>556.0</ele><time>2026-03-28T09:31:10.308Z</time></trkpt><trkpt lat="44.2502479" lon="8.3480844"><ele>556.0</ele><time>2026-03-28T09:31:11.296Z</time></trkpt><trkpt lat="44.2503291" lon="8.3479951"><ele>556.0</ele><time>2026-03-28T09:31:12.305Z</time></trkpt><trkpt lat="44.250404" lon="8.3478865"><ele>556.0</ele><time>2026-03-28T09:31:13.301Z</time></trkpt><trkpt lat="44.2504498" lon="8.3477569"><ele>556.0</ele><time>2026-03-28T09:31:14.311Z</time></trkpt><trkpt lat="44.2504856" lon="8.3476141"><ele>558.25</ele><time>2026-03-28T09:31:15.307Z</time></trkpt><trkpt lat="44.2505312" lon="8.3474737"><ele>560.5</ele><time>2026-03-28T09:31:16.315Z</time></trkpt><trkpt lat="44.2505904" lon="8.3473378"><ele>562.75</ele><time>2026-03-28T09:31:17.305Z</time></trkpt><trkpt lat="44.2506582" lon="8.3472026"><ele>565.0</ele><time>2026-03-28T09:31:18.316Z</time></trkpt><trkpt lat="44.2507249" lon="8.3470675"><ele>565.0</ele><time>2026-03-28T09:31:19.299Z</time></trkpt><trkpt lat="44.2507746" lon="8.3469224"><ele>565.0</ele><time>2026-03-28T09:31:20.32Z</time></trkpt><trkpt lat="44.2508189" lon="8.3467718"><ele>565.0</ele><time>2026-03-28T09:31:21.311Z</time></trkpt><trkpt lat="44.2508763" lon="8.3466317"><ele>565.0</ele><time>2026-03-28T09:31:22.314Z</time></trkpt><trkpt lat="44.2509428" lon="8.3465107"><ele>565.0</ele><time>2026-03-28T09:31:23.302Z</time></trkpt><trkpt lat="44.2510168" lon="8.3463938"><ele>565.0</ele><time>2026-03-28T09:31:24.313Z</time></trkpt><trkpt lat="44.2510955" lon="8.3462845"><ele>565.0</ele><time>2026-03-28T09:31:25.308Z</time></trkpt><trkpt lat="44.2511736" lon="8.346181"><ele>565.0</ele><time>2026-03-28T09:31:26.315Z</time></trkpt><trkpt lat="44.2512448" lon="8.3460789"><ele>565.0</ele><time>2026-03-28T09:31:27.298Z</time></trkpt><trkpt lat="44.2513063" lon="8.3459707"><ele>563.6</ele><time>2026-03-28T09:31:28.306Z</time></trkpt><trkpt lat="44.251355" lon="8.3458594"><ele>562.2</ele><time>2026-03-28T09:31:29.299Z</time></trkpt><trkpt lat="44.2513899" lon="8.3457389"><ele>560.8</ele><time>2026-03-28T09:31:30.304Z</time></trkpt><trkpt lat="44.2514083" lon="8.3456033"><ele>559.4</ele><time>2026-03-28T09:31:31.3Z</time></trkpt><trkpt lat="44.251399" lon="8.3454484"><ele>558.0</ele><time>2026-03-28T09:31:32.3Z</time></trkpt><trkpt lat="44.2513911" lon="8.3452869"><ele>557.25</ele><time>2026-03-28T09:31:33.299Z</time></trkpt><trkpt lat="44.2513962" lon="8.3451197"><ele>556.5</ele><time>2026-03-28T09:31:34.301Z</time></trkpt><trkpt lat="44.2514134" lon="8.3449552"><ele>555.75</ele><time>2026-03-28T09:31:35.303Z</time></trkpt><trkpt lat="44.2514371" lon="8.3447994"><ele>555.0</ele><time>2026-03-28T09:31:36.304Z</time></trkpt><trkpt lat="44.2514678" lon="8.3446627"><ele>563.4</ele><time>2026-03-28T09:31:37.3Z</time></trkpt><trkpt lat="44.2514838" lon="8.3445265"><ele>571.8</ele><time>2026-03-28T09:31:38.307Z</time></trkpt><trkpt lat="44.2514925" lon="8.3443924"><ele>580.2</ele><time>2026-03-28T09:31:39.303Z</time></trkpt><trkpt lat="44.2514984" lon="8.3442551"><ele>588.6</ele><time>2026-03-28T09:31:40.309Z</time></trkpt><trkpt lat="44.2515044" lon="8.344112"><ele>597.0</ele><time>2026-03-28T09:31:41.3Z</time></trkpt><trkpt lat="44.2514957" lon="8.3439624"><ele>597.4</ele><time>2026-03-28T09:31:42.309Z</time></trkpt><trkpt lat="44.2514743" lon="8.3438136"><ele>597.8000000000001</ele><time>2026-03-28T09:31:43.306Z</time></trkpt><trkpt lat="44.2514499" lon="8.3436635"><ele>598.2</ele><time>2026-03-28T09:31:44.307Z</time></trkpt><trkpt lat="44.2514253" lon="8.3435167"><ele>598.6</ele><time>2026-03-28T09:31:45.304Z</time></trkpt><trkpt lat="44.2514077" lon="8.3433794"><ele>599.0</ele><time>2026-03-28T09:31:46.317Z</time></trkpt><trkpt lat="44.25141" lon="8.3432394"><ele>599.4</ele><time>2026-03-28T09:31:47.307Z</time></trkpt><trkpt lat="44.2514399" lon="8.343106"><ele>599.8</ele><time>2026-03-28T09:31:48.318Z</time></trkpt><trkpt lat="44.2514605" lon="8.3429604"><ele>600.2</ele><time>2026-03-28T09:31:49.308Z</time></trkpt><trkpt lat="44.2514602" lon="8.342817"><ele>600.6</ele><time>2026-03-28T09:31:50.316Z</time></trkpt><trkpt lat="44.2514479" lon="8.342677"><ele>601.0</ele><time>2026-03-28T09:31:51.316Z</time></trkpt><trkpt lat="44.2514454" lon="8.3425331"><ele>601.0</ele><time>2026-03-28T09:31:52.321Z</time></trkpt><trkpt lat="44.2514609" lon="8.3423891"><ele>601.0</ele><time>2026-03-28T09:31:53.318Z</time></trkpt><trkpt lat="44.2514937" lon="8.3422485"><ele>601.0</ele><time>2026-03-28T09:31:54.315Z</time></trkpt><trkpt lat="44.2515333" lon="8.3421126"><ele>601.0</ele><time>2026-03-28T09:31:55.318Z</time></trkpt><trkpt lat="44.2515849" lon="8.341986"><ele>601.0</ele><time>2026-03-28T09:31:56.312Z</time></trkpt><trkpt lat="44.2516464" lon="8.3418635"><ele>598.5</ele><time>2026-03-28T09:31:57.347Z</time></trkpt><trkpt lat="44.2517137" lon="8.3417696"><ele>596.0</ele><time>2026-03-28T09:31:58.312Z</time></trkpt><trkpt lat="44.2517796" lon="8.3416957"><ele>593.5</ele><time>2026-03-28T09:31:59.32Z</time></trkpt><trkpt lat="44.2518444" lon="8.3416351"><ele>591.0</ele><time>2026-03-28T09:32:00.32Z</time></trkpt><trkpt lat="44.251911" lon="8.3415708"><ele>588.5</ele><time>2026-03-28T09:32:01.325Z</time></trkpt><trkpt lat="44.25198" lon="8.3414984"><ele>586.0</ele><time>2026-03-28T09:32:02.31Z</time></trkpt><trkpt lat="44.2520542" lon="8.341423"><ele>587.0</ele><time>2026-03-28T09:32:03.318Z</time></trkpt><trkpt lat="44.2521276" lon="8.341351"><ele>588.0</ele><time>2026-03-28T09:32:04.311Z</time></trkpt><trkpt lat="44.2521931" lon="8.3412759"><ele>589.0</ele><time>2026-03-28T09:32:05.314Z</time></trkpt><trkpt lat="44.2522495" lon="8.3412033"><ele>590.0</ele><time>2026-03-28T09:32:06.303Z</time></trkpt><trkpt lat="44.2523072" lon="8.3411492"><ele>591.0</ele><time>2026-03-28T09:32:07.314Z</time></trkpt><trkpt lat="44.2523605" lon="8.3410902"><ele>592.0</ele><time>2026-03-28T09:32:08.307Z</time></trkpt><trkpt lat="44.2524194" lon="8.3410381"><ele>592.0</ele><time>2026-03-28T09:32:09.321Z</time></trkpt><trkpt lat="44.2524764" lon="8.3409899"><ele>592.0</ele><time>2026-03-28T09:32:10.316Z</time></trkpt><trkpt lat="44.2525654" lon="8.3409285"><ele>592.0</ele><time>2026-03-28T09:32:12.311Z</time></trkpt><trkpt lat="44.2526267" lon="8.3408864"><ele>592.0</ele><time>2026-03-28T09:32:14.313Z</time></trkpt><trkpt lat="44.2526911" lon="8.3408433"><ele>592.0</ele><time>2026-03-28T09:32:16.317Z</time></trkpt><trkpt lat="44.2527558" lon="8.3407949"><ele>592.0</ele><time>2026-03-28T09:32:18.313Z</time></trkpt><trkpt lat="44.2528165" lon="8.3407578"><ele>592.0</ele><time>2026-03-28T09:32:20.317Z</time></trkpt><trkpt lat="44.2528764" lon="8.34072"><ele>592.0</ele><time>2026-03-28T09:32:23.324Z</time></trkpt><trkpt lat="44.2529491" lon="8.3406835"><ele>592.0</ele><time>2026-03-28T09:32:53.322Z</time></trkpt><trkpt lat="44.2530092" lon="8.3406271"><ele>592.0</ele><time>2026-03-28T09:32:56.327Z</time></trkpt><trkpt lat="44.2530862" lon="8.3405514"><ele>592.0</ele><time>2026-03-28T09:32:59.318Z</time></trkpt><trkpt lat="44.2531465" lon="8.3404457"><ele>592.0</ele><time>2026-03-28T09:33:02.321Z</time></trkpt><trkpt lat="44.2531814" lon="8.3403525"><ele>592.0</ele><time>2026-03-28T09:33:04.313Z</time></trkpt><trkpt lat="44.2532149" lon="8.3402296"><ele>592.8000000000001</ele><time>2026-03-28T09:33:06.32Z</time></trkpt><trkpt lat="44.2532683" lon="8.3401182"><ele>593.6</ele><time>2026-03-28T09:33:08.321Z</time></trkpt><trkpt lat="44.2533592" lon="8.3399996"><ele>594.4000000000001</ele><time>2026-03-28T09:33:10.318Z</time></trkpt><trkpt lat="44.253399" lon="8.3399255"><ele>595.2</ele><time>2026-03-28T09:33:11.318Z</time></trkpt><trkpt lat="44.2534364" lon="8.3398464"><ele>596.0</ele><time>2026-03-28T09:33:12.333Z</time></trkpt><trkpt lat="44.2534955" lon="8.339704"><ele>597.4</ele><time>2026-03-28T09:33:14.326Z</time></trkpt><trkpt lat="44.2535442" lon="8.3395572"><ele>598.8</ele><time>2026-03-28T09:33:16.331Z</time></trkpt><trkpt lat="44.2535691" lon="8.3394271"><ele>600.1999999999999</ele><time>2026-03-28T09:33:18.335Z</time></trkpt><trkpt lat="44.2535412" lon="8.3392773"><ele>601.6</ele><time>2026-03-28T09:33:20.334Z</time></trkpt><trkpt lat="44.2535135" lon="8.3391979"><ele>603.0</ele><time>2026-03-28T09:33:21.332Z</time></trkpt><trkpt lat="44.2534748" lon="8.3391266"><ele>603.0</ele><time>2026-03-28T09:33:22.333Z</time></trkpt><trkpt lat="44.2534058" lon="8.338988"><ele>603.0</ele><time>2026-03-28T09:33:24.34Z</time></trkpt><trkpt lat="44.2533482" lon="8.3388495"><ele>603.0</ele><time>2026-03-28T09:33:26.34Z</time></trkpt><trkpt lat="44.25331" lon="8.3386965"><ele>603.0</ele><time>2026-03-28T09:33:28.334Z</time></trkpt><trkpt lat="44.2532904" lon="8.3386079"><ele>603.0</ele><time>2026-03-28T09:33:29.345Z</time></trkpt><trkpt lat="44.2532638" lon="8.3385245"><ele>605.0</ele><time>2026-03-28T09:33:30.323Z</time></trkpt><trkpt lat="44.253231" lon="8.3384454"><ele>607.0</ele><time>2026-03-28T09:33:31.323Z</time></trkpt><trkpt lat="44.2531665" lon="8.3383137"><ele>609.0</ele><time>2026-03-28T09:33:33.324Z</time></trkpt><trkpt lat="44.2531456" lon="8.338202"><ele>611.0</ele><time>2026-03-28T09:33:35.321Z</time></trkpt><trkpt lat="44.2531782" lon="8.3381003"><ele>613.0</ele><time>2026-03-28T09:33:37.316Z</time></trkpt><trkpt lat="44.2532195" lon="8.3380309"><ele>615.0</ele><time>2026-03-28T09:33:39.318Z</time></trkpt><trkpt lat="44.2533059" lon="8.337974"><ele>618.0</ele><time>2026-03-28T09:33:41.318Z</time></trkpt><trkpt lat="44.2533753" lon="8.3379318"><ele>621.0</ele><time>2026-03-28T09:33:43.322Z</time></trkpt><trkpt lat="44.2534415" lon="8.3379134"><ele>624.0</ele><time>2026-03-28T09:33:45.319Z</time></trkpt><trkpt lat="44.2535383" lon="8.3379038"><ele>627.0</ele><time>2026-03-28T09:33:47.326Z</time></trkpt><trkpt lat="44.2536416" lon="8.3379164"><ele>630.0</ele><time>2026-03-28T09:33:49.325Z</time></trkpt><trkpt lat="44.2537522" lon="8.3378844"><ele>630.0</ele><time>2026-03-28T09:33:51.324Z</time></trkpt><trkpt lat="44.2538139" lon="8.3378497"><ele>630.0</ele><time>2026-03-28T09:33:52.326Z</time></trkpt><trkpt lat="44.2538803" lon="8.3378075"><ele>630.0</ele><time>2026-03-28T09:33:53.331Z</time></trkpt><trkpt lat="44.2539412" lon="8.3377732"><ele>630.0</ele><time>2026-03-28T09:33:54.329Z</time></trkpt><trkpt lat="44.2540435" lon="8.3377131"><ele>630.0</ele><time>2026-03-28T09:33:56.322Z</time></trkpt><trkpt lat="44.254139" lon="8.337678"><ele>630.0</ele><time>2026-03-28T09:33:58.326Z</time></trkpt><trkpt lat="44.2542381" lon="8.3376571"><ele>629.4</ele><time>2026-03-28T09:34:00.35Z</time></trkpt><trkpt lat="44.2543042" lon="8.3375941"><ele>628.8</ele><time>2026-03-28T09:34:02.342Z</time></trkpt><trkpt lat="44.2543519" lon="8.3374377"><ele>628.2</ele><time>2026-03-28T09:34:04.341Z</time></trkpt><trkpt lat="44.2543786" lon="8.3373474"><ele>627.6</ele><time>2026-03-28T09:34:05.333Z</time></trkpt><trkpt lat="44.2544267" lon="8.3371892"><ele>627.0</ele><time>2026-03-28T09:34:07.33Z</time></trkpt><trkpt lat="44.2544489" lon="8.3370725"><ele>627.0</ele><time>2026-03-28T09:34:09.34Z</time></trkpt><trkpt lat="44.2543863" lon="8.3370264"><ele>627.0</ele><time>2026-03-28T09:34:11.33Z</time></trkpt><trkpt lat="44.2542572" lon="8.3369894"><ele>627.0</ele><time>2026-03-28T09:34:13.34Z</time></trkpt><trkpt lat="44.2541835" lon="8.3369388"><ele>627.0</ele><time>2026-03-28T09:34:14.333Z</time></trkpt><trkpt lat="44.254119" lon="8.3368768"><ele>627.0</ele><time>2026-03-28T09:34:15.331Z</time></trkpt><trkpt lat="44.2540682" lon="8.3367967"><ele>627.0</ele><time>2026-03-28T09:34:16.328Z</time></trkpt><trkpt lat="44.2540333" lon="8.3366985"><ele>627.0</ele><time>2026-03-28T09:34:17.327Z</time></trkpt><trkpt lat="44.2540056" lon="8.3366079"><ele>627.0</ele><time>2026-03-28T09:34:18.329Z</time></trkpt><trkpt lat="44.2539814" lon="8.3365203"><ele>627.0</ele><time>2026-03-28T09:34:19.324Z</time></trkpt><trkpt lat="44.2539542" lon="8.3364349"><ele>627.0</ele><time>2026-03-28T09:34:20.332Z</time></trkpt><trkpt lat="44.2539107" lon="8.3363367"><ele>627.0</ele><time>2026-03-28T09:34:21.32Z</time></trkpt><trkpt lat="44.253859" lon="8.3362451"><ele>627.0</ele><time>2026-03-28T09:34:22.333Z</time></trkpt><trkpt lat="44.2538014" lon="8.3361589"><ele>628.3333333333334</ele><time>2026-03-28T09:34:23.324Z</time></trkpt><trkpt lat="44.2537527" lon="8.3360721"><ele>629.6666666666666</ele><time>2026-03-28T09:34:24.325Z</time></trkpt><trkpt lat="44.2537133" lon="8.3359975"><ele>631.0</ele><time>2026-03-28T09:34:25.325Z</time></trkpt><trkpt lat="44.2536793" lon="8.3358638"><ele>632.3333333333333</ele><time>2026-03-28T09:34:27.33Z</time></trkpt><trkpt lat="44.2536822" lon="8.3357504"><ele>633.6666666666666</ele><time>2026-03-28T09:34:29.331Z</time></trkpt><trkpt lat="44.2537022" lon="8.3356532"><ele>635.0</ele><time>2026-03-28T09:34:31.349Z</time></trkpt><trkpt lat="44.2537493" lon="8.3355697"><ele>634.8</ele><time>2026-03-28T09:34:34.326Z</time></trkpt><trkpt lat="44.2538043" lon="8.3354979"><ele>634.6</ele><time>2026-03-28T09:35:02.359Z</time></trkpt><trkpt lat="44.2538748" lon="8.3353578"><ele>634.4</ele><time>2026-03-28T09:35:04.318Z</time></trkpt><trkpt lat="44.2539188" lon="8.3352585"><ele>634.2</ele><time>2026-03-28T09:35:05.32Z</time></trkpt><trkpt lat="44.2539575" lon="8.3351384"><ele>634.0</ele><time>2026-03-28T09:35:06.324Z</time></trkpt><trkpt lat="44.2540048" lon="8.3350173"><ele>634.0</ele><time>2026-03-28T09:35:07.324Z</time></trkpt><trkpt lat="44.2540597" lon="8.3349129"><ele>634.0</ele><time>2026-03-28T09:35:08.321Z</time></trkpt><trkpt lat="44.2541194" lon="8.3348046"><ele>634.0</ele><time>2026-03-28T09:35:09.323Z</time></trkpt><trkpt lat="44.2541867" lon="8.3347163"><ele>634.0</ele><time>2026-03-28T09:35:10.32Z</time></trkpt><trkpt lat="44.2542624" lon="8.3346512"><ele>634.0</ele><time>2026-03-28T09:35:11.329Z</time></trkpt><trkpt lat="44.2543353" lon="8.3346058"><ele>634.5</ele><time>2026-03-28T09:35:12.321Z</time></trkpt><trkpt lat="44.2544094" lon="8.3345759"><ele>635.0</ele><time>2026-03-28T09:35:13.33Z</time></trkpt><trkpt lat="44.2544842" lon="8.3345488"><ele>635.5</ele><time>2026-03-28T09:35:14.326Z</time></trkpt><trkpt lat="44.2545553" lon="8.3345189"><ele>636.0</ele><time>2026-03-28T09:35:15.331Z</time></trkpt><trkpt lat="44.2546209" lon="8.3344724"><ele>636.5</ele><time>2026-03-28T09:35:16.322Z</time></trkpt><trkpt lat="44.2546785" lon="8.3343992"><ele>637.0</ele><time>2026-03-28T09:35:17.325Z</time></trkpt><trkpt lat="44.2547195" lon="8.3343062"><ele>637.0</ele><time>2026-03-28T09:35:18.325Z</time></trkpt><trkpt lat="44.2547512" lon="8.3341899"><ele>637.0</ele><time>2026-03-28T09:35:19.335Z</time></trkpt><trkpt lat="44.2547686" lon="8.3340542"><ele>637.0</ele><time>2026-03-28T09:35:20.328Z</time></trkpt><trkpt lat="44.2547726" lon="8.3339108"><ele>637.0</ele><time>2026-03-28T09:35:21.329Z</time></trkpt><trkpt lat="44.2547803" lon="8.3337695"><ele>637.0</ele><time>2026-03-28T09:35:22.332Z</time></trkpt><trkpt lat="44.2547942" lon="8.3336693"><ele>638.3333333333334</ele><time>2026-03-28T09:35:23.329Z</time></trkpt><trkpt lat="44.2548148" lon="8.3335794"><ele>639.6666666666667</ele><time>2026-03-28T09:35:24.333Z</time></trkpt><trkpt lat="44.2548569" lon="8.3334888"><ele>641.0</ele><time>2026-03-28T09:35:25.324Z</time></trkpt><trkpt lat="44.2549064" lon="8.3334018"><ele>642.3333333333334</ele><time>2026-03-28T09:35:26.328Z</time></trkpt><trkpt lat="44.2549584" lon="8.3333119"><ele>643.6666666666666</ele><time>2026-03-28T09:35:27.317Z</time></trkpt><trkpt lat="44.2550202" lon="8.3332217"><ele>645.0</ele><time>2026-03-28T09:35:28.332Z</time></trkpt><trkpt lat="44.2550873" lon="8.3331328"><ele>645.2</ele><time>2026-03-28T09:35:29.323Z</time></trkpt><trkpt lat="44.2551576" lon="8.3330453"><ele>645.4</ele><time>2026-03-28T09:35:30.337Z</time></trkpt><trkpt lat="44.2552363" lon="8.3329676"><ele>645.5999999999999</ele><time>2026-03-28T09:35:31.327Z</time></trkpt><trkpt lat="44.2553193" lon="8.3329012"><ele>645.8</ele><time>2026-03-28T09:35:32.329Z</time></trkpt><trkpt lat="44.2554063" lon="8.3328311"><ele>646.0</ele><time>2026-03-28T09:35:33.326Z</time></trkpt><trkpt lat="44.255495" lon="8.3327719"><ele>646.0</ele><time>2026-03-28T09:35:34.326Z</time></trkpt><trkpt lat="44.2555821" lon="8.3327264"><ele>646.0</ele><time>2026-03-28T09:35:35.321Z</time></trkpt><trkpt lat="44.2556598" lon="8.3326846"><ele>646.0</ele><time>2026-03-28T09:35:36.326Z</time></trkpt><trkpt lat="44.2557337" lon="8.3326489"><ele>646.0</ele><time>2026-03-28T09:35:37.322Z</time></trkpt><trkpt lat="44.2558001" lon="8.3326343"><ele>646.0</ele><time>2026-03-28T09:35:38.329Z</time></trkpt><trkpt lat="44.2558664" lon="8.332603"><ele>646.0</ele><time>2026-03-28T09:35:39.322Z</time></trkpt><trkpt lat="44.2559333" lon="8.3325575"><ele>647.8</ele><time>2026-03-28T09:35:40.333Z</time></trkpt><trkpt lat="44.2560007" lon="8.3324839"><ele>649.5999999999999</ele><time>2026-03-28T09:35:41.317Z</time></trkpt><trkpt lat="44.2560783" lon="8.3323918"><ele>651.4</ele><time>2026-03-28T09:35:42.323Z</time></trkpt><trkpt lat="44.2561611" lon="8.3323038"><ele>653.2</ele><time>2026-03-28T09:35:43.32Z</time></trkpt><trkpt lat="44.2562335" lon="8.3322161"><ele>655.0</ele><time>2026-03-28T09:35:44.326Z</time></trkpt><trkpt lat="44.2563001" lon="8.3321368"><ele>655.3333333333334</ele><time>2026-03-28T09:35:45.319Z</time></trkpt><trkpt lat="44.2563692" lon="8.332072"><ele>655.6666666666667</ele><time>2026-03-28T09:35:46.329Z</time></trkpt><trkpt lat="44.2564296" lon="8.3320036"><ele>656.0</ele><time>2026-03-28T09:35:47.32Z</time></trkpt><trkpt lat="44.2564824" lon="8.3319274"><ele>656.3333333333334</ele><time>2026-03-28T09:35:48.326Z</time></trkpt><trkpt lat="44.2565213" lon="8.3318431"><ele>656.6666666666666</ele><time>2026-03-28T09:35:49.321Z</time></trkpt><trkpt lat="44.2565354" lon="8.3317339"><ele>657.0</ele><time>2026-03-28T09:35:50.32Z</time></trkpt><trkpt lat="44.2565574" lon="8.3316388"><ele>657.0</ele><time>2026-03-28T09:35:51.314Z</time></trkpt><trkpt lat="44.2565875" lon="8.3314881"><ele>657.0</ele><time>2026-03-28T09:35:53.314Z</time></trkpt><trkpt lat="44.2565923" lon="8.3313785"><ele>657.0</ele><time>2026-03-28T09:35:55.319Z</time></trkpt><trkpt lat="44.2566181" lon="8.3312768"><ele>657.0</ele><time>2026-03-28T09:35:58.321Z</time></trkpt><trkpt lat="44.2566641" lon="8.331183"><ele>657.0</ele><time>2026-03-28T09:36:01.316Z</time></trkpt><trkpt lat="44.256737" lon="8.3311509"><ele>657.0</ele><time>2026-03-28T09:36:05.319Z</time></trkpt><trkpt lat="44.2568266" lon="8.3311375"><ele>658.1428571428571</ele><time>2026-03-28T09:36:09.315Z</time></trkpt><trkpt lat="44.256906" lon="8.3310924"><ele>659.2857142857143</ele><time>2026-03-28T09:36:11.313Z</time></trkpt><trkpt lat="44.2569679" lon="8.3310647"><ele>660.4285714285714</ele><time>2026-03-28T09:36:12.314Z</time></trkpt><trkpt lat="44.2570331" lon="8.3310424"><ele>661.5714285714286</ele><time>2026-03-28T09:36:13.308Z</time></trkpt><trkpt lat="44.2571013" lon="8.3310167"><ele>662.7142857142858</ele><time>2026-03-28T09:36:14.316Z</time></trkpt><trkpt lat="44.2571703" lon="8.3309839"><ele>663.8571428571429</ele><time>2026-03-28T09:36:15.307Z</time></trkpt><trkpt lat="44.2572343" lon="8.3309712"><ele>665.0</ele><time>2026-03-28T09:36:16.309Z</time></trkpt><trkpt lat="44.2573424" lon="8.3309842"><ele>665.0</ele><time>2026-03-28T09:36:18.315Z</time></trkpt><trkpt lat="44.2574521" lon="8.3310166"><ele>665.0</ele><time>2026-03-28T09:36:20.312Z</time></trkpt><trkpt lat="44.2575781" lon="8.3310088"><ele>665.0</ele><time>2026-03-28T09:36:22.316Z</time></trkpt><trkpt lat="44.2576426" lon="8.3309926"><ele>665.0</ele><time>2026-03-28T09:36:23.305Z</time></trkpt><trkpt lat="44.2577413" lon="8.3309576"><ele>665.0</ele><time>2026-03-28T09:36:25.314Z</time></trkpt><trkpt lat="44.257839" lon="8.3309674"><ele>665.0</ele><time>2026-03-28T09:36:27.312Z</time></trkpt><trkpt lat="44.2579521" lon="8.3310354"><ele>665.0</ele><time>2026-03-28T09:36:29.311Z</time></trkpt><trkpt lat="44.2580098" lon="8.3310732"><ele>665.0</ele><time>2026-03-28T09:36:30.313Z</time></trkpt><trkpt lat="44.2580707" lon="8.3311239"><ele>665.0</ele><time>2026-03-28T09:36:31.307Z</time></trkpt><trkpt lat="44.258138" lon="8.331182"><ele>665.0</ele><time>2026-03-28T09:36:32.314Z</time></trkpt><trkpt lat="44.2582031" lon="8.3312487"><ele>665.0</ele><time>2026-03-28T09:36:33.313Z</time></trkpt><trkpt lat="44.258259" lon="8.3313091"><ele>666.8333333333333</ele><time>2026-03-28T09:36:34.315Z</time></trkpt><trkpt lat="44.2583154" lon="8.3313688"><ele>668.6666666666666</ele><time>2026-03-28T09:36:35.34Z</time></trkpt><trkpt lat="44.258376" lon="8.3314333"><ele>670.5</ele><time>2026-03-28T09:36:36.312Z</time></trkpt><trkpt lat="44.2584427" lon="8.3315069"><ele>672.3333333333334</ele><time>2026-03-28T09:36:37.316Z</time></trkpt><trkpt lat="44.258519" lon="8.3315626"><ele>674.1666666666667</ele><time>2026-03-28T09:36:38.313Z</time></trkpt><trkpt lat="44.2586035" lon="8.3316118"><ele>676.0</ele><time>2026-03-28T09:36:39.322Z</time></trkpt><trkpt lat="44.2586857" lon="8.3316582"><ele>673.5</ele><time>2026-03-28T09:36:40.321Z</time></trkpt><trkpt lat="44.2587654" lon="8.3316962"><ele>671.0</ele><time>2026-03-28T09:36:41.328Z</time></trkpt><trkpt lat="44.25885" lon="8.3317407"><ele>668.5</ele><time>2026-03-28T09:36:42.319Z</time></trkpt><trkpt lat="44.2589406" lon="8.3317853"><ele>666.0</ele><time>2026-03-28T09:36:43.325Z</time></trkpt><trkpt lat="44.2590184" lon="8.3318169"><ele>663.5</ele><time>2026-03-28T09:36:44.327Z</time></trkpt><trkpt lat="44.2590999" lon="8.3318135"><ele>661.0</ele><time>2026-03-28T09:36:45.319Z</time></trkpt><trkpt lat="44.2591807" lon="8.3317929"><ele>661.0</ele><time>2026-03-28T09:36:46.328Z</time></trkpt><trkpt lat="44.2592616" lon="8.3317738"><ele>661.0</ele><time>2026-03-28T09:36:47.324Z</time></trkpt><trkpt lat="44.2593403" lon="8.3317651"><ele>661.0</ele><time>2026-03-28T09:36:48.315Z</time></trkpt><trkpt lat="44.2594199" lon="8.3317666"><ele>661.0</ele><time>2026-03-28T09:36:49.318Z</time></trkpt><trkpt lat="44.2595121" lon="8.3317908"><ele>661.0</ele><time>2026-03-28T09:36:50.321Z</time></trkpt><trkpt lat="44.2596102" lon="8.331811"><ele>661.0</ele><time>2026-03-28T09:36:51.322Z</time></trkpt><trkpt lat="44.2596924" lon="8.3318323"><ele>661.0</ele><time>2026-03-28T09:36:52.32Z</time></trkpt><trkpt lat="44.259765" lon="8.3318634"><ele>661.0</ele><time>2026-03-28T09:36:53.326Z</time></trkpt><trkpt lat="44.2598673" lon="8.3319293"><ele>661.0</ele><time>2026-03-28T09:36:55.324Z</time></trkpt><trkpt lat="44.2599668" lon="8.3319412"><ele>661.0</ele><time>2026-03-28T09:36:57.318Z</time></trkpt><trkpt lat="44.2600623" lon="8.3318593"><ele>661.0</ele><time>2026-03-28T09:36:59.313Z</time></trkpt><trkpt lat="44.2601116" lon="8.331797"><ele>660.1666666666667</ele><time>2026-03-28T09:37:00.32Z</time></trkpt><trkpt lat="44.2601788" lon="8.3317284"><ele>659.3333333333334</ele><time>2026-03-28T09:37:01.311Z</time></trkpt><trkpt lat="44.2602456" lon="8.3316455"><ele>658.5</ele><time>2026-03-28T09:37:02.312Z</time></trkpt><trkpt lat="44.2603186" lon="8.3315789"><ele>657.6666666666666</ele><time>2026-03-28T09:37:03.309Z</time></trkpt><trkpt lat="44.2603885" lon="8.3315277"><ele>656.8333333333333</ele><time>2026-03-28T09:37:04.308Z</time></trkpt><trkpt lat="44.2604558" lon="8.3314833"><ele>656.0</ele><time>2026-03-28T09:37:05.331Z</time></trkpt><trkpt lat="44.2605254" lon="8.3314668"><ele>656.0</ele><time>2026-03-28T09:37:06.311Z</time></trkpt><trkpt lat="44.2605919" lon="8.3314643"><ele>656.0</ele><time>2026-03-28T09:37:07.316Z</time></trkpt><trkpt lat="44.2606587" lon="8.331479"><ele>656.0</ele><time>2026-03-28T09:37:08.308Z</time></trkpt><trkpt lat="44.2607245" lon="8.3315155"><ele>656.0</ele><time>2026-03-28T09:37:09.314Z</time></trkpt><trkpt lat="44.260825" lon="8.3315966"><ele>656.0</ele><time>2026-03-28T09:37:11.321Z</time></trkpt><trkpt lat="44.2609333" lon="8.3316514"><ele>656.0</ele><time>2026-03-28T09:37:13.32Z</time></trkpt><trkpt lat="44.261052" lon="8.3316586"><ele>655.0</ele><time>2026-03-28T09:37:15.319Z</time></trkpt><trkpt lat="44.2611576" lon="8.3316517"><ele>654.0</ele><time>2026-03-28T09:37:17.324Z</time></trkpt><trkpt lat="44.2612615" lon="8.3315842"><ele>653.0</ele><time>2026-03-28T09:37:19.328Z</time></trkpt><trkpt lat="44.2613062" lon="8.3315087"><ele>652.0</ele><time>2026-03-28T09:37:20.324Z</time></trkpt><trkpt lat="44.2613528" lon="8.3314142"><ele>651.0</ele><time>2026-03-28T09:37:21.326Z</time></trkpt><trkpt lat="44.2613908" lon="8.3313187"><ele>650.8333333333334</ele><time>2026-03-28T09:37:22.325Z</time></trkpt><trkpt lat="44.2614316" lon="8.331219"><ele>650.6666666666666</ele><time>2026-03-28T09:37:23.319Z</time></trkpt><trkpt lat="44.2614784" lon="8.3311319"><ele>650.5</ele><time>2026-03-28T09:37:24.323Z</time></trkpt><trkpt lat="44.2615292" lon="8.331052"><ele>650.3333333333333</ele><time>2026-03-28T09:37:25.327Z</time></trkpt><trkpt lat="44.2615816" lon="8.3309675"><ele>650.1666666666666</ele><time>2026-03-28T09:37:26.325Z</time></trkpt><trkpt lat="44.261632" lon="8.3308787"><ele>650.0</ele><time>2026-03-28T09:37:27.324Z</time></trkpt><trkpt lat="44.2616828" lon="8.3307895"><ele>650.0</ele><time>2026-03-28T09:37:28.32Z</time></trkpt><trkpt lat="44.2617326" lon="8.3306881"><ele>650.0</ele><time>2026-03-28T09:37:29.32Z</time></trkpt><trkpt lat="44.2617868" lon="8.3305903"><ele>650.0</ele><time>2026-03-28T09:37:30.316Z</time></trkpt><trkpt lat="44.2618336" lon="8.3304979"><ele>650.0</ele><time>2026-03-28T09:37:31.322Z</time></trkpt><trkpt lat="44.2618762" lon="8.3304126"><ele>650.0</ele><time>2026-03-28T09:37:32.318Z</time></trkpt><trkpt lat="44.2619089" lon="8.3303133"><ele>650.0</ele><time>2026-03-28T09:37:33.328Z</time></trkpt><trkpt lat="44.2619312" lon="8.3302037"><ele>651.6666666666666</ele><time>2026-03-28T09:37:34.319Z</time></trkpt><trkpt lat="44.2619475" lon="8.3300886"><ele>653.3333333333333</ele><time>2026-03-28T09:37:35.328Z</time></trkpt><trkpt lat="44.2619561" lon="8.3299804"><ele>655.0</ele><time>2026-03-28T09:37:36.337Z</time></trkpt><trkpt lat="44.2619678" lon="8.3298771"><ele>656.6666666666666</ele><time>2026-03-28T09:37:37.324Z</time></trkpt><trkpt lat="44.2619865" lon="8.3297758"><ele>658.3333333333334</ele><time>2026-03-28T09:37:38.324Z</time></trkpt><trkpt lat="44.2620135" lon="8.3296707"><ele>660.0</ele><time>2026-03-28T09:37:39.316Z</time></trkpt><trkpt lat="44.262047" lon="8.329563"><ele>662.5</ele><time>2026-03-28T09:37:40.322Z</time></trkpt><trkpt lat="44.2620669" lon="8.3294506"><ele>665.0</ele><time>2026-03-28T09:37:41.32Z</time></trkpt><trkpt lat="44.2620888" lon="8.3293337"><ele>667.5</ele><time>2026-03-28T09:37:42.327Z</time></trkpt><trkpt lat="44.2621026" lon="8.3292161"><ele>670.0</ele><time>2026-03-28T09:37:43.318Z</time></trkpt><trkpt lat="44.2621184" lon="8.3291189"><ele>672.5</ele><time>2026-03-28T09:37:44.324Z</time></trkpt><trkpt lat="44.2621413" lon="8.3289619"><ele>675.0</ele><time>2026-03-28T09:37:46.318Z</time></trkpt><trkpt lat="44.2621721" lon="8.3288334"><ele>677.4</ele><time>2026-03-28T09:37:48.314Z</time></trkpt><trkpt lat="44.262241" lon="8.3286896"><ele>679.8</ele><time>2026-03-28T09:37:50.308Z</time></trkpt><trkpt lat="44.2622774" lon="8.328614"><ele>682.2</ele><time>2026-03-28T09:37:51.316Z</time></trkpt><trkpt lat="44.2623222" lon="8.3285418"><ele>684.6</ele><time>2026-03-28T09:37:52.316Z</time></trkpt><trkpt lat="44.2624094" lon="8.3284277"><ele>687.0</ele><time>2026-03-28T09:37:54.315Z</time></trkpt><trkpt lat="44.2624867" lon="8.3283067"><ele>684.1428571428572</ele><time>2026-03-28T09:37:56.308Z</time></trkpt><trkpt lat="44.2625155" lon="8.328226"><ele>681.2857142857142</ele><time>2026-03-28T09:37:57.327Z</time></trkpt><trkpt lat="44.2625315" lon="8.328129"><ele>678.4285714285714</ele><time>2026-03-28T09:37:58.318Z</time></trkpt><trkpt lat="44.262551" lon="8.328029"><ele>675.5714285714287</ele><time>2026-03-28T09:37:59.323Z</time></trkpt><trkpt lat="44.2625646" lon="8.3279268"><ele>672.7142857142858</ele><time>2026-03-28T09:38:00.316Z</time></trkpt><trkpt lat="44.2625787" lon="8.3278277"><ele>669.8571428571429</ele><time>2026-03-28T09:38:01.322Z</time></trkpt><trkpt lat="44.2625805" lon="8.3277362"><ele>667.0</ele><time>2026-03-28T09:38:02.317Z</time></trkpt><trkpt lat="44.2626073" lon="8.3275603"><ele>667.0</ele><time>2026-03-28T09:38:04.316Z</time></trkpt><trkpt lat="44.262637" lon="8.3274713"><ele>667.0</ele><time>2026-03-28T09:38:05.319Z</time></trkpt><trkpt lat="44.2626973" lon="8.327338"><ele>667.0</ele><time>2026-03-28T09:38:07.337Z</time></trkpt><trkpt lat="44.2627344" lon="8.3272255"><ele>667.0</ele><time>2026-03-28T09:38:09.316Z</time></trkpt><trkpt lat="44.2627611" lon="8.3270992"><ele>667.0</ele><time>2026-03-28T09:38:11.322Z</time></trkpt><trkpt lat="44.2628052" lon="8.3270349"><ele>667.0</ele><time>2026-03-28T09:38:12.315Z</time></trkpt><trkpt lat="44.2628674" lon="8.326987"><ele>668.0</ele><time>2026-03-28T09:38:13.326Z</time></trkpt><trkpt lat="44.2629357" lon="8.3269395"><ele>669.0</ele><time>2026-03-28T09:38:14.311Z</time></trkpt><trkpt lat="44.2630094" lon="8.3269041"><ele>670.0</ele><time>2026-03-28T09:38:15.325Z</time></trkpt><trkpt lat="44.2630886" lon="8.3268859"><ele>671.0</ele><time>2026-03-28T09:38:16.317Z</time></trkpt><trkpt lat="44.2631715" lon="8.3268755"><ele>672.0</ele><time>2026-03-28T09:38:17.325Z</time></trkpt><trkpt lat="44.2632621" lon="8.3268607"><ele>673.0</ele><time>2026-03-28T09:38:18.314Z</time></trkpt><trkpt lat="44.2633421" lon="8.3268483"><ele>673.0</ele><time>2026-03-28T09:38:19.321Z</time></trkpt><trkpt lat="44.2634152" lon="8.3268305"><ele>673.0</ele><time>2026-03-28T09:38:20.315Z</time></trkpt><trkpt lat="44.2634811" lon="8.3268063"><ele>673.0</ele><time>2026-03-28T09:38:21.323Z</time></trkpt><trkpt lat="44.263598" lon="8.3267841"><ele>673.0</ele><time>2026-03-28T09:38:23.322Z</time></trkpt><trkpt lat="44.2637104" lon="8.326821"><ele>673.0</ele><time>2026-03-28T09:38:25.326Z</time></trkpt><trkpt lat="44.2638092" lon="8.3268737"><ele>673.0</ele><time>2026-03-28T09:38:27.325Z</time></trkpt><trkpt lat="44.2639299" lon="8.3269034"><ele>673.0</ele><time>2026-03-28T09:38:29.324Z</time></trkpt><trkpt lat="44.2639988" lon="8.3268997"><ele>673.0</ele><time>2026-03-28T09:38:30.32Z</time></trkpt><trkpt lat="44.2640651" lon="8.3268948"><ele>673.0</ele><time>2026-03-28T09:38:31.323Z</time></trkpt><trkpt lat="44.2641374" lon="8.3268928"><ele>673.0</ele><time>2026-03-28T09:38:32.308Z</time></trkpt><trkpt lat="44.2642568" lon="8.326886"><ele>673.4</ele><time>2026-03-28T09:38:34.307Z</time></trkpt><trkpt lat="44.2643255" lon="8.3268937"><ele>673.8</ele><time>2026-03-28T09:38:35.315Z</time></trkpt><trkpt lat="44.2644532" lon="8.3269151"><ele>674.2</ele><time>2026-03-28T09:38:37.314Z</time></trkpt><trkpt lat="44.2645235" lon="8.3269173"><ele>674.6</ele><time>2026-03-28T09:38:38.319Z</time></trkpt><trkpt lat="44.2645879" lon="8.3268955"><ele>675.0</ele><time>2026-03-28T09:38:39.31Z</time></trkpt><trkpt lat="44.2647017" lon="8.3268079"><ele>673.0</ele><time>2026-03-28T09:38:41.308Z</time></trkpt><trkpt lat="44.2647798" lon="8.3267591"><ele>671.0</ele><time>2026-03-28T09:38:42.32Z</time></trkpt><trkpt lat="44.2648633" lon="8.3267165"><ele>669.0</ele><time>2026-03-28T09:38:43.312Z</time></trkpt><trkpt lat="44.2649448" lon="8.3266805"><ele>667.0</ele><time>2026-03-28T09:38:44.318Z</time></trkpt><trkpt lat="44.2650173" lon="8.3266567"><ele>665.0</ele><time>2026-03-28T09:38:45.308Z</time></trkpt><trkpt lat="44.2650839" lon="8.3266349"><ele>663.0</ele><time>2026-03-28T09:38:46.314Z</time></trkpt><trkpt lat="44.2651742" lon="8.3265693"><ele>663.0</ele><time>2026-03-28T09:38:48.314Z</time></trkpt><trkpt lat="44.2652393" lon="8.3264771"><ele>663.0</ele><time>2026-03-28T09:38:50.313Z</time></trkpt><trkpt lat="44.2653123" lon="8.3263607"><ele>663.0</ele><time>2026-03-28T09:38:52.312Z</time></trkpt><trkpt lat="44.2653836" lon="8.3262917"><ele>663.0</ele><time>2026-03-28T09:38:54.312Z</time></trkpt><trkpt lat="44.2654519" lon="8.3262315"><ele>663.0</ele><time>2026-03-28T09:38:56.309Z</time></trkpt><trkpt lat="44.2654865" lon="8.3261432"><ele>663.0</ele><time>2026-03-28T09:38:58.315Z</time></trkpt><trkpt lat="44.2654876" lon="8.3260382"><ele>665.5999999999999</ele><time>2026-03-28T09:39:00.311Z</time></trkpt><trkpt lat="44.2654622" lon="8.3258898"><ele>668.1999999999999</ele><time>2026-03-28T09:39:02.308Z</time></trkpt><trkpt lat="44.2653956" lon="8.3257168"><ele>670.8</ele><time>2026-03-28T09:39:04.308Z</time></trkpt><trkpt lat="44.2653559" lon="8.3256139"><ele>673.4</ele><time>2026-03-28T09:39:05.312Z</time></trkpt><trkpt lat="44.2653332" lon="8.325517"><ele>676.0</ele><time>2026-03-28T09:39:06.306Z</time></trkpt><trkpt lat="44.2653243" lon="8.3254174"><ele>678.1666666666667</ele><time>2026-03-28T09:39:07.305Z</time></trkpt><trkpt lat="44.2653298" lon="8.3253248"><ele>680.3333333333334</ele><time>2026-03-28T09:39:08.302Z</time></trkpt><trkpt lat="44.2653492" lon="8.325228"><ele>682.5</ele><time>2026-03-28T09:39:09.33Z</time></trkpt><trkpt lat="44.2654254" lon="8.325097"><ele>684.6666666666666</ele><time>2026-03-28T09:39:11.312Z</time></trkpt><trkpt lat="44.2654849" lon="8.3250369"><ele>686.8333333333333</ele><time>2026-03-28T09:39:12.308Z</time></trkpt><trkpt lat="44.2655411" lon="8.3249717"><ele>689.0</ele><time>2026-03-28T09:39:13.319Z</time></trkpt><trkpt lat="44.2655938" lon="8.3249079"><ele>689.5</ele><time>2026-03-28T09:39:14.313Z</time></trkpt><trkpt lat="44.2656745" lon="8.324787"><ele>690.0</ele><time>2026-03-28T09:39:16.304Z</time></trkpt><trkpt lat="44.2657373" lon="8.324671"><ele>690.5</ele><time>2026-03-28T09:39:18.314Z</time></trkpt><trkpt lat="44.2658073" lon="8.324643"><ele>691.0</ele><time>2026-03-28T09:39:20.305Z</time></trkpt><trkpt lat="44.2658741" lon="8.3246614"><ele>691.5</ele><time>2026-03-28T09:39:22.317Z</time></trkpt><trkpt lat="44.2659543" lon="8.3246841"><ele>692.0</ele><time>2026-03-28T09:39:24.314Z</time></trkpt><trkpt lat="44.2660608" lon="8.3247143"><ele>692.0</ele><time>2026-03-28T09:39:26.312Z</time></trkpt><trkpt lat="44.2661633" lon="8.3247408"><ele>692.0</ele><time>2026-03-28T09:39:28.313Z</time></trkpt><trkpt lat="44.266248" lon="8.3247324"><ele>692.0</ele><time>2026-03-28T09:39:30.311Z</time></trkpt><trkpt lat="44.2663294" lon="8.3247119"><ele>692.0</ele><time>2026-03-28T09:39:32.314Z</time></trkpt><trkpt lat="44.2664071" lon="8.3246948"><ele>692.0</ele><time>2026-03-28T09:39:34.312Z</time></trkpt><trkpt lat="44.2664972" lon="8.324678"><ele>692.0</ele><time>2026-03-28T09:39:36.315Z</time></trkpt><trkpt lat="44.2665819" lon="8.324689"><ele>687.5</ele><time>2026-03-28T09:39:38.313Z</time></trkpt><trkpt lat="44.2666406" lon="8.3247544"><ele>683.0</ele><time>2026-03-28T09:39:40.328Z</time></trkpt><trkpt lat="44.2666845" lon="8.3248441"><ele>678.5</ele><time>2026-03-28T09:39:42.316Z</time></trkpt><trkpt lat="44.2667153" lon="8.3249281"><ele>674.0</ele><time>2026-03-28T09:39:44.317Z</time></trkpt><trkpt lat="44.2667734" lon="8.3250498"><ele>669.5</ele><time>2026-03-28T09:39:46.312Z</time></trkpt><trkpt lat="44.2668167" lon="8.325126"><ele>665.0</ele><time>2026-03-28T09:39:47.316Z</time></trkpt><trkpt lat="44.2668639" lon="8.3252198"><ele>665.0</ele><time>2026-03-28T09:39:48.31Z</time></trkpt><trkpt lat="44.2669078" lon="8.3253161"><ele>665.0</ele><time>2026-03-28T09:39:49.315Z</time></trkpt><trkpt lat="44.2669642" lon="8.3253822"><ele>665.0</ele><time>2026-03-28T09:39:50.311Z</time></trkpt><trkpt lat="44.26702" lon="8.3254414"><ele>665.0</ele><time>2026-03-28T09:39:51.314Z</time></trkpt><trkpt lat="44.2670798" lon="8.3254832"><ele>665.0</ele><time>2026-03-28T09:39:52.318Z</time></trkpt><trkpt lat="44.2671457" lon="8.325507"><ele>665.0</ele><time>2026-03-28T09:39:53.323Z</time></trkpt><trkpt lat="44.2672661" lon="8.3254761"><ele>665.3333333333333</ele><time>2026-03-28T09:39:55.326Z</time></trkpt><trkpt lat="44.2673256" lon="8.3254128"><ele>665.6666666666666</ele><time>2026-03-28T09:39:56.317Z</time></trkpt><trkpt lat="44.2673925" lon="8.3253283"><ele>666.0</ele><time>2026-03-28T09:39:57.318Z</time></trkpt><trkpt lat="44.2674628" lon="8.3252348"><ele>666.3333333333334</ele><time>2026-03-28T09:39:58.312Z</time></trkpt><trkpt lat="44.2675277" lon="8.3251458"><ele>666.6666666666667</ele><time>2026-03-28T09:39:59.313Z</time></trkpt><trkpt lat="44.2675788" lon="8.3250601"><ele>667.0</ele><time>2026-03-28T09:40:00.31Z</time></trkpt><trkpt lat="44.2676291" lon="8.3249719"><ele>667.0</ele><time>2026-03-28T09:40:01.322Z</time></trkpt><trkpt lat="44.2676728" lon="8.3248841"><ele>667.0</ele><time>2026-03-28T09:40:02.317Z</time></trkpt><trkpt lat="44.2677087" lon="8.3248076"><ele>667.0</ele><time>2026-03-28T09:40:03.321Z</time></trkpt><trkpt lat="44.2677774" lon="8.3246971"><ele>667.0</ele><time>2026-03-28T09:40:05.323Z</time></trkpt><trkpt lat="44.2678562" lon="8.3245753"><ele>667.0</ele><time>2026-03-28T09:40:07.317Z</time></trkpt><trkpt lat="44.2679051" lon="8.324505"><ele>667.0</ele><time>2026-03-28T09:40:08.306Z</time></trkpt><trkpt lat="44.2679453" lon="8.3244247"><ele>666.5</ele><time>2026-03-28T09:40:09.319Z</time></trkpt><trkpt lat="44.26799" lon="8.3242771"><ele>666.0</ele><time>2026-03-28T09:40:11.332Z</time></trkpt><trkpt lat="44.2680223" lon="8.3241951"><ele>665.5</ele><time>2026-03-28T09:40:12.318Z</time></trkpt><trkpt lat="44.2680562" lon="8.324114"><ele>665.0</ele><time>2026-03-28T09:40:13.316Z</time></trkpt><trkpt lat="44.2680931" lon="8.3240397"><ele>664.5</ele><time>2026-03-28T09:40:14.307Z</time></trkpt><trkpt lat="44.2681828" lon="8.3239627"><ele>664.0</ele><time>2026-03-28T09:40:16.315Z</time></trkpt><trkpt lat="44.2683042" lon="8.3240008"><ele>664.0</ele><time>2026-03-28T09:40:18.306Z</time></trkpt><trkpt lat="44.2683807" lon="8.3240027"><ele>664.0</ele><time>2026-03-28T09:40:19.32Z</time></trkpt><trkpt lat="44.2684422" lon="8.3239733"><ele>664.0</ele><time>2026-03-28T09:40:20.311Z</time></trkpt><trkpt lat="44.2685071" lon="8.3239265"><ele>664.0</ele><time>2026-03-28T09:40:21.314Z</time></trkpt><trkpt lat="44.2685703" lon="8.3238635"><ele>664.0</ele><time>2026-03-28T09:40:22.31Z</time></trkpt><trkpt lat="44.2686216" lon="8.3238031"><ele>664.0</ele><time>2026-03-28T09:40:23.32Z</time></trkpt><trkpt lat="44.2686908" lon="8.3237012"><ele>666.8333333333334</ele><time>2026-03-28T09:40:25.325Z</time></trkpt><trkpt lat="44.2687582" lon="8.3236851"><ele>669.6666666666667</ele><time>2026-03-28T09:40:27.322Z</time></trkpt><trkpt lat="44.2688227" lon="8.3238"><ele>672.5</ele><time>2026-03-28T09:40:29.313Z</time></trkpt><trkpt lat="44.268862" lon="8.3238695"><ele>675.3333333333334</ele><time>2026-03-28T09:40:30.309Z</time></trkpt><trkpt lat="44.2689652" lon="8.3238891"><ele>678.1666666666666</ele><time>2026-03-28T09:40:32.31Z</time></trkpt><trkpt lat="44.2690301" lon="8.3238715"><ele>681.0</ele><time>2026-03-28T09:40:33.318Z</time></trkpt><trkpt lat="44.2690987" lon="8.3238906"><ele>681.0</ele><time>2026-03-28T09:40:34.311Z</time></trkpt><trkpt lat="44.2692045" lon="8.3239168"><ele>681.0</ele><time>2026-03-28T09:40:36.313Z</time></trkpt><trkpt lat="44.2692933" lon="8.3238142"><ele>681.0</ele><time>2026-03-28T09:40:38.306Z</time></trkpt><trkpt lat="44.2693342" lon="8.3237361"><ele>681.0</ele><time>2026-03-28T09:40:39.315Z</time></trkpt><trkpt lat="44.2693635" lon="8.3236497"><ele>681.0</ele><time>2026-03-28T09:40:40.303Z</time></trkpt><trkpt lat="44.2693859" lon="8.3235308"><ele>681.0</ele><time>2026-03-28T09:40:42.329Z</time></trkpt><trkpt lat="44.2694696" lon="8.3234942"><ele>681.0</ele><time>2026-03-28T09:40:45.314Z</time></trkpt><trkpt lat="44.2695397" lon="8.3236131"><ele>681.0</ele><time>2026-03-28T09:40:47.314Z</time></trkpt><trkpt lat="44.2695674" lon="8.323701"><ele>681.0</ele><time>2026-03-28T09:40:48.304Z</time></trkpt><trkpt lat="44.2696126" lon="8.3237851"><ele>681.0</ele><time>2026-03-28T09:40:49.313Z</time></trkpt><trkpt lat="44.2696667" lon="8.3238791"><ele>681.0</ele><time>2026-03-28T09:40:50.312Z</time></trkpt><trkpt lat="44.269719" lon="8.3239959"><ele>681.0</ele><time>2026-03-28T09:40:51.317Z</time></trkpt><trkpt lat="44.2697685" lon="8.3240978"><ele>678.8333333333334</ele><time>2026-03-28T09:40:52.306Z</time></trkpt><trkpt lat="44.2698132" lon="8.3241824"><ele>676.6666666666666</ele><time>2026-03-28T09:40:53.316Z</time></trkpt><trkpt lat="44.2698965" lon="8.3242855"><ele>674.5</ele><time>2026-03-28T09:40:55.316Z</time></trkpt><trkpt lat="44.2699956" lon="8.324337"><ele>672.3333333333333</ele><time>2026-03-28T09:40:57.319Z</time></trkpt><trkpt lat="44.2700611" lon="8.3243519"><ele>670.1666666666666</ele><time>2026-03-28T09:40:58.313Z</time></trkpt><trkpt lat="44.2701374" lon="8.3243587"><ele>668.0</ele><time>2026-03-28T09:40:59.315Z</time></trkpt><trkpt lat="44.2702075" lon="8.324366"><ele>668.0</ele><time>2026-03-28T09:41:00.309Z</time></trkpt><trkpt lat="44.2702759" lon="8.3243839"><ele>668.0</ele><time>2026-03-28T09:41:01.309Z</time></trkpt><trkpt lat="44.2703395" lon="8.324429"><ele>668.0</ele><time>2026-03-28T09:41:02.307Z</time></trkpt><trkpt lat="44.2703903" lon="8.3244972"><ele>668.0</ele><time>2026-03-28T09:41:03.306Z</time></trkpt><trkpt lat="44.2704378" lon="8.3245726"><ele>668.0</ele><time>2026-03-28T09:41:04.312Z</time></trkpt><trkpt lat="44.2704948" lon="8.3246422"><ele>668.0</ele><time>2026-03-28T09:41:05.308Z</time></trkpt><trkpt lat="44.2705564" lon="8.3247088"><ele>668.0</ele><time>2026-03-28T09:41:06.311Z</time></trkpt><trkpt lat="44.2706222" lon="8.3247766"><ele>666.4</ele><time>2026-03-28T09:41:07.308Z</time></trkpt><trkpt lat="44.2706773" lon="8.3248371"><ele>664.8</ele><time>2026-03-28T09:41:08.314Z</time></trkpt><trkpt lat="44.270746" lon="8.3249592"><ele>663.2</ele><time>2026-03-28T09:41:10.318Z</time></trkpt><trkpt lat="44.2708303" lon="8.3250808"><ele>661.6</ele><time>2026-03-28T09:41:12.317Z</time></trkpt><trkpt lat="44.2708871" lon="8.325132"><ele>660.0</ele><time>2026-03-28T09:41:13.336Z</time></trkpt><trkpt lat="44.2710008" lon="8.3251691"><ele>660.0000000000001</ele><time>2026-03-28T09:41:15.315Z</time></trkpt><trkpt lat="44.2710646" lon="8.3251526"><ele>660.0</ele><time>2026-03-28T09:41:16.308Z</time></trkpt><trkpt lat="44.2711351" lon="8.3251281"><ele>660.0</ele><time>2026-03-28T09:41:17.32Z</time></trkpt><trkpt lat="44.2712072" lon="8.3251021"><ele>660.0</ele><time>2026-03-28T09:41:18.316Z</time></trkpt><trkpt lat="44.2712842" lon="8.3250719"><ele>660.0</ele><time>2026-03-28T09:41:19.312Z</time></trkpt><trkpt lat="44.2713475" lon="8.3250468"><ele>660.0000000000001</ele><time>2026-03-28T09:41:20.308Z</time></trkpt><trkpt lat="44.2714113" lon="8.3250207"><ele>660.0</ele><time>2026-03-28T09:41:21.319Z</time></trkpt><trkpt lat="44.2714758" lon="8.3250118"><ele>661.6666666666666</ele><time>2026-03-28T09:41:22.308Z</time></trkpt><trkpt lat="44.2715476" lon="8.3250193"><ele>663.3333333333334</ele><time>2026-03-28T09:41:23.318Z</time></trkpt><trkpt lat="44.2716195" lon="8.3250425"><ele>665.0</ele><time>2026-03-28T09:41:24.313Z</time></trkpt><trkpt lat="44.2716951" lon="8.3250703"><ele>666.6666666666667</ele><time>2026-03-28T09:41:25.321Z</time></trkpt><trkpt lat="44.2717765" lon="8.3251106"><ele>668.3333333333334</ele><time>2026-03-28T09:41:26.309Z</time></trkpt><trkpt lat="44.2718643" lon="8.3251388"><ele>670.0</ele><time>2026-03-28T09:41:27.319Z</time></trkpt><trkpt lat="44.2719557" lon="8.3251672"><ele>670.0</ele><time>2026-03-28T09:41:28.31Z</time></trkpt><trkpt lat="44.2720423" lon="8.3252039"><ele>670.0</ele><time>2026-03-28T09:41:29.315Z</time></trkpt><trkpt lat="44.2721191" lon="8.3252571"><ele>670.0</ele><time>2026-03-28T09:41:30.31Z</time></trkpt><trkpt lat="44.2721821" lon="8.325335"><ele>670.0</ele><time>2026-03-28T09:41:31.316Z</time></trkpt><trkpt lat="44.2722416" lon="8.3254348"><ele>670.0</ele><time>2026-03-28T09:41:32.314Z</time></trkpt><trkpt lat="44.2723093" lon="8.3255432"><ele>669.5</ele><time>2026-03-28T09:41:33.318Z</time></trkpt><trkpt lat="44.27238" lon="8.325654"><ele>669.0</ele><time>2026-03-28T09:41:34.311Z</time></trkpt><trkpt lat="44.2724426" lon="8.3257474"><ele>668.5</ele><time>2026-03-28T09:41:35.313Z</time></trkpt><trkpt lat="44.2725" lon="8.32583"><ele>668.0</ele><time>2026-03-28T09:41:36.308Z</time></trkpt><trkpt lat="44.2725553" lon="8.3259047"><ele>667.5</ele><time>2026-03-28T09:41:37.317Z</time></trkpt><trkpt lat="44.2726116" lon="8.3259839"><ele>667.0</ele><time>2026-03-28T09:41:38.313Z</time></trkpt><trkpt lat="44.2726753" lon="8.3260558"><ele>667.0</ele><time>2026-03-28T09:41:39.319Z</time></trkpt><trkpt lat="44.2727439" lon="8.3261252"><ele>667.0</ele><time>2026-03-28T09:41:40.312Z</time></trkpt><trkpt lat="44.2728074" lon="8.3261933"><ele>667.0</ele><time>2026-03-28T09:41:41.318Z</time></trkpt><trkpt lat="44.272859" lon="8.3262717"><ele>667.0</ele><time>2026-03-28T09:41:42.312Z</time></trkpt><trkpt lat="44.2729004" lon="8.3263666"><ele>667.0</ele><time>2026-03-28T09:41:43.334Z</time></trkpt><trkpt lat="44.2729268" lon="8.3264628"><ele>667.0</ele><time>2026-03-28T09:41:44.309Z</time></trkpt><trkpt lat="44.2729517" lon="8.3265455"><ele>668.5</ele><time>2026-03-28T09:41:45.323Z</time></trkpt><trkpt lat="44.2730286" lon="8.3266898"><ele>670.0</ele><time>2026-03-28T09:41:47.321Z</time></trkpt><trkpt lat="44.2730915" lon="8.3267453"><ele>671.5</ele><time>2026-03-28T09:41:48.312Z</time></trkpt><trkpt lat="44.2731664" lon="8.3268063"><ele>673.0</ele><time>2026-03-28T09:41:49.323Z</time></trkpt><trkpt lat="44.2732279" lon="8.3268659"><ele>674.5</ele><time>2026-03-28T09:41:50.315Z</time></trkpt><trkpt lat="44.2732869" lon="8.3269359"><ele>676.0</ele><time>2026-03-28T09:41:51.324Z</time></trkpt><trkpt lat="44.2733414" lon="8.326996"><ele>676.0</ele><time>2026-03-28T09:41:52.315Z</time></trkpt><trkpt lat="44.2733969" lon="8.3270408"><ele>676.0</ele><time>2026-03-28T09:41:53.323Z</time></trkpt><trkpt lat="44.2735165" lon="8.3270752"><ele>676.0</ele><time>2026-03-28T09:41:55.32Z</time></trkpt><trkpt lat="44.2735821" lon="8.3270849"><ele>676.0</ele><time>2026-03-28T09:41:56.309Z</time></trkpt><trkpt lat="44.2736599" lon="8.3270847"><ele>676.0</ele><time>2026-03-28T09:41:57.316Z</time></trkpt><trkpt lat="44.2737352" lon="8.3270884"><ele>676.0</ele><time>2026-03-28T09:41:58.317Z</time></trkpt><trkpt lat="44.2738091" lon="8.3270871"><ele>676.0</ele><time>2026-03-28T09:41:59.319Z</time></trkpt><trkpt lat="44.2738793" lon="8.3270821"><ele>676.0</ele><time>2026-03-28T09:42:00.315Z</time></trkpt><trkpt lat="44.2740027" lon="8.3270577"><ele>676.0</ele><time>2026-03-28T09:42:02.314Z</time></trkpt><trkpt lat="44.2740704" lon="8.327033"><ele>676.0</ele><time>2026-03-28T09:42:03.32Z</time></trkpt><trkpt lat="44.2741382" lon="8.3269897"><ele>676.0</ele><time>2026-03-28T09:42:04.314Z</time></trkpt><trkpt lat="44.2742105" lon="8.3269267"><ele>676.0</ele><time>2026-03-28T09:42:05.324Z</time></trkpt><trkpt lat="44.2742852" lon="8.3268467"><ele>676.8333333333334</ele><time>2026-03-28T09:42:06.318Z</time></trkpt><trkpt lat="44.2743617" lon="8.3267636"><ele>677.6666666666667</ele><time>2026-03-28T09:42:07.324Z</time></trkpt><trkpt lat="44.2744356" lon="8.3266906"><ele>678.5</ele><time>2026-03-28T09:42:08.316Z</time></trkpt><trkpt lat="44.2745029" lon="8.3266475"><ele>679.3333333333334</ele><time>2026-03-28T09:42:09.323Z</time></trkpt><trkpt lat="44.2745761" lon="8.326625"><ele>680.1666666666666</ele><time>2026-03-28T09:42:10.316Z</time></trkpt><trkpt lat="44.2746524" lon="8.3266203"><ele>681.0</ele><time>2026-03-28T09:42:11.319Z</time></trkpt><trkpt lat="44.2747255" lon="8.3266332"><ele>680.4285714285714</ele><time>2026-03-28T09:42:12.309Z</time></trkpt><trkpt lat="44.2747969" lon="8.3266618"><ele>679.8571428571429</ele><time>2026-03-28T09:42:13.32Z</time></trkpt><trkpt lat="44.274866" lon="8.3267093"><ele>679.2857142857142</ele><time>2026-03-28T09:42:14.33Z</time></trkpt><trkpt lat="44.2749256" lon="8.3267581"><ele>678.7142857142858</ele><time>2026-03-28T09:42:15.313Z</time></trkpt><trkpt lat="44.2749913" lon="8.3268091"><ele>678.1428571428571</ele><time>2026-03-28T09:42:16.322Z</time></trkpt><trkpt lat="44.2750569" lon="8.3268527"><ele>677.5714285714286</ele><time>2026-03-28T09:42:17.314Z</time></trkpt><trkpt lat="44.2751152" lon="8.3268899"><ele>677.0</ele><time>2026-03-28T09:42:18.319Z</time></trkpt><trkpt lat="44.2752441" lon="8.3269015"><ele>676.9999999999999</ele><time>2026-03-28T09:42:20.322Z</time></trkpt><trkpt lat="44.2753205" lon="8.3268909"><ele>677.0</ele><time>2026-03-28T09:42:21.316Z</time></trkpt><trkpt lat="44.2754049" lon="8.3268821"><ele>677.0</ele><time>2026-03-28T09:42:22.325Z</time></trkpt><trkpt lat="44.2754826" lon="8.3268832"><ele>677.0</ele><time>2026-03-28T09:42:23.315Z</time></trkpt><trkpt lat="44.2755554" lon="8.3268882"><ele>677.0</ele><time>2026-03-28T09:42:24.324Z</time></trkpt><trkpt lat="44.275622" lon="8.3268839"><ele>676.9999999999999</ele><time>2026-03-28T09:42:25.318Z</time></trkpt><trkpt lat="44.2756898" lon="8.3268865"><ele>677.0</ele><time>2026-03-28T09:42:26.32Z</time></trkpt><trkpt lat="44.2757549" lon="8.3268829"><ele>677.4000000000001</ele><time>2026-03-28T09:42:27.312Z</time></trkpt><trkpt lat="44.2758308" lon="8.3268818"><ele>677.8000000000001</ele><time>2026-03-28T09:42:28.32Z</time></trkpt><trkpt lat="44.2759074" lon="8.3268835"><ele>678.2</ele><time>2026-03-28T09:42:29.314Z</time></trkpt><trkpt lat="44.2759741" lon="8.326896"><ele>678.6</ele><time>2026-03-28T09:42:30.316Z</time></trkpt><trkpt lat="44.2760925" lon="8.3269448"><ele>679.0</ele><time>2026-03-28T09:42:32.315Z</time></trkpt><trkpt lat="44.2762099" lon="8.3269939"><ele>679.0</ele><time>2026-03-28T09:42:34.318Z</time></trkpt><trkpt lat="44.2762789" lon="8.327025"><ele>679.0</ele><time>2026-03-28T09:42:35.308Z</time></trkpt><trkpt lat="44.2763584" lon="8.3270565"><ele>679.0</ele><time>2026-03-28T09:42:36.312Z</time></trkpt><trkpt lat="44.2764383" lon="8.3270849"><ele>679.0</ele><time>2026-03-28T09:42:37.309Z</time></trkpt><trkpt lat="44.2765167" lon="8.3271034"><ele>679.0</ele><time>2026-03-28T09:42:38.315Z</time></trkpt><trkpt lat="44.2765852" lon="8.3271167"><ele>679.0</ele><time>2026-03-28T09:42:39.31Z</time></trkpt><trkpt lat="44.2766629" lon="8.3271343"><ele>679.8333333333334</ele><time>2026-03-28T09:42:40.314Z</time></trkpt><trkpt lat="44.2767457" lon="8.3271393"><ele>680.6666666666667</ele><time>2026-03-28T09:42:41.312Z</time></trkpt><trkpt lat="44.2768321" lon="8.3271372"><ele>681.5</ele><time>2026-03-28T09:42:42.321Z</time></trkpt><trkpt lat="44.2769147" lon="8.3271292"><ele>682.3333333333334</ele><time>2026-03-28T09:42:43.314Z</time></trkpt><trkpt lat="44.2769862" lon="8.3271206"><ele>683.1666666666666</ele><time>2026-03-28T09:42:44.311Z</time></trkpt><trkpt lat="44.2770543" lon="8.3271184"><ele>684.0</ele><time>2026-03-28T09:42:45.328Z</time></trkpt><trkpt lat="44.2771237" lon="8.3271089"><ele>684.0</ele><time>2026-03-28T09:42:46.306Z</time></trkpt><trkpt lat="44.2771964" lon="8.3270909"><ele>684.0</ele><time>2026-03-28T09:42:47.315Z</time></trkpt><trkpt lat="44.2772698" lon="8.3270652"><ele>684.0</ele><time>2026-03-28T09:42:48.312Z</time></trkpt><trkpt lat="44.2773362" lon="8.3270409"><ele>684.0</ele><time>2026-03-28T09:42:49.32Z</time></trkpt><trkpt lat="44.2774554" lon="8.3270592"><ele>684.0</ele><time>2026-03-28T09:42:51.323Z</time></trkpt><trkpt lat="44.2775032" lon="8.3271207"><ele>684.0</ele><time>2026-03-28T09:42:52.312Z</time></trkpt><trkpt lat="44.2775446" lon="8.3271986"><ele>680.4000000000001</ele><time>2026-03-28T09:42:53.32Z</time></trkpt><trkpt lat="44.2775818" lon="8.3272911"><ele>676.8</ele><time>2026-03-28T09:42:54.313Z</time></trkpt><trkpt lat="44.2776042" lon="8.3273779"><ele>673.2</ele><time>2026-03-28T09:42:55.316Z</time></trkpt><trkpt lat="44.2776726" lon="8.3274847"><ele>669.5999999999999</ele><time>2026-03-28T09:42:57.324Z</time></trkpt><trkpt lat="44.2777751" lon="8.3275234"><ele>666.0</ele><time>2026-03-28T09:42:59.323Z</time></trkpt><trkpt lat="44.2778817" lon="8.32759"><ele>666.0</ele><time>2026-03-28T09:43:01.322Z</time></trkpt><trkpt lat="44.2779441" lon="8.3277453"><ele>666.0</ele><time>2026-03-28T09:43:03.327Z</time></trkpt><trkpt lat="44.2779654" lon="8.3278337"><ele>666.0</ele><time>2026-03-28T09:43:04.32Z</time></trkpt><trkpt lat="44.2779909" lon="8.3279182"><ele>666.0</ele><time>2026-03-28T09:43:05.326Z</time></trkpt><trkpt lat="44.2780594" lon="8.32801"><ele>666.0</ele><time>2026-03-28T09:43:07.322Z</time></trkpt><trkpt lat="44.2781384" lon="8.328078"><ele>666.0</ele><time>2026-03-28T09:43:09.321Z</time></trkpt><trkpt lat="44.2782028" lon="8.3281603"><ele>666.6666666666666</ele><time>2026-03-28T09:43:11.321Z</time></trkpt><trkpt lat="44.2782557" lon="8.3282272"><ele>667.3333333333334</ele><time>2026-03-28T09:43:13.322Z</time></trkpt><trkpt lat="44.2782988" lon="8.3282989"><ele>668.0</ele><time>2026-03-28T09:43:15.321Z</time></trkpt><trkpt lat="44.2783369" lon="8.3284225"><ele>668.6666666666667</ele><time>2026-03-28T09:43:17.326Z</time></trkpt><trkpt lat="44.2783885" lon="8.3285538"><ele>669.3333333333334</ele><time>2026-03-28T09:43:19.321Z</time></trkpt><trkpt lat="44.2784674" lon="8.3286112"><ele>670.0</ele><time>2026-03-28T09:43:21.323Z</time></trkpt><trkpt lat="44.2785803" lon="8.328612"><ele>670.0</ele><time>2026-03-28T09:43:23.325Z</time></trkpt><trkpt lat="44.278696" lon="8.3286777"><ele>670.0</ele><time>2026-03-28T09:43:25.327Z</time></trkpt><trkpt lat="44.2787544" lon="8.3287298"><ele>670.0</ele><time>2026-03-28T09:43:26.323Z</time></trkpt><trkpt lat="44.2788096" lon="8.3287819"><ele>670.0</ele><time>2026-03-28T09:43:27.32Z</time></trkpt><trkpt lat="44.2789149" lon="8.3288546"><ele>670.0</ele><time>2026-03-28T09:43:29.313Z</time></trkpt><trkpt lat="44.27898" lon="8.3288741"><ele>670.0</ele><time>2026-03-28T09:43:30.324Z</time></trkpt><trkpt lat="44.2790435" lon="8.3288817"><ele>670.6666666666667</ele><time>2026-03-28T09:43:31.318Z</time></trkpt><trkpt lat="44.2791415" lon="8.3288732"><ele>671.3333333333334</ele><time>2026-03-28T09:43:33.319Z</time></trkpt><trkpt lat="44.2792164" lon="8.3288629"><ele>672.0</ele><time>2026-03-28T09:43:35.32Z</time></trkpt><trkpt lat="44.2793048" lon="8.3288778"><ele>672.6666666666666</ele><time>2026-03-28T09:43:37.318Z</time></trkpt><trkpt lat="44.2794024" lon="8.3289445"><ele>673.3333333333333</ele><time>2026-03-28T09:43:39.318Z</time></trkpt><trkpt lat="44.2794587" lon="8.3290108"><ele>674.0</ele><time>2026-03-28T09:43:40.313Z</time></trkpt><trkpt lat="44.2795243" lon="8.3290826"><ele>673.1666666666666</ele><time>2026-03-28T09:43:41.321Z</time></trkpt><trkpt lat="44.2795934" lon="8.3291517"><ele>672.3333333333333</ele><time>2026-03-28T09:43:42.319Z</time></trkpt><trkpt lat="44.2796566" lon="8.3292178"><ele>671.5</ele><time>2026-03-28T09:43:43.323Z</time></trkpt><trkpt lat="44.2797144" lon="8.3292801"><ele>670.6666666666666</ele><time>2026-03-28T09:43:44.32Z</time></trkpt><trkpt lat="44.2797661" lon="8.3293368"><ele>669.8333333333334</ele><time>2026-03-28T09:43:45.324Z</time></trkpt><trkpt lat="44.279857" lon="8.3294353"><ele>669.0</ele><time>2026-03-28T09:43:47.341Z</time></trkpt><trkpt lat="44.2799407" lon="8.3294864"><ele>669.0</ele><time>2026-03-28T09:43:49.32Z</time></trkpt><trkpt lat="44.2800201" lon="8.3294429"><ele>669.0</ele><time>2026-03-28T09:44:06.332Z</time></trkpt><trkpt lat="44.2801122" lon="8.329364"><ele>669.0</ele><time>2026-03-28T09:44:08.324Z</time></trkpt><trkpt lat="44.2801736" lon="8.329312"><ele>669.0</ele><time>2026-03-28T09:44:09.325Z</time></trkpt><trkpt lat="44.2802348" lon="8.3292771"><ele>669.0</ele><time>2026-03-28T09:44:10.315Z</time></trkpt><trkpt lat="44.2802975" lon="8.3292562"><ele>669.0</ele><time>2026-03-28T09:44:11.333Z</time></trkpt><trkpt lat="44.2803621" lon="8.3292517"><ele>669.0</ele><time>2026-03-28T09:44:12.323Z</time></trkpt><trkpt lat="44.2804291" lon="8.3292786"><ele>669.0</ele><time>2026-03-28T09:44:13.318Z</time></trkpt><trkpt lat="44.2804989" lon="8.3293279"><ele>669.0</ele><time>2026-03-28T09:44:14.319Z</time></trkpt><trkpt lat="44.2805722" lon="8.3293872"><ele>669.0</ele><time>2026-03-28T09:44:15.322Z</time></trkpt><trkpt lat="44.280649" lon="8.3294368"><ele>669.0</ele><time>2026-03-28T09:44:16.32Z</time></trkpt><trkpt lat="44.2807332" lon="8.329466"><ele>669.0</ele><time>2026-03-28T09:44:17.326Z</time></trkpt><trkpt lat="44.2808147" lon="8.3294644"><ele>670.8333333333334</ele><time>2026-03-28T09:44:18.331Z</time></trkpt><trkpt lat="44.2808959" lon="8.329449"><ele>672.6666666666666</ele><time>2026-03-28T09:44:19.314Z</time></trkpt><trkpt lat="44.280978" lon="8.3294458"><ele>674.5</ele><time>2026-03-28T09:44:20.323Z</time></trkpt><trkpt lat="44.281055" lon="8.3294688"><ele>676.3333333333333</ele><time>2026-03-28T09:44:21.317Z</time></trkpt><trkpt lat="44.2811272" lon="8.3295142"><ele>678.1666666666666</ele><time>2026-03-28T09:44:22.323Z</time></trkpt><trkpt lat="44.2811958" lon="8.3295611"><ele>680.0</ele><time>2026-03-28T09:44:23.312Z</time></trkpt><trkpt lat="44.281264" lon="8.329601"><ele>680.0</ele><time>2026-03-28T09:44:24.331Z</time></trkpt><trkpt lat="44.2813262" lon="8.3296305"><ele>680.0</ele><time>2026-03-28T09:44:25.324Z</time></trkpt><trkpt lat="44.2814264" lon="8.3296484"><ele>680.0</ele><time>2026-03-28T09:44:27.32Z</time></trkpt><trkpt lat="44.2815061" lon="8.3296288"><ele>680.0</ele><time>2026-03-28T09:44:29.332Z</time></trkpt><trkpt lat="44.2815711" lon="8.329588"><ele>680.0</ele><time>2026-03-28T09:44:31.326Z</time></trkpt><trkpt lat="44.2816559" lon="8.3295451"><ele>680.0</ele><time>2026-03-28T09:44:34.332Z</time></trkpt><trkpt lat="44.2817226" lon="8.3295468"><ele>678.6666666666666</ele><time>2026-03-28T09:44:37.327Z</time></trkpt><trkpt lat="44.2818014" lon="8.3295183"><ele>677.3333333333333</ele><time>2026-03-28T09:51:51.312Z</time></trkpt><trkpt lat="44.2818681" lon="8.3294663"><ele>676.0</ele><time>2026-03-28T09:51:53.308Z</time></trkpt><trkpt lat="44.2819566" lon="8.329437"><ele>674.6666666666666</ele><time>2026-03-28T09:51:55.31Z</time></trkpt><trkpt lat="44.2820397" lon="8.3293912"><ele>673.3333333333334</ele><time>2026-03-28T09:51:57.308Z</time></trkpt><trkpt lat="44.2821316" lon="8.3293595"><ele>672.0</ele><time>2026-03-28T09:51:59.305Z</time></trkpt><trkpt lat="44.2822429" lon="8.3293211"><ele>670.6</ele><time>2026-03-28T09:52:01.32Z</time></trkpt><trkpt lat="44.2823494" lon="8.3292768"><ele>669.2</ele><time>2026-03-28T09:52:03.306Z</time></trkpt><trkpt lat="44.2824629" lon="8.3291965"><ele>667.8</ele><time>2026-03-28T09:52:05.305Z</time></trkpt><trkpt lat="44.2825209" lon="8.3291323"><ele>666.4</ele><time>2026-03-28T09:52:06.299Z</time></trkpt><trkpt lat="44.2825711" lon="8.3290721"><ele>665.0</ele><time>2026-03-28T09:52:07.31Z</time></trkpt><trkpt lat="44.2826719" lon="8.3289876"><ele>665.0</ele><time>2026-03-28T09:52:09.297Z</time></trkpt><trkpt lat="44.2827873" lon="8.3289112"><ele>665.0</ele><time>2026-03-28T09:52:11.3Z</time></trkpt><trkpt lat="44.2828447" lon="8.3288498"><ele>665.0</ele><time>2026-03-28T09:52:12.289Z</time></trkpt><trkpt lat="44.2828895" lon="8.3287837"><ele>665.0</ele><time>2026-03-28T09:52:13.296Z</time></trkpt><trkpt lat="44.2829691" lon="8.3286686"><ele>665.0</ele><time>2026-03-28T09:52:15.298Z</time></trkpt><trkpt lat="44.2830587" lon="8.3285984"><ele>662.5</ele><time>2026-03-28T09:52:17.286Z</time></trkpt><trkpt lat="44.2831226" lon="8.3285715"><ele>660.0</ele><time>2026-03-28T09:52:18.3Z</time></trkpt><trkpt lat="44.2831832" lon="8.3285424"><ele>657.5</ele><time>2026-03-28T09:52:19.284Z</time></trkpt><trkpt lat="44.2832554" lon="8.328508"><ele>655.0</ele><time>2026-03-28T09:52:20.301Z</time></trkpt><trkpt lat="44.2833244" lon="8.3284664"><ele>652.5</ele><time>2026-03-28T09:52:21.293Z</time></trkpt><trkpt lat="44.2834295" lon="8.3283792"><ele>650.0</ele><time>2026-03-28T09:52:23.293Z</time></trkpt><trkpt lat="44.2835423" lon="8.3283406"><ele>650.0</ele><time>2026-03-28T09:52:25.298Z</time></trkpt><trkpt lat="44.2836438" lon="8.3283514"><ele>650.0</ele><time>2026-03-28T09:52:27.293Z</time></trkpt><trkpt lat="44.2837178" lon="8.3284303"><ele>650.0</ele><time>2026-03-28T09:52:29.301Z</time></trkpt><trkpt lat="44.2837418" lon="8.3285589"><ele>650.0</ele><time>2026-03-28T09:52:31.29Z</time></trkpt><trkpt lat="44.2837652" lon="8.3287042"><ele>650.0</ele><time>2026-03-28T09:52:33.293Z</time></trkpt><trkpt lat="44.2838075" lon="8.328786"><ele>650.0</ele><time>2026-03-28T09:52:35.294Z</time></trkpt><trkpt lat="44.2838992" lon="8.3287412"><ele>650.0</ele><time>2026-03-28T09:52:37.286Z</time></trkpt><trkpt lat="44.2839722" lon="8.3286216"><ele>650.0</ele><time>2026-03-28T09:52:39.29Z</time></trkpt><trkpt lat="44.2840081" lon="8.3285136"><ele>650.0</ele><time>2026-03-28T09:52:41.294Z</time></trkpt><trkpt lat="44.2840285" lon="8.3284178"><ele>650.0</ele><time>2026-03-28T09:52:43.293Z</time></trkpt><trkpt lat="44.2840376" lon="8.3282993"><ele>651.6</ele><time>2026-03-28T09:52:45.293Z</time></trkpt><trkpt lat="44.2840568" lon="8.3281692"><ele>653.2</ele><time>2026-03-28T09:52:47.296Z</time></trkpt><trkpt lat="44.2841157" lon="8.3280627"><ele>654.8</ele><time>2026-03-28T09:52:49.299Z</time></trkpt><trkpt lat="44.2841935" lon="8.3279725"><ele>656.4</ele><time>2026-03-28T09:52:51.3Z</time></trkpt><trkpt lat="44.2842936" lon="8.3278888"><ele>658.0</ele><time>2026-03-28T09:52:53.297Z</time></trkpt><trkpt lat="44.2843502" lon="8.3278391"><ele>656.8571428571429</ele><time>2026-03-28T09:52:54.295Z</time></trkpt><trkpt lat="44.2844073" lon="8.3277869"><ele>655.7142857142858</ele><time>2026-03-28T09:52:55.3Z</time></trkpt><trkpt lat="44.2844639" lon="8.3277345"><ele>654.5714285714286</ele><time>2026-03-28T09:52:56.293Z</time></trkpt><trkpt lat="44.284521" lon="8.3276862"><ele>653.4285714285714</ele><time>2026-03-28T09:52:57.302Z</time></trkpt><trkpt lat="44.2845802" lon="8.3276276"><ele>652.2857142857143</ele><time>2026-03-28T09:52:58.297Z</time></trkpt><trkpt lat="44.2846454" lon="8.3275717"><ele>651.1428571428571</ele><time>2026-03-28T09:52:59.3Z</time></trkpt><trkpt lat="44.2847079" lon="8.3275253"><ele>650.0</ele><time>2026-03-28T09:53:00.292Z</time></trkpt><trkpt lat="44.2847689" lon="8.3274756"><ele>650.0</ele><time>2026-03-28T09:53:01.297Z</time></trkpt><trkpt lat="44.2848266" lon="8.3274356"><ele>650.0</ele><time>2026-03-28T09:53:02.287Z</time></trkpt><trkpt lat="44.2849255" lon="8.327376"><ele>650.0</ele><time>2026-03-28T09:53:04.296Z</time></trkpt><trkpt lat="44.2850292" lon="8.3272918"><ele>650.0</ele><time>2026-03-28T09:53:06.293Z</time></trkpt><trkpt lat="44.2850818" lon="8.3272376"><ele>650.0</ele><time>2026-03-28T09:53:07.302Z</time></trkpt><trkpt lat="44.2851251" lon="8.3271731"><ele>650.0</ele><time>2026-03-28T09:53:08.297Z</time></trkpt><trkpt lat="44.2851703" lon="8.3271075"><ele>646.0</ele><time>2026-03-28T09:53:09.302Z</time></trkpt><trkpt lat="44.2852131" lon="8.3270398"><ele>642.0</ele><time>2026-03-28T09:53:10.291Z</time></trkpt><trkpt lat="44.2852993" lon="8.3269567"><ele>638.0</ele><time>2026-03-28T09:53:12.29Z</time></trkpt><trkpt lat="44.2854029" lon="8.3269169"><ele>634.0</ele><time>2026-03-28T09:53:14.293Z</time></trkpt><trkpt lat="44.2854672" lon="8.326905"><ele>630.0</ele><time>2026-03-28T09:53:15.296Z</time></trkpt><trkpt lat="44.2855436" lon="8.3268933"><ele>626.0</ele><time>2026-03-28T09:53:16.292Z</time></trkpt><trkpt lat="44.2856133" lon="8.3268867"><ele>626.0</ele><time>2026-03-28T09:53:17.297Z</time></trkpt><trkpt lat="44.2856775" lon="8.3268828"><ele>626.0</ele><time>2026-03-28T09:53:18.292Z</time></trkpt><trkpt lat="44.2857421" lon="8.3268814"><ele>626.0</ele><time>2026-03-28T09:53:19.296Z</time></trkpt><trkpt lat="44.2858698" lon="8.3269018"><ele>626.0</ele><time>2026-03-28T09:53:21.293Z</time></trkpt><trkpt lat="44.2859414" lon="8.3269058"><ele>626.0</ele><time>2026-03-28T09:53:22.291Z</time></trkpt><trkpt lat="44.2860102" lon="8.3269057"><ele>626.0</ele><time>2026-03-28T09:53:23.293Z</time></trkpt><trkpt lat="44.2860767" lon="8.3269142"><ele>626.0</ele><time>2026-03-28T09:53:24.283Z</time></trkpt><trkpt lat="44.2861468" lon="8.3269229"><ele>626.0</ele><time>2026-03-28T09:53:25.292Z</time></trkpt><trkpt lat="44.2862189" lon="8.3269135"><ele>626.0</ele><time>2026-03-28T09:53:26.281Z</time></trkpt><trkpt lat="44.2862829" lon="8.3268811"><ele>626.0</ele><time>2026-03-28T09:53:27.287Z</time></trkpt><trkpt lat="44.2863826" lon="8.3267861"><ele>626.0</ele><time>2026-03-28T09:53:29.284Z</time></trkpt><trkpt lat="44.2864438" lon="8.3266442"><ele>628.2</ele><time>2026-03-28T09:53:31.279Z</time></trkpt><trkpt lat="44.2864451" lon="8.3264942"><ele>630.4000000000001</ele><time>2026-03-28T09:53:33.276Z</time></trkpt><trkpt lat="44.2863667" lon="8.3263859"><ele>632.6</ele><time>2026-03-28T09:53:35.281Z</time></trkpt><trkpt lat="44.2862716" lon="8.3262627"><ele>634.8000000000001</ele><time>2026-03-28T09:53:37.275Z</time></trkpt><trkpt lat="44.2862265" lon="8.3261885"><ele>637.0</ele><time>2026-03-28T09:53:38.284Z</time></trkpt><trkpt lat="44.2861538" lon="8.3260818"><ele>631.6</ele><time>2026-03-28T09:53:40.285Z</time></trkpt><trkpt lat="44.2860766" lon="8.3259869"><ele>626.2</ele><time>2026-03-28T09:53:42.286Z</time></trkpt><trkpt lat="44.2859868" lon="8.325884"><ele>620.8</ele><time>2026-03-28T09:53:44.289Z</time></trkpt><trkpt lat="44.2859146" lon="8.3257756"><ele>615.4</ele><time>2026-03-28T09:53:46.292Z</time></trkpt><trkpt lat="44.2859219" lon="8.3256382"><ele>610.0</ele><time>2026-03-28T09:53:48.287Z</time></trkpt><trkpt lat="44.2859588" lon="8.3255629"><ele>608.2</ele><time>2026-03-28T09:53:49.292Z</time></trkpt><trkpt lat="44.2859967" lon="8.3254888"><ele>606.4</ele><time>2026-03-28T09:53:50.29Z</time></trkpt><trkpt lat="44.2860457" lon="8.3253592"><ele>604.6</ele><time>2026-03-28T09:53:52.297Z</time></trkpt><trkpt lat="44.286048" lon="8.3252092"><ele>602.8</ele><time>2026-03-28T09:53:54.296Z</time></trkpt><trkpt lat="44.286035" lon="8.3250678"><ele>601.0</ele><time>2026-03-28T09:53:56.298Z</time></trkpt><trkpt lat="44.2860803" lon="8.3249441"><ele>601.0</ele><time>2026-03-28T09:53:58.3Z</time></trkpt><trkpt lat="44.2861549" lon="8.3248121"><ele>601.0</ele><time>2026-03-28T09:54:00.308Z</time></trkpt><trkpt lat="44.2862025" lon="8.3247541"><ele>601.0</ele><time>2026-03-28T09:54:01.3Z</time></trkpt><trkpt lat="44.2862936" lon="8.3246565"><ele>601.0</ele><time>2026-03-28T09:54:03.301Z</time></trkpt><trkpt lat="44.286401" lon="8.3245957"><ele>601.0</ele><time>2026-03-28T09:54:05.304Z</time></trkpt><trkpt lat="44.2865242" lon="8.324552"><ele>599.6</ele><time>2026-03-28T09:54:07.294Z</time></trkpt><trkpt lat="44.2865893" lon="8.3245256"><ele>598.2</ele><time>2026-03-28T09:54:08.304Z</time></trkpt><trkpt lat="44.2866521" lon="8.3245101"><ele>596.8</ele><time>2026-03-28T09:54:09.302Z</time></trkpt><trkpt lat="44.2867669" lon="8.3245067"><ele>595.4</ele><time>2026-03-28T09:54:11.3Z</time></trkpt><trkpt lat="44.2868825" lon="8.3245446"><ele>594.0</ele><time>2026-03-28T09:54:13.303Z</time></trkpt><trkpt lat="44.2869698" lon="8.3246151"><ele>594.0</ele><time>2026-03-28T09:54:15.3Z</time></trkpt><trkpt lat="44.2870472" lon="8.3247077"><ele>594.0</ele><time>2026-03-28T09:54:17.306Z</time></trkpt><trkpt lat="44.2871293" lon="8.3247274"><ele>594.0</ele><time>2026-03-28T09:54:19.299Z</time></trkpt><trkpt lat="44.2871936" lon="8.3246302"><ele>594.0</ele><time>2026-03-28T09:54:21.297Z</time></trkpt><trkpt lat="44.2872071" lon="8.3245417"><ele>594.0</ele><time>2026-03-28T09:54:22.29Z</time></trkpt><trkpt lat="44.2872086" lon="8.3244516"><ele>594.0</ele><time>2026-03-28T09:54:23.296Z</time></trkpt><trkpt lat="44.2871925" lon="8.3243662"><ele>594.0</ele><time>2026-03-28T09:54:24.291Z</time></trkpt><trkpt lat="44.2871614" lon="8.3242799"><ele>594.0</ele><time>2026-03-28T09:54:25.297Z</time></trkpt><trkpt lat="44.2871228" lon="8.3241936"><ele>594.0</ele><time>2026-03-28T09:54:26.294Z</time></trkpt><trkpt lat="44.2870951" lon="8.3241048"><ele>594.0</ele><time>2026-03-28T09:54:27.295Z</time></trkpt><trkpt lat="44.2870711" lon="8.323939"><ele>594.0</ele><time>2026-03-28T09:54:29.293Z</time></trkpt><trkpt lat="44.2870498" lon="8.3237773"><ele>592.2</ele><time>2026-03-28T09:54:31.296Z</time></trkpt><trkpt lat="44.2870297" lon="8.3236904"><ele>590.4</ele><time>2026-03-28T09:54:32.301Z</time></trkpt><trkpt lat="44.2870078" lon="8.3235269"><ele>588.6</ele><time>2026-03-28T09:54:34.301Z</time></trkpt><trkpt lat="44.2869848" lon="8.3233746"><ele>586.8</ele><time>2026-03-28T09:54:36.316Z</time></trkpt><trkpt lat="44.2869808" lon="8.3232249"><ele>585.0</ele><time>2026-03-28T09:54:38.3Z</time></trkpt><trkpt lat="44.2870346" lon="8.3230836"><ele>583.8</ele><time>2026-03-28T09:54:40.297Z</time></trkpt><trkpt lat="44.2870691" lon="8.3230075"><ele>582.6</ele><time>2026-03-28T09:54:41.3Z</time></trkpt><trkpt lat="44.2870976" lon="8.3228429"><ele>581.4</ele><time>2026-03-28T09:54:43.296Z</time></trkpt><trkpt lat="44.2871017" lon="8.3227532"><ele>580.2</ele><time>2026-03-28T09:54:44.302Z</time></trkpt><trkpt lat="44.287116" lon="8.3225884"><ele>579.0</ele><time>2026-03-28T09:54:46.31Z</time></trkpt><trkpt lat="44.2871522" lon="8.3224282"><ele>579.0</ele><time>2026-03-28T09:54:48.303Z</time></trkpt><trkpt lat="44.2871782" lon="8.3223466"><ele>579.0</ele><time>2026-03-28T09:54:49.307Z</time></trkpt><trkpt lat="44.2872029" lon="8.3222617"><ele>579.0</ele><time>2026-03-28T09:54:50.3Z</time></trkpt><trkpt lat="44.2872261" lon="8.322177"><ele>579.0</ele><time>2026-03-28T09:54:51.311Z</time></trkpt><trkpt lat="44.2872736" lon="8.3220324"><ele>579.0</ele><time>2026-03-28T09:54:53.308Z</time></trkpt><trkpt lat="44.2873272" lon="8.3219101"><ele>579.0</ele><time>2026-03-28T09:54:55.31Z</time></trkpt><trkpt lat="44.2873989" lon="8.3218148"><ele>578.2</ele><time>2026-03-28T09:54:57.296Z</time></trkpt><trkpt lat="44.2875105" lon="8.3217637"><ele>577.4</ele><time>2026-03-28T09:54:59.299Z</time></trkpt><trkpt lat="44.2876365" lon="8.3217306"><ele>576.6</ele><time>2026-03-28T09:55:01.308Z</time></trkpt><trkpt lat="44.2877015" lon="8.321712"><ele>575.8</ele><time>2026-03-28T09:55:02.301Z</time></trkpt><trkpt lat="44.2877677" lon="8.3216953"><ele>575.0</ele><time>2026-03-28T09:55:03.302Z</time></trkpt><trkpt lat="44.2878413" lon="8.3216723"><ele>575.0</ele><time>2026-03-28T09:55:04.302Z</time></trkpt><trkpt lat="44.2879123" lon="8.321661"><ele>575.0</ele><time>2026-03-28T09:55:05.305Z</time></trkpt><trkpt lat="44.2879797" lon="8.3216527"><ele>575.0</ele><time>2026-03-28T09:55:06.295Z</time></trkpt><trkpt lat="44.288052" lon="8.3216486"><ele>575.0</ele><time>2026-03-28T09:55:07.32Z</time></trkpt><trkpt lat="44.2881685" lon="8.3216625"><ele>575.0</ele><time>2026-03-28T09:55:09.308Z</time></trkpt><trkpt lat="44.2882716" lon="8.3216923"><ele>575.0</ele><time>2026-03-28T09:55:11.299Z</time></trkpt><trkpt lat="44.2883453" lon="8.3217063"><ele>574.6666666666666</ele><time>2026-03-28T09:55:13.3Z</time></trkpt><trkpt lat="44.2884229" lon="8.3217159"><ele>574.3333333333333</ele><time>2026-03-28T09:55:16.303Z</time></trkpt><trkpt lat="44.2885251" lon="8.3217284"><ele>574.0</ele><time>2026-03-28T09:55:18.3Z</time></trkpt><trkpt lat="44.2885954" lon="8.3217412"><ele>573.6666666666666</ele><time>2026-03-28T09:55:19.289Z</time></trkpt><trkpt lat="44.2886691" lon="8.3217599"><ele>573.3333333333334</ele><time>2026-03-28T09:55:20.304Z</time></trkpt><trkpt lat="44.2887394" lon="8.3217759"><ele>573.0</ele><time>2026-03-28T09:55:21.292Z</time></trkpt><trkpt lat="44.2888052" lon="8.3217896"><ele>571.75</ele><time>2026-03-28T09:55:22.298Z</time></trkpt><trkpt lat="44.2889264" lon="8.3217877"><ele>570.5</ele><time>2026-03-28T09:55:24.299Z</time></trkpt><trkpt lat="44.2890433" lon="8.3217509"><ele>569.25</ele><time>2026-03-28T09:55:26.301Z</time></trkpt><trkpt lat="44.2891524" lon="8.3217639"><ele>568.0</ele><time>2026-03-28T09:55:28.311Z</time></trkpt><trkpt lat="44.2892683" lon="8.3218287"><ele>568.0</ele><time>2026-03-28T09:55:30.295Z</time></trkpt><trkpt lat="44.2893331" lon="8.3218371"><ele>568.0</ele><time>2026-03-28T09:55:31.286Z</time></trkpt><trkpt lat="44.2893981" lon="8.321839"><ele>568.0</ele><time>2026-03-28T09:55:32.3Z</time></trkpt><trkpt lat="44.2895195" lon="8.3218314"><ele>568.0</ele><time>2026-03-28T09:55:34.3Z</time></trkpt><trkpt lat="44.2896464" lon="8.3218118"><ele>568.0</ele><time>2026-03-28T09:55:36.297Z</time></trkpt><trkpt lat="44.2897123" lon="8.321801"><ele>568.0</ele><time>2026-03-28T09:55:37.286Z</time></trkpt><trkpt lat="44.2898283" lon="8.3217955"><ele>568.0</ele><time>2026-03-28T09:55:39.285Z</time></trkpt><trkpt lat="44.2899486" lon="8.3217544"><ele>568.0</ele><time>2026-03-28T09:55:41.28Z</time></trkpt><trkpt lat="44.2900058" lon="8.3217126"><ele>568.0</ele><time>2026-03-28T09:55:42.297Z</time></trkpt><trkpt lat="44.2900605" lon="8.3216565"><ele>568.0</ele><time>2026-03-28T09:55:43.293Z</time></trkpt><trkpt lat="44.2901158" lon="8.3215854"><ele>568.0</ele><time>2026-03-28T09:55:44.295Z</time></trkpt><trkpt lat="44.2901642" lon="8.321511"><ele>568.0</ele><time>2026-03-28T09:55:45.292Z</time></trkpt><trkpt lat="44.2902454" lon="8.3213843"><ele>566.8</ele><time>2026-03-28T09:55:47.285Z</time></trkpt><trkpt lat="44.2903319" lon="8.3212767"><ele>565.5999999999999</ele><time>2026-03-28T09:55:49.283Z</time></trkpt><trkpt lat="44.2904331" lon="8.3211966"><ele>564.4000000000001</ele><time>2026-03-28T09:55:51.288Z</time></trkpt><trkpt lat="44.2905482" lon="8.3211674"><ele>563.2</ele><time>2026-03-28T09:55:53.295Z</time></trkpt><trkpt lat="44.2906109" lon="8.3211784"><ele>562.0</ele><time>2026-03-28T09:55:54.307Z</time></trkpt><trkpt lat="44.2906724" lon="8.3212033"><ele>562.0</ele><time>2026-03-28T09:55:55.3Z</time></trkpt><trkpt lat="44.2907721" lon="8.3212785"><ele>562.0</ele><time>2026-03-28T09:55:57.296Z</time></trkpt><trkpt lat="44.2908422" lon="8.3213628"><ele>562.0</ele><time>2026-03-28T09:55:59.301Z</time></trkpt><trkpt lat="44.2908952" lon="8.3214606"><ele>562.0</ele><time>2026-03-28T09:56:01.292Z</time></trkpt><trkpt lat="44.2909443" lon="8.3215518"><ele>562.0</ele><time>2026-03-28T09:56:03.299Z</time></trkpt><trkpt lat="44.2909904" lon="8.3216338"><ele>561.6666666666667</ele><time>2026-03-28T09:56:05.304Z</time></trkpt><trkpt lat="44.2910584" lon="8.3216824"><ele>561.3333333333334</ele><time>2026-03-28T09:56:07.302Z</time></trkpt><trkpt lat="44.2911464" lon="8.3217122"><ele>561.0</ele><time>2026-03-28T09:56:09.307Z</time></trkpt><trkpt lat="44.2912687" lon="8.3217264"><ele>560.6666666666666</ele><time>2026-03-28T09:56:11.296Z</time></trkpt><trkpt lat="44.2913396" lon="8.321737"><ele>560.3333333333333</ele><time>2026-03-28T09:56:12.292Z</time></trkpt><trkpt lat="44.2914147" lon="8.3217531"><ele>560.0</ele><time>2026-03-28T09:56:13.307Z</time></trkpt><trkpt lat="44.2914868" lon="8.3217754"><ele>559.4285714285714</ele><time>2026-03-28T09:56:14.296Z</time></trkpt><trkpt lat="44.2915601" lon="8.3218036"><ele>558.8571428571429</ele><time>2026-03-28T09:56:15.308Z</time></trkpt><trkpt lat="44.2916277" lon="8.3218385"><ele>558.2857142857142</ele><time>2026-03-28T09:56:16.295Z</time></trkpt><trkpt lat="44.2916949" lon="8.3218753"><ele>557.7142857142858</ele><time>2026-03-28T09:56:17.304Z</time></trkpt><trkpt lat="44.291759" lon="8.3219185"><ele>557.1428571428571</ele><time>2026-03-28T09:56:18.289Z</time></trkpt><trkpt lat="44.2918204" lon="8.3219617"><ele>556.5714285714286</ele><time>2026-03-28T09:56:19.306Z</time></trkpt><trkpt lat="44.2918757" lon="8.3220089"><ele>556.0</ele><time>2026-03-28T09:56:20.288Z</time></trkpt><trkpt lat="44.291938" lon="8.3220589"><ele>556.0</ele><time>2026-03-28T09:56:21.297Z</time></trkpt><trkpt lat="44.2920039" lon="8.3221112"><ele>556.0</ele><time>2026-03-28T09:56:22.295Z</time></trkpt><trkpt lat="44.2920617" lon="8.3221626"><ele>556.0</ele><time>2026-03-28T09:56:23.303Z</time></trkpt><trkpt lat="44.2921722" lon="8.3222281"><ele>556.0</ele><time>2026-03-28T09:56:25.311Z</time></trkpt><trkpt lat="44.2922954" lon="8.3222813"><ele>556.0</ele><time>2026-03-28T09:56:27.303Z</time></trkpt><trkpt lat="44.2923638" lon="8.3223112"><ele>555.5714285714286</ele><time>2026-03-28T09:56:28.313Z</time></trkpt><trkpt lat="44.2924284" lon="8.322339"><ele>555.1428571428571</ele><time>2026-03-28T09:56:29.295Z</time></trkpt><trkpt lat="44.2924966" lon="8.3223532"><ele>554.7142857142858</ele><time>2026-03-28T09:56:30.305Z</time></trkpt><trkpt lat="44.2925606" lon="8.3223618"><ele>554.2857142857142</ele><time>2026-03-28T09:56:31.292Z</time></trkpt><trkpt lat="44.2926298" lon="8.3223643"><ele>553.8571428571429</ele><time>2026-03-28T09:56:32.3Z</time></trkpt><trkpt lat="44.2926989" lon="8.322355"><ele>553.4285714285714</ele><time>2026-03-28T09:56:33.3Z</time></trkpt><trkpt lat="44.2927718" lon="8.3223461"><ele>553.0</ele><time>2026-03-28T09:56:34.292Z</time></trkpt><trkpt lat="44.2928508" lon="8.322331"><ele>553.0</ele><time>2026-03-28T09:56:35.304Z</time></trkpt><trkpt lat="44.2929386" lon="8.3223217"><ele>553.0</ele><time>2026-03-28T09:56:36.299Z</time></trkpt><trkpt lat="44.29303" lon="8.32231"><ele>553.0</ele><time>2026-03-28T09:56:37.3Z</time></trkpt><trkpt lat="44.2931244" lon="8.3222888"><ele>553.0</ele><time>2026-03-28T09:56:38.294Z</time></trkpt><trkpt lat="44.2932107" lon="8.3222721"><ele>553.0</ele><time>2026-03-28T09:56:39.294Z</time></trkpt><trkpt lat="44.2933007" lon="8.3222588"><ele>553.6666666666667</ele><time>2026-03-28T09:56:40.303Z</time></trkpt><trkpt lat="44.293395" lon="8.3222384"><ele>554.3333333333334</ele><time>2026-03-28T09:56:41.291Z</time></trkpt><trkpt lat="44.2934869" lon="8.3222119"><ele>555.0</ele><time>2026-03-28T09:56:42.299Z</time></trkpt><trkpt lat="44.2935753" lon="8.3221845"><ele>555.6666666666666</ele><time>2026-03-28T09:56:43.291Z</time></trkpt><trkpt lat="44.2936559" lon="8.3221561"><ele>556.3333333333333</ele><time>2026-03-28T09:56:44.295Z</time></trkpt><trkpt lat="44.2937383" lon="8.3221239"><ele>557.0</ele><time>2026-03-28T09:56:45.294Z</time></trkpt><trkpt lat="44.293814" lon="8.3220911"><ele>557.1666666666666</ele><time>2026-03-28T09:56:46.3Z</time></trkpt><trkpt lat="44.293894" lon="8.3220594"><ele>557.3333333333333</ele><time>2026-03-28T09:56:47.291Z</time></trkpt><trkpt lat="44.293971" lon="8.3220382"><ele>557.5</ele><time>2026-03-28T09:56:48.297Z</time></trkpt><trkpt lat="44.2940444" lon="8.3220233"><ele>557.6666666666666</ele><time>2026-03-28T09:56:49.293Z</time></trkpt><trkpt lat="44.294126" lon="8.3220149"><ele>557.8333333333334</ele><time>2026-03-28T09:56:50.306Z</time></trkpt><trkpt lat="44.2942108" lon="8.3220129"><ele>558.0</ele><time>2026-03-28T09:56:51.293Z</time></trkpt><trkpt lat="44.2942888" lon="8.3220093"><ele>558.0</ele><time>2026-03-28T09:56:52.294Z</time></trkpt><trkpt lat="44.2943615" lon="8.322007"><ele>558.0</ele><time>2026-03-28T09:56:53.294Z</time></trkpt><trkpt lat="44.2944265" lon="8.3220089"><ele>558.0</ele><time>2026-03-28T09:56:54.296Z</time></trkpt><trkpt lat="44.294543" lon="8.3220075"><ele>558.0</ele><time>2026-03-28T09:56:56.298Z</time></trkpt><trkpt lat="44.2946399" lon="8.3219615"><ele>558.0</ele><time>2026-03-28T09:56:58.3Z</time></trkpt><trkpt lat="44.2947436" lon="8.3218939"><ele>558.4</ele><time>2026-03-28T09:57:00.3Z</time></trkpt><trkpt lat="44.2948623" lon="8.3218466"><ele>558.8</ele><time>2026-03-28T09:57:02.305Z</time></trkpt><trkpt lat="44.2949252" lon="8.321836"><ele>559.2</ele><time>2026-03-28T09:57:03.29Z</time></trkpt><trkpt lat="44.2949923" lon="8.3218364"><ele>559.6</ele><time>2026-03-28T09:57:04.293Z</time></trkpt><trkpt lat="44.2951074" lon="8.3218726"><ele>560.0</ele><time>2026-03-28T09:57:06.291Z</time></trkpt><trkpt lat="44.2952022" lon="8.3219947"><ele>560.0</ele><time>2026-03-28T09:57:08.284Z</time></trkpt><trkpt lat="44.2952384" lon="8.3220859"><ele>560.0</ele><time>2026-03-28T09:57:09.294Z</time></trkpt><trkpt lat="44.2952751" lon="8.3221838"><ele>560.0</ele><time>2026-03-28T09:57:10.287Z</time></trkpt><trkpt lat="44.2953168" lon="8.3222882"><ele>560.0</ele><time>2026-03-28T09:57:11.317Z</time></trkpt><trkpt lat="44.2953472" lon="8.3223871"><ele>560.0</ele><time>2026-03-28T09:57:12.289Z</time></trkpt><trkpt lat="44.2953783" lon="8.3224721"><ele>560.0</ele><time>2026-03-28T09:57:13.297Z</time></trkpt><trkpt lat="44.2954088" lon="8.3225509"><ele>560.0</ele><time>2026-03-28T09:57:14.289Z</time></trkpt><trkpt lat="44.2954834" lon="8.3226644"><ele>559.8333333333333</ele><time>2026-03-28T09:57:16.297Z</time></trkpt><trkpt lat="44.2955353" lon="8.3227161"><ele>559.6666666666666</ele><time>2026-03-28T09:57:17.297Z</time></trkpt><trkpt lat="44.2955869" lon="8.3227667"><ele>559.5</ele><time>2026-03-28T09:57:18.289Z</time></trkpt><trkpt lat="44.2956848" lon="8.3228419"><ele>559.3333333333334</ele><time>2026-03-28T09:57:20.285Z</time></trkpt><trkpt lat="44.2958012" lon="8.3228493"><ele>559.1666666666667</ele><time>2026-03-28T09:57:22.282Z</time></trkpt><trkpt lat="44.295866" lon="8.3228426"><ele>559.0</ele><time>2026-03-28T09:57:23.293Z</time></trkpt><trkpt lat="44.2959325" lon="8.3228256"><ele>558.8571428571429</ele><time>2026-03-28T09:57:24.283Z</time></trkpt><trkpt lat="44.2959994" lon="8.3227947"><ele>558.7142857142858</ele><time>2026-03-28T09:57:25.297Z</time></trkpt><trkpt lat="44.2960668" lon="8.3227535"><ele>558.5714285714286</ele><time>2026-03-28T09:57:26.281Z</time></trkpt><trkpt lat="44.2961191" lon="8.3226969"><ele>558.4285714285714</ele><time>2026-03-28T09:57:27.287Z</time></trkpt><trkpt lat="44.2961644" lon="8.3226283"><ele>558.2857142857142</ele><time>2026-03-28T09:57:28.288Z</time></trkpt><trkpt lat="44.2962152" lon="8.3225455"><ele>558.1428571428571</ele><time>2026-03-28T09:57:29.3Z</time></trkpt><trkpt lat="44.2962656" lon="8.3224537"><ele>558.0</ele><time>2026-03-28T09:57:30.286Z</time></trkpt><trkpt lat="44.2963101" lon="8.3223639"><ele>558.0</ele><time>2026-03-28T09:57:31.292Z</time></trkpt><trkpt lat="44.2963515" lon="8.3222704"><ele>558.0</ele><time>2026-03-28T09:57:32.292Z</time></trkpt><trkpt lat="44.2963919" lon="8.3222011"><ele>558.0</ele><time>2026-03-28T09:57:33.292Z</time></trkpt><trkpt lat="44.2964777" lon="8.3221209"><ele>558.0</ele><time>2026-03-28T09:57:35.296Z</time></trkpt><trkpt lat="44.2965722" lon="8.3221624"><ele>558.0</ele><time>2026-03-28T09:57:37.29Z</time></trkpt><trkpt lat="44.2966569" lon="8.3222652"><ele>556.4</ele><time>2026-03-28T09:57:39.289Z</time></trkpt><trkpt lat="44.2967318" lon="8.3223991"><ele>554.8</ele><time>2026-03-28T09:57:41.286Z</time></trkpt><trkpt lat="44.2967831" lon="8.322534"><ele>553.2</ele><time>2026-03-28T09:57:43.289Z</time></trkpt><trkpt lat="44.2968593" lon="8.3226764"><ele>551.6</ele><time>2026-03-28T09:57:45.292Z</time></trkpt><trkpt lat="44.2969053" lon="8.3227477"><ele>550.0</ele><time>2026-03-28T09:57:46.296Z</time></trkpt><trkpt lat="44.2969892" lon="8.3228547"><ele>550.0</ele><time>2026-03-28T09:57:48.296Z</time></trkpt><trkpt lat="44.2970734" lon="8.3228877"><ele>550.0</ele><time>2026-03-28T09:57:50.283Z</time></trkpt><trkpt lat="44.2971705" lon="8.3228622"><ele>550.0</ele><time>2026-03-28T09:57:52.293Z</time></trkpt><trkpt lat="44.2972765" lon="8.3228519"><ele>550.0</ele><time>2026-03-28T09:57:54.293Z</time></trkpt><trkpt lat="44.297354" lon="8.3229234"><ele>550.0</ele><time>2026-03-28T09:57:56.297Z</time></trkpt><trkpt lat="44.297386" lon="8.3230332"><ele>549.6666666666667</ele><time>2026-03-28T09:57:58.305Z</time></trkpt><trkpt lat="44.2973972" lon="8.3231212"><ele>549.3333333333334</ele><time>2026-03-28T09:58:00.302Z</time></trkpt><trkpt lat="44.2974092" lon="8.3232396"><ele>549.0</ele><time>2026-03-28T09:58:03.307Z</time></trkpt><trkpt lat="44.2974401" lon="8.3233327"><ele>548.6666666666666</ele><time>2026-03-28T09:58:05.31Z</time></trkpt><trkpt lat="44.2974889" lon="8.3234642"><ele>548.3333333333333</ele><time>2026-03-28T09:58:07.311Z</time></trkpt><trkpt lat="44.2975434" lon="8.3235964"><ele>548.0</ele><time>2026-03-28T09:58:09.306Z</time></trkpt><trkpt lat="44.2975942" lon="8.3236779"><ele>548.0</ele><time>2026-03-28T09:58:11.299Z</time></trkpt><trkpt lat="44.2976429" lon="8.3237497"><ele>548.0</ele><time>2026-03-28T09:58:13.316Z</time></trkpt><trkpt lat="44.2977118" lon="8.3238185"><ele>548.0</ele><time>2026-03-28T09:58:16.295Z</time></trkpt><trkpt lat="44.2977819" lon="8.3238526"><ele>548.0</ele><time>2026-03-28T09:58:19.296Z</time></trkpt><trkpt lat="44.2978472" lon="8.3238803"><ele>548.0</ele><time>2026-03-28T09:58:21.294Z</time></trkpt><trkpt lat="44.2979233" lon="8.3239165"><ele>548.0</ele><time>2026-03-28T09:58:23.3Z</time></trkpt><trkpt lat="44.2980152" lon="8.323942"><ele>545.1999999999999</ele><time>2026-03-28T09:58:25.3Z</time></trkpt><trkpt lat="44.2981128" lon="8.3239351"><ele>542.4</ele><time>2026-03-28T09:58:27.301Z</time></trkpt><trkpt lat="44.2982055" lon="8.3239277"><ele>539.5999999999999</ele><time>2026-03-28T09:58:29.296Z</time></trkpt><trkpt lat="44.2982917" lon="8.3239089"><ele>536.8</ele><time>2026-03-28T09:58:31.295Z</time></trkpt><trkpt lat="44.2983556" lon="8.3239081"><ele>534.0</ele><time>2026-03-28T09:58:33.29Z</time></trkpt><trkpt lat="44.2984596" lon="8.3239495"><ele>534.0</ele><time>2026-03-28T09:58:35.286Z</time></trkpt><trkpt lat="44.2985322" lon="8.3240056"><ele>534.0</ele><time>2026-03-28T09:58:36.295Z</time></trkpt><trkpt lat="44.2986134" lon="8.3240574"><ele>534.0</ele><time>2026-03-28T09:58:37.287Z</time></trkpt><trkpt lat="44.2986953" lon="8.3240857"><ele>534.0</ele><time>2026-03-28T09:58:38.297Z</time></trkpt><trkpt lat="44.2987845" lon="8.3240985"><ele>534.0</ele><time>2026-03-28T09:58:39.285Z</time></trkpt><trkpt lat="44.2988832" lon="8.3241123"><ele>534.0</ele><time>2026-03-28T09:58:40.3Z</time></trkpt><trkpt lat="44.2989902" lon="8.3241308"><ele>534.0</ele><time>2026-03-28T09:58:41.297Z</time></trkpt><trkpt lat="44.2990958" lon="8.3241643"><ele>534.0</ele><time>2026-03-28T09:58:42.295Z</time></trkpt><trkpt lat="44.299189" lon="8.3242231"><ele>534.0</ele><time>2026-03-28T09:58:43.293Z</time></trkpt><trkpt lat="44.2992693" lon="8.324294"><ele>534.0</ele><time>2026-03-28T09:58:44.31Z</time></trkpt><trkpt lat="44.2993409" lon="8.3243619"><ele>534.0</ele><time>2026-03-28T09:58:45.291Z</time></trkpt><trkpt lat="44.2993981" lon="8.3244242"><ele>534.0</ele><time>2026-03-28T09:58:46.293Z</time></trkpt><trkpt lat="44.2994524" lon="8.3244755"><ele>534.0</ele><time>2026-03-28T09:58:47.294Z</time></trkpt><trkpt lat="44.2995104" lon="8.3245106"><ele>534.0</ele><time>2026-03-28T09:58:48.292Z</time></trkpt><trkpt lat="44.2996255" lon="8.3245229"><ele>534.0</ele><time>2026-03-28T09:58:50.292Z</time></trkpt><trkpt lat="44.2996873" lon="8.3244911"><ele>534.0</ele><time>2026-03-28T09:58:51.301Z</time></trkpt><trkpt lat="44.2997533" lon="8.3244354"><ele>534.0</ele><time>2026-03-28T09:58:52.306Z</time></trkpt><trkpt lat="44.2998157" lon="8.3243624"><ele>535.8</ele><time>2026-03-28T09:58:53.302Z</time></trkpt><trkpt lat="44.2998677" lon="8.324264"><ele>537.5999999999999</ele><time>2026-03-28T09:58:54.308Z</time></trkpt><trkpt lat="44.2999039" lon="8.3241716"><ele>539.4</ele><time>2026-03-28T09:58:55.305Z</time></trkpt><trkpt lat="44.2999687" lon="8.3240826"><ele>541.1999999999999</ele><time>2026-03-28T09:58:57.285Z</time></trkpt><trkpt lat="44.3000332" lon="8.324131"><ele>543.0</ele><time>2026-03-28T09:58:59.285Z</time></trkpt><trkpt lat="44.3000822" lon="8.3243035"><ele>543.0</ele><time>2026-03-28T09:59:01.282Z</time></trkpt><trkpt lat="44.3000901" lon="8.3244165"><ele>543.0</ele><time>2026-03-28T09:59:02.284Z</time></trkpt><trkpt lat="44.3000699" lon="8.3245339"><ele>543.0</ele><time>2026-03-28T09:59:03.283Z</time></trkpt><trkpt lat="44.3000396" lon="8.3246532"><ele>543.0</ele><time>2026-03-28T09:59:04.287Z</time></trkpt><trkpt lat="44.3000171" lon="8.324765"><ele>543.0</ele><time>2026-03-28T09:59:05.285Z</time></trkpt><trkpt lat="44.3000133" lon="8.3248702"><ele>543.0</ele><time>2026-03-28T09:59:06.294Z</time></trkpt><trkpt lat="44.3000397" lon="8.3249774"><ele>539.6</ele><time>2026-03-28T09:59:07.293Z</time></trkpt><trkpt lat="44.3000976" lon="8.3251001"><ele>536.1999999999999</ele><time>2026-03-28T09:59:08.294Z</time></trkpt><trkpt lat="44.3001529" lon="8.3252054"><ele>532.8</ele><time>2026-03-28T09:59:09.292Z</time></trkpt><trkpt lat="44.3002115" lon="8.3253082"><ele>529.4</ele><time>2026-03-28T09:59:10.292Z</time></trkpt><trkpt lat="44.3002679" lon="8.3254064"><ele>526.0</ele><time>2026-03-28T09:59:11.288Z</time></trkpt><trkpt lat="44.3003187" lon="8.3255025"><ele>524.3333333333334</ele><time>2026-03-28T09:59:12.294Z</time></trkpt><trkpt lat="44.3003574" lon="8.3256028"><ele>522.6666666666667</ele><time>2026-03-28T09:59:13.281Z</time></trkpt><trkpt lat="44.3003711" lon="8.3256991"><ele>521.0</ele><time>2026-03-28T09:59:14.299Z</time></trkpt><trkpt lat="44.3003676" lon="8.3258032"><ele>519.3333333333334</ele><time>2026-03-28T09:59:15.304Z</time></trkpt><trkpt lat="44.300365" lon="8.3258972"><ele>517.6666666666666</ele><time>2026-03-28T09:59:16.293Z</time></trkpt><trkpt lat="44.3003898" lon="8.3260319"><ele>516.0</ele><time>2026-03-28T09:59:18.297Z</time></trkpt><trkpt lat="44.3004699" lon="8.3260924"><ele>516.0</ele><time>2026-03-28T09:59:20.289Z</time></trkpt><trkpt lat="44.3005385" lon="8.3260866"><ele>516.0</ele><time>2026-03-28T09:59:21.291Z</time></trkpt><trkpt lat="44.3006136" lon="8.3260927"><ele>516.0</ele><time>2026-03-28T09:59:22.293Z</time></trkpt><trkpt lat="44.3006924" lon="8.3261264"><ele>516.0</ele><time>2026-03-28T09:59:23.293Z</time></trkpt><trkpt lat="44.3007753" lon="8.3261648"><ele>516.0</ele><time>2026-03-28T09:59:24.286Z</time></trkpt><trkpt lat="44.3008524" lon="8.3261974"><ele>516.0</ele><time>2026-03-28T09:59:25.297Z</time></trkpt><trkpt lat="44.3009319" lon="8.3262323"><ele>515.8333333333334</ele><time>2026-03-28T09:59:26.284Z</time></trkpt><trkpt lat="44.3010196" lon="8.3262618"><ele>515.6666666666666</ele><time>2026-03-28T09:59:27.292Z</time></trkpt><trkpt lat="44.3010972" lon="8.3263077"><ele>515.5</ele><time>2026-03-28T09:59:28.294Z</time></trkpt><trkpt lat="44.3011664" lon="8.3263663"><ele>515.3333333333333</ele><time>2026-03-28T09:59:29.282Z</time></trkpt><trkpt lat="44.301231" lon="8.3264164"><ele>515.1666666666666</ele><time>2026-03-28T09:59:30.285Z</time></trkpt><trkpt lat="44.3013247" lon="8.326481"><ele>515.0</ele><time>2026-03-28T09:59:32.286Z</time></trkpt><trkpt lat="44.3014352" lon="8.3264927"><ele>515.0</ele><time>2026-03-28T09:59:34.292Z</time></trkpt><trkpt lat="44.3015538" lon="8.3264018"><ele>515.0</ele><time>2026-03-28T09:59:36.292Z</time></trkpt><trkpt lat="44.3016224" lon="8.3263327"><ele>515.0</ele><time>2026-03-28T09:59:37.278Z</time></trkpt><trkpt lat="44.3017016" lon="8.3262724"><ele>515.0</ele><time>2026-03-28T09:59:38.285Z</time></trkpt><trkpt lat="44.3017779" lon="8.3262133"><ele>515.0</ele><time>2026-03-28T09:59:39.274Z</time></trkpt><trkpt lat="44.3018586" lon="8.3261642"><ele>517.0</ele><time>2026-03-28T09:59:40.288Z</time></trkpt><trkpt lat="44.3019466" lon="8.326107"><ele>519.0</ele><time>2026-03-28T09:59:41.276Z</time></trkpt><trkpt lat="44.3020263" lon="8.3260462"><ele>521.0</ele><time>2026-03-28T09:59:42.279Z</time></trkpt><trkpt lat="44.3021029" lon="8.325996"><ele>523.0</ele><time>2026-03-28T09:59:43.273Z</time></trkpt><trkpt lat="44.3021688" lon="8.3259611"><ele>525.0</ele><time>2026-03-28T09:59:44.28Z</time></trkpt><trkpt lat="44.3022394" lon="8.3259413"><ele>527.0</ele><time>2026-03-28T09:59:45.28Z</time></trkpt><trkpt lat="44.3023117" lon="8.3259419"><ele>527.0</ele><time>2026-03-28T09:59:46.294Z</time></trkpt><trkpt lat="44.3023803" lon="8.3259507"><ele>527.0</ele><time>2026-03-28T09:59:47.271Z</time></trkpt><trkpt lat="44.3024441" lon="8.3259667"><ele>527.0</ele><time>2026-03-28T09:59:48.283Z</time></trkpt><trkpt lat="44.3025551" lon="8.3260271"><ele>527.0</ele><time>2026-03-28T09:59:50.279Z</time></trkpt><trkpt lat="44.3026484" lon="8.3261238"><ele>527.0</ele><time>2026-03-28T09:59:52.283Z</time></trkpt><trkpt lat="44.302708" lon="8.3261721"><ele>527.0</ele><time>2026-03-28T09:59:53.271Z</time></trkpt><trkpt lat="44.3027664" lon="8.3262128"><ele>527.0</ele><time>2026-03-28T09:59:54.277Z</time></trkpt><trkpt lat="44.302826" lon="8.3262508"><ele>527.0</ele><time>2026-03-28T09:59:55.279Z</time></trkpt><trkpt lat="44.302887" lon="8.3262993"><ele>527.0</ele><time>2026-03-28T09:59:56.277Z</time></trkpt><trkpt lat="44.3029554" lon="8.3263523"><ele>527.0</ele><time>2026-03-28T09:59:57.271Z</time></trkpt><trkpt lat="44.3030333" lon="8.3263986"><ele>527.0</ele><time>2026-03-28T09:59:58.285Z</time></trkpt><trkpt lat="44.3031153" lon="8.326422"><ele>527.0</ele><time>2026-03-28T09:59:59.269Z</time></trkpt><trkpt lat="44.3031882" lon="8.3264391"><ele>527.0000000000001</ele><time>2026-03-28T10:00:00.279Z</time></trkpt><trkpt lat="44.303253" lon="8.3264416"><ele>527.0</ele><time>2026-03-28T10:00:01.279Z</time></trkpt><trkpt lat="44.303321" lon="8.3264275"><ele>527.0</ele><time>2026-03-28T10:00:02.273Z</time></trkpt><trkpt lat="44.3033872" lon="8.3264059"><ele>527.0</ele><time>2026-03-28T10:00:03.275Z</time></trkpt><trkpt lat="44.3034542" lon="8.3263692"><ele>527.0</ele><time>2026-03-28T10:00:04.272Z</time></trkpt><trkpt lat="44.303519" lon="8.3263496"><ele>527.0000000000001</ele><time>2026-03-28T10:00:05.284Z</time></trkpt><trkpt lat="44.3035902" lon="8.326315"><ele>527.0</ele><time>2026-03-28T10:00:06.27Z</time></trkpt><trkpt lat="44.3036654" lon="8.3262688"><ele>527.0</ele><time>2026-03-28T10:00:07.278Z</time></trkpt><trkpt lat="44.3037345" lon="8.3262184"><ele>527.0</ele><time>2026-03-28T10:00:08.275Z</time></trkpt><trkpt lat="44.3038101" lon="8.3261749"><ele>527.0</ele><time>2026-03-28T10:00:09.271Z</time></trkpt><trkpt lat="44.30388" lon="8.3261303"><ele>527.0</ele><time>2026-03-28T10:00:10.279Z</time></trkpt><trkpt lat="44.3039368" lon="8.3260848"><ele>527.0</ele><time>2026-03-28T10:00:11.274Z</time></trkpt><trkpt lat="44.3040029" lon="8.326037"><ele>527.0</ele><time>2026-03-28T10:00:12.282Z</time></trkpt><trkpt lat="44.3040664" lon="8.3259848"><ele>524.2</ele><time>2026-03-28T10:00:13.273Z</time></trkpt><trkpt lat="44.3041451" lon="8.3259429"><ele>521.4000000000001</ele><time>2026-03-28T10:00:14.279Z</time></trkpt><trkpt lat="44.3042125" lon="8.3258926"><ele>518.5999999999999</ele><time>2026-03-28T10:00:15.27Z</time></trkpt><trkpt lat="44.3043241" lon="8.3258504"><ele>515.8</ele><time>2026-03-28T10:00:17.306Z</time></trkpt><trkpt lat="44.3044407" lon="8.3258383"><ele>513.0</ele><time>2026-03-28T10:00:19.277Z</time></trkpt><trkpt lat="44.3045139" lon="8.325837"><ele>513.0</ele><time>2026-03-28T10:00:20.268Z</time></trkpt><trkpt lat="44.3045794" lon="8.3258434"><ele>513.0</ele><time>2026-03-28T10:00:21.275Z</time></trkpt><trkpt lat="44.3046449" lon="8.3258585"><ele>513.0</ele><time>2026-03-28T10:00:22.277Z</time></trkpt><trkpt lat="44.3047053" lon="8.3258869"><ele>513.0</ele><time>2026-03-28T10:00:23.273Z</time></trkpt><trkpt lat="44.304766" lon="8.3259148"><ele>513.0</ele><time>2026-03-28T10:00:24.273Z</time></trkpt><trkpt lat="44.3048955" lon="8.3259641"><ele>513.0</ele><time>2026-03-28T10:00:26.273Z</time></trkpt><trkpt lat="44.3049646" lon="8.3259801"><ele>511.7142857142858</ele><time>2026-03-28T10:00:27.277Z</time></trkpt><trkpt lat="44.3050396" lon="8.3259899"><ele>510.42857142857144</ele><time>2026-03-28T10:00:28.28Z</time></trkpt><trkpt lat="44.3051164" lon="8.3259873"><ele>509.14285714285717</ele><time>2026-03-28T10:00:29.274Z</time></trkpt><trkpt lat="44.3051867" lon="8.3259829"><ele>507.8571428571429</ele><time>2026-03-28T10:00:30.28Z</time></trkpt><trkpt lat="44.3052584" lon="8.3259608"><ele>506.57142857142856</ele><time>2026-03-28T10:00:31.28Z</time></trkpt><trkpt lat="44.3053264" lon="8.3259335"><ele>505.2857142857143</ele><time>2026-03-28T10:00:32.276Z</time></trkpt><trkpt lat="44.305392" lon="8.3258852"><ele>504.0</ele><time>2026-03-28T10:00:33.285Z</time></trkpt><trkpt lat="44.3054633" lon="8.3258237"><ele>504.0</ele><time>2026-03-28T10:00:34.281Z</time></trkpt><trkpt lat="44.3055322" lon="8.3257589"><ele>504.0</ele><time>2026-03-28T10:00:35.285Z</time></trkpt><trkpt lat="44.3055998" lon="8.3256832"><ele>504.0</ele><time>2026-03-28T10:00:36.281Z</time></trkpt><trkpt lat="44.3056659" lon="8.3256048"><ele>504.0</ele><time>2026-03-28T10:00:37.289Z</time></trkpt><trkpt lat="44.3057222" lon="8.3255219"><ele>504.0</ele><time>2026-03-28T10:00:38.283Z</time></trkpt><trkpt lat="44.3057814" lon="8.3254378"><ele>504.0</ele><time>2026-03-28T10:00:39.285Z</time></trkpt><trkpt lat="44.3058433" lon="8.3253451"><ele>503.3333333333333</ele><time>2026-03-28T10:00:40.274Z</time></trkpt><trkpt lat="44.3059023" lon="8.3252588"><ele>502.66666666666663</ele><time>2026-03-28T10:00:41.288Z</time></trkpt><trkpt lat="44.3059618" lon="8.3251731"><ele>502.0</ele><time>2026-03-28T10:00:42.285Z</time></trkpt><trkpt lat="44.306009" lon="8.325088"><ele>501.3333333333333</ele><time>2026-03-28T10:00:43.286Z</time></trkpt><trkpt lat="44.3060543" lon="8.3250045"><ele>500.66666666666663</ele><time>2026-03-28T10:00:44.289Z</time></trkpt><trkpt lat="44.3060895" lon="8.3249141"><ele>500.0</ele><time>2026-03-28T10:00:45.282Z</time></trkpt><trkpt lat="44.3061202" lon="8.3248211"><ele>499.99999999999994</ele><time>2026-03-28T10:00:46.28Z</time></trkpt><trkpt lat="44.3061493" lon="8.3247429"><ele>500.0</ele><time>2026-03-28T10:00:47.305Z</time></trkpt><trkpt lat="44.3061851" lon="8.3246237"><ele>500.0</ele><time>2026-03-28T10:00:49.289Z</time></trkpt><trkpt lat="44.3062313" lon="8.3245045"><ele>500.0</ele><time>2026-03-28T10:00:51.291Z</time></trkpt><trkpt lat="44.3063071" lon="8.3244142"><ele>499.99999999999994</ele><time>2026-03-28T10:00:53.293Z</time></trkpt><trkpt lat="44.3063894" lon="8.3243662"><ele>500.0</ele><time>2026-03-28T10:00:55.286Z</time></trkpt><trkpt lat="44.3065145" lon="8.3243901"><ele>500.0</ele><time>2026-03-28T10:00:57.276Z</time></trkpt><trkpt lat="44.3065788" lon="8.3244166"><ele>500.0</ele><time>2026-03-28T10:00:58.281Z</time></trkpt><trkpt lat="44.3066452" lon="8.3244602"><ele>500.0</ele><time>2026-03-28T10:00:59.272Z</time></trkpt><trkpt lat="44.3067113" lon="8.3245078"><ele>500.0</ele><time>2026-03-28T10:01:00.277Z</time></trkpt><trkpt lat="44.3067857" lon="8.3245411"><ele>500.0</ele><time>2026-03-28T10:01:01.273Z</time></trkpt><trkpt lat="44.3068609" lon="8.3245606"><ele>500.0</ele><time>2026-03-28T10:01:02.28Z</time></trkpt><trkpt lat="44.3069382" lon="8.3245764"><ele>500.0</ele><time>2026-03-28T10:01:03.27Z</time></trkpt><trkpt lat="44.3070221" lon="8.3245983"><ele>500.0</ele><time>2026-03-28T10:01:04.275Z</time></trkpt><trkpt lat="44.307105" lon="8.3246079"><ele>500.0</ele><time>2026-03-28T10:01:05.28Z</time></trkpt><trkpt lat="44.3071994" lon="8.3246036"><ele>500.0</ele><time>2026-03-28T10:01:06.273Z</time></trkpt><trkpt lat="44.3072965" lon="8.3245827"><ele>500.0</ele><time>2026-03-28T10:01:07.274Z</time></trkpt><trkpt lat="44.3073877" lon="8.3245565"><ele>500.0</ele><time>2026-03-28T10:01:08.272Z</time></trkpt><trkpt lat="44.3074777" lon="8.324528"><ele>500.66666666666663</ele><time>2026-03-28T10:01:09.29Z</time></trkpt><trkpt lat="44.3075655" lon="8.3245016"><ele>501.3333333333333</ele><time>2026-03-28T10:01:10.278Z</time></trkpt><trkpt lat="44.3076383" lon="8.3244785"><ele>502.0</ele><time>2026-03-28T10:01:11.281Z</time></trkpt><trkpt lat="44.3077065" lon="8.3244659"><ele>502.66666666666663</ele><time>2026-03-28T10:01:12.282Z</time></trkpt><trkpt lat="44.3077751" lon="8.3244584"><ele>503.3333333333333</ele><time>2026-03-28T10:01:13.287Z</time></trkpt><trkpt lat="44.3078602" lon="8.324478"><ele>504.0</ele><time>2026-03-28T10:01:15.287Z</time></trkpt><trkpt lat="44.3079187" lon="8.3245139"><ele>504.0</ele><time>2026-03-28T10:01:17.287Z</time></trkpt><trkpt lat="44.3079766" lon="8.3245659"><ele>504.0</ele><time>2026-03-28T10:01:20.296Z</time></trkpt><trkpt lat="44.3080311" lon="8.3246505"><ele>504.0</ele><time>2026-03-28T10:01:23.292Z</time></trkpt><trkpt lat="44.308085" lon="8.3247363"><ele>504.0</ele><time>2026-03-28T10:01:25.291Z</time></trkpt><trkpt lat="44.3081364" lon="8.3248262"><ele>504.0</ele><time>2026-03-28T10:01:27.301Z</time></trkpt><trkpt lat="44.3082034" lon="8.324907"><ele>504.0</ele><time>2026-03-28T10:01:29.304Z</time></trkpt><trkpt lat="44.3082671" lon="8.3249554"><ele>499.8333333333333</ele><time>2026-03-28T10:01:31.294Z</time></trkpt><trkpt lat="44.3083272" lon="8.3249886"><ele>495.66666666666663</ele><time>2026-03-28T10:01:33.301Z</time></trkpt><trkpt lat="44.3083733" lon="8.3250619"><ele>491.5</ele><time>2026-03-28T10:05:38.305Z</time></trkpt><trkpt lat="44.3084246" lon="8.3251386"><ele>487.3333333333333</ele><time>2026-03-28T10:05:42.31Z</time></trkpt><trkpt lat="44.3084739" lon="8.3252051"><ele>483.16666666666663</ele><time>2026-03-28T10:05:45.304Z</time></trkpt><trkpt lat="44.3085473" lon="8.3253091"><ele>479.0</ele><time>2026-03-28T10:05:48.298Z</time></trkpt><trkpt lat="44.3085944" lon="8.3254176"><ele>478.99999999999994</ele><time>2026-03-28T10:05:50.29Z</time></trkpt><trkpt lat="44.3086308" lon="8.325533"><ele>479.0</ele><time>2026-03-28T10:05:52.295Z</time></trkpt><trkpt lat="44.3086685" lon="8.3256166"><ele>479.0</ele><time>2026-03-28T10:06:23.315Z</time></trkpt><trkpt lat="44.3087245" lon="8.3257191"><ele>479.0</ele><time>2026-03-28T10:06:26.297Z</time></trkpt><trkpt lat="44.3087963" lon="8.3257499"><ele>478.99999999999994</ele><time>2026-03-28T10:06:28.299Z</time></trkpt><trkpt lat="44.3088768" lon="8.3257816"><ele>479.0</ele><time>2026-03-28T10:06:30.304Z</time></trkpt><trkpt lat="44.3089353" lon="8.3258271"><ele>478.4</ele><time>2026-03-28T10:06:32.301Z</time></trkpt><trkpt lat="44.3089986" lon="8.325868"><ele>477.79999999999995</ele><time>2026-03-28T10:06:34.297Z</time></trkpt><trkpt lat="44.3091063" lon="8.3259189"><ele>477.20000000000005</ele><time>2026-03-28T10:06:36.296Z</time></trkpt><trkpt lat="44.3092035" lon="8.3259466"><ele>476.6</ele><time>2026-03-28T10:06:38.299Z</time></trkpt><trkpt lat="44.309292" lon="8.3259761"><ele>476.0</ele><time>2026-03-28T10:06:40.29Z</time></trkpt><trkpt lat="44.3093716" lon="8.3259923"><ele>475.99999999999994</ele><time>2026-03-28T10:06:42.294Z</time></trkpt><trkpt lat="44.3094511" lon="8.3259775"><ele>476.0</ele><time>2026-03-28T10:06:44.289Z</time></trkpt><trkpt lat="44.3095234" lon="8.325946"><ele>476.0</ele><time>2026-03-28T10:06:46.293Z</time></trkpt><trkpt lat="44.3095979" lon="8.3258806"><ele>476.0</ele><time>2026-03-28T10:06:48.285Z</time></trkpt><trkpt lat="44.3096537" lon="8.3258388"><ele>475.99999999999994</ele><time>2026-03-28T10:06:49.285Z</time></trkpt><trkpt lat="44.3097152" lon="8.3257842"><ele>476.0</ele><time>2026-03-28T10:06:50.294Z</time></trkpt><trkpt lat="44.3097855" lon="8.3257101"><ele>474.8333333333333</ele><time>2026-03-28T10:06:51.287Z</time></trkpt><trkpt lat="44.3098556" lon="8.3256273"><ele>473.66666666666663</ele><time>2026-03-28T10:06:52.292Z</time></trkpt><trkpt lat="44.309929" lon="8.3255473"><ele>472.5</ele><time>2026-03-28T10:06:53.287Z</time></trkpt><trkpt lat="44.3099985" lon="8.3254799"><ele>471.33333333333337</ele><time>2026-03-28T10:06:54.297Z</time></trkpt><trkpt lat="44.3100518" lon="8.3254157"><ele>470.1666666666667</ele><time>2026-03-28T10:06:55.287Z</time></trkpt><trkpt lat="44.3101017" lon="8.3253595"><ele>469.0</ele><time>2026-03-28T10:06:56.292Z</time></trkpt><trkpt lat="44.3101825" lon="8.3252936"><ele>469.0</ele><time>2026-03-28T10:06:58.316Z</time></trkpt><trkpt lat="44.3102564" lon="8.3253184"><ele>469.0</ele><time>2026-03-28T10:07:00.299Z</time></trkpt><trkpt lat="44.3103576" lon="8.325436"><ele>469.0</ele><time>2026-03-28T10:07:02.3Z</time></trkpt><trkpt lat="44.3104108" lon="8.3255335"><ele>469.0</ele><time>2026-03-28T10:07:03.307Z</time></trkpt><trkpt lat="44.3104629" lon="8.3256092"><ele>469.0</ele><time>2026-03-28T10:07:04.304Z</time></trkpt><trkpt lat="44.3105184" lon="8.3256971"><ele>467.0</ele><time>2026-03-28T10:07:05.306Z</time></trkpt><trkpt lat="44.3105829" lon="8.3257741"><ele>465.0</ele><time>2026-03-28T10:07:06.299Z</time></trkpt><trkpt lat="44.3106537" lon="8.325851"><ele>463.0</ele><time>2026-03-28T10:07:07.305Z</time></trkpt><trkpt lat="44.3107246" lon="8.3259363"><ele>461.0</ele><time>2026-03-28T10:07:08.302Z</time></trkpt><trkpt lat="44.3107935" lon="8.3260328"><ele>459.0</ele><time>2026-03-28T10:07:09.308Z</time></trkpt><trkpt lat="44.3108687" lon="8.3261244"><ele>459.0</ele><time>2026-03-28T10:07:10.304Z</time></trkpt><trkpt lat="44.3109431" lon="8.3262177"><ele>459.0</ele><time>2026-03-28T10:07:11.308Z</time></trkpt><trkpt lat="44.3110218" lon="8.3263111"><ele>459.0</ele><time>2026-03-28T10:07:12.301Z</time></trkpt><trkpt lat="44.311095" lon="8.326404"><ele>459.0</ele><time>2026-03-28T10:07:13.308Z</time></trkpt><trkpt lat="44.3111686" lon="8.3264912"><ele>459.0</ele><time>2026-03-28T10:07:14.303Z</time></trkpt><trkpt lat="44.3112421" lon="8.3265495"><ele>458.8333333333333</ele><time>2026-03-28T10:07:15.307Z</time></trkpt><trkpt lat="44.3113234" lon="8.3265904"><ele>458.66666666666663</ele><time>2026-03-28T10:07:16.301Z</time></trkpt><trkpt lat="44.3114116" lon="8.3266169"><ele>458.5</ele><time>2026-03-28T10:07:17.304Z</time></trkpt><trkpt lat="44.311502" lon="8.326622"><ele>458.3333333333333</ele><time>2026-03-28T10:07:18.302Z</time></trkpt><trkpt lat="44.3115906" lon="8.3266162"><ele>458.16666666666663</ele><time>2026-03-28T10:07:19.31Z</time></trkpt><trkpt lat="44.3116811" lon="8.326615"><ele>458.0</ele><time>2026-03-28T10:07:20.301Z</time></trkpt><trkpt lat="44.311778" lon="8.326613"><ele>457.4</ele><time>2026-03-28T10:07:21.309Z</time></trkpt><trkpt lat="44.3118733" lon="8.3266217"><ele>456.79999999999995</ele><time>2026-03-28T10:07:22.3Z</time></trkpt><trkpt lat="44.31197" lon="8.3266351"><ele>456.2</ele><time>2026-03-28T10:07:23.308Z</time></trkpt><trkpt lat="44.3120742" lon="8.3266486"><ele>455.6</ele><time>2026-03-28T10:07:24.302Z</time></trkpt><trkpt lat="44.3121749" lon="8.3266673"><ele>455.0</ele><time>2026-03-28T10:07:25.304Z</time></trkpt><trkpt lat="44.3122801" lon="8.3266865"><ele>454.4</ele><time>2026-03-28T10:07:26.301Z</time></trkpt><trkpt lat="44.3123871" lon="8.3266982"><ele>453.8</ele><time>2026-03-28T10:07:27.305Z</time></trkpt><trkpt lat="44.3124951" lon="8.3267136"><ele>453.20000000000005</ele><time>2026-03-28T10:07:28.306Z</time></trkpt><trkpt lat="44.3126033" lon="8.3267271"><ele>452.6</ele><time>2026-03-28T10:07:29.32Z</time></trkpt><trkpt lat="44.3127121" lon="8.3267446"><ele>452.0</ele><time>2026-03-28T10:07:30.304Z</time></trkpt><trkpt lat="44.3128223" lon="8.3267754"><ele>452.0</ele><time>2026-03-28T10:07:31.305Z</time></trkpt><trkpt lat="44.3129314" lon="8.3268183"><ele>452.00000000000006</ele><time>2026-03-28T10:07:32.296Z</time></trkpt><trkpt lat="44.3130277" lon="8.3268727"><ele>452.00000000000006</ele><time>2026-03-28T10:07:33.298Z</time></trkpt><trkpt lat="44.3131139" lon="8.3269201"><ele>452.0</ele><time>2026-03-28T10:07:34.294Z</time></trkpt><trkpt lat="44.3131962" lon="8.3269607"><ele>452.0</ele><time>2026-03-28T10:07:35.3Z</time></trkpt><trkpt lat="44.3132756" lon="8.327002"><ele>451.3333333333333</ele><time>2026-03-28T10:07:36.297Z</time></trkpt><trkpt lat="44.3133524" lon="8.3270492"><ele>450.66666666666663</ele><time>2026-03-28T10:07:37.298Z</time></trkpt><trkpt lat="44.3134215" lon="8.3271043"><ele>450.0</ele><time>2026-03-28T10:07:38.294Z</time></trkpt><trkpt lat="44.313482" lon="8.3271725"><ele>449.33333333333337</ele><time>2026-03-28T10:07:39.306Z</time></trkpt><trkpt lat="44.3135377" lon="8.3272419"><ele>448.6666666666667</ele><time>2026-03-28T10:07:40.295Z</time></trkpt><trkpt lat="44.3135947" lon="8.3273042"><ele>448.0</ele><time>2026-03-28T10:07:41.299Z</time></trkpt><trkpt lat="44.3136712" lon="8.3273479"><ele>448.0</ele><time>2026-03-28T10:07:42.295Z</time></trkpt><trkpt lat="44.3137611" lon="8.3273772"><ele>447.99999999999994</ele><time>2026-03-28T10:07:43.3Z</time></trkpt><trkpt lat="44.3138562" lon="8.3274028"><ele>447.99999999999994</ele><time>2026-03-28T10:07:44.303Z</time></trkpt><trkpt lat="44.3139491" lon="8.3274297"><ele>448.0</ele><time>2026-03-28T10:07:45.3Z</time></trkpt><trkpt lat="44.3140481" lon="8.3274521"><ele>448.0</ele><time>2026-03-28T10:07:46.304Z</time></trkpt><trkpt lat="44.3141521" lon="8.3274625"><ele>447.33333333333337</ele><time>2026-03-28T10:07:47.303Z</time></trkpt><trkpt lat="44.3142503" lon="8.3274624"><ele>446.6666666666667</ele><time>2026-03-28T10:07:48.31Z</time></trkpt><trkpt lat="44.3143384" lon="8.3274725"><ele>446.0</ele><time>2026-03-28T10:07:49.296Z</time></trkpt><trkpt lat="44.3144158" lon="8.3274937"><ele>445.33333333333337</ele><time>2026-03-28T10:07:50.3Z</time></trkpt><trkpt lat="44.3144829" lon="8.3275248"><ele>444.6666666666667</ele><time>2026-03-28T10:07:51.301Z</time></trkpt><trkpt lat="44.3145364" lon="8.3275835"><ele>444.0</ele><time>2026-03-28T10:07:52.298Z</time></trkpt><trkpt lat="44.3145916" lon="8.3276463"><ele>444.0</ele><time>2026-03-28T10:07:53.302Z</time></trkpt><trkpt lat="44.3146516" lon="8.3277074"><ele>444.0</ele><time>2026-03-28T10:07:54.304Z</time></trkpt><trkpt lat="44.3147145" lon="8.3277576"><ele>444.0</ele><time>2026-03-28T10:07:55.3Z</time></trkpt><trkpt lat="44.3147827" lon="8.3278066"><ele>444.0</ele><time>2026-03-28T10:07:56.309Z</time></trkpt><trkpt lat="44.314843" lon="8.3278561"><ele>444.0</ele><time>2026-03-28T10:07:57.302Z</time></trkpt><trkpt lat="44.314904" lon="8.3279004"><ele>444.0</ele><time>2026-03-28T10:07:58.304Z</time></trkpt><trkpt lat="44.3149665" lon="8.3279641"><ele>444.0</ele><time>2026-03-28T10:07:59.298Z</time></trkpt><trkpt lat="44.31504" lon="8.3280432"><ele>445.2</ele><time>2026-03-28T10:08:00.32Z</time></trkpt><trkpt lat="44.3151125" lon="8.3281264"><ele>446.4</ele><time>2026-03-28T10:08:01.301Z</time></trkpt><trkpt lat="44.3151828" lon="8.3282168"><ele>447.6</ele><time>2026-03-28T10:08:02.308Z</time></trkpt><trkpt lat="44.315262" lon="8.3283056"><ele>448.8</ele><time>2026-03-28T10:08:03.3Z</time></trkpt><trkpt lat="44.3153405" lon="8.3283767"><ele>450.0</ele><time>2026-03-28T10:08:04.301Z</time></trkpt><trkpt lat="44.3154114" lon="8.3284458"><ele>450.0</ele><time>2026-03-28T10:08:05.295Z</time></trkpt><trkpt lat="44.3154718" lon="8.3285186"><ele>450.0</ele><time>2026-03-28T10:08:06.296Z</time></trkpt><trkpt lat="44.3155238" lon="8.3285997"><ele>450.0</ele><time>2026-03-28T10:08:07.293Z</time></trkpt><trkpt lat="44.3155779" lon="8.328664"><ele>450.0</ele><time>2026-03-28T10:08:08.295Z</time></trkpt><trkpt lat="44.3156386" lon="8.3287048"><ele>450.0</ele><time>2026-03-28T10:08:09.296Z</time></trkpt><trkpt lat="44.3157083" lon="8.3287268"><ele>450.0</ele><time>2026-03-28T10:08:10.294Z</time></trkpt><trkpt lat="44.3157904" lon="8.3287303"><ele>449.0</ele><time>2026-03-28T10:08:11.289Z</time></trkpt><trkpt lat="44.3158759" lon="8.3286965"><ele>448.0</ele><time>2026-03-28T10:08:12.3Z</time></trkpt><trkpt lat="44.3159699" lon="8.3286404"><ele>447.0</ele><time>2026-03-28T10:08:13.295Z</time></trkpt><trkpt lat="44.3160735" lon="8.3285685"><ele>446.0</ele><time>2026-03-28T10:08:14.297Z</time></trkpt><trkpt lat="44.3161768" lon="8.3284909"><ele>445.0</ele><time>2026-03-28T10:08:15.292Z</time></trkpt><trkpt lat="44.3162809" lon="8.3284059"><ele>445.0</ele><time>2026-03-28T10:08:16.297Z</time></trkpt><trkpt lat="44.3163774" lon="8.3283236"><ele>445.0</ele><time>2026-03-28T10:08:17.292Z</time></trkpt><trkpt lat="44.3164769" lon="8.3282576"><ele>445.0</ele><time>2026-03-28T10:08:18.288Z</time></trkpt><trkpt lat="44.3165844" lon="8.3282031"><ele>445.0</ele><time>2026-03-28T10:08:19.285Z</time></trkpt><trkpt lat="44.3166891" lon="8.32815"><ele>445.0</ele><time>2026-03-28T10:08:20.297Z</time></trkpt><trkpt lat="44.3167748" lon="8.3281031"><ele>444.33333333333337</ele><time>2026-03-28T10:08:21.281Z</time></trkpt><trkpt lat="44.316861" lon="8.3280761"><ele>443.6666666666667</ele><time>2026-03-28T10:08:22.287Z</time></trkpt><trkpt lat="44.3169352" lon="8.3280719"><ele>443.0</ele><time>2026-03-28T10:08:23.29Z</time></trkpt><trkpt lat="44.317018" lon="8.3280864"><ele>442.33333333333337</ele><time>2026-03-28T10:08:24.29Z</time></trkpt><trkpt lat="44.3170988" lon="8.3280744"><ele>441.6666666666667</ele><time>2026-03-28T10:08:25.288Z</time></trkpt><trkpt lat="44.3171892" lon="8.3280487"><ele>441.0</ele><time>2026-03-28T10:08:26.294Z</time></trkpt><trkpt lat="44.3172832" lon="8.3280111"><ele>439.4</ele><time>2026-03-28T10:08:27.296Z</time></trkpt><trkpt lat="44.3173842" lon="8.3279669"><ele>437.8</ele><time>2026-03-28T10:08:28.3Z</time></trkpt><trkpt lat="44.3174749" lon="8.3279119"><ele>436.19999999999993</ele><time>2026-03-28T10:08:29.297Z</time></trkpt><trkpt lat="44.3175606" lon="8.3278623"><ele>434.59999999999997</ele><time>2026-03-28T10:08:30.29Z</time></trkpt><trkpt lat="44.317629" lon="8.3278111"><ele>433.0</ele><time>2026-03-28T10:08:31.306Z</time></trkpt><trkpt lat="44.3176946" lon="8.327746"><ele>433.0</ele><time>2026-03-28T10:08:32.292Z</time></trkpt><trkpt lat="44.3177491" lon="8.3276899"><ele>432.99999999999994</ele><time>2026-03-28T10:08:33.299Z</time></trkpt><trkpt lat="44.317801" lon="8.3276269"><ele>432.99999999999994</ele><time>2026-03-28T10:08:34.297Z</time></trkpt><trkpt lat="44.3178638" lon="8.3274848"><ele>433.0</ele><time>2026-03-28T10:08:36.302Z</time></trkpt><trkpt lat="44.3179161" lon="8.327322"><ele>433.0</ele><time>2026-03-28T10:08:38.298Z</time></trkpt><trkpt lat="44.3179544" lon="8.3272372"><ele>433.2</ele><time>2026-03-28T10:08:39.295Z</time></trkpt><trkpt lat="44.3180075" lon="8.3271457"><ele>433.4</ele><time>2026-03-28T10:08:40.297Z</time></trkpt><trkpt lat="44.3180687" lon="8.3270494"><ele>433.59999999999997</ele><time>2026-03-28T10:08:41.299Z</time></trkpt><trkpt lat="44.3181332" lon="8.3269507"><ele>433.79999999999995</ele><time>2026-03-28T10:08:42.299Z</time></trkpt><trkpt lat="44.3182092" lon="8.326857"><ele>434.0</ele><time>2026-03-28T10:08:43.291Z</time></trkpt><trkpt lat="44.3182892" lon="8.3267673"><ele>434.0</ele><time>2026-03-28T10:08:44.304Z</time></trkpt><trkpt lat="44.3183745" lon="8.3266784"><ele>434.0</ele><time>2026-03-28T10:08:45.295Z</time></trkpt><trkpt lat="44.3184572" lon="8.3265942"><ele>434.0</ele><time>2026-03-28T10:08:46.3Z</time></trkpt><trkpt lat="44.3185399" lon="8.3265318"><ele>434.0</ele><time>2026-03-28T10:08:47.291Z</time></trkpt><trkpt lat="44.3186255" lon="8.3264891"><ele>434.0</ele><time>2026-03-28T10:08:48.298Z</time></trkpt><trkpt lat="44.3187089" lon="8.3264791"><ele>433.99999999999994</ele><time>2026-03-28T10:08:49.292Z</time></trkpt><trkpt lat="44.3187968" lon="8.3264971"><ele>434.0</ele><time>2026-03-28T10:08:50.294Z</time></trkpt><trkpt lat="44.3188863" lon="8.3265402"><ele>434.0</ele><time>2026-03-28T10:08:51.293Z</time></trkpt><trkpt lat="44.3189695" lon="8.326593"><ele>434.0</ele><time>2026-03-28T10:08:52.296Z</time></trkpt><trkpt lat="44.3190457" lon="8.3266454"><ele>433.99999999999994</ele><time>2026-03-28T10:08:53.296Z</time></trkpt><trkpt lat="44.3191136" lon="8.3266898"><ele>434.0</ele><time>2026-03-28T10:08:54.301Z</time></trkpt><trkpt lat="44.3191837" lon="8.326717"><ele>432.4</ele><time>2026-03-28T10:08:55.291Z</time></trkpt><trkpt lat="44.3192603" lon="8.3267152"><ele>430.79999999999995</ele><time>2026-03-28T10:08:56.303Z</time></trkpt><trkpt lat="44.3193412" lon="8.3266768"><ele>429.20000000000005</ele><time>2026-03-28T10:08:57.296Z</time></trkpt><trkpt lat="44.3194253" lon="8.3266147"><ele>427.6</ele><time>2026-03-28T10:08:58.306Z</time></trkpt><trkpt lat="44.3195147" lon="8.3265238"><ele>426.0</ele><time>2026-03-28T10:08:59.299Z</time></trkpt><trkpt lat="44.3195971" lon="8.3264143"><ele>425.4</ele><time>2026-03-28T10:09:00.303Z</time></trkpt><trkpt lat="44.3196799" lon="8.3263025"><ele>424.8</ele><time>2026-03-28T10:09:01.303Z</time></trkpt><trkpt lat="44.319754" lon="8.3262068"><ele>424.2</ele><time>2026-03-28T10:09:02.311Z</time></trkpt><trkpt lat="44.3198207" lon="8.3261022"><ele>423.59999999999997</ele><time>2026-03-28T10:09:03.296Z</time></trkpt><trkpt lat="44.3198794" lon="8.325984"><ele>423.0</ele><time>2026-03-28T10:09:04.299Z</time></trkpt><trkpt lat="44.3199254" lon="8.3258668"><ele>423.0</ele><time>2026-03-28T10:09:05.299Z</time></trkpt><trkpt lat="44.3199667" lon="8.3257686"><ele>423.0</ele><time>2026-03-28T10:09:06.295Z</time></trkpt><trkpt lat="44.3200111" lon="8.3256864"><ele>423.0</ele><time>2026-03-28T10:09:07.299Z</time></trkpt><trkpt lat="44.3200562" lon="8.3256113"><ele>423.0</ele><time>2026-03-28T10:09:08.297Z</time></trkpt><trkpt lat="44.3201105" lon="8.3255444"><ele>423.0</ele><time>2026-03-28T10:09:09.301Z</time></trkpt><trkpt lat="44.3201723" lon="8.3254745"><ele>423.0</ele><time>2026-03-28T10:09:10.301Z</time></trkpt><trkpt lat="44.3202415" lon="8.3254099"><ele>422.5</ele><time>2026-03-28T10:09:11.308Z</time></trkpt><trkpt lat="44.3203118" lon="8.3253334"><ele>422.0</ele><time>2026-03-28T10:09:12.305Z</time></trkpt><trkpt lat="44.3203813" lon="8.3252686"><ele>421.5</ele><time>2026-03-28T10:09:13.306Z</time></trkpt><trkpt lat="44.3204486" lon="8.3252285"><ele>421.0</ele><time>2026-03-28T10:09:14.302Z</time></trkpt><trkpt lat="44.3205121" lon="8.3252059"><ele>420.5</ele><time>2026-03-28T10:09:15.306Z</time></trkpt><trkpt lat="44.3206254" lon="8.3252102"><ele>420.0</ele><time>2026-03-28T10:09:17.305Z</time></trkpt><trkpt lat="44.3207231" lon="8.3252432"><ele>420.0</ele><time>2026-03-28T10:09:19.3Z</time></trkpt><trkpt lat="44.3208312" lon="8.3252804"><ele>420.0</ele><time>2026-03-28T10:09:21.306Z</time></trkpt><trkpt lat="44.3209551" lon="8.3252812"><ele>420.0</ele><time>2026-03-28T10:09:23.296Z</time></trkpt><trkpt lat="44.321072" lon="8.3252138"><ele>420.0</ele><time>2026-03-28T10:09:25.303Z</time></trkpt><trkpt lat="44.3211335" lon="8.3251733"><ele>420.0</ele><time>2026-03-28T10:09:26.3Z</time></trkpt><trkpt lat="44.3211868" lon="8.3251198"><ele>420.0</ele><time>2026-03-28T10:09:27.301Z</time></trkpt><trkpt lat="44.3212933" lon="8.3250161"><ele>420.0</ele><time>2026-03-28T10:09:29.296Z</time></trkpt><trkpt lat="44.3213692" lon="8.3249696"><ele>420.0</ele><time>2026-03-28T10:09:30.296Z</time></trkpt><trkpt lat="44.3214548" lon="8.3249268"><ele>420.0</ele><time>2026-03-28T10:09:31.292Z</time></trkpt><trkpt lat="44.3215354" lon="8.3248845"><ele>420.0</ele><time>2026-03-28T10:09:32.296Z</time></trkpt><trkpt lat="44.3216118" lon="8.3248426"><ele>420.5</ele><time>2026-03-28T10:09:33.319Z</time></trkpt><trkpt lat="44.3216874" lon="8.3247973"><ele>421.0</ele><time>2026-03-28T10:09:34.286Z</time></trkpt><trkpt lat="44.3217625" lon="8.3247455"><ele>421.5</ele><time>2026-03-28T10:09:35.294Z</time></trkpt><trkpt lat="44.3218378" lon="8.3246839"><ele>422.0</ele><time>2026-03-28T10:09:36.285Z</time></trkpt><trkpt lat="44.3219036" lon="8.3246425"><ele>422.5</ele><time>2026-03-28T10:09:37.294Z</time></trkpt><trkpt lat="44.3220088" lon="8.3245778"><ele>423.0</ele><time>2026-03-28T10:09:39.297Z</time></trkpt><trkpt lat="44.3220914" lon="8.3245179"><ele>421.0</ele><time>2026-03-28T10:09:41.297Z</time></trkpt><trkpt lat="44.3221655" lon="8.3245417"><ele>419.0</ele><time>2026-03-28T10:09:44.292Z</time></trkpt><trkpt lat="44.3222275" lon="8.3246018"><ele>417.0</ele><time>2026-03-28T10:09:47.301Z</time></trkpt><trkpt lat="44.3222951" lon="8.3246333"><ele>415.0</ele><time>2026-03-28T10:10:01.312Z</time></trkpt><trkpt lat="44.3223601" lon="8.3246408"><ele>413.0</ele><time>2026-03-28T10:10:19.315Z</time></trkpt><trkpt lat="44.3224829" lon="8.3246528"><ele>411.0</ele><time>2026-03-28T10:10:21.293Z</time></trkpt><trkpt lat="44.3225747" lon="8.32464"><ele>411.0</ele><time>2026-03-28T10:10:22.293Z</time></trkpt><trkpt lat="44.3226729" lon="8.3245687"><ele>411.0</ele><time>2026-03-28T10:10:23.29Z</time></trkpt><trkpt lat="44.3227877" lon="8.3244718"><ele>411.0</ele><time>2026-03-28T10:10:24.288Z</time></trkpt><trkpt lat="44.3230407" lon="8.3242705"><ele>411.0</ele><time>2026-03-28T10:10:26.289Z</time></trkpt><trkpt lat="44.3231645" lon="8.3241786"><ele>411.0</ele><time>2026-03-28T10:10:27.288Z</time></trkpt><trkpt lat="44.3232732" lon="8.3240759"><ele>411.0</ele><time>2026-03-28T10:10:28.294Z</time></trkpt><trkpt lat="44.3233768" lon="8.3239867"><ele>411.0</ele><time>2026-03-28T10:10:29.282Z</time></trkpt><trkpt lat="44.3234739" lon="8.3239272"><ele>411.0</ele><time>2026-03-28T10:10:30.295Z</time></trkpt><trkpt lat="44.32357" lon="8.3239334"><ele>411.0</ele><time>2026-03-28T10:10:31.297Z</time></trkpt><trkpt lat="44.3236584" lon="8.3239768"><ele>411.0</ele><time>2026-03-28T10:10:32.303Z</time></trkpt><trkpt lat="44.3237461" lon="8.3240989"><ele>411.0</ele><time>2026-03-28T10:10:33.303Z</time></trkpt><trkpt lat="44.3238169" lon="8.3242731"><ele>411.0</ele><time>2026-03-28T10:10:34.318Z</time></trkpt><trkpt lat="44.3238746" lon="8.3244587"><ele>411.0</ele><time>2026-03-28T10:10:35.303Z</time></trkpt><trkpt lat="44.3239138" lon="8.3246403"><ele>411.0</ele><time>2026-03-28T10:10:36.312Z</time></trkpt><trkpt lat="44.3239448" lon="8.3248249"><ele>411.0</ele><time>2026-03-28T10:10:37.297Z</time></trkpt><trkpt lat="44.3239618" lon="8.3250176"><ele>410.75</ele><time>2026-03-28T10:10:38.303Z</time></trkpt><trkpt lat="44.3239783" lon="8.3252188"><ele>410.5</ele><time>2026-03-28T10:10:39.307Z</time></trkpt><trkpt lat="44.3239979" lon="8.3254223"><ele>410.25</ele><time>2026-03-28T10:10:40.306Z</time></trkpt><trkpt lat="44.324013" lon="8.3256116"><ele>410.0</ele><time>2026-03-28T10:10:41.303Z</time></trkpt><trkpt lat="44.3240283" lon="8.3257867"><ele>410.0</ele><time>2026-03-28T10:10:42.303Z</time></trkpt><trkpt lat="44.3240398" lon="8.3259549"><ele>410.0</ele><time>2026-03-28T10:10:43.301Z</time></trkpt><trkpt lat="44.3240591" lon="8.3261286"><ele>410.0</ele><time>2026-03-28T10:10:44.313Z</time></trkpt><trkpt lat="44.3240802" lon="8.3263064"><ele>410.0</ele><time>2026-03-28T10:10:45.301Z</time></trkpt><trkpt lat="44.3240938" lon="8.3264846"><ele>413.25</ele><time>2026-03-28T10:10:46.308Z</time></trkpt><trkpt lat="44.3241149" lon="8.3266535"><ele>416.5</ele><time>2026-03-28T10:10:47.303Z</time></trkpt><trkpt lat="44.3241607" lon="8.3268127"><ele>419.75</ele><time>2026-03-28T10:10:48.304Z</time></trkpt><trkpt lat="44.3242215" lon="8.3269558"><ele>423.0</ele><time>2026-03-28T10:10:49.29Z</time></trkpt><trkpt lat="44.3243006" lon="8.3270795"><ele>423.0</ele><time>2026-03-28T10:10:50.297Z</time></trkpt><trkpt lat="44.3244042" lon="8.3271607"><ele>423.0</ele><time>2026-03-28T10:10:51.298Z</time></trkpt><trkpt lat="44.3245423" lon="8.3272029"><ele>423.0</ele><time>2026-03-28T10:10:52.29Z</time></trkpt><trkpt lat="44.3246903" lon="8.3272382"><ele>423.0</ele><time>2026-03-28T10:10:53.297Z</time></trkpt><trkpt lat="44.3248594" lon="8.3272569"><ele>424.0</ele><time>2026-03-28T10:10:54.29Z</time></trkpt><trkpt lat="44.3250463" lon="8.327257"><ele>425.0</ele><time>2026-03-28T10:10:55.295Z</time></trkpt><trkpt lat="44.3252292" lon="8.3272279"><ele>426.0</ele><time>2026-03-28T10:10:56.291Z</time></trkpt><trkpt lat="44.3253881" lon="8.3272175"><ele>426.0</ele><time>2026-03-28T10:10:57.298Z</time></trkpt><trkpt lat="44.3255187" lon="8.3272465"><ele>426.0</ele><time>2026-03-28T10:10:58.297Z</time></trkpt><trkpt lat="44.3256382" lon="8.3273117"><ele>426.0</ele><time>2026-03-28T10:10:59.296Z</time></trkpt><trkpt lat="44.3257708" lon="8.3273732"><ele>426.0</ele><time>2026-03-28T10:11:00.301Z</time></trkpt><trkpt lat="44.3259045" lon="8.327457"><ele>421.0</ele><time>2026-03-28T10:11:01.3Z</time></trkpt><trkpt lat="44.3260333" lon="8.3275706"><ele>416.0</ele><time>2026-03-28T10:11:02.295Z</time></trkpt><trkpt lat="44.3261499" lon="8.3277093"><ele>411.0</ele><time>2026-03-28T10:11:03.301Z</time></trkpt><trkpt lat="44.3262467" lon="8.327846"><ele>406.0</ele><time>2026-03-28T10:11:04.308Z</time></trkpt><trkpt lat="44.3263014" lon="8.3279926"><ele>407.5</ele><time>2026-03-28T10:11:05.322Z</time></trkpt><trkpt lat="44.3263233" lon="8.3281735"><ele>409.0</ele><time>2026-03-28T10:11:06.301Z</time></trkpt><trkpt lat="44.3263326" lon="8.3283353"><ele>410.5</ele><time>2026-03-28T10:11:07.308Z</time></trkpt><trkpt lat="44.3263141" lon="8.3285127"><ele>412.0</ele><time>2026-03-28T10:11:08.306Z</time></trkpt><trkpt lat="44.3262978" lon="8.3287023"><ele>412.0</ele><time>2026-03-28T10:11:09.305Z</time></trkpt><trkpt lat="44.3262997" lon="8.3288877"><ele>412.0</ele><time>2026-03-28T10:11:10.305Z</time></trkpt><trkpt lat="44.3263092" lon="8.3290682"><ele>412.0</ele><time>2026-03-28T10:11:11.316Z</time></trkpt><trkpt lat="44.3263194" lon="8.329251"><ele>412.0</ele><time>2026-03-28T10:11:12.311Z</time></trkpt><trkpt lat="44.3263299" lon="8.3294216"><ele>411.0</ele><time>2026-03-28T10:11:13.313Z</time></trkpt><trkpt lat="44.3263445" lon="8.3295855"><ele>410.0</ele><time>2026-03-28T10:11:14.309Z</time></trkpt><trkpt lat="44.326363" lon="8.3297306"><ele>409.0</ele><time>2026-03-28T10:11:15.305Z</time></trkpt><trkpt lat="44.3263872" lon="8.329861"><ele>408.0</ele><time>2026-03-28T10:11:16.308Z</time></trkpt><trkpt lat="44.3264092" lon="8.3299779"><ele>407.0</ele><time>2026-03-28T10:11:17.316Z</time></trkpt><trkpt lat="44.3264307" lon="8.3300848"><ele>405.49999999999994</ele><time>2026-03-28T10:11:18.308Z</time></trkpt><trkpt lat="44.3264588" lon="8.3301837"><ele>404.0</ele><time>2026-03-28T10:11:19.314Z</time></trkpt><trkpt lat="44.3264883" lon="8.3302913"><ele>402.5</ele><time>2026-03-28T10:11:20.308Z</time></trkpt><trkpt lat="44.3265146" lon="8.3303927"><ele>401.0</ele><time>2026-03-28T10:11:21.312Z</time></trkpt><trkpt lat="44.3265449" lon="8.3304812"><ele>399.49999999999994</ele><time>2026-03-28T10:11:22.304Z</time></trkpt><trkpt lat="44.3266335" lon="8.330537"><ele>398.0</ele><time>2026-03-28T10:11:24.308Z</time></trkpt><trkpt lat="44.3266913" lon="8.3304922"><ele>397.99999999999994</ele><time>2026-03-28T10:11:25.305Z</time></trkpt><trkpt lat="44.3267538" lon="8.3304209"><ele>398.0</ele><time>2026-03-28T10:11:26.311Z</time></trkpt><trkpt lat="44.3268149" lon="8.3303445"><ele>398.0</ele><time>2026-03-28T10:11:27.306Z</time></trkpt><trkpt lat="44.3268876" lon="8.330274"><ele>398.0</ele><time>2026-03-28T10:11:28.319Z</time></trkpt><trkpt lat="44.3269645" lon="8.3302117"><ele>397.99999999999994</ele><time>2026-03-28T10:11:29.313Z</time></trkpt><trkpt lat="44.3270398" lon="8.3301585"><ele>398.0</ele><time>2026-03-28T10:11:30.318Z</time></trkpt><trkpt lat="44.3271151" lon="8.3301082"><ele>397.99999999999994</ele><time>2026-03-28T10:11:31.307Z</time></trkpt><trkpt lat="44.3271922" lon="8.3300557"><ele>398.0</ele><time>2026-03-28T10:11:32.309Z</time></trkpt><trkpt lat="44.3272664" lon="8.3299971"><ele>398.0</ele><time>2026-03-28T10:11:33.302Z</time></trkpt><trkpt lat="44.3273366" lon="8.329945"><ele>398.0</ele><time>2026-03-28T10:11:34.312Z</time></trkpt><trkpt lat="44.3273974" lon="8.3299024"><ele>397.99999999999994</ele><time>2026-03-28T10:11:35.3Z</time></trkpt><trkpt lat="44.3274812" lon="8.3298447"><ele>398.0</ele><time>2026-03-28T10:11:37.302Z</time></trkpt><trkpt lat="44.3275499" lon="8.3298014"><ele>398.59999999999997</ele><time>2026-03-28T10:12:59.311Z</time></trkpt><trkpt lat="44.3276689" lon="8.329712"><ele>399.2</ele><time>2026-03-28T10:13:01.307Z</time></trkpt><trkpt lat="44.3277367" lon="8.3296653"><ele>399.8</ele><time>2026-03-28T10:13:02.31Z</time></trkpt><trkpt lat="44.3278079" lon="8.3296204"><ele>400.4</ele><time>2026-03-28T10:13:03.303Z</time></trkpt><trkpt lat="44.3278903" lon="8.3295703"><ele>401.0</ele><time>2026-03-28T10:13:04.313Z</time></trkpt><trkpt lat="44.3279781" lon="8.3295202"><ele>402.0</ele><time>2026-03-28T10:13:05.301Z</time></trkpt><trkpt lat="44.3280661" lon="8.3294735"><ele>403.0</ele><time>2026-03-28T10:13:06.314Z</time></trkpt><trkpt lat="44.3281581" lon="8.3294262"><ele>404.0</ele><time>2026-03-28T10:13:07.307Z</time></trkpt><trkpt lat="44.3282491" lon="8.3293853"><ele>405.0</ele><time>2026-03-28T10:13:08.31Z</time></trkpt><trkpt lat="44.3283396" lon="8.3293524"><ele>406.0</ele><time>2026-03-28T10:13:09.32Z</time></trkpt><trkpt lat="44.3284308" lon="8.3293129"><ele>406.0</ele><time>2026-03-28T10:13:10.305Z</time></trkpt><trkpt lat="44.3285309" lon="8.3292608"><ele>406.0</ele><time>2026-03-28T10:13:11.309Z</time></trkpt><trkpt lat="44.3286347" lon="8.3292045"><ele>406.0</ele><time>2026-03-28T10:13:12.299Z</time></trkpt><trkpt lat="44.3287499" lon="8.3291471"><ele>406.0</ele><time>2026-03-28T10:13:13.304Z</time></trkpt><trkpt lat="44.3288716" lon="8.3290812"><ele>404.0</ele><time>2026-03-28T10:13:14.306Z</time></trkpt><trkpt lat="44.3289943" lon="8.3290109"><ele>402.0</ele><time>2026-03-28T10:13:15.308Z</time></trkpt><trkpt lat="44.3291192" lon="8.3289351"><ele>400.0</ele><time>2026-03-28T10:13:16.303Z</time></trkpt><trkpt lat="44.3292408" lon="8.3288641"><ele>398.0</ele><time>2026-03-28T10:13:17.31Z</time></trkpt><trkpt lat="44.3293544" lon="8.3288028"><ele>398.5</ele><time>2026-03-28T10:13:18.31Z</time></trkpt><trkpt lat="44.3294653" lon="8.3287467"><ele>399.0</ele><time>2026-03-28T10:13:19.311Z</time></trkpt><trkpt lat="44.3295761" lon="8.3286918"><ele>399.5</ele><time>2026-03-28T10:13:20.303Z</time></trkpt><trkpt lat="44.3296847" lon="8.3286342"><ele>400.0</ele><time>2026-03-28T10:13:21.313Z</time></trkpt><trkpt lat="44.3297918" lon="8.3285735"><ele>400.0</ele><time>2026-03-28T10:13:22.308Z</time></trkpt><trkpt lat="44.3299017" lon="8.3285088"><ele>400.0</ele><time>2026-03-28T10:13:23.311Z</time></trkpt><trkpt lat="44.330008" lon="8.3284351"><ele>400.0</ele><time>2026-03-28T10:13:24.309Z</time></trkpt><trkpt lat="44.3301199" lon="8.3283449"><ele>400.0</ele><time>2026-03-28T10:13:25.307Z</time></trkpt><trkpt lat="44.3302233" lon="8.3282509"><ele>400.0</ele><time>2026-03-28T10:13:26.306Z</time></trkpt><trkpt lat="44.3303288" lon="8.3281455"><ele>400.0</ele><time>2026-03-28T10:13:27.32Z</time></trkpt><trkpt lat="44.3304333" lon="8.3280297"><ele>400.0</ele><time>2026-03-28T10:13:28.315Z</time></trkpt><trkpt lat="44.3305405" lon="8.3279074"><ele>400.0</ele><time>2026-03-28T10:13:29.319Z</time></trkpt><trkpt lat="44.3306474" lon="8.3277915"><ele>399.75</ele><time>2026-03-28T10:13:30.312Z</time></trkpt><trkpt lat="44.3307567" lon="8.3276795"><ele>399.5</ele><time>2026-03-28T10:13:31.318Z</time></trkpt><trkpt lat="44.3308648" lon="8.3275683"><ele>399.25</ele><time>2026-03-28T10:13:32.308Z</time></trkpt><trkpt lat="44.3309738" lon="8.3274605"><ele>399.0</ele><time>2026-03-28T10:13:33.309Z</time></trkpt><trkpt lat="44.3310798" lon="8.3273477"><ele>399.0</ele><time>2026-03-28T10:13:34.301Z</time></trkpt><trkpt lat="44.3311842" lon="8.3272359"><ele>399.0</ele><time>2026-03-28T10:13:35.312Z</time></trkpt><trkpt lat="44.3312876" lon="8.3271244"><ele>399.0</ele><time>2026-03-28T10:13:36.302Z</time></trkpt><trkpt lat="44.3313855" lon="8.3270172"><ele>399.0</ele><time>2026-03-28T10:13:37.311Z</time></trkpt><trkpt lat="44.3314882" lon="8.3269212"><ele>398.5</ele><time>2026-03-28T10:13:38.303Z</time></trkpt><trkpt lat="44.3315938" lon="8.3268426"><ele>398.0</ele><time>2026-03-28T10:13:39.307Z</time></trkpt><trkpt lat="44.3317032" lon="8.3267714"><ele>397.5</ele><time>2026-03-28T10:13:40.318Z</time></trkpt><trkpt lat="44.3318166" lon="8.3266982"><ele>397.0</ele><time>2026-03-28T10:13:41.299Z</time></trkpt><trkpt lat="44.3319303" lon="8.3266225"><ele>397.0</ele><time>2026-03-28T10:13:42.3Z</time></trkpt><trkpt lat="44.332044" lon="8.3265476"><ele>397.0</ele><time>2026-03-28T10:13:43.305Z</time></trkpt><trkpt lat="44.3321608" lon="8.3264793"><ele>397.0</ele><time>2026-03-28T10:13:44.299Z</time></trkpt><trkpt lat="44.3322813" lon="8.3264106"><ele>397.0</ele><time>2026-03-28T10:13:45.303Z</time></trkpt><trkpt lat="44.332407" lon="8.3263399"><ele>401.5</ele><time>2026-03-28T10:13:46.294Z</time></trkpt><trkpt lat="44.3325352" lon="8.3262646"><ele>406.0</ele><time>2026-03-28T10:13:47.302Z</time></trkpt><trkpt lat="44.3326685" lon="8.3261878"><ele>410.5</ele><time>2026-03-28T10:13:48.297Z</time></trkpt><trkpt lat="44.3328011" lon="8.3261012"><ele>415.0</ele><time>2026-03-28T10:13:49.299Z</time></trkpt><trkpt lat="44.33293" lon="8.3260224"><ele>415.0</ele><time>2026-03-28T10:13:50.285Z</time></trkpt><trkpt lat="44.3330517" lon="8.3259566"><ele>415.0</ele><time>2026-03-28T10:13:51.299Z</time></trkpt><trkpt lat="44.3331732" lon="8.3258862"><ele>415.0</ele><time>2026-03-28T10:13:52.308Z</time></trkpt><trkpt lat="44.3332969" lon="8.3258367"><ele>415.0</ele><time>2026-03-28T10:13:53.3Z</time></trkpt><trkpt lat="44.3334285" lon="8.3258157"><ele>409.25</ele><time>2026-03-28T10:13:54.306Z</time></trkpt><trkpt lat="44.3335515" lon="8.325824"><ele>403.5</ele><time>2026-03-28T10:13:55.295Z</time></trkpt><trkpt lat="44.333669" lon="8.3258523"><ele>397.75</ele><time>2026-03-28T10:13:56.304Z</time></trkpt><trkpt lat="44.3337787" lon="8.3258985"><ele>392.0</ele><time>2026-03-28T10:13:57.296Z</time></trkpt><trkpt lat="44.3338921" lon="8.3259584"><ele>391.25</ele><time>2026-03-28T10:13:58.308Z</time></trkpt><trkpt lat="44.333998" lon="8.3260542"><ele>390.5</ele><time>2026-03-28T10:13:59.293Z</time></trkpt><trkpt lat="44.3341081" lon="8.3261486"><ele>389.75</ele><time>2026-03-28T10:14:00.301Z</time></trkpt><trkpt lat="44.3342173" lon="8.3262431"><ele>389.0</ele><time>2026-03-28T10:14:01.294Z</time></trkpt><trkpt lat="44.3343248" lon="8.3263346"><ele>389.0</ele><time>2026-03-28T10:14:02.293Z</time></trkpt><trkpt lat="44.3344378" lon="8.3264269"><ele>389.0</ele><time>2026-03-28T10:14:03.298Z</time></trkpt><trkpt lat="44.3345428" lon="8.3265138"><ele>389.0</ele><time>2026-03-28T10:14:04.298Z</time></trkpt><trkpt lat="44.3346467" lon="8.3265991"><ele>389.0</ele><time>2026-03-28T10:14:05.3Z</time></trkpt><trkpt lat="44.3347506" lon="8.3266771"><ele>389.0</ele><time>2026-03-28T10:14:06.297Z</time></trkpt><trkpt lat="44.3348498" lon="8.3267438"><ele>389.0</ele><time>2026-03-28T10:14:07.298Z</time></trkpt><trkpt lat="44.3349466" lon="8.3267952"><ele>389.0</ele><time>2026-03-28T10:14:08.291Z</time></trkpt><trkpt lat="44.3350461" lon="8.3268217"><ele>389.0</ele><time>2026-03-28T10:14:09.298Z</time></trkpt><trkpt lat="44.3351432" lon="8.3268134"><ele>389.0</ele><time>2026-03-28T10:14:10.291Z</time></trkpt><trkpt lat="44.3352359" lon="8.3267571"><ele>389.0</ele><time>2026-03-28T10:14:11.317Z</time></trkpt><trkpt lat="44.3353285" lon="8.3266749"><ele>389.0</ele><time>2026-03-28T10:14:12.285Z</time></trkpt><trkpt lat="44.3354179" lon="8.3265573"><ele>389.0</ele><time>2026-03-28T10:14:13.292Z</time></trkpt><trkpt lat="44.3354997" lon="8.3264158"><ele>389.0</ele><time>2026-03-28T10:14:14.286Z</time></trkpt><trkpt lat="44.3355852" lon="8.3262866"><ele>390.25</ele><time>2026-03-28T10:14:15.283Z</time></trkpt><trkpt lat="44.3356644" lon="8.3261414"><ele>391.5</ele><time>2026-03-28T10:14:16.288Z</time></trkpt><trkpt lat="44.3357472" lon="8.3259973"><ele>392.75</ele><time>2026-03-28T10:14:17.288Z</time></trkpt><trkpt lat="44.3358274" lon="8.3258698"><ele>394.0</ele><time>2026-03-28T10:14:18.294Z</time></trkpt><trkpt lat="44.3359033" lon="8.325745"><ele>394.0</ele><time>2026-03-28T10:14:19.284Z</time></trkpt><trkpt lat="44.3359867" lon="8.3256304"><ele>394.0</ele><time>2026-03-28T10:14:20.287Z</time></trkpt><trkpt lat="44.3360719" lon="8.3255161"><ele>394.0</ele><time>2026-03-28T10:14:21.286Z</time></trkpt><trkpt lat="44.3361717" lon="8.3254123"><ele>394.0</ele><time>2026-03-28T10:14:22.288Z</time></trkpt><trkpt lat="44.3362722" lon="8.3253165"><ele>392.5</ele><time>2026-03-28T10:14:23.282Z</time></trkpt><trkpt lat="44.336381" lon="8.3252302"><ele>391.0</ele><time>2026-03-28T10:14:24.293Z</time></trkpt><trkpt lat="44.3364972" lon="8.3251532"><ele>389.5</ele><time>2026-03-28T10:14:25.282Z</time></trkpt><trkpt lat="44.3366007" lon="8.325081"><ele>388.0</ele><time>2026-03-28T10:14:26.295Z</time></trkpt><trkpt lat="44.3367065" lon="8.3250157"><ele>387.79999999999995</ele><time>2026-03-28T10:14:27.292Z</time></trkpt><trkpt lat="44.3368105" lon="8.3249533"><ele>387.6</ele><time>2026-03-28T10:14:28.299Z</time></trkpt><trkpt lat="44.3369143" lon="8.3249074"><ele>387.4</ele><time>2026-03-28T10:14:29.29Z</time></trkpt><trkpt lat="44.3370206" lon="8.3248718"><ele>387.20000000000005</ele><time>2026-03-28T10:14:30.296Z</time></trkpt><trkpt lat="44.3371313" lon="8.3248508"><ele>387.0</ele><time>2026-03-28T10:14:31.289Z</time></trkpt><trkpt lat="44.3372525" lon="8.3248362"><ele>387.5</ele><time>2026-03-28T10:14:32.295Z</time></trkpt><trkpt lat="44.3373816" lon="8.3248323"><ele>388.0</ele><time>2026-03-28T10:14:33.295Z</time></trkpt><trkpt lat="44.3375048" lon="8.3248194"><ele>388.5</ele><time>2026-03-28T10:14:34.295Z</time></trkpt><trkpt lat="44.3376229" lon="8.3248105"><ele>389.0</ele><time>2026-03-28T10:14:35.297Z</time></trkpt><trkpt lat="44.3377313" lon="8.3247997"><ele>388.99999999999994</ele><time>2026-03-28T10:14:36.303Z</time></trkpt><trkpt lat="44.3378282" lon="8.324795"><ele>389.0</ele><time>2026-03-28T10:14:37.296Z</time></trkpt><trkpt lat="44.3379202" lon="8.3247917"><ele>389.0</ele><time>2026-03-28T10:14:38.305Z</time></trkpt><trkpt lat="44.3380136" lon="8.3247928"><ele>389.0</ele><time>2026-03-28T10:14:39.3Z</time></trkpt><trkpt lat="44.3380962" lon="8.3247905"><ele>388.99999999999994</ele><time>2026-03-28T10:14:40.304Z</time></trkpt><trkpt lat="44.338169" lon="8.3247686"><ele>389.0</ele><time>2026-03-28T10:14:41.315Z</time></trkpt><trkpt lat="44.3382233" lon="8.3246308"><ele>388.2</ele><time>2026-03-28T10:14:43.304Z</time></trkpt><trkpt lat="44.338206" lon="8.3245267"><ele>387.4</ele><time>2026-03-28T10:14:44.301Z</time></trkpt><trkpt lat="44.3381535" lon="8.3244098"><ele>386.6</ele><time>2026-03-28T10:14:45.302Z</time></trkpt><trkpt lat="44.3380903" lon="8.3242718"><ele>385.8</ele><time>2026-03-28T10:14:46.297Z</time></trkpt><trkpt lat="44.3380245" lon="8.3241267"><ele>385.0</ele><time>2026-03-28T10:14:47.306Z</time></trkpt><trkpt lat="44.3379612" lon="8.3239815"><ele>385.0</ele><time>2026-03-28T10:14:48.301Z</time></trkpt><trkpt lat="44.3379055" lon="8.3238418"><ele>385.0</ele><time>2026-03-28T10:14:49.307Z</time></trkpt><trkpt lat="44.3378571" lon="8.3237024"><ele>385.0</ele><time>2026-03-28T10:14:50.298Z</time></trkpt><trkpt lat="44.337807" lon="8.3235753"><ele>385.0</ele><time>2026-03-28T10:14:51.302Z</time></trkpt><trkpt lat="44.3377593" lon="8.3234551"><ele>385.0</ele><time>2026-03-28T10:14:52.292Z</time></trkpt><trkpt lat="44.3377182" lon="8.3233132"><ele>385.0</ele><time>2026-03-28T10:14:53.298Z</time></trkpt><trkpt lat="44.3376779" lon="8.3231607"><ele>385.0</ele><time>2026-03-28T10:14:54.297Z</time></trkpt><trkpt lat="44.3376478" lon="8.3230011"><ele>385.0</ele><time>2026-03-28T10:14:55.308Z</time></trkpt><trkpt lat="44.3376469" lon="8.3228342"><ele>385.0</ele><time>2026-03-28T10:14:56.299Z</time></trkpt><trkpt lat="44.3376672" lon="8.3226661"><ele>387.25</ele><time>2026-03-28T10:14:57.303Z</time></trkpt><trkpt lat="44.3376997" lon="8.3225086"><ele>389.5</ele><time>2026-03-28T10:14:58.3Z</time></trkpt><trkpt lat="44.3377486" lon="8.322356"><ele>391.75</ele><time>2026-03-28T10:14:59.304Z</time></trkpt><trkpt lat="44.3378106" lon="8.322208"><ele>394.0</ele><time>2026-03-28T10:15:00.295Z</time></trkpt><trkpt lat="44.3378859" lon="8.3220641"><ele>393.25</ele><time>2026-03-28T10:15:01.301Z</time></trkpt><trkpt lat="44.3379765" lon="8.3219248"><ele>392.5</ele><time>2026-03-28T10:15:02.293Z</time></trkpt><trkpt lat="44.3380822" lon="8.321794"><ele>391.75</ele><time>2026-03-28T10:15:03.297Z</time></trkpt><trkpt lat="44.3381935" lon="8.3216669"><ele>391.0</ele><time>2026-03-28T10:15:04.293Z</time></trkpt><trkpt lat="44.3383064" lon="8.3215385"><ele>391.0</ele><time>2026-03-28T10:15:05.304Z</time></trkpt><trkpt lat="44.3384332" lon="8.3214121"><ele>391.0</ele><time>2026-03-28T10:15:06.295Z</time></trkpt><trkpt lat="44.3385515" lon="8.3213086"><ele>391.0</ele><time>2026-03-28T10:15:07.297Z</time></trkpt><trkpt lat="44.3386574" lon="8.3212324"><ele>391.0</ele><time>2026-03-28T10:15:08.286Z</time></trkpt><trkpt lat="44.3387641" lon="8.3211897"><ele>389.75</ele><time>2026-03-28T10:15:09.304Z</time></trkpt><trkpt lat="44.338868" lon="8.3212164"><ele>388.5</ele><time>2026-03-28T10:15:10.297Z</time></trkpt><trkpt lat="44.3389684" lon="8.3212997"><ele>387.25</ele><time>2026-03-28T10:15:11.298Z</time></trkpt><trkpt lat="44.3390815" lon="8.3214054"><ele>386.0</ele><time>2026-03-28T10:15:12.303Z</time></trkpt><trkpt lat="44.3392105" lon="8.3214995"><ele>386.0</ele><time>2026-03-28T10:15:13.292Z</time></trkpt><trkpt lat="44.3393429" lon="8.3215784"><ele>386.0</ele><time>2026-03-28T10:15:14.301Z</time></trkpt><trkpt lat="44.3394747" lon="8.3216365"><ele>386.0</ele><time>2026-03-28T10:15:15.292Z</time></trkpt><trkpt lat="44.3396022" lon="8.3216603"><ele>386.0</ele><time>2026-03-28T10:15:16.297Z</time></trkpt><trkpt lat="44.3397005" lon="8.3216824"><ele>388.20000000000005</ele><time>2026-03-28T10:15:17.3Z</time></trkpt><trkpt lat="44.3397949" lon="8.3217188"><ele>390.40000000000003</ele><time>2026-03-28T10:15:18.297Z</time></trkpt><trkpt lat="44.3398861" lon="8.3217902"><ele>392.6</ele><time>2026-03-28T10:15:19.301Z</time></trkpt><trkpt lat="44.3399705" lon="8.3218928"><ele>394.8</ele><time>2026-03-28T10:15:20.294Z</time></trkpt><trkpt lat="44.3400466" lon="8.3220089"><ele>397.0</ele><time>2026-03-28T10:15:21.295Z</time></trkpt><trkpt lat="44.3401207" lon="8.3221378"><ele>394.5</ele><time>2026-03-28T10:15:22.293Z</time></trkpt><trkpt lat="44.3402066" lon="8.3222704"><ele>392.0</ele><time>2026-03-28T10:15:23.299Z</time></trkpt><trkpt lat="44.3402884" lon="8.3224097"><ele>389.5</ele><time>2026-03-28T10:15:24.288Z</time></trkpt><trkpt lat="44.3403728" lon="8.322556"><ele>387.0</ele><time>2026-03-28T10:15:25.299Z</time></trkpt><trkpt lat="44.3404605" lon="8.3227062"><ele>387.0</ele><time>2026-03-28T10:15:26.288Z</time></trkpt><trkpt lat="44.340549" lon="8.3228547"><ele>387.0</ele><time>2026-03-28T10:15:27.296Z</time></trkpt><trkpt lat="44.3406368" lon="8.3229919"><ele>387.0</ele><time>2026-03-28T10:15:28.291Z</time></trkpt><trkpt lat="44.3407176" lon="8.3231172"><ele>387.0</ele><time>2026-03-28T10:15:29.295Z</time></trkpt><trkpt lat="44.3407922" lon="8.3232404"><ele>388.0</ele><time>2026-03-28T10:15:30.3Z</time></trkpt><trkpt lat="44.3408719" lon="8.3233665"><ele>389.0</ele><time>2026-03-28T10:15:31.289Z</time></trkpt><trkpt lat="44.3409485" lon="8.3234948"><ele>390.0</ele><time>2026-03-28T10:15:32.291Z</time></trkpt><trkpt lat="44.3410272" lon="8.3236164"><ele>391.0</ele><time>2026-03-28T10:15:33.291Z</time></trkpt><trkpt lat="44.3411031" lon="8.3237397"><ele>391.0</ele><time>2026-03-28T10:15:34.294Z</time></trkpt><trkpt lat="44.341173" lon="8.3238745"><ele>391.0</ele><time>2026-03-28T10:15:35.287Z</time></trkpt><trkpt lat="44.3412301" lon="8.3240199"><ele>391.0</ele><time>2026-03-28T10:15:36.296Z</time></trkpt><trkpt lat="44.3412748" lon="8.3241676"><ele>391.0</ele><time>2026-03-28T10:15:37.288Z</time></trkpt><trkpt lat="44.3413235" lon="8.3243194"><ele>389.6</ele><time>2026-03-28T10:15:38.294Z</time></trkpt><trkpt lat="44.3413694" lon="8.3244644"><ele>388.20000000000005</ele><time>2026-03-28T10:15:39.293Z</time></trkpt><trkpt lat="44.3414215" lon="8.3245817"><ele>386.79999999999995</ele><time>2026-03-28T10:15:40.306Z</time></trkpt><trkpt lat="44.3415025" lon="8.324649"><ele>385.4</ele><time>2026-03-28T10:15:41.298Z</time></trkpt><trkpt lat="44.3415881" lon="8.3246805"><ele>384.0</ele><time>2026-03-28T10:15:42.307Z</time></trkpt><trkpt lat="44.3416816" lon="8.3246612"><ele>384.0</ele><time>2026-03-28T10:15:43.306Z</time></trkpt><trkpt lat="44.3417666" lon="8.324626"><ele>384.0</ele><time>2026-03-28T10:15:44.306Z</time></trkpt><trkpt lat="44.3418278" lon="8.324531"><ele>384.0</ele><time>2026-03-28T10:15:46.302Z</time></trkpt><trkpt lat="44.3418874" lon="8.3244393"><ele>384.0</ele><time>2026-03-28T10:15:51.306Z</time></trkpt><trkpt lat="44.3419275" lon="8.3243504"><ele>384.0</ele><time>2026-03-28T10:15:52.311Z</time></trkpt><trkpt lat="44.3419872" lon="8.3242033"><ele>384.0</ele><time>2026-03-28T10:15:53.298Z</time></trkpt><trkpt lat="44.3420442" lon="8.3240512"><ele>384.0</ele><time>2026-03-28T10:15:54.308Z</time></trkpt><trkpt lat="44.3420998" lon="8.3239255"><ele>384.0</ele><time>2026-03-28T10:15:55.299Z</time></trkpt><trkpt lat="44.3421686" lon="8.3238281"><ele>384.0</ele><time>2026-03-28T10:15:56.308Z</time></trkpt><trkpt lat="44.3422412" lon="8.3237518"><ele>384.0</ele><time>2026-03-28T10:15:57.301Z</time></trkpt><trkpt lat="44.3423118" lon="8.3236945"><ele>383.4</ele><time>2026-03-28T10:15:58.308Z</time></trkpt><trkpt lat="44.3423875" lon="8.3236512"><ele>382.79999999999995</ele><time>2026-03-28T10:15:59.3Z</time></trkpt><trkpt lat="44.342456" lon="8.3236422"><ele>382.20000000000005</ele><time>2026-03-28T10:16:00.308Z</time></trkpt><trkpt lat="44.3425494" lon="8.3237144"><ele>381.6</ele><time>2026-03-28T10:16:02.308Z</time></trkpt><trkpt lat="44.342577" lon="8.3238505"><ele>381.0</ele><time>2026-03-28T10:16:04.295Z</time></trkpt><trkpt lat="44.3425737" lon="8.3239959"><ele>381.0</ele><time>2026-03-28T10:16:06.297Z</time></trkpt><trkpt lat="44.3425048" lon="8.3241578"><ele>381.0</ele><time>2026-03-28T10:16:08.293Z</time></trkpt><trkpt lat="44.3424309" lon="8.3242382"><ele>381.0</ele><time>2026-03-28T10:16:09.297Z</time></trkpt><trkpt lat="44.3423574" lon="8.3243147"><ele>381.0</ele><time>2026-03-28T10:16:10.298Z</time></trkpt><trkpt lat="44.3422939" lon="8.3243934"><ele>381.0</ele><time>2026-03-28T10:16:11.293Z</time></trkpt><trkpt lat="44.3422567" lon="8.3244819"><ele>381.0</ele><time>2026-03-28T10:16:12.304Z</time></trkpt><trkpt lat="44.3422376" lon="8.3245783"><ele>381.0</ele><time>2026-03-28T10:16:13.296Z</time></trkpt><trkpt lat="44.3422308" lon="8.3246942"><ele>381.0</ele><time>2026-03-28T10:16:14.316Z</time></trkpt><trkpt lat="44.3422464" lon="8.3248201"><ele>381.0</ele><time>2026-03-28T10:16:15.303Z</time></trkpt><trkpt lat="44.342286" lon="8.3249533"><ele>381.0</ele><time>2026-03-28T10:16:16.305Z</time></trkpt><trkpt lat="44.342363" lon="8.3250514"><ele>380.4</ele><time>2026-03-28T10:16:17.294Z</time></trkpt><trkpt lat="44.3424589" lon="8.3251103"><ele>379.8</ele><time>2026-03-28T10:16:18.305Z</time></trkpt><trkpt lat="44.3425623" lon="8.3251279"><ele>379.2</ele><time>2026-03-28T10:16:19.304Z</time></trkpt><trkpt lat="44.3426585" lon="8.3250918"><ele>378.59999999999997</ele><time>2026-03-28T10:16:20.306Z</time></trkpt><trkpt lat="44.3427444" lon="8.3250272"><ele>378.0</ele><time>2026-03-28T10:16:21.296Z</time></trkpt><trkpt lat="44.3428264" lon="8.3249694"><ele>378.0</ele><time>2026-03-28T10:16:22.298Z</time></trkpt><trkpt lat="44.3429043" lon="8.3249212"><ele>378.0</ele><time>2026-03-28T10:16:23.299Z</time></trkpt><trkpt lat="44.3429803" lon="8.3248776"><ele>378.0</ele><time>2026-03-28T10:16:24.293Z</time></trkpt><trkpt lat="44.3430556" lon="8.324834"><ele>378.0</ele><time>2026-03-28T10:16:25.3Z</time></trkpt><trkpt lat="44.3431393" lon="8.324796"><ele>378.0</ele><time>2026-03-28T10:16:26.295Z</time></trkpt><trkpt lat="44.3432178" lon="8.3247598"><ele>378.0</ele><time>2026-03-28T10:16:27.312Z</time></trkpt><trkpt lat="44.3432919" lon="8.3247301"><ele>377.8333333333333</ele><time>2026-03-28T10:16:28.297Z</time></trkpt><trkpt lat="44.343369" lon="8.324698"><ele>377.6666666666667</ele><time>2026-03-28T10:16:29.306Z</time></trkpt><trkpt lat="44.3434504" lon="8.3246558"><ele>377.5</ele><time>2026-03-28T10:16:30.298Z</time></trkpt><trkpt lat="44.343531" lon="8.3246058"><ele>377.33333333333337</ele><time>2026-03-28T10:16:31.308Z</time></trkpt><trkpt lat="44.343607" lon="8.324525"><ele>377.1666666666667</ele><time>2026-03-28T10:16:32.299Z</time></trkpt><trkpt lat="44.3436697" lon="8.3244355"><ele>377.0</ele><time>2026-03-28T10:16:33.299Z</time></trkpt><trkpt lat="44.3437155" lon="8.3243302"><ele>377.0</ele><time>2026-03-28T10:16:34.3Z</time></trkpt><trkpt lat="44.3437336" lon="8.3242214"><ele>377.0</ele><time>2026-03-28T10:16:35.301Z</time></trkpt><trkpt lat="44.3437288" lon="8.3241002"><ele>377.0</ele><time>2026-03-28T10:16:36.294Z</time></trkpt><trkpt lat="44.3437028" lon="8.3239787"><ele>377.0</ele><time>2026-03-28T10:16:37.306Z</time></trkpt><trkpt lat="44.3436525" lon="8.3238629"><ele>377.0</ele><time>2026-03-28T10:16:38.292Z</time></trkpt><trkpt lat="44.3435902" lon="8.3237519"><ele>377.6</ele><time>2026-03-28T10:16:39.3Z</time></trkpt><trkpt lat="44.3435265" lon="8.3236557"><ele>378.20000000000005</ele><time>2026-03-28T10:16:40.295Z</time></trkpt><trkpt lat="44.3434528" lon="8.3235599"><ele>378.8</ele><time>2026-03-28T10:16:41.298Z</time></trkpt><trkpt lat="44.3433778" lon="8.3234864"><ele>379.4</ele><time>2026-03-28T10:16:42.301Z</time></trkpt><trkpt lat="44.3432937" lon="8.3234514"><ele>380.0</ele><time>2026-03-28T10:16:43.298Z</time></trkpt><trkpt lat="44.3432145" lon="8.3234693"><ele>380.0</ele><time>2026-03-28T10:16:44.297Z</time></trkpt><trkpt lat="44.343132" lon="8.323516"><ele>380.0</ele><time>2026-03-28T10:16:45.318Z</time></trkpt><trkpt lat="44.3430438" lon="8.323572"><ele>380.0</ele><time>2026-03-28T10:16:46.298Z</time></trkpt><trkpt lat="44.3429638" lon="8.3236304"><ele>380.0</ele><time>2026-03-28T10:16:47.306Z</time></trkpt><trkpt lat="44.3428899" lon="8.3236877"><ele>380.0</ele><time>2026-03-28T10:16:48.297Z</time></trkpt><trkpt lat="44.3428219" lon="8.3237303"><ele>380.0</ele><time>2026-03-28T10:16:49.298Z</time></trkpt><trkpt lat="44.3427532" lon="8.3237518"><ele>382.1666666666667</ele><time>2026-03-28T10:16:50.296Z</time></trkpt><trkpt lat="44.342686" lon="8.3237584"><ele>384.33333333333337</ele><time>2026-03-28T10:16:51.303Z</time></trkpt><trkpt lat="44.3426198" lon="8.3237371"><ele>386.5</ele><time>2026-03-28T10:16:52.294Z</time></trkpt><trkpt lat="44.3425398" lon="8.3236517"><ele>388.6666666666667</ele><time>2026-03-28T10:16:54.298Z</time></trkpt><trkpt lat="44.3425867" lon="8.3235389"><ele>390.8333333333333</ele><time>2026-03-28T10:16:56.299Z</time></trkpt><trkpt lat="44.3426857" lon="8.3234767"><ele>393.0</ele><time>2026-03-28T10:16:58.298Z</time></trkpt><trkpt lat="44.3427943" lon="8.3234628"><ele>393.0</ele><time>2026-03-28T10:17:00.294Z</time></trkpt><trkpt lat="44.3428999" lon="8.3235093"><ele>393.0</ele><time>2026-03-28T10:17:02.294Z</time></trkpt><trkpt lat="44.3429786" lon="8.3236415"><ele>393.0</ele><time>2026-03-28T10:17:04.292Z</time></trkpt><trkpt lat="44.3430105" lon="8.3237359"><ele>393.0</ele><time>2026-03-28T10:17:05.293Z</time></trkpt><trkpt lat="44.3430442" lon="8.3238309"><ele>393.0</ele><time>2026-03-28T10:17:06.286Z</time></trkpt><trkpt lat="44.343074" lon="8.3239899"><ele>390.59999999999997</ele><time>2026-03-28T10:17:08.279Z</time></trkpt><trkpt lat="44.3429779" lon="8.3241372"><ele>388.2</ele><time>2026-03-28T10:17:10.286Z</time></trkpt><trkpt lat="44.3428988" lon="8.3242274"><ele>385.8</ele><time>2026-03-28T10:17:11.297Z</time></trkpt><trkpt lat="44.3428238" lon="8.3243087"><ele>383.4</ele><time>2026-03-28T10:17:12.298Z</time></trkpt><trkpt lat="44.3427563" lon="8.3243913"><ele>381.0</ele><time>2026-03-28T10:17:13.3Z</time></trkpt><trkpt lat="44.3426957" lon="8.3244805"><ele>381.0</ele><time>2026-03-28T10:17:14.293Z</time></trkpt><trkpt lat="44.3426428" lon="8.3245709"><ele>381.0</ele><time>2026-03-28T10:17:15.302Z</time></trkpt><trkpt lat="44.3426137" lon="8.3246643"><ele>381.0</ele><time>2026-03-28T10:17:16.313Z</time></trkpt><trkpt lat="44.3426131" lon="8.3247781"><ele>381.0</ele><time>2026-03-28T10:17:17.301Z</time></trkpt><trkpt lat="44.342635" lon="8.3248901"><ele>381.0</ele><time>2026-03-28T10:17:18.305Z</time></trkpt><trkpt lat="44.3426586" lon="8.3250034"><ele>381.0</ele><time>2026-03-28T10:17:19.288Z</time></trkpt><trkpt lat="44.3426903" lon="8.3251145"><ele>380.5</ele><time>2026-03-28T10:17:20.3Z</time></trkpt><trkpt lat="44.3427101" lon="8.3252176"><ele>380.0</ele><time>2026-03-28T10:17:21.292Z</time></trkpt><trkpt lat="44.342742" lon="8.3252986"><ele>379.5</ele><time>2026-03-28T10:17:22.298Z</time></trkpt><trkpt lat="44.3428108" lon="8.3254043"><ele>379.0</ele><time>2026-03-28T10:17:24.298Z</time></trkpt><trkpt lat="44.342877" lon="8.3253936"><ele>378.5</ele><time>2026-03-28T10:17:27.292Z</time></trkpt><trkpt lat="44.3429531" lon="8.325355"><ele>378.0</ele><time>2026-03-28T10:17:30.293Z</time></trkpt><trkpt lat="44.3430427" lon="8.3253199"><ele>378.79999999999995</ele><time>2026-03-28T10:17:32.293Z</time></trkpt><trkpt lat="44.3431272" lon="8.3252907"><ele>379.6</ele><time>2026-03-28T10:17:34.294Z</time></trkpt><trkpt lat="44.3432171" lon="8.3252479"><ele>380.4</ele><time>2026-03-28T10:17:36.298Z</time></trkpt><trkpt lat="44.3432945" lon="8.3251899"><ele>381.20000000000005</ele><time>2026-03-28T10:17:38.294Z</time></trkpt><trkpt lat="44.3433744" lon="8.3251082"><ele>382.0</ele><time>2026-03-28T10:17:40.293Z</time></trkpt><trkpt lat="44.3434595" lon="8.3249706"><ele>382.0</ele><time>2026-03-28T10:17:42.285Z</time></trkpt><trkpt lat="44.3435093" lon="8.3248786"><ele>382.0</ele><time>2026-03-28T10:17:43.286Z</time></trkpt><trkpt lat="44.3435694" lon="8.3247669"><ele>382.0</ele><time>2026-03-28T10:17:44.294Z</time></trkpt><trkpt lat="44.3436383" lon="8.3246558"><ele>382.0</ele><time>2026-03-28T10:17:45.29Z</time></trkpt><trkpt lat="44.3437204" lon="8.3245513"><ele>382.0</ele><time>2026-03-28T10:17:46.29Z</time></trkpt><trkpt lat="44.3438045" lon="8.3244523"><ele>382.20000000000005</ele><time>2026-03-28T10:17:47.303Z</time></trkpt><trkpt lat="44.3438884" lon="8.3243554"><ele>382.4</ele><time>2026-03-28T10:17:48.288Z</time></trkpt><trkpt lat="44.3439614" lon="8.3242859"><ele>382.6</ele><time>2026-03-28T10:17:49.289Z</time></trkpt><trkpt lat="44.3440271" lon="8.3242369"><ele>382.79999999999995</ele><time>2026-03-28T10:17:50.287Z</time></trkpt><trkpt lat="44.3441318" lon="8.3241754"><ele>383.0</ele><time>2026-03-28T10:17:52.283Z</time></trkpt><trkpt lat="44.344216" lon="8.3241455"><ele>383.0</ele><time>2026-03-28T10:17:54.288Z</time></trkpt><trkpt lat="44.3442969" lon="8.3241697"><ele>383.0</ele><time>2026-03-28T10:17:56.283Z</time></trkpt><trkpt lat="44.3443472" lon="8.3242347"><ele>383.0</ele><time>2026-03-28T10:17:57.281Z</time></trkpt><trkpt lat="44.344402" lon="8.3243055"><ele>383.0</ele><time>2026-03-28T10:17:58.283Z</time></trkpt><trkpt lat="44.3444433" lon="8.3244"><ele>383.0</ele><time>2026-03-28T10:17:59.284Z</time></trkpt><trkpt lat="44.3444483" lon="8.3245265"><ele>383.0</ele><time>2026-03-28T10:18:00.288Z</time></trkpt><trkpt lat="44.3444521" lon="8.3246416"><ele>384.7142857142857</ele><time>2026-03-28T10:18:01.286Z</time></trkpt><trkpt lat="44.344456" lon="8.3247515"><ele>386.42857142857144</ele><time>2026-03-28T10:18:02.296Z</time></trkpt><trkpt lat="44.3444722" lon="8.3248504"><ele>388.1428571428571</ele><time>2026-03-28T10:18:03.285Z</time></trkpt><trkpt lat="44.3445025" lon="8.3249372"><ele>389.8571428571429</ele><time>2026-03-28T10:18:04.288Z</time></trkpt><trkpt lat="44.3445375" lon="8.325026"><ele>391.5714285714286</ele><time>2026-03-28T10:18:05.289Z</time></trkpt><trkpt lat="44.3445598" lon="8.3251238"><ele>393.2857142857143</ele><time>2026-03-28T10:18:06.288Z</time></trkpt><trkpt lat="44.344565" lon="8.3252228"><ele>395.0</ele><time>2026-03-28T10:18:07.286Z</time></trkpt><trkpt lat="44.3445548" lon="8.3253101"><ele>394.99999999999994</ele><time>2026-03-28T10:18:08.291Z</time></trkpt><trkpt lat="44.3445269" lon="8.3254036"><ele>395.0</ele><time>2026-03-28T10:18:09.289Z</time></trkpt><trkpt lat="44.3444936" lon="8.3255053"><ele>395.0</ele><time>2026-03-28T10:18:10.288Z</time></trkpt><trkpt lat="44.3444712" lon="8.3256067"><ele>395.0</ele><time>2026-03-28T10:18:11.287Z</time></trkpt><trkpt lat="44.3444577" lon="8.3257166"><ele>394.99999999999994</ele><time>2026-03-28T10:18:12.297Z</time></trkpt><trkpt lat="44.3444643" lon="8.3258265"><ele>395.0</ele><time>2026-03-28T10:18:13.295Z</time></trkpt><trkpt lat="44.3444784" lon="8.3259274"><ele>396.2857142857143</ele><time>2026-03-28T10:18:14.298Z</time></trkpt><trkpt lat="44.344492" lon="8.3260213"><ele>397.5714285714286</ele><time>2026-03-28T10:18:15.293Z</time></trkpt><trkpt lat="44.3445093" lon="8.3261115"><ele>398.8571428571429</ele><time>2026-03-28T10:18:16.295Z</time></trkpt><trkpt lat="44.3445257" lon="8.3262083"><ele>400.1428571428571</ele><time>2026-03-28T10:18:17.288Z</time></trkpt><trkpt lat="44.344541" lon="8.3263102"><ele>401.42857142857144</ele><time>2026-03-28T10:18:18.311Z</time></trkpt><trkpt lat="44.344559" lon="8.326409"><ele>402.7142857142857</ele><time>2026-03-28T10:18:19.288Z</time></trkpt><trkpt lat="44.3445743" lon="8.3265179"><ele>404.0</ele><time>2026-03-28T10:18:20.293Z</time></trkpt><trkpt lat="44.3445814" lon="8.3266133"><ele>405.42857142857144</ele><time>2026-03-28T10:18:21.296Z</time></trkpt><trkpt lat="44.3445821" lon="8.326708"><ele>406.85714285714283</ele><time>2026-03-28T10:18:22.295Z</time></trkpt><trkpt lat="44.3445809" lon="8.326807"><ele>408.28571428571433</ele><time>2026-03-28T10:18:23.298Z</time></trkpt><trkpt lat="44.344585" lon="8.3269113"><ele>409.7142857142857</ele><time>2026-03-28T10:18:24.301Z</time></trkpt><trkpt lat="44.3445996" lon="8.3270167"><ele>411.14285714285717</ele><time>2026-03-28T10:18:25.288Z</time></trkpt><trkpt lat="44.3446229" lon="8.3271222"><ele>412.5714285714286</ele><time>2026-03-28T10:18:26.295Z</time></trkpt><trkpt lat="44.3446618" lon="8.3272191"><ele>414.0</ele><time>2026-03-28T10:18:27.297Z</time></trkpt><trkpt lat="44.3447123" lon="8.327315"><ele>417.4</ele><time>2026-03-28T10:18:28.301Z</time></trkpt><trkpt lat="44.3447543" lon="8.3274071"><ele>420.79999999999995</ele><time>2026-03-28T10:18:29.296Z</time></trkpt><trkpt lat="44.344828" lon="8.3275258"><ele>424.20000000000005</ele><time>2026-03-28T10:18:31.291Z</time></trkpt><trkpt lat="44.344924" lon="8.3275581"><ele>427.6</ele><time>2026-03-28T10:18:33.295Z</time></trkpt><trkpt lat="44.3450289" lon="8.3274894"><ele>431.0</ele><time>2026-03-28T10:18:35.292Z</time></trkpt><trkpt lat="44.3450863" lon="8.3274302"><ele>430.99999999999994</ele><time>2026-03-28T10:18:36.301Z</time></trkpt><trkpt lat="44.3451412" lon="8.3273604"><ele>431.0</ele><time>2026-03-28T10:18:37.291Z</time></trkpt><trkpt lat="44.3451814" lon="8.3272908"><ele>431.0</ele><time>2026-03-28T10:18:38.297Z</time></trkpt><trkpt lat="44.3451926" lon="8.3271569"><ele>431.0</ele><time>2026-03-28T10:18:40.305Z</time></trkpt><trkpt lat="44.3451722" lon="8.3270612"><ele>430.99999999999994</ele><time>2026-03-28T10:18:41.289Z</time></trkpt><trkpt lat="44.3451588" lon="8.3269563"><ele>431.0</ele><time>2026-03-28T10:18:42.296Z</time></trkpt><trkpt lat="44.3451492" lon="8.3268375"><ele>431.3333333333333</ele><time>2026-03-28T10:18:43.291Z</time></trkpt><trkpt lat="44.3451432" lon="8.3267203"><ele>431.66666666666663</ele><time>2026-03-28T10:18:44.293Z</time></trkpt><trkpt lat="44.3451517" lon="8.326603"><ele>432.0</ele><time>2026-03-28T10:18:45.29Z</time></trkpt><trkpt lat="44.3451718" lon="8.3264948"><ele>432.33333333333337</ele><time>2026-03-28T10:18:46.301Z</time></trkpt><trkpt lat="44.3451946" lon="8.3263945"><ele>432.6666666666667</ele><time>2026-03-28T10:18:47.302Z</time></trkpt><trkpt lat="44.3452291" lon="8.3262999"><ele>433.0</ele><time>2026-03-28T10:18:48.301Z</time></trkpt><trkpt lat="44.3452754" lon="8.3262144"><ele>433.00000000000006</ele><time>2026-03-28T10:18:49.318Z</time></trkpt><trkpt lat="44.3453315" lon="8.326138"><ele>433.0</ele><time>2026-03-28T10:18:50.301Z</time></trkpt><trkpt lat="44.3453904" lon="8.3260617"><ele>433.0</ele><time>2026-03-28T10:18:51.3Z</time></trkpt><trkpt lat="44.3454453" lon="8.3259839"><ele>433.0</ele><time>2026-03-28T10:18:52.303Z</time></trkpt><trkpt lat="44.3454987" lon="8.3259071"><ele>433.00000000000006</ele><time>2026-03-28T10:18:53.302Z</time></trkpt><trkpt lat="44.3455555" lon="8.3258251"><ele>433.0</ele><time>2026-03-28T10:18:54.305Z</time></trkpt><trkpt lat="44.3456155" lon="8.3257376"><ele>433.00000000000006</ele><time>2026-03-28T10:18:55.299Z</time></trkpt><trkpt lat="44.3456687" lon="8.3256478"><ele>433.0</ele><time>2026-03-28T10:18:56.303Z</time></trkpt><trkpt lat="44.3457176" lon="8.3255762"><ele>433.0</ele><time>2026-03-28T10:18:57.298Z</time></trkpt><trkpt lat="44.3457911" lon="8.3255383"><ele>433.0</ele><time>2026-03-28T10:18:59.305Z</time></trkpt><trkpt lat="44.3458638" lon="8.3256785"><ele>433.00000000000006</ele><time>2026-03-28T10:19:01.298Z</time></trkpt><trkpt lat="44.3459034" lon="8.3257721"><ele>433.0</ele><time>2026-03-28T10:19:02.296Z</time></trkpt><trkpt lat="44.3459592" lon="8.3258578"><ele>436.6666666666667</ele><time>2026-03-28T10:19:03.297Z</time></trkpt><trkpt lat="44.3460122" lon="8.3259409"><ele>440.33333333333337</ele><time>2026-03-28T10:19:04.297Z</time></trkpt><trkpt lat="44.3460557" lon="8.3260366"><ele>444.0</ele><time>2026-03-28T10:19:05.301Z</time></trkpt><trkpt lat="44.3460848" lon="8.3261257"><ele>447.66666666666663</ele><time>2026-03-28T10:19:06.295Z</time></trkpt><trkpt lat="44.3461191" lon="8.3262019"><ele>451.3333333333333</ele><time>2026-03-28T10:19:07.31Z</time></trkpt><trkpt lat="44.3461895" lon="8.3263237"><ele>455.0</ele><time>2026-03-28T10:19:09.307Z</time></trkpt><trkpt lat="44.3462561" lon="8.3264589"><ele>456.0</ele><time>2026-03-28T10:19:11.307Z</time></trkpt><trkpt lat="44.3462987" lon="8.3265317"><ele>457.0</ele><time>2026-03-28T10:19:12.299Z</time></trkpt><trkpt lat="44.34634" lon="8.3266103"><ele>458.0</ele><time>2026-03-28T10:19:13.304Z</time></trkpt><trkpt lat="44.3463856" lon="8.326679"><ele>459.0</ele><time>2026-03-28T10:19:14.305Z</time></trkpt><trkpt lat="44.3464453" lon="8.3267404"><ele>460.0</ele><time>2026-03-28T10:19:15.312Z</time></trkpt><trkpt lat="44.346502" lon="8.326806"><ele>461.0</ele><time>2026-03-28T10:19:16.309Z</time></trkpt><trkpt lat="44.3465525" lon="8.326874"><ele>462.0</ele><time>2026-03-28T10:19:17.313Z</time></trkpt><trkpt lat="44.3466283" lon="8.3270099"><ele>465.8</ele><time>2026-03-28T10:19:19.315Z</time></trkpt><trkpt lat="44.3466581" lon="8.3270896"><ele>469.6</ele><time>2026-03-28T10:19:20.32Z</time></trkpt><trkpt lat="44.3467181" lon="8.3272487"><ele>473.40000000000003</ele><time>2026-03-28T10:19:22.31Z</time></trkpt><trkpt lat="44.3467651" lon="8.3273897"><ele>477.20000000000005</ele><time>2026-03-28T10:19:24.316Z</time></trkpt><trkpt lat="44.3467847" lon="8.3275272"><ele>481.0</ele><time>2026-03-28T10:19:26.308Z</time></trkpt><trkpt lat="44.3467992" lon="8.327662"><ele>481.0</ele><time>2026-03-28T10:19:28.312Z</time></trkpt><trkpt lat="44.3468201" lon="8.3278073"><ele>481.0</ele><time>2026-03-28T10:19:30.313Z</time></trkpt><trkpt lat="44.3468629" lon="8.3279275"><ele>481.0</ele><time>2026-03-28T10:19:32.317Z</time></trkpt><trkpt lat="44.3469305" lon="8.3280249"><ele>481.0</ele><time>2026-03-28T10:19:34.315Z</time></trkpt><trkpt lat="44.347006" lon="8.3281485"><ele>481.0</ele><time>2026-03-28T10:19:36.315Z</time></trkpt><trkpt lat="44.3470578" lon="8.328207"><ele>481.5714285714285</ele><time>2026-03-28T10:19:37.309Z</time></trkpt><trkpt lat="44.3471153" lon="8.3282558"><ele>482.1428571428571</ele><time>2026-03-28T10:19:38.316Z</time></trkpt><trkpt lat="44.3471806" lon="8.3282971"><ele>482.7142857142857</ele><time>2026-03-28T10:19:39.306Z</time></trkpt><trkpt lat="44.3472519" lon="8.328345"><ele>483.2857142857143</ele><time>2026-03-28T10:19:40.318Z</time></trkpt><trkpt lat="44.3473222" lon="8.3283992"><ele>483.8571428571429</ele><time>2026-03-28T10:19:41.308Z</time></trkpt><trkpt lat="44.3473958" lon="8.3284526"><ele>484.4285714285715</ele><time>2026-03-28T10:19:42.317Z</time></trkpt><trkpt lat="44.3474541" lon="8.3284981"><ele>485.00000000000006</ele><time>2026-03-28T10:19:43.309Z</time></trkpt><trkpt lat="44.3475746" lon="8.3284627"><ele>485.8333333333333</ele><time>2026-03-28T10:19:45.306Z</time></trkpt><trkpt lat="44.3476463" lon="8.328436"><ele>486.66666666666663</ele><time>2026-03-28T10:19:46.31Z</time></trkpt><trkpt lat="44.3477255" lon="8.3284185"><ele>487.5</ele><time>2026-03-28T10:19:47.305Z</time></trkpt><trkpt lat="44.3478045" lon="8.3284104"><ele>488.33333333333337</ele><time>2026-03-28T10:19:48.316Z</time></trkpt><trkpt lat="44.3478808" lon="8.3284017"><ele>489.1666666666667</ele><time>2026-03-28T10:19:49.31Z</time></trkpt><trkpt lat="44.3479622" lon="8.3283917"><ele>490.0</ele><time>2026-03-28T10:19:50.33Z</time></trkpt><trkpt lat="44.3480438" lon="8.3283723"><ele>491.00000000000006</ele><time>2026-03-28T10:19:51.303Z</time></trkpt><trkpt lat="44.3481143" lon="8.328342"><ele>492.0</ele><time>2026-03-28T10:19:52.324Z</time></trkpt><trkpt lat="44.3481877" lon="8.3282919"><ele>493.0</ele><time>2026-03-28T10:19:53.312Z</time></trkpt><trkpt lat="44.3482577" lon="8.3282364"><ele>494.0</ele><time>2026-03-28T10:19:54.318Z</time></trkpt><trkpt lat="44.3483336" lon="8.3281784"><ele>495.00000000000006</ele><time>2026-03-28T10:19:55.303Z</time></trkpt><trkpt lat="44.3484197" lon="8.3281472"><ele>496.0</ele><time>2026-03-28T10:19:56.312Z</time></trkpt><trkpt lat="44.3485171" lon="8.3281425"><ele>496.0</ele><time>2026-03-28T10:19:57.303Z</time></trkpt><trkpt lat="44.3486085" lon="8.3281397"><ele>496.0</ele><time>2026-03-28T10:19:58.313Z</time></trkpt><trkpt lat="44.3486919" lon="8.3281149"><ele>496.0</ele><time>2026-03-28T10:19:59.303Z</time></trkpt><trkpt lat="44.3487816" lon="8.3280674"><ele>496.0</ele><time>2026-03-28T10:20:00.321Z</time></trkpt><trkpt lat="44.3488691" lon="8.3280159"><ele>496.0</ele><time>2026-03-28T10:20:01.312Z</time></trkpt><trkpt lat="44.3489505" lon="8.3279674"><ele>495.6666666666667</ele><time>2026-03-28T10:20:02.311Z</time></trkpt><trkpt lat="44.3490228" lon="8.3279357"><ele>495.33333333333337</ele><time>2026-03-28T10:20:03.304Z</time></trkpt><trkpt lat="44.3490881" lon="8.3279337"><ele>495.0</ele><time>2026-03-28T10:20:04.316Z</time></trkpt><trkpt lat="44.3491514" lon="8.3279582"><ele>494.66666666666663</ele><time>2026-03-28T10:20:05.308Z</time></trkpt><trkpt lat="44.3492682" lon="8.3280237"><ele>494.3333333333333</ele><time>2026-03-28T10:20:07.315Z</time></trkpt><trkpt lat="44.3493298" lon="8.3280428"><ele>494.0</ele><time>2026-03-28T10:20:08.319Z</time></trkpt><trkpt lat="44.3493982" lon="8.3280605"><ele>495.2</ele><time>2026-03-28T10:20:09.311Z</time></trkpt><trkpt lat="44.3494648" lon="8.3280846"><ele>496.4</ele><time>2026-03-28T10:20:10.315Z</time></trkpt><trkpt lat="44.3495635" lon="8.3281388"><ele>497.6</ele><time>2026-03-28T10:20:12.313Z</time></trkpt><trkpt lat="44.3496004" lon="8.3282267"><ele>498.8</ele><time>2026-03-28T10:20:47.318Z</time></trkpt><trkpt lat="44.3496347" lon="8.3283919"><ele>500.0</ele><time>2026-03-28T10:20:49.306Z</time></trkpt><trkpt lat="44.3496674" lon="8.3285719"><ele>499.99999999999994</ele><time>2026-03-28T10:20:51.31Z</time></trkpt><trkpt lat="44.3496782" lon="8.3286652"><ele>500.0</ele><time>2026-03-28T10:20:52.317Z</time></trkpt><trkpt lat="44.3496943" lon="8.3287696"><ele>500.0</ele><time>2026-03-28T10:20:53.313Z</time></trkpt><trkpt lat="44.3497028" lon="8.3288756"><ele>500.0</ele><time>2026-03-28T10:20:54.308Z</time></trkpt><trkpt lat="44.3497127" lon="8.328985"><ele>499.99999999999994</ele><time>2026-03-28T10:20:55.313Z</time></trkpt><trkpt lat="44.3497256" lon="8.3290921"><ele>500.0</ele><time>2026-03-28T10:20:56.311Z</time></trkpt><trkpt lat="44.3497348" lon="8.3292136"><ele>500.3333333333333</ele><time>2026-03-28T10:20:57.317Z</time></trkpt><trkpt lat="44.3497342" lon="8.3293314"><ele>500.66666666666663</ele><time>2026-03-28T10:20:58.312Z</time></trkpt><trkpt lat="44.3497183" lon="8.3294472"><ele>501.0</ele><time>2026-03-28T10:20:59.321Z</time></trkpt><trkpt lat="44.3496776" lon="8.3295414"><ele>501.33333333333337</ele><time>2026-03-28T10:21:00.314Z</time></trkpt><trkpt lat="44.3496154" lon="8.3296151"><ele>501.6666666666667</ele><time>2026-03-28T10:21:01.318Z</time></trkpt><trkpt lat="44.3495509" lon="8.3296949"><ele>502.0</ele><time>2026-03-28T10:21:02.311Z</time></trkpt><trkpt lat="44.3494819" lon="8.3297874"><ele>503.0</ele><time>2026-03-28T10:21:03.308Z</time></trkpt><trkpt lat="44.3494152" lon="8.3299011"><ele>504.0</ele><time>2026-03-28T10:21:04.309Z</time></trkpt><trkpt lat="44.3493484" lon="8.3300341"><ele>505.0</ele><time>2026-03-28T10:21:05.313Z</time></trkpt><trkpt lat="44.3492777" lon="8.3301712"><ele>506.0</ele><time>2026-03-28T10:21:06.307Z</time></trkpt><trkpt lat="44.3492196" lon="8.3302984"><ele>506.0</ele><time>2026-03-28T10:21:07.31Z</time></trkpt><trkpt lat="44.3491592" lon="8.3304347"><ele>506.0</ele><time>2026-03-28T10:21:08.306Z</time></trkpt><trkpt lat="44.3491163" lon="8.3305698"><ele>506.0</ele><time>2026-03-28T10:21:09.308Z</time></trkpt><trkpt lat="44.3490901" lon="8.3307034"><ele>506.0</ele><time>2026-03-28T10:21:10.303Z</time></trkpt><trkpt lat="44.3490774" lon="8.3308423"><ele>506.0</ele><time>2026-03-28T10:21:11.318Z</time></trkpt><trkpt lat="44.3490806" lon="8.3309852"><ele>505.8</ele><time>2026-03-28T10:21:12.315Z</time></trkpt><trkpt lat="44.3490947" lon="8.3311412"><ele>505.6</ele><time>2026-03-28T10:21:13.319Z</time></trkpt><trkpt lat="44.3491097" lon="8.3313037"><ele>505.4</ele><time>2026-03-28T10:21:14.324Z</time></trkpt><trkpt lat="44.3491138" lon="8.3314553"><ele>505.2</ele><time>2026-03-28T10:21:15.321Z</time></trkpt><trkpt lat="44.3491114" lon="8.3316076"><ele>505.0</ele><time>2026-03-28T10:21:16.32Z</time></trkpt><trkpt lat="44.3491033" lon="8.3317564"><ele>504.50000000000006</ele><time>2026-03-28T10:21:17.323Z</time></trkpt><trkpt lat="44.3490828" lon="8.3318911"><ele>504.0</ele><time>2026-03-28T10:21:18.312Z</time></trkpt><trkpt lat="44.3490597" lon="8.332001"><ele>503.5</ele><time>2026-03-28T10:21:19.316Z</time></trkpt><trkpt lat="44.3490429" lon="8.3321102"><ele>503.0</ele><time>2026-03-28T10:21:20.305Z</time></trkpt><trkpt lat="44.3490354" lon="8.332226"><ele>502.50000000000006</ele><time>2026-03-28T10:21:21.315Z</time></trkpt><trkpt lat="44.3490481" lon="8.3323349"><ele>502.0</ele><time>2026-03-28T10:21:22.308Z</time></trkpt><trkpt lat="44.3490636" lon="8.3324588"><ele>501.6</ele><time>2026-03-28T10:21:23.337Z</time></trkpt><trkpt lat="44.3490986" lon="8.3325753"><ele>501.20000000000005</ele><time>2026-03-28T10:21:24.314Z</time></trkpt><trkpt lat="44.3491489" lon="8.3326895"><ele>500.8</ele><time>2026-03-28T10:21:25.321Z</time></trkpt><trkpt lat="44.3492112" lon="8.3328101"><ele>500.4</ele><time>2026-03-28T10:21:26.32Z</time></trkpt><trkpt lat="44.3492826" lon="8.3329275"><ele>500.0</ele><time>2026-03-28T10:21:27.324Z</time></trkpt><trkpt lat="44.349354" lon="8.3330459"><ele>500.2</ele><time>2026-03-28T10:21:28.325Z</time></trkpt><trkpt lat="44.3494206" lon="8.333161"><ele>500.4</ele><time>2026-03-28T10:21:29.327Z</time></trkpt><trkpt lat="44.349486" lon="8.3332817"><ele>500.6</ele><time>2026-03-28T10:21:30.321Z</time></trkpt><trkpt lat="44.3495448" lon="8.333406"><ele>500.8</ele><time>2026-03-28T10:21:31.325Z</time></trkpt><trkpt lat="44.3495951" lon="8.333528"><ele>501.0</ele><time>2026-03-28T10:21:32.32Z</time></trkpt><trkpt lat="44.3496285" lon="8.3336564"><ele>501.0</ele><time>2026-03-28T10:21:33.321Z</time></trkpt><trkpt lat="44.3496439" lon="8.3337924"><ele>501.0</ele><time>2026-03-28T10:21:34.308Z</time></trkpt><trkpt lat="44.3496499" lon="8.3339352"><ele>501.0</ele><time>2026-03-28T10:21:35.31Z</time></trkpt><trkpt lat="44.3496395" lon="8.3340872"><ele>501.0</ele><time>2026-03-28T10:21:36.304Z</time></trkpt><trkpt lat="44.3496215" lon="8.3342346"><ele>501.0</ele><time>2026-03-28T10:21:37.31Z</time></trkpt><trkpt lat="44.3496005" lon="8.3343742"><ele>501.0</ele><time>2026-03-28T10:21:38.306Z</time></trkpt><trkpt lat="44.3495759" lon="8.3345031"><ele>501.0</ele><time>2026-03-28T10:21:39.292Z</time></trkpt><trkpt lat="44.3495368" lon="8.3346203"><ele>501.0</ele><time>2026-03-28T10:21:40.31Z</time></trkpt><trkpt lat="44.3494808" lon="8.334738"><ele>501.0</ele><time>2026-03-28T10:21:41.302Z</time></trkpt><trkpt lat="44.3494165" lon="8.3348595"><ele>501.0</ele><time>2026-03-28T10:21:42.317Z</time></trkpt><trkpt lat="44.3493542" lon="8.3349784"><ele>501.0</ele><time>2026-03-28T10:21:43.305Z</time></trkpt><trkpt lat="44.3492834" lon="8.3351028"><ele>501.0</ele><time>2026-03-28T10:21:44.319Z</time></trkpt><trkpt lat="44.3492184" lon="8.3352254"><ele>501.0</ele><time>2026-03-28T10:21:45.305Z</time></trkpt><trkpt lat="44.3491624" lon="8.3353552"><ele>501.0</ele><time>2026-03-28T10:21:46.308Z</time></trkpt><trkpt lat="44.3491144" lon="8.3354953"><ele>501.0</ele><time>2026-03-28T10:21:47.307Z</time></trkpt><trkpt lat="44.3490772" lon="8.335647"><ele>501.4</ele><time>2026-03-28T10:21:48.317Z</time></trkpt><trkpt lat="44.3490514" lon="8.3357992"><ele>501.8</ele><time>2026-03-28T10:21:49.306Z</time></trkpt><trkpt lat="44.3490391" lon="8.3359524"><ele>502.19999999999993</ele><time>2026-03-28T10:21:50.31Z</time></trkpt><trkpt lat="44.3490316" lon="8.3360969"><ele>502.59999999999997</ele><time>2026-03-28T10:21:51.303Z</time></trkpt><trkpt lat="44.3490258" lon="8.3362461"><ele>503.0</ele><time>2026-03-28T10:21:52.308Z</time></trkpt><trkpt lat="44.3490214" lon="8.3364034"><ele>503.0</ele><time>2026-03-28T10:21:53.308Z</time></trkpt><trkpt lat="44.3490269" lon="8.3365659"><ele>502.99999999999994</ele><time>2026-03-28T10:21:54.311Z</time></trkpt><trkpt lat="44.3490237" lon="8.3367117"><ele>502.99999999999994</ele><time>2026-03-28T10:21:55.302Z</time></trkpt><trkpt lat="44.3490227" lon="8.3368539"><ele>503.0</ele><time>2026-03-28T10:21:56.312Z</time></trkpt><trkpt lat="44.349023" lon="8.3369901"><ele>503.0</ele><time>2026-03-28T10:21:57.306Z</time></trkpt><trkpt lat="44.3490154" lon="8.3371084"><ele>502.99999999999994</ele><time>2026-03-28T10:21:58.312Z</time></trkpt><trkpt lat="44.3490031" lon="8.3372121"><ele>503.0</ele><time>2026-03-28T10:21:59.303Z</time></trkpt><trkpt lat="44.3489746" lon="8.337299"><ele>503.0</ele><time>2026-03-28T10:22:00.319Z</time></trkpt><trkpt lat="44.348928" lon="8.3373674"><ele>503.0</ele><time>2026-03-28T10:22:01.306Z</time></trkpt><trkpt lat="44.348866" lon="8.3374369"><ele>502.99999999999994</ele><time>2026-03-28T10:22:02.311Z</time></trkpt><trkpt lat="44.3487949" lon="8.3375112"><ele>503.0</ele><time>2026-03-28T10:22:03.313Z</time></trkpt><trkpt lat="44.3487283" lon="8.3375863"><ele>500.4</ele><time>2026-03-28T10:22:04.311Z</time></trkpt><trkpt lat="44.3486599" lon="8.3376496"><ele>497.79999999999995</ele><time>2026-03-28T10:22:05.315Z</time></trkpt><trkpt lat="44.3485831" lon="8.3377189"><ele>495.2</ele><time>2026-03-28T10:22:06.309Z</time></trkpt><trkpt lat="44.3485098" lon="8.3377865"><ele>492.6</ele><time>2026-03-28T10:22:07.319Z</time></trkpt><trkpt lat="44.3484327" lon="8.3378668"><ele>490.0</ele><time>2026-03-28T10:22:08.302Z</time></trkpt><trkpt lat="44.3483584" lon="8.3379531"><ele>490.6</ele><time>2026-03-28T10:22:09.311Z</time></trkpt><trkpt lat="44.3482961" lon="8.3380601"><ele>491.2</ele><time>2026-03-28T10:22:10.313Z</time></trkpt><trkpt lat="44.3482368" lon="8.3381786"><ele>491.79999999999995</ele><time>2026-03-28T10:22:11.314Z</time></trkpt><trkpt lat="44.3481758" lon="8.3383045"><ele>492.4</ele><time>2026-03-28T10:22:12.315Z</time></trkpt><trkpt lat="44.3481247" lon="8.338435"><ele>493.0</ele><time>2026-03-28T10:22:13.316Z</time></trkpt><trkpt lat="44.3480862" lon="8.3385628"><ele>493.0</ele><time>2026-03-28T10:22:14.313Z</time></trkpt><trkpt lat="44.3480714" lon="8.3386956"><ele>492.99999999999994</ele><time>2026-03-28T10:22:15.321Z</time></trkpt><trkpt lat="44.3480702" lon="8.3388354"><ele>492.99999999999994</ele><time>2026-03-28T10:22:16.316Z</time></trkpt><trkpt lat="44.3480711" lon="8.3389958"><ele>493.0</ele><time>2026-03-28T10:22:17.323Z</time></trkpt><trkpt lat="44.3480678" lon="8.3391514"><ele>493.0</ele><time>2026-03-28T10:22:18.316Z</time></trkpt><trkpt lat="44.3480629" lon="8.3393051"><ele>492.4</ele><time>2026-03-28T10:22:19.321Z</time></trkpt><trkpt lat="44.3480483" lon="8.3394404"><ele>491.79999999999995</ele><time>2026-03-28T10:22:20.315Z</time></trkpt><trkpt lat="44.3480244" lon="8.3395645"><ele>491.2</ele><time>2026-03-28T10:22:21.323Z</time></trkpt><trkpt lat="44.3479919" lon="8.3396577"><ele>490.6</ele><time>2026-03-28T10:22:22.311Z</time></trkpt><trkpt lat="44.3479102" lon="8.339765"><ele>490.0</ele><time>2026-03-28T10:22:24.316Z</time></trkpt><trkpt lat="44.347804" lon="8.3398119"><ele>489.4</ele><time>2026-03-28T10:22:26.309Z</time></trkpt><trkpt lat="44.3476794" lon="8.3398176"><ele>488.8</ele><time>2026-03-28T10:22:28.316Z</time></trkpt><trkpt lat="44.3475884" lon="8.33982"><ele>488.20000000000005</ele><time>2026-03-28T10:22:30.322Z</time></trkpt><trkpt lat="44.3474824" lon="8.3397958"><ele>487.6</ele><time>2026-03-28T10:23:10.308Z</time></trkpt><trkpt lat="44.3474041" lon="8.3398128"><ele>487.0</ele><time>2026-03-28T10:23:11.312Z</time></trkpt><trkpt lat="44.3473226" lon="8.3398402"><ele>487.00000000000006</ele><time>2026-03-28T10:23:12.313Z</time></trkpt><trkpt lat="44.3472394" lon="8.3398581"><ele>487.0</ele><time>2026-03-28T10:23:13.315Z</time></trkpt><trkpt lat="44.3471585" lon="8.339863"><ele>487.0</ele><time>2026-03-28T10:23:14.318Z</time></trkpt><trkpt lat="44.3470737" lon="8.3398708"><ele>487.0</ele><time>2026-03-28T10:23:15.313Z</time></trkpt><trkpt lat="44.3469905" lon="8.3398868"><ele>487.00000000000006</ele><time>2026-03-28T10:23:16.317Z</time></trkpt><trkpt lat="44.3468976" lon="8.3399008"><ele>487.0</ele><time>2026-03-28T10:23:17.313Z</time></trkpt><trkpt lat="44.3468114" lon="8.3399181"><ele>487.33333333333337</ele><time>2026-03-28T10:23:18.314Z</time></trkpt><trkpt lat="44.3467276" lon="8.3399357"><ele>487.6666666666667</ele><time>2026-03-28T10:23:19.311Z</time></trkpt><trkpt lat="44.3466435" lon="8.3399504"><ele>488.0</ele><time>2026-03-28T10:23:20.32Z</time></trkpt><trkpt lat="44.3465526" lon="8.3399649"><ele>488.33333333333337</ele><time>2026-03-28T10:23:21.309Z</time></trkpt><trkpt lat="44.3464639" lon="8.3399913"><ele>488.6666666666667</ele><time>2026-03-28T10:23:22.318Z</time></trkpt><trkpt lat="44.3463728" lon="8.3400168"><ele>489.0</ele><time>2026-03-28T10:23:23.307Z</time></trkpt><trkpt lat="44.3462771" lon="8.3400253"><ele>491.0</ele><time>2026-03-28T10:23:24.312Z</time></trkpt><trkpt lat="44.3461831" lon="8.3400081"><ele>493.0</ele><time>2026-03-28T10:23:25.31Z</time></trkpt><trkpt lat="44.3460862" lon="8.3399665"><ele>495.0</ele><time>2026-03-28T10:23:26.315Z</time></trkpt><trkpt lat="44.3460021" lon="8.3399102"><ele>497.0</ele><time>2026-03-28T10:23:27.325Z</time></trkpt><trkpt lat="44.3459189" lon="8.3398453"><ele>499.0</ele><time>2026-03-28T10:23:28.306Z</time></trkpt><trkpt lat="44.345828" lon="8.3398009"><ele>499.00000000000006</ele><time>2026-03-28T10:23:29.305Z</time></trkpt><trkpt lat="44.3457345" lon="8.3397749"><ele>499.0</ele><time>2026-03-28T10:23:30.307Z</time></trkpt><trkpt lat="44.3456427" lon="8.3397878"><ele>499.0</ele><time>2026-03-28T10:23:31.303Z</time></trkpt><trkpt lat="44.3455524" lon="8.3397986"><ele>499.0</ele><time>2026-03-28T10:23:32.308Z</time></trkpt><trkpt lat="44.3454715" lon="8.3398016"><ele>499.00000000000006</ele><time>2026-03-28T10:23:33.301Z</time></trkpt><trkpt lat="44.3453955" lon="8.3397784"><ele>499.0</ele><time>2026-03-28T10:23:34.311Z</time></trkpt><trkpt lat="44.3453376" lon="8.3397328"><ele>499.0</ele><time>2026-03-28T10:23:35.297Z</time></trkpt><trkpt lat="44.3452873" lon="8.3396596"><ele>499.0</ele><time>2026-03-28T10:23:36.305Z</time></trkpt><trkpt lat="44.3452388" lon="8.3395522"><ele>499.0</ele><time>2026-03-28T10:23:37.301Z</time></trkpt><trkpt lat="44.345183" lon="8.3394291"><ele>499.0</ele><time>2026-03-28T10:23:38.309Z</time></trkpt><trkpt lat="44.3451263" lon="8.3393022"><ele>499.0</ele><time>2026-03-28T10:23:39.3Z</time></trkpt><trkpt lat="44.3450679" lon="8.3391966"><ele>499.00000000000006</ele><time>2026-03-28T10:23:40.3Z</time></trkpt><trkpt lat="44.3449977" lon="8.3391126"><ele>499.0</ele><time>2026-03-28T10:23:41.303Z</time></trkpt><trkpt lat="44.344918" lon="8.3390741"><ele>499.0</ele><time>2026-03-28T10:23:42.302Z</time></trkpt><trkpt lat="44.3448326" lon="8.3390839"><ele>499.0</ele><time>2026-03-28T10:23:43.308Z</time></trkpt><trkpt lat="44.3447423" lon="8.3391045"><ele>499.00000000000006</ele><time>2026-03-28T10:23:44.304Z</time></trkpt><trkpt lat="44.3446591" lon="8.3391404"><ele>499.0</ele><time>2026-03-28T10:23:45.313Z</time></trkpt><trkpt lat="44.3445813" lon="8.3391904"><ele>498.0</ele><time>2026-03-28T10:23:46.308Z</time></trkpt><trkpt lat="44.3445134" lon="8.3392312"><ele>497.0</ele><time>2026-03-28T10:23:47.314Z</time></trkpt><trkpt lat="44.3444148" lon="8.339287"><ele>496.0</ele><time>2026-03-28T10:23:49.313Z</time></trkpt><trkpt lat="44.3443682" lon="8.3393765"><ele>495.0</ele><time>2026-03-28T10:23:58.316Z</time></trkpt><trkpt lat="44.3443751" lon="8.3395198"><ele>494.0</ele><time>2026-03-28T10:24:00.314Z</time></trkpt><trkpt lat="44.3443474" lon="8.3396724"><ele>492.79999999999995</ele><time>2026-03-28T10:24:02.301Z</time></trkpt><trkpt lat="44.3443152" lon="8.3398307"><ele>491.59999999999997</ele><time>2026-03-28T10:24:04.308Z</time></trkpt><trkpt lat="44.3442992" lon="8.3399788"><ele>490.4</ele><time>2026-03-28T10:24:06.307Z</time></trkpt><trkpt lat="44.3442971" lon="8.3401448"><ele>489.2</ele><time>2026-03-28T10:24:08.309Z</time></trkpt><trkpt lat="44.3442807" lon="8.3402492"><ele>488.0</ele><time>2026-03-28T10:24:09.309Z</time></trkpt><trkpt lat="44.3442536" lon="8.3403598"><ele>487.99999999999994</ele><time>2026-03-28T10:24:10.309Z</time></trkpt><trkpt lat="44.3442263" lon="8.3404822"><ele>488.0</ele><time>2026-03-28T10:24:11.303Z</time></trkpt><trkpt lat="44.3441947" lon="8.3406006"><ele>488.0</ele><time>2026-03-28T10:24:12.31Z</time></trkpt><trkpt lat="44.344165" lon="8.3407114"><ele>488.0</ele><time>2026-03-28T10:24:13.304Z</time></trkpt><trkpt lat="44.3441332" lon="8.3408212"><ele>487.99999999999994</ele><time>2026-03-28T10:24:14.307Z</time></trkpt><trkpt lat="44.3441025" lon="8.3409268"><ele>488.0</ele><time>2026-03-28T10:24:15.305Z</time></trkpt><trkpt lat="44.3440752" lon="8.3410179"><ele>487.99999999999994</ele><time>2026-03-28T10:24:16.309Z</time></trkpt><trkpt lat="44.3440424" lon="8.3411095"><ele>488.0</ele><time>2026-03-28T10:24:17.3Z</time></trkpt><trkpt lat="44.3440106" lon="8.341201"><ele>487.99999999999994</ele><time>2026-03-28T10:24:18.308Z</time></trkpt><trkpt lat="44.3439873" lon="8.3412943"><ele>487.99999999999994</ele><time>2026-03-28T10:24:19.304Z</time></trkpt><trkpt lat="44.3439729" lon="8.3413936"><ele>488.0</ele><time>2026-03-28T10:24:20.314Z</time></trkpt><trkpt lat="44.3439713" lon="8.3414987"><ele>487.99999999999994</ele><time>2026-03-28T10:24:21.302Z</time></trkpt><trkpt lat="44.3439798" lon="8.3415905"><ele>487.99999999999994</ele><time>2026-03-28T10:24:22.314Z</time></trkpt><trkpt lat="44.3440181" lon="8.341754"><ele>488.16666666666663</ele><time>2026-03-28T10:24:24.31Z</time></trkpt><trkpt lat="44.3440478" lon="8.3419151"><ele>488.3333333333333</ele><time>2026-03-28T10:24:26.31Z</time></trkpt><trkpt lat="44.3440385" lon="8.3420243"><ele>488.5</ele><time>2026-03-28T10:24:27.312Z</time></trkpt><trkpt lat="44.3440227" lon="8.3421409"><ele>488.66666666666663</ele><time>2026-03-28T10:24:28.327Z</time></trkpt><trkpt lat="44.3440007" lon="8.3422422"><ele>488.8333333333333</ele><time>2026-03-28T10:24:29.312Z</time></trkpt><trkpt lat="44.3439808" lon="8.3423297"><ele>489.0</ele><time>2026-03-28T10:24:30.313Z</time></trkpt><trkpt lat="44.3439576" lon="8.3424966"><ele>488.3333333333333</ele><time>2026-03-28T10:24:32.315Z</time></trkpt><trkpt lat="44.3439202" lon="8.3426245"><ele>487.66666666666663</ele><time>2026-03-28T10:24:34.316Z</time></trkpt><trkpt lat="44.3438494" lon="8.3426548"><ele>487.0</ele><time>2026-03-28T10:24:36.321Z</time></trkpt><trkpt lat="44.3437936" lon="8.3426117"><ele>486.3333333333333</ele><time>2026-03-28T10:24:37.306Z</time></trkpt><trkpt lat="44.3437325" lon="8.3425367"><ele>485.66666666666663</ele><time>2026-03-28T10:24:38.303Z</time></trkpt><trkpt lat="44.3436832" lon="8.342452"><ele>485.0</ele><time>2026-03-28T10:24:39.301Z</time></trkpt><trkpt lat="44.3436563" lon="8.3423701"><ele>483.3333333333333</ele><time>2026-03-28T10:24:40.302Z</time></trkpt><trkpt lat="44.3436324" lon="8.3422843"><ele>481.66666666666663</ele><time>2026-03-28T10:24:41.299Z</time></trkpt><trkpt lat="44.3436232" lon="8.3421681"><ele>480.0</ele><time>2026-03-28T10:24:42.3Z</time></trkpt><trkpt lat="44.3436082" lon="8.3420502"><ele>478.33333333333337</ele><time>2026-03-28T10:24:43.287Z</time></trkpt><trkpt lat="44.3435823" lon="8.3419522"><ele>476.6666666666667</ele><time>2026-03-28T10:24:44.295Z</time></trkpt><trkpt lat="44.3435028" lon="8.3418149"><ele>475.0</ele><time>2026-03-28T10:24:46.298Z</time></trkpt><trkpt lat="44.3434235" lon="8.3417445"><ele>475.0</ele><time>2026-03-28T10:24:48.291Z</time></trkpt><trkpt lat="44.3433138" lon="8.3417914"><ele>475.0</ele><time>2026-03-28T10:24:50.298Z</time></trkpt><trkpt lat="44.3432131" lon="8.3418808"><ele>475.0</ele><time>2026-03-28T10:24:52.298Z</time></trkpt><trkpt lat="44.3431174" lon="8.3419285"><ele>475.0</ele><time>2026-03-28T10:24:54.296Z</time></trkpt><trkpt lat="44.3431065" lon="8.3418369"><ele>475.0</ele><time>2026-03-28T10:24:57.289Z</time></trkpt><trkpt lat="44.3431377" lon="8.3416928"><ele>475.00000000000006</ele><time>2026-03-28T10:24:59.308Z</time></trkpt><trkpt lat="44.3431523" lon="8.3416004"><ele>475.0</ele><time>2026-03-28T10:25:00.297Z</time></trkpt><trkpt lat="44.3431687" lon="8.3415037"><ele>475.0</ele><time>2026-03-28T10:25:01.301Z</time></trkpt><trkpt lat="44.3431847" lon="8.3413891"><ele>475.0</ele><time>2026-03-28T10:25:02.299Z</time></trkpt><trkpt lat="44.3432002" lon="8.3412732"><ele>475.00000000000006</ele><time>2026-03-28T10:25:03.297Z</time></trkpt><trkpt lat="44.3432186" lon="8.3411557"><ele>475.0</ele><time>2026-03-28T10:25:04.291Z</time></trkpt><trkpt lat="44.343235" lon="8.3410437"><ele>475.33333333333337</ele><time>2026-03-28T10:25:05.298Z</time></trkpt><trkpt lat="44.3432472" lon="8.3409329"><ele>475.6666666666667</ele><time>2026-03-28T10:25:06.291Z</time></trkpt><trkpt lat="44.3432559" lon="8.3408256"><ele>476.0</ele><time>2026-03-28T10:25:07.297Z</time></trkpt><trkpt lat="44.3432652" lon="8.3407316"><ele>476.33333333333337</ele><time>2026-03-28T10:25:08.285Z</time></trkpt><trkpt lat="44.3432824" lon="8.3406445"><ele>476.6666666666667</ele><time>2026-03-28T10:25:09.294Z</time></trkpt><trkpt lat="44.3433305" lon="8.3405174"><ele>477.0</ele><time>2026-03-28T10:25:11.283Z</time></trkpt><trkpt lat="44.3433516" lon="8.3404145"><ele>477.0</ele><time>2026-03-28T10:25:13.296Z</time></trkpt><trkpt lat="44.3432809" lon="8.3403641"><ele>477.00000000000006</ele><time>2026-03-28T10:25:16.287Z</time></trkpt><trkpt lat="44.3432026" lon="8.3404637"><ele>477.00000000000006</ele><time>2026-03-28T10:25:18.285Z</time></trkpt><trkpt lat="44.3431266" lon="8.3406127"><ele>477.0</ele><time>2026-03-28T10:25:20.289Z</time></trkpt><trkpt lat="44.343089" lon="8.3406996"><ele>477.0</ele><time>2026-03-28T10:25:21.287Z</time></trkpt><trkpt lat="44.343051" lon="8.3407896"><ele>477.0</ele><time>2026-03-28T10:25:22.293Z</time></trkpt><trkpt lat="44.3430173" lon="8.3408874"><ele>477.0</ele><time>2026-03-28T10:25:23.291Z</time></trkpt><trkpt lat="44.3429788" lon="8.3409983"><ele>477.0</ele><time>2026-03-28T10:25:24.294Z</time></trkpt><trkpt lat="44.3429457" lon="8.3411187"><ele>477.0</ele><time>2026-03-28T10:25:25.294Z</time></trkpt><trkpt lat="44.3429127" lon="8.3412285"><ele>477.0</ele><time>2026-03-28T10:25:26.299Z</time></trkpt><trkpt lat="44.3428758" lon="8.3413307"><ele>477.0</ele><time>2026-03-28T10:25:27.289Z</time></trkpt><trkpt lat="44.3428327" lon="8.3414323"><ele>475.0</ele><time>2026-03-28T10:25:28.297Z</time></trkpt><trkpt lat="44.3427898" lon="8.3415431"><ele>473.00000000000006</ele><time>2026-03-28T10:25:29.288Z</time></trkpt><trkpt lat="44.3427505" lon="8.341671"><ele>471.00000000000006</ele><time>2026-03-28T10:25:30.308Z</time></trkpt><trkpt lat="44.342707" lon="8.3417951"><ele>469.0</ele><time>2026-03-28T10:25:31.284Z</time></trkpt><trkpt lat="44.3426737" lon="8.3419111"><ele>467.0</ele><time>2026-03-28T10:25:32.289Z</time></trkpt><trkpt lat="44.3426368" lon="8.3420241"><ele>466.99999999999994</ele><time>2026-03-28T10:25:33.283Z</time></trkpt><trkpt lat="44.3425946" lon="8.3421252"><ele>467.0</ele><time>2026-03-28T10:25:34.293Z</time></trkpt><trkpt lat="44.3425587" lon="8.3422213"><ele>467.0</ele><time>2026-03-28T10:25:35.288Z</time></trkpt><trkpt lat="44.3425253" lon="8.3423113"><ele>467.0</ele><time>2026-03-28T10:25:36.296Z</time></trkpt><trkpt lat="44.342483" lon="8.3424031"><ele>466.99999999999994</ele><time>2026-03-28T10:25:37.28Z</time></trkpt><trkpt lat="44.3424565" lon="8.3424896"><ele>467.0</ele><time>2026-03-28T10:25:38.293Z</time></trkpt><trkpt lat="44.342439" lon="8.3425856"><ele>466.3333333333333</ele><time>2026-03-28T10:25:39.292Z</time></trkpt><trkpt lat="44.3424341" lon="8.3426939"><ele>465.66666666666663</ele><time>2026-03-28T10:25:40.29Z</time></trkpt><trkpt lat="44.3424493" lon="8.3428023"><ele>465.0</ele><time>2026-03-28T10:25:41.286Z</time></trkpt><trkpt lat="44.342471" lon="8.3429142"><ele>464.33333333333337</ele><time>2026-03-28T10:25:42.289Z</time></trkpt><trkpt lat="44.3424884" lon="8.3430269"><ele>463.6666666666667</ele><time>2026-03-28T10:25:43.286Z</time></trkpt><trkpt lat="44.3425057" lon="8.343141"><ele>463.0</ele><time>2026-03-28T10:25:44.289Z</time></trkpt><trkpt lat="44.3425297" lon="8.3432455"><ele>461.50000000000006</ele><time>2026-03-28T10:25:45.291Z</time></trkpt><trkpt lat="44.3425402" lon="8.3433501"><ele>460.0</ele><time>2026-03-28T10:25:46.29Z</time></trkpt><trkpt lat="44.3425372" lon="8.3434499"><ele>458.5</ele><time>2026-03-28T10:25:47.295Z</time></trkpt><trkpt lat="44.3425365" lon="8.3435621"><ele>457.0</ele><time>2026-03-28T10:25:48.29Z</time></trkpt><trkpt lat="44.3425308" lon="8.3436846"><ele>455.50000000000006</ele><time>2026-03-28T10:25:49.299Z</time></trkpt><trkpt lat="44.3425303" lon="8.3438169"><ele>454.0</ele><time>2026-03-28T10:25:50.291Z</time></trkpt><trkpt lat="44.3425233" lon="8.3439434"><ele>452.83333333333337</ele><time>2026-03-28T10:25:51.299Z</time></trkpt><trkpt lat="44.3425235" lon="8.3440557"><ele>451.6666666666667</ele><time>2026-03-28T10:25:52.285Z</time></trkpt><trkpt lat="44.3425095" lon="8.3441631"><ele>450.5</ele><time>2026-03-28T10:25:53.294Z</time></trkpt><trkpt lat="44.3424911" lon="8.3442599"><ele>449.33333333333337</ele><time>2026-03-28T10:25:54.291Z</time></trkpt><trkpt lat="44.3424716" lon="8.3443501"><ele>448.1666666666667</ele><time>2026-03-28T10:25:55.295Z</time></trkpt><trkpt lat="44.3424496" lon="8.3444357"><ele>447.0</ele><time>2026-03-28T10:25:56.292Z</time></trkpt><trkpt lat="44.3424077" lon="8.3445731"><ele>446.0</ele><time>2026-03-28T10:25:58.291Z</time></trkpt><trkpt lat="44.3423946" lon="8.3447239"><ele>445.00000000000006</ele><time>2026-03-28T10:26:00.288Z</time></trkpt><trkpt lat="44.3423912" lon="8.3448648"><ele>444.00000000000006</ele><time>2026-03-28T10:26:02.29Z</time></trkpt><trkpt lat="44.3423941" lon="8.3449978"><ele>443.0</ele><time>2026-03-28T10:26:04.293Z</time></trkpt><trkpt lat="44.3423849" lon="8.3451094"><ele>442.0</ele><time>2026-03-28T10:26:06.295Z</time></trkpt><trkpt lat="44.3423403" lon="8.3452053"><ele>442.0</ele><time>2026-03-28T10:26:08.289Z</time></trkpt><trkpt lat="44.3422737" lon="8.3452963"><ele>442.00000000000006</ele><time>2026-03-28T10:26:10.287Z</time></trkpt><trkpt lat="44.342176" lon="8.345412"><ele>442.00000000000006</ele><time>2026-03-28T10:26:12.293Z</time></trkpt><trkpt lat="44.3421148" lon="8.3454941"><ele>442.0</ele><time>2026-03-28T10:26:13.293Z</time></trkpt><trkpt lat="44.3420526" lon="8.3455751"><ele>442.0</ele><time>2026-03-28T10:26:14.292Z</time></trkpt><trkpt lat="44.3419844" lon="8.3456444"><ele>439.33333333333337</ele><time>2026-03-28T10:26:15.298Z</time></trkpt><trkpt lat="44.3419173" lon="8.3457163"><ele>436.6666666666667</ele><time>2026-03-28T10:26:16.287Z</time></trkpt><trkpt lat="44.3418455" lon="8.34579"><ele>434.0</ele><time>2026-03-28T10:26:17.301Z</time></trkpt><trkpt lat="44.3417854" lon="8.3458712"><ele>431.33333333333337</ele><time>2026-03-28T10:26:18.289Z</time></trkpt><trkpt lat="44.3417301" lon="8.3459537"><ele>428.6666666666667</ele><time>2026-03-28T10:26:19.3Z</time></trkpt><trkpt lat="44.3416866" lon="8.3460416"><ele>426.0</ele><time>2026-03-28T10:26:20.292Z</time></trkpt><trkpt lat="44.3416268" lon="8.3461736"><ele>425.99999999999994</ele><time>2026-03-28T10:26:22.292Z</time></trkpt><trkpt lat="44.3415647" lon="8.3461975"><ele>426.0</ele><time>2026-03-28T10:26:39.295Z</time></trkpt><trkpt lat="44.3414994" lon="8.3461885"><ele>426.0</ele><time>2026-03-28T10:26:40.29Z</time></trkpt><trkpt lat="44.3414281" lon="8.3461804"><ele>426.0</ele><time>2026-03-28T10:26:41.296Z</time></trkpt><trkpt lat="44.3413513" lon="8.3461751"><ele>426.0</ele><time>2026-03-28T10:26:42.293Z</time></trkpt><trkpt lat="44.3412731" lon="8.3461682"><ele>425.99999999999994</ele><time>2026-03-28T10:26:43.305Z</time></trkpt><trkpt lat="44.3411822" lon="8.3461668"><ele>426.0</ele><time>2026-03-28T10:26:44.297Z</time></trkpt><trkpt lat="44.3410961" lon="8.346163"><ele>426.6</ele><time>2026-03-28T10:26:45.299Z</time></trkpt><trkpt lat="44.3410133" lon="8.3461514"><ele>427.20000000000005</ele><time>2026-03-28T10:26:46.296Z</time></trkpt><trkpt lat="44.3409249" lon="8.3461383"><ele>427.79999999999995</ele><time>2026-03-28T10:26:47.3Z</time></trkpt><trkpt lat="44.3408201" lon="8.3461256"><ele>428.4</ele><time>2026-03-28T10:26:48.291Z</time></trkpt><trkpt lat="44.3407105" lon="8.346112"><ele>429.0</ele><time>2026-03-28T10:26:49.298Z</time></trkpt><trkpt lat="44.3406006" lon="8.3460951"><ele>428.6</ele><time>2026-03-28T10:26:50.296Z</time></trkpt><trkpt lat="44.3404954" lon="8.3460813"><ele>428.2</ele><time>2026-03-28T10:26:51.298Z</time></trkpt><trkpt lat="44.3403914" lon="8.3460684"><ele>427.80000000000007</ele><time>2026-03-28T10:26:52.293Z</time></trkpt><trkpt lat="44.3402848" lon="8.346059"><ele>427.40000000000003</ele><time>2026-03-28T10:26:53.299Z</time></trkpt><trkpt lat="44.3401835" lon="8.3460513"><ele>427.0</ele><time>2026-03-28T10:26:54.292Z</time></trkpt><trkpt lat="44.3400884" lon="8.34604"><ele>427.0</ele><time>2026-03-28T10:26:55.297Z</time></trkpt><trkpt lat="44.3399923" lon="8.3460262"><ele>427.00000000000006</ele><time>2026-03-28T10:26:56.293Z</time></trkpt><trkpt lat="44.3399" lon="8.346022"><ele>427.00000000000006</ele><time>2026-03-28T10:26:57.295Z</time></trkpt><trkpt lat="44.3398055" lon="8.3460183"><ele>427.0</ele><time>2026-03-28T10:26:58.29Z</time></trkpt><trkpt lat="44.3397087" lon="8.3460092"><ele>427.0</ele><time>2026-03-28T10:26:59.29Z</time></trkpt><trkpt lat="44.3396024" lon="8.3459838"><ele>425.20000000000005</ele><time>2026-03-28T10:27:00.287Z</time></trkpt><trkpt lat="44.3395026" lon="8.3459409"><ele>423.40000000000003</ele><time>2026-03-28T10:27:01.289Z</time></trkpt><trkpt lat="44.3394054" lon="8.3458766"><ele>421.6</ele><time>2026-03-28T10:27:02.289Z</time></trkpt><trkpt lat="44.339317" lon="8.3457904"><ele>419.79999999999995</ele><time>2026-03-28T10:27:03.297Z</time></trkpt><trkpt lat="44.339234" lon="8.3456916"><ele>418.0</ele><time>2026-03-28T10:27:04.291Z</time></trkpt><trkpt lat="44.339149" lon="8.3455758"><ele>418.75</ele><time>2026-03-28T10:27:05.293Z</time></trkpt><trkpt lat="44.3390742" lon="8.3454399"><ele>419.5</ele><time>2026-03-28T10:27:06.299Z</time></trkpt><trkpt lat="44.3390081" lon="8.3452955"><ele>420.25</ele><time>2026-03-28T10:27:07.295Z</time></trkpt><trkpt lat="44.3389369" lon="8.3451451"><ele>421.0</ele><time>2026-03-28T10:27:08.295Z</time></trkpt><trkpt lat="44.3388691" lon="8.3450028"><ele>421.0</ele><time>2026-03-28T10:27:09.298Z</time></trkpt><trkpt lat="44.3388078" lon="8.344865"><ele>421.0</ele><time>2026-03-28T10:27:10.297Z</time></trkpt><trkpt lat="44.3387522" lon="8.3447303"><ele>421.0</ele><time>2026-03-28T10:27:11.296Z</time></trkpt><trkpt lat="44.3386951" lon="8.3446036"><ele>421.0</ele><time>2026-03-28T10:27:12.299Z</time></trkpt><trkpt lat="44.3386389" lon="8.3444751"><ele>421.0</ele><time>2026-03-28T10:27:13.301Z</time></trkpt><trkpt lat="44.3385817" lon="8.3443501"><ele>419.8</ele><time>2026-03-28T10:27:14.299Z</time></trkpt><trkpt lat="44.3385227" lon="8.3442217"><ele>418.6</ele><time>2026-03-28T10:27:15.305Z</time></trkpt><trkpt lat="44.3384658" lon="8.3440931"><ele>417.4</ele><time>2026-03-28T10:27:16.298Z</time></trkpt><trkpt lat="44.3384065" lon="8.3439687"><ele>416.2</ele><time>2026-03-28T10:27:17.304Z</time></trkpt><trkpt lat="44.3383507" lon="8.343845"><ele>415.0</ele><time>2026-03-28T10:27:18.296Z</time></trkpt><trkpt lat="44.3382992" lon="8.3437248"><ele>415.0</ele><time>2026-03-28T10:27:19.302Z</time></trkpt><trkpt lat="44.3382447" lon="8.3436004"><ele>415.0</ele><time>2026-03-28T10:27:20.297Z</time></trkpt><trkpt lat="44.3381932" lon="8.3434695"><ele>415.0</ele><time>2026-03-28T10:27:21.303Z</time></trkpt><trkpt lat="44.3381427" lon="8.3433269"><ele>415.0</ele><time>2026-03-28T10:27:22.299Z</time></trkpt><trkpt lat="44.3380895" lon="8.3431859"><ele>415.0</ele><time>2026-03-28T10:27:23.3Z</time></trkpt><trkpt lat="44.3380405" lon="8.3430381"><ele>414.8</ele><time>2026-03-28T10:27:24.292Z</time></trkpt><trkpt lat="44.337991" lon="8.3428952"><ele>414.6</ele><time>2026-03-28T10:27:25.295Z</time></trkpt><trkpt lat="44.3379377" lon="8.3427616"><ele>414.4</ele><time>2026-03-28T10:27:26.295Z</time></trkpt><trkpt lat="44.3378776" lon="8.3426468"><ele>414.2</ele><time>2026-03-28T10:27:27.297Z</time></trkpt><trkpt lat="44.3378081" lon="8.3425573"><ele>414.0</ele><time>2026-03-28T10:27:28.295Z</time></trkpt><trkpt lat="44.337734" lon="8.3424705"><ele>414.0</ele><time>2026-03-28T10:27:29.303Z</time></trkpt><trkpt lat="44.3376539" lon="8.342382"><ele>414.0</ele><time>2026-03-28T10:27:30.291Z</time></trkpt><trkpt lat="44.3375631" lon="8.3422923"><ele>414.0</ele><time>2026-03-28T10:27:31.297Z</time></trkpt><trkpt lat="44.3374677" lon="8.3422108"><ele>414.0</ele><time>2026-03-28T10:27:32.293Z</time></trkpt><trkpt lat="44.3373697" lon="8.3421394"><ele>414.0</ele><time>2026-03-28T10:27:33.301Z</time></trkpt><trkpt lat="44.3372737" lon="8.3420719"><ele>412.6</ele><time>2026-03-28T10:27:34.307Z</time></trkpt><trkpt lat="44.3371883" lon="8.3419817"><ele>411.2</ele><time>2026-03-28T10:27:35.292Z</time></trkpt><trkpt lat="44.3371094" lon="8.3418674"><ele>409.8</ele><time>2026-03-28T10:27:36.297Z</time></trkpt><trkpt lat="44.3370422" lon="8.3417489"><ele>408.40000000000003</ele><time>2026-03-28T10:27:37.293Z</time></trkpt><trkpt lat="44.3369964" lon="8.3416285"><ele>407.0</ele><time>2026-03-28T10:27:38.3Z</time></trkpt><trkpt lat="44.3369681" lon="8.3415161"><ele>407.00000000000006</ele><time>2026-03-28T10:27:39.297Z</time></trkpt><trkpt lat="44.3369501" lon="8.3414092"><ele>407.0</ele><time>2026-03-28T10:27:40.294Z</time></trkpt><trkpt lat="44.3369251" lon="8.3413216"><ele>407.0</ele><time>2026-03-28T10:27:41.289Z</time></trkpt><trkpt lat="44.3368332" lon="8.3412536"><ele>407.0</ele><time>2026-03-28T10:27:43.294Z</time></trkpt><trkpt lat="44.3367668" lon="8.3412863"><ele>407.0</ele><time>2026-03-28T10:27:44.304Z</time></trkpt><trkpt lat="44.3367082" lon="8.3413193"><ele>407.00000000000006</ele><time>2026-03-28T10:27:45.297Z</time></trkpt><trkpt lat="44.3366472" lon="8.341353"><ele>407.0</ele><time>2026-03-28T10:27:46.3Z</time></trkpt><trkpt lat="44.3365231" lon="8.3413743"><ele>407.14285714285717</ele><time>2026-03-28T10:27:48.293Z</time></trkpt><trkpt lat="44.3364535" lon="8.3413532"><ele>407.2857142857143</ele><time>2026-03-28T10:27:49.292Z</time></trkpt><trkpt lat="44.336386" lon="8.3413092"><ele>407.42857142857144</ele><time>2026-03-28T10:27:50.296Z</time></trkpt><trkpt lat="44.33632" lon="8.3412633"><ele>407.57142857142856</ele><time>2026-03-28T10:27:51.289Z</time></trkpt><trkpt lat="44.3362486" lon="8.3412531"><ele>407.7142857142857</ele><time>2026-03-28T10:27:52.297Z</time></trkpt><trkpt lat="44.3361767" lon="8.3412474"><ele>407.8571428571429</ele><time>2026-03-28T10:27:53.292Z</time></trkpt><trkpt lat="44.3361073" lon="8.341219"><ele>408.0</ele><time>2026-03-28T10:27:54.29Z</time></trkpt><trkpt lat="44.3360371" lon="8.3411891"><ele>408.1666666666667</ele><time>2026-03-28T10:27:55.287Z</time></trkpt><trkpt lat="44.3359711" lon="8.341164"><ele>408.33333333333337</ele><time>2026-03-28T10:27:56.297Z</time></trkpt><trkpt lat="44.3359146" lon="8.3411232"><ele>408.5</ele><time>2026-03-28T10:27:57.291Z</time></trkpt><trkpt lat="44.3358584" lon="8.3410694"><ele>408.6666666666667</ele><time>2026-03-28T10:27:58.301Z</time></trkpt><trkpt lat="44.3358148" lon="8.340998"><ele>408.83333333333337</ele><time>2026-03-28T10:27:59.292Z</time></trkpt><trkpt lat="44.3357599" lon="8.3408642"><ele>409.0</ele><time>2026-03-28T10:28:01.292Z</time></trkpt><trkpt lat="44.3357364" lon="8.3407422"><ele>409.0</ele><time>2026-03-28T10:28:03.296Z</time></trkpt><trkpt lat="44.335714" lon="8.3406454"><ele>409.0</ele><time>2026-03-28T10:28:07.305Z</time></trkpt><trkpt lat="44.3356259" lon="8.3407338"><ele>409.0</ele><time>2026-03-28T10:28:13.292Z</time></trkpt><trkpt lat="44.3356006" lon="8.3408482"><ele>409.0</ele><time>2026-03-28T10:28:14.289Z</time></trkpt><trkpt lat="44.3355705" lon="8.3409873"><ele>409.0</ele><time>2026-03-28T10:28:15.287Z</time></trkpt><trkpt lat="44.3355448" lon="8.3411241"><ele>411.0</ele><time>2026-03-28T10:28:16.297Z</time></trkpt><trkpt lat="44.3355082" lon="8.3412517"><ele>413.0</ele><time>2026-03-28T10:28:17.294Z</time></trkpt><trkpt lat="44.3354708" lon="8.3413912"><ele>415.0</ele><time>2026-03-28T10:28:18.303Z</time></trkpt><trkpt lat="44.3354334" lon="8.3415311"><ele>417.0</ele><time>2026-03-28T10:28:19.292Z</time></trkpt><trkpt lat="44.3354037" lon="8.3416625"><ele>419.0</ele><time>2026-03-28T10:28:20.298Z</time></trkpt><trkpt lat="44.3353834" lon="8.341777"><ele>419.0</ele><time>2026-03-28T10:28:21.291Z</time></trkpt><trkpt lat="44.3353485" lon="8.341896"><ele>419.0</ele><time>2026-03-28T10:28:22.302Z</time></trkpt><trkpt lat="44.3353203" lon="8.3420162"><ele>419.0</ele><time>2026-03-28T10:28:23.291Z</time></trkpt><trkpt lat="44.3352944" lon="8.3421403"><ele>419.0</ele><time>2026-03-28T10:28:24.301Z</time></trkpt><trkpt lat="44.3352641" lon="8.3422682"><ele>419.0</ele><time>2026-03-28T10:28:25.297Z</time></trkpt><trkpt lat="44.3352263" lon="8.3423954"><ele>418.25</ele><time>2026-03-28T10:28:26.301Z</time></trkpt><trkpt lat="44.335191" lon="8.3425282"><ele>417.5</ele><time>2026-03-28T10:28:27.292Z</time></trkpt><trkpt lat="44.3351606" lon="8.3426705"><ele>416.75</ele><time>2026-03-28T10:28:28.302Z</time></trkpt><trkpt lat="44.3351199" lon="8.3428243"><ele>416.0</ele><time>2026-03-28T10:28:29.293Z</time></trkpt><trkpt lat="44.335074" lon="8.3429883"><ele>415.5</ele><time>2026-03-28T10:28:30.303Z</time></trkpt><trkpt lat="44.3350311" lon="8.3431507"><ele>415.0</ele><time>2026-03-28T10:28:31.293Z</time></trkpt><trkpt lat="44.3349853" lon="8.3433086"><ele>414.5</ele><time>2026-03-28T10:28:32.292Z</time></trkpt><trkpt lat="44.3349309" lon="8.3434581"><ele>414.0</ele><time>2026-03-28T10:28:33.288Z</time></trkpt><trkpt lat="44.3348728" lon="8.3435994"><ele>414.0</ele><time>2026-03-28T10:28:34.292Z</time></trkpt><trkpt lat="44.3348151" lon="8.3437135"><ele>414.0</ele><time>2026-03-28T10:28:35.299Z</time></trkpt><trkpt lat="44.3347479" lon="8.3438006"><ele>414.0</ele><time>2026-03-28T10:28:36.294Z</time></trkpt><trkpt lat="44.3346748" lon="8.3438862"><ele>414.0</ele><time>2026-03-28T10:28:37.292Z</time></trkpt><trkpt lat="44.3346082" lon="8.3439792"><ele>414.0</ele><time>2026-03-28T10:28:38.297Z</time></trkpt><trkpt lat="44.3345417" lon="8.3440687"><ele>414.6</ele><time>2026-03-28T10:28:39.296Z</time></trkpt><trkpt lat="44.334483" lon="8.3441601"><ele>415.2</ele><time>2026-03-28T10:28:40.29Z</time></trkpt><trkpt lat="44.3344016" lon="8.3442526"><ele>415.8</ele><time>2026-03-28T10:28:41.303Z</time></trkpt><trkpt lat="44.3343254" lon="8.3443433"><ele>416.40000000000003</ele><time>2026-03-28T10:28:42.291Z</time></trkpt><trkpt lat="44.3342451" lon="8.3444419"><ele>417.0</ele><time>2026-03-28T10:28:43.295Z</time></trkpt><trkpt lat="44.3341624" lon="8.3445435"><ele>417.0</ele><time>2026-03-28T10:28:44.29Z</time></trkpt><trkpt lat="44.3340815" lon="8.3446493"><ele>417.0</ele><time>2026-03-28T10:28:45.299Z</time></trkpt><trkpt lat="44.334008" lon="8.3447536"><ele>417.0</ele><time>2026-03-28T10:28:46.29Z</time></trkpt><trkpt lat="44.3339327" lon="8.3448603"><ele>417.0</ele><time>2026-03-28T10:28:47.295Z</time></trkpt><trkpt lat="44.333866" lon="8.3449563"><ele>417.0</ele><time>2026-03-28T10:28:48.291Z</time></trkpt><trkpt lat="44.3338002" lon="8.3450561"><ele>417.6</ele><time>2026-03-28T10:28:49.294Z</time></trkpt><trkpt lat="44.333729" lon="8.3451595"><ele>418.20000000000005</ele><time>2026-03-28T10:28:50.284Z</time></trkpt><trkpt lat="44.3336576" lon="8.3452628"><ele>418.8</ele><time>2026-03-28T10:28:51.297Z</time></trkpt><trkpt lat="44.3335794" lon="8.3453564"><ele>419.4</ele><time>2026-03-28T10:28:52.287Z</time></trkpt><trkpt lat="44.3334926" lon="8.3454606"><ele>420.0</ele><time>2026-03-28T10:28:53.293Z</time></trkpt><trkpt lat="44.3334155" lon="8.345578"><ele>420.0</ele><time>2026-03-28T10:28:54.289Z</time></trkpt><trkpt lat="44.3333304" lon="8.3457066"><ele>420.0</ele><time>2026-03-28T10:28:55.302Z</time></trkpt><trkpt lat="44.3332484" lon="8.3458366"><ele>420.0</ele><time>2026-03-28T10:28:56.29Z</time></trkpt><trkpt lat="44.3331716" lon="8.3459723"><ele>420.0</ele><time>2026-03-28T10:28:57.301Z</time></trkpt><trkpt lat="44.3330927" lon="8.3460927"><ele>421.4</ele><time>2026-03-28T10:28:58.295Z</time></trkpt><trkpt lat="44.3330197" lon="8.3462131"><ele>422.8</ele><time>2026-03-28T10:28:59.302Z</time></trkpt><trkpt lat="44.3329504" lon="8.3463301"><ele>424.20000000000005</ele><time>2026-03-28T10:29:00.291Z</time></trkpt><trkpt lat="44.3328758" lon="8.3464403"><ele>425.6</ele><time>2026-03-28T10:29:01.299Z</time></trkpt><trkpt lat="44.3327974" lon="8.3465484"><ele>427.0</ele><time>2026-03-28T10:29:02.294Z</time></trkpt><trkpt lat="44.3327237" lon="8.3466699"><ele>427.0</ele><time>2026-03-28T10:29:03.304Z</time></trkpt><trkpt lat="44.3326567" lon="8.3467879"><ele>427.0</ele><time>2026-03-28T10:29:04.297Z</time></trkpt><trkpt lat="44.3325806" lon="8.3469072"><ele>427.0</ele><time>2026-03-28T10:29:05.303Z</time></trkpt><trkpt lat="44.3325057" lon="8.3470319"><ele>427.0</ele><time>2026-03-28T10:29:06.313Z</time></trkpt><trkpt lat="44.3324295" lon="8.3471621"><ele>427.0</ele><time>2026-03-28T10:29:07.298Z</time></trkpt><trkpt lat="44.3323446" lon="8.3473008"><ele>427.0</ele><time>2026-03-28T10:29:08.305Z</time></trkpt><trkpt lat="44.3322517" lon="8.3474465"><ele>427.0</ele><time>2026-03-28T10:29:09.296Z</time></trkpt><trkpt lat="44.3321564" lon="8.3475985"><ele>427.0</ele><time>2026-03-28T10:29:10.303Z</time></trkpt><trkpt lat="44.3320665" lon="8.3477536"><ele>429.0</ele><time>2026-03-28T10:29:11.301Z</time></trkpt><trkpt lat="44.3319645" lon="8.3479072"><ele>431.0</ele><time>2026-03-28T10:29:12.303Z</time></trkpt><trkpt lat="44.3318707" lon="8.3480614"><ele>433.0</ele><time>2026-03-28T10:29:13.301Z</time></trkpt><trkpt lat="44.3317743" lon="8.3482279"><ele>435.0</ele><time>2026-03-28T10:29:14.303Z</time></trkpt><trkpt lat="44.3316911" lon="8.3483854"><ele>435.0</ele><time>2026-03-28T10:29:15.294Z</time></trkpt><trkpt lat="44.3316202" lon="8.348538"><ele>435.0</ele><time>2026-03-28T10:29:16.301Z</time></trkpt><trkpt lat="44.3315735" lon="8.3486938"><ele>435.0</ele><time>2026-03-28T10:29:17.292Z</time></trkpt><trkpt lat="44.331549" lon="8.3488614"><ele>435.0</ele><time>2026-03-28T10:29:18.298Z</time></trkpt><trkpt lat="44.3315412" lon="8.3490534"><ele>435.2</ele><time>2026-03-28T10:29:19.295Z</time></trkpt><trkpt lat="44.3315578" lon="8.3492269"><ele>435.4</ele><time>2026-03-28T10:29:20.299Z</time></trkpt><trkpt lat="44.3315843" lon="8.3493907"><ele>435.6</ele><time>2026-03-28T10:29:21.295Z</time></trkpt><trkpt lat="44.3316238" lon="8.3495135"><ele>435.8</ele><time>2026-03-28T10:29:22.307Z</time></trkpt><trkpt lat="44.3316705" lon="8.3495895"><ele>436.0</ele><time>2026-03-28T10:29:23.294Z</time></trkpt><trkpt lat="44.3317143" lon="8.3496594"><ele>437.6666666666667</ele><time>2026-03-28T10:29:24.303Z</time></trkpt><trkpt lat="44.3317566" lon="8.3497364"><ele>439.33333333333337</ele><time>2026-03-28T10:29:25.289Z</time></trkpt><trkpt lat="44.3317972" lon="8.349807"><ele>441.0</ele><time>2026-03-28T10:29:26.294Z</time></trkpt><trkpt lat="44.3318805" lon="8.3499022"><ele>442.66666666666663</ele><time>2026-03-28T10:29:28.297Z</time></trkpt><trkpt lat="44.3318189" lon="8.3498666"><ele>444.3333333333333</ele><time>2026-03-28T10:29:33.288Z</time></trkpt><trkpt lat="44.3317425" lon="8.3498324"><ele>446.0</ele><time>2026-03-28T10:29:34.291Z</time></trkpt><trkpt lat="44.3316483" lon="8.3498056"><ele>446.0</ele><time>2026-03-28T10:29:35.289Z</time></trkpt><trkpt lat="44.33156" lon="8.3498018"><ele>446.0</ele><time>2026-03-28T10:29:36.292Z</time></trkpt><trkpt lat="44.3314756" lon="8.3498226"><ele>446.0</ele><time>2026-03-28T10:29:37.299Z</time></trkpt><trkpt lat="44.3313886" lon="8.3498669"><ele>446.0</ele><time>2026-03-28T10:29:38.292Z</time></trkpt><trkpt lat="44.3312903" lon="8.3499284"><ele>446.0</ele><time>2026-03-28T10:29:39.29Z</time></trkpt><trkpt lat="44.3311859" lon="8.3499911"><ele>444.4</ele><time>2026-03-28T10:29:40.283Z</time></trkpt><trkpt lat="44.3310795" lon="8.3500589"><ele>442.8</ele><time>2026-03-28T10:29:41.285Z</time></trkpt><trkpt lat="44.3309711" lon="8.3501135"><ele>441.19999999999993</ele><time>2026-03-28T10:29:42.278Z</time></trkpt><trkpt lat="44.3308718" lon="8.3501572"><ele>439.59999999999997</ele><time>2026-03-28T10:29:43.288Z</time></trkpt><trkpt lat="44.3307743" lon="8.3502004"><ele>438.0</ele><time>2026-03-28T10:29:44.283Z</time></trkpt><trkpt lat="44.3306846" lon="8.3502519"><ele>438.0</ele><time>2026-03-28T10:29:45.287Z</time></trkpt><trkpt lat="44.3306092" lon="8.3503028"><ele>438.0</ele><time>2026-03-28T10:29:46.28Z</time></trkpt><trkpt lat="44.3305425" lon="8.3503561"><ele>438.0</ele><time>2026-03-28T10:29:47.285Z</time></trkpt><trkpt lat="44.3304734" lon="8.3504201"><ele>438.0</ele><time>2026-03-28T10:29:48.281Z</time></trkpt><trkpt lat="44.3303921" lon="8.3504824"><ele>438.0</ele><time>2026-03-28T10:29:49.293Z</time></trkpt><trkpt lat="44.3303057" lon="8.3505712"><ele>438.0</ele><time>2026-03-28T10:29:50.281Z</time></trkpt><trkpt lat="44.3302214" lon="8.3506688"><ele>439.79999999999995</ele><time>2026-03-28T10:29:51.291Z</time></trkpt><trkpt lat="44.3301368" lon="8.3507639"><ele>441.59999999999997</ele><time>2026-03-28T10:29:52.287Z</time></trkpt><trkpt lat="44.3300485" lon="8.3508461"><ele>443.40000000000003</ele><time>2026-03-28T10:29:53.289Z</time></trkpt><trkpt lat="44.3299577" lon="8.3509227"><ele>445.20000000000005</ele><time>2026-03-28T10:29:54.281Z</time></trkpt><trkpt lat="44.3298638" lon="8.3509843"><ele>447.0</ele><time>2026-03-28T10:29:55.289Z</time></trkpt><trkpt lat="44.3297673" lon="8.3510309"><ele>449.20000000000005</ele><time>2026-03-28T10:29:56.284Z</time></trkpt><trkpt lat="44.329672" lon="8.3510679"><ele>451.40000000000003</ele><time>2026-03-28T10:29:57.295Z</time></trkpt><trkpt lat="44.3295815" lon="8.3511069"><ele>453.59999999999997</ele><time>2026-03-28T10:29:58.282Z</time></trkpt><trkpt lat="44.3294959" lon="8.3511579"><ele>455.79999999999995</ele><time>2026-03-28T10:29:59.3Z</time></trkpt><trkpt lat="44.3294109" lon="8.3512101"><ele>458.0</ele><time>2026-03-28T10:30:00.285Z</time></trkpt><trkpt lat="44.329323" lon="8.3512579"><ele>458.0</ele><time>2026-03-28T10:30:01.292Z</time></trkpt><trkpt lat="44.3292433" lon="8.3512986"><ele>457.99999999999994</ele><time>2026-03-28T10:30:02.278Z</time></trkpt><trkpt lat="44.3291522" lon="8.3513034"><ele>457.99999999999994</ele><time>2026-03-28T10:30:03.286Z</time></trkpt><trkpt lat="44.329061" lon="8.3512828"><ele>458.0</ele><time>2026-03-28T10:30:04.281Z</time></trkpt><trkpt lat="44.3289705" lon="8.3512499"><ele>458.0</ele><time>2026-03-28T10:30:05.29Z</time></trkpt><trkpt lat="44.3288653" lon="8.351201"><ele>459.25</ele><time>2026-03-28T10:30:06.28Z</time></trkpt><trkpt lat="44.3287553" lon="8.351148"><ele>460.5</ele><time>2026-03-28T10:30:07.288Z</time></trkpt><trkpt lat="44.328648" lon="8.351093"><ele>461.75</ele><time>2026-03-28T10:30:08.29Z</time></trkpt><trkpt lat="44.3285368" lon="8.3510573"><ele>463.0</ele><time>2026-03-28T10:30:09.287Z</time></trkpt><trkpt lat="44.3284295" lon="8.351029"><ele>463.00000000000006</ele><time>2026-03-28T10:30:10.285Z</time></trkpt><trkpt lat="44.3283373" lon="8.3510129"><ele>463.0</ele><time>2026-03-28T10:30:11.284Z</time></trkpt><trkpt lat="44.3282539" lon="8.350995"><ele>463.0</ele><time>2026-03-28T10:30:12.291Z</time></trkpt><trkpt lat="44.3281772" lon="8.3509547"><ele>463.0</ele><time>2026-03-28T10:30:13.292Z</time></trkpt><trkpt lat="44.3281048" lon="8.3508855"><ele>463.00000000000006</ele><time>2026-03-28T10:30:14.293Z</time></trkpt><trkpt lat="44.3280313" lon="8.3507902"><ele>463.0</ele><time>2026-03-28T10:30:15.284Z</time></trkpt><trkpt lat="44.327949" lon="8.3506838"><ele>466.25</ele><time>2026-03-28T10:30:16.291Z</time></trkpt><trkpt lat="44.3278632" lon="8.3505684"><ele>469.5</ele><time>2026-03-28T10:30:17.285Z</time></trkpt><trkpt lat="44.3277649" lon="8.350453"><ele>472.75</ele><time>2026-03-28T10:30:18.292Z</time></trkpt><trkpt lat="44.3276658" lon="8.3503452"><ele>476.0</ele><time>2026-03-28T10:30:19.287Z</time></trkpt><trkpt lat="44.3275641" lon="8.3502293"><ele>476.0</ele><time>2026-03-28T10:30:20.295Z</time></trkpt><trkpt lat="44.3274559" lon="8.3501118"><ele>476.0</ele><time>2026-03-28T10:30:21.287Z</time></trkpt><trkpt lat="44.3273403" lon="8.3499837"><ele>476.0</ele><time>2026-03-28T10:30:22.29Z</time></trkpt><trkpt lat="44.3272146" lon="8.3498437"><ele>476.0</ele><time>2026-03-28T10:30:23.291Z</time></trkpt><trkpt lat="44.3270872" lon="8.3497078"><ele>480.0</ele><time>2026-03-28T10:30:24.293Z</time></trkpt><trkpt lat="44.3269525" lon="8.3495736"><ele>484.0</ele><time>2026-03-28T10:30:25.292Z</time></trkpt><trkpt lat="44.3268163" lon="8.3494446"><ele>488.0</ele><time>2026-03-28T10:30:26.295Z</time></trkpt><trkpt lat="44.3266919" lon="8.3493222"><ele>488.0</ele><time>2026-03-28T10:30:27.289Z</time></trkpt><trkpt lat="44.3265744" lon="8.3492161"><ele>488.0</ele><time>2026-03-28T10:30:28.3Z</time></trkpt><trkpt lat="44.3264654" lon="8.349117"><ele>488.0</ele><time>2026-03-28T10:30:29.288Z</time></trkpt><trkpt lat="44.3263673" lon="8.3490577"><ele>488.0</ele><time>2026-03-28T10:30:30.296Z</time></trkpt><trkpt lat="44.3262913" lon="8.3490065"><ele>488.59999999999997</ele><time>2026-03-28T10:30:31.287Z</time></trkpt><trkpt lat="44.3262254" lon="8.3489608"><ele>489.19999999999993</ele><time>2026-03-28T10:30:32.292Z</time></trkpt><trkpt lat="44.3261341" lon="8.3488613"><ele>489.8</ele><time>2026-03-28T10:30:34.291Z</time></trkpt><trkpt lat="44.3260794" lon="8.3487454"><ele>490.4</ele><time>2026-03-28T10:30:36.306Z</time></trkpt><trkpt lat="44.326084" lon="8.3486275"><ele>491.0</ele><time>2026-03-28T10:30:38.306Z</time></trkpt><trkpt lat="44.3261286" lon="8.3485048"><ele>489.99999999999994</ele><time>2026-03-28T10:30:40.301Z</time></trkpt><trkpt lat="44.3262138" lon="8.3484125"><ele>489.0</ele><time>2026-03-28T10:30:42.31Z</time></trkpt><trkpt lat="44.3263163" lon="8.3484167"><ele>488.0</ele><time>2026-03-28T10:30:44.306Z</time></trkpt><trkpt lat="44.3263835" lon="8.3484217"><ele>487.0</ele><time>2026-03-28T10:30:45.296Z</time></trkpt><trkpt lat="44.3264584" lon="8.3484251"><ele>485.99999999999994</ele><time>2026-03-28T10:30:46.301Z</time></trkpt><trkpt lat="44.3265462" lon="8.3484203"><ele>485.0</ele><time>2026-03-28T10:30:47.296Z</time></trkpt><trkpt lat="44.3266349" lon="8.3484213"><ele>487.8</ele><time>2026-03-28T10:30:48.3Z</time></trkpt><trkpt lat="44.3267242" lon="8.3484374"><ele>490.6</ele><time>2026-03-28T10:30:49.297Z</time></trkpt><trkpt lat="44.3268106" lon="8.3484618"><ele>493.4</ele><time>2026-03-28T10:30:50.304Z</time></trkpt><trkpt lat="44.3268996" lon="8.3485044"><ele>496.2</ele><time>2026-03-28T10:30:51.291Z</time></trkpt><trkpt lat="44.3269896" lon="8.3485547"><ele>499.0</ele><time>2026-03-28T10:30:52.301Z</time></trkpt><trkpt lat="44.3270689" lon="8.3486184"><ele>499.0</ele><time>2026-03-28T10:30:53.288Z</time></trkpt><trkpt lat="44.3271515" lon="8.3486776"><ele>499.0</ele><time>2026-03-28T10:30:54.302Z</time></trkpt><trkpt lat="44.3272328" lon="8.3487356"><ele>499.0</ele><time>2026-03-28T10:30:55.288Z</time></trkpt><trkpt lat="44.3273033" lon="8.3487823"><ele>499.0</ele><time>2026-03-28T10:30:56.294Z</time></trkpt><trkpt lat="44.3273694" lon="8.3488126"><ele>499.0</ele><time>2026-03-28T10:30:57.301Z</time></trkpt><trkpt lat="44.3274977" lon="8.3487742"><ele>498.33333333333337</ele><time>2026-03-28T10:30:59.302Z</time></trkpt><trkpt lat="44.3275696" lon="8.3487109"><ele>497.6666666666667</ele><time>2026-03-28T10:31:00.293Z</time></trkpt><trkpt lat="44.3276297" lon="8.3486426"><ele>497.0</ele><time>2026-03-28T10:31:01.306Z</time></trkpt><trkpt lat="44.3276649" lon="8.3485502"><ele>496.33333333333337</ele><time>2026-03-28T10:31:02.296Z</time></trkpt><trkpt lat="44.3276539" lon="8.3484398"><ele>495.6666666666667</ele><time>2026-03-28T10:31:03.302Z</time></trkpt><trkpt lat="44.3276085" lon="8.3483288"><ele>495.0</ele><time>2026-03-28T10:31:04.3Z</time></trkpt><trkpt lat="44.3275453" lon="8.3482139"><ele>495.0</ele><time>2026-03-28T10:31:05.299Z</time></trkpt><trkpt lat="44.3274793" lon="8.3480888"><ele>495.0</ele><time>2026-03-28T10:31:06.299Z</time></trkpt><trkpt lat="44.3274111" lon="8.3479725"><ele>495.0</ele><time>2026-03-28T10:31:07.302Z</time></trkpt><trkpt lat="44.3273294" lon="8.347874"><ele>495.0</ele><time>2026-03-28T10:31:08.296Z</time></trkpt><trkpt lat="44.3272506" lon="8.3477795"><ele>495.0</ele><time>2026-03-28T10:31:09.304Z</time></trkpt><trkpt lat="44.3271777" lon="8.3476885"><ele>497.3333333333333</ele><time>2026-03-28T10:31:10.312Z</time></trkpt><trkpt lat="44.3271179" lon="8.3476007"><ele>499.66666666666663</ele><time>2026-03-28T10:31:11.299Z</time></trkpt><trkpt lat="44.3270564" lon="8.3475178"><ele>502.0</ele><time>2026-03-28T10:31:12.308Z</time></trkpt><trkpt lat="44.3269895" lon="8.34744"><ele>504.3333333333333</ele><time>2026-03-28T10:31:13.297Z</time></trkpt><trkpt lat="44.3269302" lon="8.3473564"><ele>506.66666666666663</ele><time>2026-03-28T10:31:14.306Z</time></trkpt><trkpt lat="44.3268689" lon="8.3472728"><ele>509.0</ele><time>2026-03-28T10:31:15.297Z</time></trkpt><trkpt lat="44.3268144" lon="8.347182"><ele>509.0</ele><time>2026-03-28T10:31:16.299Z</time></trkpt><trkpt lat="44.3267572" lon="8.3470802"><ele>509.0</ele><time>2026-03-28T10:31:17.3Z</time></trkpt><trkpt lat="44.3266926" lon="8.3469756"><ele>509.0</ele><time>2026-03-28T10:31:18.302Z</time></trkpt><trkpt lat="44.3266193" lon="8.3468617"><ele>509.0</ele><time>2026-03-28T10:31:19.298Z</time></trkpt><trkpt lat="44.3265405" lon="8.3467552"><ele>509.0</ele><time>2026-03-28T10:31:20.307Z</time></trkpt><trkpt lat="44.3264662" lon="8.3466712"><ele>508.99999999999994</ele><time>2026-03-28T10:31:21.305Z</time></trkpt><trkpt lat="44.326398" lon="8.3466124"><ele>509.0</ele><time>2026-03-28T10:31:22.307Z</time></trkpt><trkpt lat="44.3263246" lon="8.3465769"><ele>509.0</ele><time>2026-03-28T10:31:23.3Z</time></trkpt><trkpt lat="44.3262365" lon="8.3465668"><ele>509.0</ele><time>2026-03-28T10:31:24.301Z</time></trkpt><trkpt lat="44.3261453" lon="8.3465676"><ele>508.99999999999994</ele><time>2026-03-28T10:31:25.299Z</time></trkpt><trkpt lat="44.3260515" lon="8.3465711"><ele>509.0</ele><time>2026-03-28T10:31:26.306Z</time></trkpt><trkpt lat="44.3259535" lon="8.3465808"><ele>511.0</ele><time>2026-03-28T10:31:27.299Z</time></trkpt><trkpt lat="44.3258578" lon="8.3466028"><ele>513.0</ele><time>2026-03-28T10:31:28.305Z</time></trkpt><trkpt lat="44.325767" lon="8.3466316"><ele>515.0</ele><time>2026-03-28T10:31:29.296Z</time></trkpt><trkpt lat="44.3256741" lon="8.3466625"><ele>517.0</ele><time>2026-03-28T10:31:30.302Z</time></trkpt><trkpt lat="44.3255835" lon="8.3466984"><ele>519.0</ele><time>2026-03-28T10:31:31.295Z</time></trkpt><trkpt lat="44.3254903" lon="8.3467288"><ele>519.0</ele><time>2026-03-28T10:31:32.298Z</time></trkpt><trkpt lat="44.3253838" lon="8.3467498"><ele>519.0</ele><time>2026-03-28T10:31:33.296Z</time></trkpt><trkpt lat="44.3252774" lon="8.3467554"><ele>519.0</ele><time>2026-03-28T10:31:34.303Z</time></trkpt><trkpt lat="44.3251697" lon="8.3467514"><ele>519.0</ele><time>2026-03-28T10:31:35.301Z</time></trkpt><trkpt lat="44.3250654" lon="8.3467349"><ele>519.0</ele><time>2026-03-28T10:31:36.305Z</time></trkpt><trkpt lat="44.3249718" lon="8.3467135"><ele>519.0</ele><time>2026-03-28T10:31:37.297Z</time></trkpt><trkpt lat="44.3248836" lon="8.3466857"><ele>519.0</ele><time>2026-03-28T10:31:38.304Z</time></trkpt><trkpt lat="44.3248067" lon="8.346652"><ele>519.0</ele><time>2026-03-28T10:31:39.301Z</time></trkpt><trkpt lat="44.3247222" lon="8.346605"><ele>519.0</ele><time>2026-03-28T10:31:40.305Z</time></trkpt><trkpt lat="44.3246392" lon="8.3465418"><ele>519.0</ele><time>2026-03-28T10:31:41.311Z</time></trkpt><trkpt lat="44.3245582" lon="8.3464778"><ele>519.0</ele><time>2026-03-28T10:31:42.295Z</time></trkpt><trkpt lat="44.3244836" lon="8.3464136"><ele>520.6666666666666</ele><time>2026-03-28T10:31:43.305Z</time></trkpt><trkpt lat="44.3244207" lon="8.3463481"><ele>522.3333333333334</ele><time>2026-03-28T10:31:44.3Z</time></trkpt><trkpt lat="44.3243588" lon="8.3462722"><ele>524.0</ele><time>2026-03-28T10:31:45.301Z</time></trkpt><trkpt lat="44.3243066" lon="8.3461891"><ele>525.6666666666667</ele><time>2026-03-28T10:31:46.304Z</time></trkpt><trkpt lat="44.3242638" lon="8.3461116"><ele>527.3333333333334</ele><time>2026-03-28T10:31:47.303Z</time></trkpt><trkpt lat="44.3242151" lon="8.345994"><ele>529.0</ele><time>2026-03-28T10:31:49.295Z</time></trkpt><trkpt lat="44.3241355" lon="8.3459074"><ele>529.0</ele><time>2026-03-28T10:31:52.295Z</time></trkpt><trkpt lat="44.3240467" lon="8.3458288"><ele>529.0</ele><time>2026-03-28T10:31:54.299Z</time></trkpt><trkpt lat="44.3239433" lon="8.3457611"><ele>529.0</ele><time>2026-03-28T10:31:56.3Z</time></trkpt><trkpt lat="44.3238443" lon="8.3456901"><ele>529.0</ele><time>2026-03-28T10:31:58.306Z</time></trkpt><trkpt lat="44.3237687" lon="8.3456387"><ele>529.0</ele><time>2026-03-28T10:32:00.3Z</time></trkpt><trkpt lat="44.3236882" lon="8.3456059"><ele>533.0</ele><time>2026-03-28T10:32:03.303Z</time></trkpt><trkpt lat="44.3235841" lon="8.345643"><ele>537.0</ele><time>2026-03-28T10:32:06.293Z</time></trkpt><trkpt lat="44.3235004" lon="8.3457298"><ele>541.0</ele><time>2026-03-28T10:32:08.289Z</time></trkpt><trkpt lat="44.3234532" lon="8.3458011"><ele>545.0</ele><time>2026-03-28T10:32:09.292Z</time></trkpt><trkpt lat="44.3233983" lon="8.3458752"><ele>549.0</ele><time>2026-03-28T10:32:10.288Z</time></trkpt><trkpt lat="44.3233337" lon="8.345954"><ele>553.0</ele><time>2026-03-28T10:32:11.295Z</time></trkpt><trkpt lat="44.3232769" lon="8.3460503"><ele>553.0</ele><time>2026-03-28T10:32:12.303Z</time></trkpt><trkpt lat="44.32322" lon="8.3461479"><ele>553.0</ele><time>2026-03-28T10:32:13.29Z</time></trkpt><trkpt lat="44.323187" lon="8.346252"><ele>553.0</ele><time>2026-03-28T10:32:14.3Z</time></trkpt><trkpt lat="44.3231749" lon="8.3463624"><ele>553.0</ele><time>2026-03-28T10:32:15.29Z</time></trkpt><trkpt lat="44.3231575" lon="8.3464639"><ele>553.0</ele><time>2026-03-28T10:32:16.296Z</time></trkpt><trkpt lat="44.3231292" lon="8.3465594"><ele>553.0</ele><time>2026-03-28T10:32:17.294Z</time></trkpt><trkpt lat="44.3230884" lon="8.3466626"><ele>551.1666666666667</ele><time>2026-03-28T10:32:18.299Z</time></trkpt><trkpt lat="44.3230481" lon="8.3467704"><ele>549.3333333333334</ele><time>2026-03-28T10:32:19.296Z</time></trkpt><trkpt lat="44.3230042" lon="8.3468787"><ele>547.5</ele><time>2026-03-28T10:32:20.299Z</time></trkpt><trkpt lat="44.322959" lon="8.3469695"><ele>545.6666666666666</ele><time>2026-03-28T10:32:21.287Z</time></trkpt><trkpt lat="44.3229112" lon="8.3470419"><ele>543.8333333333333</ele><time>2026-03-28T10:32:22.305Z</time></trkpt><trkpt lat="44.3228034" lon="8.3470809"><ele>542.0</ele><time>2026-03-28T10:32:24.303Z</time></trkpt><trkpt lat="44.3227236" lon="8.3470441"><ele>542.0</ele><time>2026-03-28T10:32:32.309Z</time></trkpt><trkpt lat="44.3226007" lon="8.347007"><ele>542.0</ele><time>2026-03-28T10:32:34.301Z</time></trkpt><trkpt lat="44.3225203" lon="8.3469768"><ele>542.0</ele><time>2026-03-28T10:32:35.297Z</time></trkpt><trkpt lat="44.3224451" lon="8.3469593"><ele>542.0</ele><time>2026-03-28T10:32:36.304Z</time></trkpt><trkpt lat="44.3223615" lon="8.346944"><ele>542.0</ele><time>2026-03-28T10:32:37.296Z</time></trkpt><trkpt lat="44.3222769" lon="8.3469213"><ele>538.5</ele><time>2026-03-28T10:32:38.305Z</time></trkpt><trkpt lat="44.3221839" lon="8.3468929"><ele>535.0</ele><time>2026-03-28T10:32:39.291Z</time></trkpt><trkpt lat="44.3220823" lon="8.3468697"><ele>531.5</ele><time>2026-03-28T10:32:40.303Z</time></trkpt><trkpt lat="44.3219974" lon="8.3468561"><ele>528.0</ele><time>2026-03-28T10:32:41.288Z</time></trkpt><trkpt lat="44.321919" lon="8.3468348"><ele>524.5</ele><time>2026-03-28T10:32:42.302Z</time></trkpt><trkpt lat="44.321846" lon="8.3468104"><ele>521.0</ele><time>2026-03-28T10:32:43.319Z</time></trkpt><trkpt lat="44.3217837" lon="8.3467694"><ele>521.0</ele><time>2026-03-28T10:32:44.294Z</time></trkpt><trkpt lat="44.3217319" lon="8.3467109"><ele>521.0</ele><time>2026-03-28T10:32:45.304Z</time></trkpt><trkpt lat="44.321694" lon="8.3466256"><ele>521.0</ele><time>2026-03-28T10:32:46.291Z</time></trkpt><trkpt lat="44.3216732" lon="8.3465156"><ele>521.0</ele><time>2026-03-28T10:32:47.292Z</time></trkpt><trkpt lat="44.3216601" lon="8.346415"><ele>521.0</ele><time>2026-03-28T10:32:48.29Z</time></trkpt><trkpt lat="44.3216601" lon="8.3463006"><ele>521.0</ele><time>2026-03-28T10:32:49.299Z</time></trkpt><trkpt lat="44.3216741" lon="8.3461976"><ele>521.6666666666666</ele><time>2026-03-28T10:32:50.289Z</time></trkpt><trkpt lat="44.3216995" lon="8.3461013"><ele>522.3333333333333</ele><time>2026-03-28T10:32:51.292Z</time></trkpt><trkpt lat="44.3217285" lon="8.3460013"><ele>523.0</ele><time>2026-03-28T10:32:52.285Z</time></trkpt><trkpt lat="44.3217488" lon="8.3458879"><ele>523.6666666666666</ele><time>2026-03-28T10:32:53.289Z</time></trkpt><trkpt lat="44.3217771" lon="8.3457506"><ele>524.3333333333334</ele><time>2026-03-28T10:32:54.282Z</time></trkpt><trkpt lat="44.3217926" lon="8.3456169"><ele>525.0</ele><time>2026-03-28T10:32:55.291Z</time></trkpt><trkpt lat="44.321806" lon="8.3454807"><ele>526.0</ele><time>2026-03-28T10:32:56.283Z</time></trkpt><trkpt lat="44.3218243" lon="8.3453402"><ele>527.0</ele><time>2026-03-28T10:32:57.287Z</time></trkpt><trkpt lat="44.3218539" lon="8.3452052"><ele>528.0</ele><time>2026-03-28T10:32:58.285Z</time></trkpt><trkpt lat="44.3218936" lon="8.3450824"><ele>529.0</ele><time>2026-03-28T10:32:59.298Z</time></trkpt><trkpt lat="44.3219256" lon="8.3449588"><ele>530.0</ele><time>2026-03-28T10:33:00.284Z</time></trkpt><trkpt lat="44.3219564" lon="8.3448586"><ele>530.0</ele><time>2026-03-28T10:33:01.29Z</time></trkpt><trkpt lat="44.3219803" lon="8.3447605"><ele>530.0</ele><time>2026-03-28T10:33:02.283Z</time></trkpt><trkpt lat="44.321975" lon="8.3446296"><ele>530.0</ele><time>2026-03-28T10:33:04.287Z</time></trkpt><trkpt lat="44.3218771" lon="8.3446034"><ele>530.0</ele><time>2026-03-28T10:33:06.283Z</time></trkpt><trkpt lat="44.3218091" lon="8.3446337"><ele>530.0</ele><time>2026-03-28T10:33:07.284Z</time></trkpt><trkpt lat="44.321742" lon="8.3446359"><ele>530.0</ele><time>2026-03-28T10:33:08.286Z</time></trkpt><trkpt lat="44.3216773" lon="8.3446341"><ele>532.5</ele><time>2026-03-28T10:33:09.294Z</time></trkpt><trkpt lat="44.321612" lon="8.3446015"><ele>535.0</ele><time>2026-03-28T10:33:10.289Z</time></trkpt><trkpt lat="44.3215477" lon="8.3445431"><ele>537.5</ele><time>2026-03-28T10:33:11.295Z</time></trkpt><trkpt lat="44.3214363" lon="8.3445095"><ele>540.0</ele><time>2026-03-28T10:33:13.304Z</time></trkpt><trkpt lat="44.3213359" lon="8.3445814"><ele>542.5</ele><time>2026-03-28T10:33:15.3Z</time></trkpt><trkpt lat="44.3213009" lon="8.3446609"><ele>545.0</ele><time>2026-03-28T10:33:16.294Z</time></trkpt><trkpt lat="44.3212675" lon="8.3447568"><ele>545.0</ele><time>2026-03-28T10:33:17.302Z</time></trkpt><trkpt lat="44.3212428" lon="8.3448682"><ele>545.0</ele><time>2026-03-28T10:33:18.292Z</time></trkpt><trkpt lat="44.3212151" lon="8.3449781"><ele>545.0</ele><time>2026-03-28T10:33:19.292Z</time></trkpt><trkpt lat="44.3211791" lon="8.3450871"><ele>545.0</ele><time>2026-03-28T10:33:20.296Z</time></trkpt><trkpt lat="44.3211311" lon="8.3451926"><ele>545.0</ele><time>2026-03-28T10:33:21.293Z</time></trkpt><trkpt lat="44.3210745" lon="8.3452992"><ele>545.0</ele><time>2026-03-28T10:33:22.294Z</time></trkpt><trkpt lat="44.3210108" lon="8.3453842"><ele>545.0</ele><time>2026-03-28T10:33:23.287Z</time></trkpt><trkpt lat="44.3209501" lon="8.3454725"><ele>545.0</ele><time>2026-03-28T10:33:24.299Z</time></trkpt><trkpt lat="44.3208801" lon="8.3455664"><ele>545.0</ele><time>2026-03-28T10:33:25.293Z</time></trkpt><trkpt lat="44.3208144" lon="8.3456659"><ele>545.0</ele><time>2026-03-28T10:33:26.295Z</time></trkpt><trkpt lat="44.3207591" lon="8.3457737"><ele>545.0</ele><time>2026-03-28T10:33:27.289Z</time></trkpt><trkpt lat="44.320705" lon="8.345881"><ele>547.5</ele><time>2026-03-28T10:33:28.301Z</time></trkpt><trkpt lat="44.3206594" lon="8.3459569"><ele>550.0</ele><time>2026-03-28T10:33:29.294Z</time></trkpt><trkpt lat="44.3205642" lon="8.3460494"><ele>552.5</ele><time>2026-03-28T10:33:31.288Z</time></trkpt><trkpt lat="44.3205012" lon="8.3460805"><ele>555.0</ele><time>2026-03-28T10:33:32.292Z</time></trkpt><trkpt lat="44.3204312" lon="8.3461164"><ele>557.5</ele><time>2026-03-28T10:33:33.293Z</time></trkpt><trkpt lat="44.3203684" lon="8.3461643"><ele>560.0</ele><time>2026-03-28T10:33:34.296Z</time></trkpt><trkpt lat="44.320293" lon="8.3462797"><ele>555.6666666666666</ele><time>2026-03-28T10:33:36.3Z</time></trkpt><trkpt lat="44.3203039" lon="8.3463822"><ele>551.3333333333333</ele><time>2026-03-28T10:33:37.302Z</time></trkpt><trkpt lat="44.3203351" lon="8.3464928"><ele>547.0</ele><time>2026-03-28T10:33:38.291Z</time></trkpt><trkpt lat="44.3203505" lon="8.3465828"><ele>542.6666666666666</ele><time>2026-03-28T10:33:39.297Z</time></trkpt><trkpt lat="44.3203553" lon="8.3466917"><ele>538.3333333333334</ele><time>2026-03-28T10:33:40.292Z</time></trkpt><trkpt lat="44.3203547" lon="8.346806"><ele>534.0</ele><time>2026-03-28T10:33:41.3Z</time></trkpt><trkpt lat="44.320341" lon="8.3469142"><ele>534.0</ele><time>2026-03-28T10:33:42.3Z</time></trkpt><trkpt lat="44.3203119" lon="8.3470155"><ele>534.0</ele><time>2026-03-28T10:33:43.298Z</time></trkpt><trkpt lat="44.3202729" lon="8.3471182"><ele>534.0</ele><time>2026-03-28T10:33:44.307Z</time></trkpt><trkpt lat="44.3202176" lon="8.3472112"><ele>534.0</ele><time>2026-03-28T10:33:45.299Z</time></trkpt><trkpt lat="44.3201674" lon="8.3472836"><ele>534.0</ele><time>2026-03-28T10:33:46.298Z</time></trkpt><trkpt lat="44.320106" lon="8.3473492"><ele>534.0</ele><time>2026-03-28T10:33:47.292Z</time></trkpt><trkpt lat="44.3200321" lon="8.3474124"><ele>531.0</ele><time>2026-03-28T10:33:48.301Z</time></trkpt><trkpt lat="44.319972" lon="8.3474752"><ele>528.0</ele><time>2026-03-28T10:33:49.296Z</time></trkpt><trkpt lat="44.3199137" lon="8.3475453"><ele>525.0</ele><time>2026-03-28T10:33:50.301Z</time></trkpt><trkpt lat="44.3198689" lon="8.3476177"><ele>522.0</ele><time>2026-03-28T10:33:51.298Z</time></trkpt><trkpt lat="44.3198411" lon="8.3477085"><ele>519.0</ele><time>2026-03-28T10:33:52.307Z</time></trkpt><trkpt lat="44.3198243" lon="8.3478167"><ele>516.0</ele><time>2026-03-28T10:33:53.295Z</time></trkpt><trkpt lat="44.3198088" lon="8.3479254"><ele>516.0</ele><time>2026-03-28T10:33:54.3Z</time></trkpt><trkpt lat="44.3197909" lon="8.3480329"><ele>516.0</ele><time>2026-03-28T10:33:55.299Z</time></trkpt><trkpt lat="44.3197575" lon="8.3481553"><ele>516.0</ele><time>2026-03-28T10:33:57.305Z</time></trkpt><trkpt lat="44.3197054" lon="8.3482157"><ele>516.0</ele><time>2026-03-28T10:34:00.311Z</time></trkpt><trkpt lat="44.3196381" lon="8.3481916"><ele>516.0</ele><time>2026-03-28T10:34:05.304Z</time></trkpt><trkpt lat="44.3195772" lon="8.3481102"><ele>516.0</ele><time>2026-03-28T10:34:10.306Z</time></trkpt><trkpt lat="44.3195263" lon="8.3479413"><ele>515.6666666666666</ele><time>2026-03-28T10:34:12.302Z</time></trkpt><trkpt lat="44.3195026" lon="8.347834"><ele>515.3333333333334</ele><time>2026-03-28T10:34:13.299Z</time></trkpt><trkpt lat="44.3194738" lon="8.3477278"><ele>515.0</ele><time>2026-03-28T10:34:14.293Z</time></trkpt><trkpt lat="44.3194397" lon="8.3476057"><ele>514.6666666666667</ele><time>2026-03-28T10:34:15.312Z</time></trkpt><trkpt lat="44.319396" lon="8.3474977"><ele>514.3333333333334</ele><time>2026-03-28T10:34:16.298Z</time></trkpt><trkpt lat="44.3193408" lon="8.3474036"><ele>514.0</ele><time>2026-03-28T10:34:17.302Z</time></trkpt><trkpt lat="44.3192803" lon="8.3473227"><ele>514.0</ele><time>2026-03-28T10:34:18.295Z</time></trkpt><trkpt lat="44.3192185" lon="8.3472316"><ele>514.0</ele><time>2026-03-28T10:34:19.305Z</time></trkpt><trkpt lat="44.3191617" lon="8.3471526"><ele>514.0</ele><time>2026-03-28T10:34:20.287Z</time></trkpt><trkpt lat="44.3191107" lon="8.3470624"><ele>514.0</ele><time>2026-03-28T10:34:21.301Z</time></trkpt><trkpt lat="44.3190708" lon="8.3469683"><ele>514.0</ele><time>2026-03-28T10:34:22.297Z</time></trkpt><trkpt lat="44.3190165" lon="8.3468762"><ele>514.0</ele><time>2026-03-28T10:34:23.305Z</time></trkpt><trkpt lat="44.3189526" lon="8.3467963"><ele>518.5</ele><time>2026-03-28T10:34:24.274Z</time></trkpt><trkpt lat="44.3188885" lon="8.3467215"><ele>523.0</ele><time>2026-03-28T10:34:25.297Z</time></trkpt><trkpt lat="44.3188339" lon="8.346658"><ele>527.5</ele><time>2026-03-28T10:34:26.289Z</time></trkpt><trkpt lat="44.3187756" lon="8.3466082"><ele>532.0</ele><time>2026-03-28T10:34:27.292Z</time></trkpt><trkpt lat="44.3186509" lon="8.346617"><ele>536.5</ele><time>2026-03-28T10:34:29.293Z</time></trkpt><trkpt lat="44.318582" lon="8.3466496"><ele>541.0</ele><time>2026-03-28T10:34:30.288Z</time></trkpt><trkpt lat="44.3185133" lon="8.3466956"><ele>541.0</ele><time>2026-03-28T10:34:31.296Z</time></trkpt><trkpt lat="44.3184437" lon="8.3467282"><ele>541.0</ele><time>2026-03-28T10:34:32.294Z</time></trkpt><trkpt lat="44.3183631" lon="8.3467622"><ele>541.0</ele><time>2026-03-28T10:34:33.303Z</time></trkpt><trkpt lat="44.3182814" lon="8.3467828"><ele>541.0</ele><time>2026-03-28T10:34:34.299Z</time></trkpt><trkpt lat="44.3182009" lon="8.3468058"><ele>541.0</ele><time>2026-03-28T10:34:35.303Z</time></trkpt><trkpt lat="44.3181247" lon="8.3468401"><ele>541.0</ele><time>2026-03-28T10:34:36.296Z</time></trkpt><trkpt lat="44.3180417" lon="8.3468905"><ele>539.0</ele><time>2026-03-28T10:34:37.304Z</time></trkpt><trkpt lat="44.3179559" lon="8.3469505"><ele>537.0</ele><time>2026-03-28T10:34:38.298Z</time></trkpt><trkpt lat="44.3178793" lon="8.3470026"><ele>535.0</ele><time>2026-03-28T10:34:39.304Z</time></trkpt><trkpt lat="44.3178073" lon="8.3470401"><ele>533.0</ele><time>2026-03-28T10:34:40.299Z</time></trkpt><trkpt lat="44.3176902" lon="8.3470688"><ele>531.0</ele><time>2026-03-28T10:34:42.304Z</time></trkpt><trkpt lat="44.3175902" lon="8.3469566"><ele>531.0</ele><time>2026-03-28T10:34:44.292Z</time></trkpt><trkpt lat="44.3175431" lon="8.3468696"><ele>531.0</ele><time>2026-03-28T10:34:45.295Z</time></trkpt><trkpt lat="44.3174922" lon="8.3467783"><ele>531.0</ele><time>2026-03-28T10:34:46.305Z</time></trkpt><trkpt lat="44.3174469" lon="8.3466708"><ele>531.0</ele><time>2026-03-28T10:34:47.295Z</time></trkpt><trkpt lat="44.3173939" lon="8.3465658"><ele>531.0</ele><time>2026-03-28T10:34:48.297Z</time></trkpt><trkpt lat="44.3173271" lon="8.3464676"><ele>531.0</ele><time>2026-03-28T10:34:49.291Z</time></trkpt><trkpt lat="44.3172772" lon="8.3463725"><ele>533.7142857142858</ele><time>2026-03-28T10:34:50.293Z</time></trkpt><trkpt lat="44.3172316" lon="8.3462935"><ele>536.4285714285714</ele><time>2026-03-28T10:34:51.293Z</time></trkpt><trkpt lat="44.3171861" lon="8.3462318"><ele>539.1428571428571</ele><time>2026-03-28T10:34:52.293Z</time></trkpt><trkpt lat="44.3171246" lon="8.3462061"><ele>541.8571428571429</ele><time>2026-03-28T10:34:53.287Z</time></trkpt><trkpt lat="44.3170508" lon="8.3461879"><ele>544.5714285714286</ele><time>2026-03-28T10:34:54.296Z</time></trkpt><trkpt lat="44.3169751" lon="8.3461795"><ele>547.2857142857143</ele><time>2026-03-28T10:34:55.287Z</time></trkpt><trkpt lat="44.316895" lon="8.3461723"><ele>550.0</ele><time>2026-03-28T10:34:56.302Z</time></trkpt><trkpt lat="44.3168163" lon="8.3461774"><ele>550.0</ele><time>2026-03-28T10:34:57.296Z</time></trkpt><trkpt lat="44.3167437" lon="8.3462076"><ele>550.0</ele><time>2026-03-28T10:34:58.297Z</time></trkpt><trkpt lat="44.3166765" lon="8.346245"><ele>550.0</ele><time>2026-03-28T10:34:59.302Z</time></trkpt><trkpt lat="44.3166078" lon="8.3462715"><ele>550.0</ele><time>2026-03-28T10:35:00.297Z</time></trkpt><trkpt lat="44.3165455" lon="8.3462941"><ele>550.0</ele><time>2026-03-28T10:35:01.299Z</time></trkpt><trkpt lat="44.3164531" lon="8.3463595"><ele>550.0</ele><time>2026-03-28T10:35:03.307Z</time></trkpt><trkpt lat="44.3163858" lon="8.3464086"><ele>549.2</ele><time>2026-03-28T10:35:05.296Z</time></trkpt><trkpt lat="44.3162612" lon="8.3464231"><ele>548.4</ele><time>2026-03-28T10:35:07.295Z</time></trkpt><trkpt lat="44.31619" lon="8.3463948"><ele>547.6</ele><time>2026-03-28T10:35:08.306Z</time></trkpt><trkpt lat="44.3160949" lon="8.3463652"><ele>546.8</ele><time>2026-03-28T10:35:09.291Z</time></trkpt><trkpt lat="44.3160011" lon="8.3463251"><ele>546.0</ele><time>2026-03-28T10:35:10.3Z</time></trkpt><trkpt lat="44.3159075" lon="8.346286"><ele>546.0</ele><time>2026-03-28T10:35:11.292Z</time></trkpt><trkpt lat="44.3158265" lon="8.3462459"><ele>546.0</ele><time>2026-03-28T10:35:12.298Z</time></trkpt><trkpt lat="44.3157511" lon="8.3462139"><ele>546.0</ele><time>2026-03-28T10:35:13.29Z</time></trkpt><trkpt lat="44.3156788" lon="8.3461834"><ele>546.0</ele><time>2026-03-28T10:35:14.297Z</time></trkpt><trkpt lat="44.3156087" lon="8.3461356"><ele>546.0</ele><time>2026-03-28T10:35:15.296Z</time></trkpt><trkpt lat="44.3155412" lon="8.3460696"><ele>546.0</ele><time>2026-03-28T10:35:16.29Z</time></trkpt><trkpt lat="44.3154672" lon="8.345987"><ele>546.8</ele><time>2026-03-28T10:35:17.307Z</time></trkpt><trkpt lat="44.315389" lon="8.3459013"><ele>547.6</ele><time>2026-03-28T10:35:18.287Z</time></trkpt><trkpt lat="44.3153102" lon="8.3458284"><ele>548.4</ele><time>2026-03-28T10:35:19.288Z</time></trkpt><trkpt lat="44.315236" lon="8.3457818"><ele>549.2</ele><time>2026-03-28T10:35:20.287Z</time></trkpt><trkpt lat="44.3151802" lon="8.3457208"><ele>550.0</ele><time>2026-03-28T10:35:21.289Z</time></trkpt><trkpt lat="44.3150779" lon="8.3456425"><ele>550.0</ele><time>2026-03-28T10:35:23.291Z</time></trkpt><trkpt lat="44.3150077" lon="8.3456146"><ele>550.0</ele><time>2026-03-28T10:35:25.289Z</time></trkpt><trkpt lat="44.3149488" lon="8.3456892"><ele>550.0</ele><time>2026-03-28T10:35:27.29Z</time></trkpt><trkpt lat="44.3149672" lon="8.3458567"><ele>550.0</ele><time>2026-03-28T10:35:29.284Z</time></trkpt><trkpt lat="44.3149848" lon="8.3459621"><ele>550.0</ele><time>2026-03-28T10:35:30.297Z</time></trkpt><trkpt lat="44.3149864" lon="8.346074"><ele>550.0</ele><time>2026-03-28T10:35:31.285Z</time></trkpt><trkpt lat="44.3149705" lon="8.3461771"><ele>550.0</ele><time>2026-03-28T10:35:32.294Z</time></trkpt><trkpt lat="44.3149512" lon="8.3462931"><ele>550.0</ele><time>2026-03-28T10:35:33.286Z</time></trkpt><trkpt lat="44.3149283" lon="8.3463824"><ele>550.0</ele><time>2026-03-28T10:35:34.29Z</time></trkpt><trkpt lat="44.3148694" lon="8.3465105"><ele>550.0</ele><time>2026-03-28T10:35:36.301Z</time></trkpt><trkpt lat="44.3147591" lon="8.3465294"><ele>550.0</ele><time>2026-03-28T10:35:38.298Z</time></trkpt><trkpt lat="44.3146751" lon="8.3464919"><ele>550.3333333333334</ele><time>2026-03-28T10:35:39.299Z</time></trkpt><trkpt lat="44.3145855" lon="8.3464315"><ele>550.6666666666667</ele><time>2026-03-28T10:35:40.295Z</time></trkpt><trkpt lat="44.3145148" lon="8.3463848"><ele>551.0</ele><time>2026-03-28T10:35:41.301Z</time></trkpt><trkpt lat="44.3144517" lon="8.3463666"><ele>551.3333333333334</ele><time>2026-03-28T10:35:42.291Z</time></trkpt><trkpt lat="44.3143641" lon="8.3463883"><ele>551.6666666666666</ele><time>2026-03-28T10:35:44.3Z</time></trkpt><trkpt lat="44.3143358" lon="8.3465204"><ele>552.0</ele><time>2026-03-28T10:35:46.296Z</time></trkpt><trkpt lat="44.3143369" lon="8.3466196"><ele>552.0</ele><time>2026-03-28T10:35:47.292Z</time></trkpt><trkpt lat="44.3143409" lon="8.3467319"><ele>552.0</ele><time>2026-03-28T10:35:48.311Z</time></trkpt><trkpt lat="44.3143598" lon="8.3468612"><ele>552.0</ele><time>2026-03-28T10:35:49.293Z</time></trkpt><trkpt lat="44.3143835" lon="8.3469766"><ele>552.0</ele><time>2026-03-28T10:35:50.294Z</time></trkpt><trkpt lat="44.3143708" lon="8.3470688"><ele>552.0</ele><time>2026-03-28T10:35:51.292Z</time></trkpt><trkpt lat="44.3143576" lon="8.3472119"><ele>552.0</ele><time>2026-03-28T10:35:53.299Z</time></trkpt><trkpt lat="44.3142644" lon="8.3472556"><ele>553.6666666666666</ele><time>2026-03-28T10:35:55.307Z</time></trkpt><trkpt lat="44.314183" lon="8.347244"><ele>555.3333333333334</ele><time>2026-03-28T10:35:56.296Z</time></trkpt><trkpt lat="44.3141089" lon="8.3472445"><ele>557.0</ele><time>2026-03-28T10:35:57.299Z</time></trkpt><trkpt lat="44.3140418" lon="8.3472664"><ele>558.6666666666667</ele><time>2026-03-28T10:35:58.289Z</time></trkpt><trkpt lat="44.3139808" lon="8.3473023"><ele>560.3333333333334</ele><time>2026-03-28T10:35:59.309Z</time></trkpt><trkpt lat="44.3138807" lon="8.3474048"><ele>562.0</ele><time>2026-03-28T10:36:01.298Z</time></trkpt><trkpt lat="44.3138312" lon="8.3474921"><ele>562.0</ele><time>2026-03-28T10:36:02.3Z</time></trkpt><trkpt lat="44.3137938" lon="8.3476096"><ele>562.0</ele><time>2026-03-28T10:36:03.296Z</time></trkpt><trkpt lat="44.3137753" lon="8.3477318"><ele>562.0</ele><time>2026-03-28T10:36:04.29Z</time></trkpt><trkpt lat="44.3137739" lon="8.3478483"><ele>562.0</ele><time>2026-03-28T10:36:05.297Z</time></trkpt><trkpt lat="44.3137777" lon="8.3479829"><ele>562.0</ele><time>2026-03-28T10:36:06.291Z</time></trkpt><trkpt lat="44.3137802" lon="8.3481171"><ele>559.6</ele><time>2026-03-28T10:36:07.291Z</time></trkpt><trkpt lat="44.3137685" lon="8.3482559"><ele>557.2</ele><time>2026-03-28T10:36:08.289Z</time></trkpt><trkpt lat="44.3137451" lon="8.3483893"><ele>554.8</ele><time>2026-03-28T10:36:09.296Z</time></trkpt><trkpt lat="44.3137103" lon="8.3485083"><ele>552.4</ele><time>2026-03-28T10:36:10.289Z</time></trkpt><trkpt lat="44.313664" lon="8.3486161"><ele>550.0</ele><time>2026-03-28T10:36:11.291Z</time></trkpt><trkpt lat="44.3136157" lon="8.3487211"><ele>550.0</ele><time>2026-03-28T10:36:12.292Z</time></trkpt><trkpt lat="44.3135753" lon="8.3488315"><ele>550.0</ele><time>2026-03-28T10:36:13.289Z</time></trkpt><trkpt lat="44.3135339" lon="8.3489508"><ele>550.0</ele><time>2026-03-28T10:36:14.293Z</time></trkpt><trkpt lat="44.3135017" lon="8.3490829"><ele>550.0</ele><time>2026-03-28T10:36:15.287Z</time></trkpt><trkpt lat="44.3134797" lon="8.3492211"><ele>550.0</ele><time>2026-03-28T10:36:16.293Z</time></trkpt><trkpt lat="44.3134672" lon="8.3493604"><ele>548.2</ele><time>2026-03-28T10:36:17.29Z</time></trkpt><trkpt lat="44.3134566" lon="8.3495"><ele>546.4</ele><time>2026-03-28T10:36:18.303Z</time></trkpt><trkpt lat="44.3134605" lon="8.3496307"><ele>544.6</ele><time>2026-03-28T10:36:19.307Z</time></trkpt><trkpt lat="44.3134546" lon="8.3497548"><ele>542.8</ele><time>2026-03-28T10:36:20.296Z</time></trkpt><trkpt lat="44.3134431" lon="8.3498524"><ele>541.0</ele><time>2026-03-28T10:36:21.297Z</time></trkpt><trkpt lat="44.3133905" lon="8.3499979"><ele>538.6666666666667</ele><time>2026-03-28T10:36:23.297Z</time></trkpt><trkpt lat="44.3133509" lon="8.3500671"><ele>536.3333333333334</ele><time>2026-03-28T10:36:24.306Z</time></trkpt><trkpt lat="44.3132866" lon="8.350216"><ele>534.0</ele><time>2026-03-28T10:36:26.305Z</time></trkpt><trkpt lat="44.313254" lon="8.350302"><ele>531.6666666666666</ele><time>2026-03-28T10:36:27.288Z</time></trkpt><trkpt lat="44.3132369" lon="8.3503957"><ele>529.3333333333333</ele><time>2026-03-28T10:36:28.301Z</time></trkpt><trkpt lat="44.3132087" lon="8.3504955"><ele>527.0</ele><time>2026-03-28T10:36:29.289Z</time></trkpt><trkpt lat="44.3131988" lon="8.3505934"><ele>526.2857142857143</ele><time>2026-03-28T10:36:30.296Z</time></trkpt><trkpt lat="44.313181" lon="8.3506974"><ele>525.5714285714286</ele><time>2026-03-28T10:36:31.296Z</time></trkpt><trkpt lat="44.3131551" lon="8.3507899"><ele>524.8571428571429</ele><time>2026-03-28T10:36:32.302Z</time></trkpt><trkpt lat="44.3131223" lon="8.3508697"><ele>524.1428571428571</ele><time>2026-03-28T10:36:33.297Z</time></trkpt><trkpt lat="44.313098" lon="8.35096"><ele>523.4285714285714</ele><time>2026-03-28T10:36:34.299Z</time></trkpt><trkpt lat="44.313066" lon="8.3510423"><ele>522.7142857142858</ele><time>2026-03-28T10:36:35.29Z</time></trkpt><trkpt lat="44.3130355" lon="8.3511259"><ele>522.0</ele><time>2026-03-28T10:36:36.301Z</time></trkpt><trkpt lat="44.3130043" lon="8.3512054"><ele>522.0</ele><time>2026-03-28T10:36:37.292Z</time></trkpt><trkpt lat="44.3129785" lon="8.3512902"><ele>522.0</ele><time>2026-03-28T10:36:38.298Z</time></trkpt><trkpt lat="44.3129562" lon="8.3513737"><ele>522.0</ele><time>2026-03-28T10:36:39.298Z</time></trkpt><trkpt lat="44.3129351" lon="8.3514624"><ele>522.0</ele><time>2026-03-28T10:36:40.304Z</time></trkpt><trkpt lat="44.3128867" lon="8.3515997"><ele>522.0</ele><time>2026-03-28T10:36:42.311Z</time></trkpt><trkpt lat="44.3128193" lon="8.351577"><ele>522.0</ele><time>2026-03-28T10:36:46.304Z</time></trkpt><trkpt lat="44.3127552" lon="8.3515292"><ele>522.0</ele><time>2026-03-28T10:37:05.297Z</time></trkpt><trkpt lat="44.3126978" lon="8.3514748"><ele>522.0</ele><time>2026-03-28T10:37:07.29Z</time></trkpt><trkpt lat="44.3126269" lon="8.351413"><ele>522.0</ele><time>2026-03-28T10:37:09.287Z</time></trkpt><trkpt lat="44.3125501" lon="8.3513289"><ele>522.0</ele><time>2026-03-28T10:37:11.287Z</time></trkpt><trkpt lat="44.3124749" lon="8.3512714"><ele>522.0</ele><time>2026-03-28T10:37:12.29Z</time></trkpt><trkpt lat="44.3123882" lon="8.3511911"><ele>522.0</ele><time>2026-03-28T10:37:13.292Z</time></trkpt><trkpt lat="44.312309" lon="8.3511059"><ele>518.8000000000001</ele><time>2026-03-28T10:37:14.296Z</time></trkpt><trkpt lat="44.3122325" lon="8.3510317"><ele>515.6</ele><time>2026-03-28T10:37:15.29Z</time></trkpt><trkpt lat="44.3121586" lon="8.3509665"><ele>512.4000000000001</ele><time>2026-03-28T10:37:16.292Z</time></trkpt><trkpt lat="44.3120939" lon="8.3509174"><ele>509.20000000000005</ele><time>2026-03-28T10:37:17.282Z</time></trkpt><trkpt lat="44.3119772" lon="8.3508645"><ele>506.0</ele><time>2026-03-28T10:37:19.284Z</time></trkpt><trkpt lat="44.3118533" lon="8.3508295"><ele>505.99999999999994</ele><time>2026-03-28T10:37:21.309Z</time></trkpt><trkpt lat="44.3117273" lon="8.350806"><ele>506.0</ele><time>2026-03-28T10:37:23.296Z</time></trkpt><trkpt lat="44.3116457" lon="8.3507871"><ele>506.0</ele><time>2026-03-28T10:37:24.292Z</time></trkpt><trkpt lat="44.3115698" lon="8.3507511"><ele>506.0</ele><time>2026-03-28T10:37:25.29Z</time></trkpt><trkpt lat="44.3115026" lon="8.3507257"><ele>505.99999999999994</ele><time>2026-03-28T10:37:26.295Z</time></trkpt><trkpt lat="44.3114329" lon="8.350699"><ele>506.0</ele><time>2026-03-28T10:37:27.295Z</time></trkpt><trkpt lat="44.311365" lon="8.3506605"><ele>506.8571428571429</ele><time>2026-03-28T10:37:28.299Z</time></trkpt><trkpt lat="44.3112985" lon="8.3506284"><ele>507.7142857142857</ele><time>2026-03-28T10:37:29.292Z</time></trkpt><trkpt lat="44.3112273" lon="8.3505792"><ele>508.57142857142856</ele><time>2026-03-28T10:37:30.294Z</time></trkpt><trkpt lat="44.311158" lon="8.3505301"><ele>509.42857142857144</ele><time>2026-03-28T10:37:31.291Z</time></trkpt><trkpt lat="44.3110961" lon="8.3504762"><ele>510.2857142857142</ele><time>2026-03-28T10:37:32.287Z</time></trkpt><trkpt lat="44.3110274" lon="8.3504278"><ele>511.1428571428571</ele><time>2026-03-28T10:37:33.287Z</time></trkpt><trkpt lat="44.3109683" lon="8.3503843"><ele>512.0</ele><time>2026-03-28T10:37:34.289Z</time></trkpt><trkpt lat="44.3109139" lon="8.3503286"><ele>511.99999999999994</ele><time>2026-03-28T10:37:35.289Z</time></trkpt><trkpt lat="44.310865" lon="8.3502573"><ele>512.0</ele><time>2026-03-28T10:37:36.295Z</time></trkpt><trkpt lat="44.3108251" lon="8.3501841"><ele>512.0</ele><time>2026-03-28T10:37:37.288Z</time></trkpt><trkpt lat="44.3107871" lon="8.3501068"><ele>512.0</ele><time>2026-03-28T10:37:38.292Z</time></trkpt><trkpt lat="44.3107049" lon="8.3500186"><ele>511.99999999999994</ele><time>2026-03-28T10:37:40.299Z</time></trkpt><trkpt lat="44.3106224" lon="8.3500481"><ele>512.0</ele><time>2026-03-28T10:37:42.299Z</time></trkpt><trkpt lat="44.3105719" lon="8.3501949"><ele>511.99999999999994</ele><time>2026-03-28T10:37:44.293Z</time></trkpt><trkpt lat="44.3105687" lon="8.350295"><ele>512.0</ele><time>2026-03-28T10:37:45.286Z</time></trkpt><trkpt lat="44.3105776" lon="8.3503993"><ele>512.0</ele><time>2026-03-28T10:37:46.286Z</time></trkpt><trkpt lat="44.3105818" lon="8.3505066"><ele>512.0</ele><time>2026-03-28T10:37:47.287Z</time></trkpt><trkpt lat="44.3105691" lon="8.3506085"><ele>511.99999999999994</ele><time>2026-03-28T10:37:48.299Z</time></trkpt><trkpt lat="44.3105416" lon="8.3506966"><ele>512.0</ele><time>2026-03-28T10:37:49.291Z</time></trkpt><trkpt lat="44.3104577" lon="8.350824"><ele>508.99999999999994</ele><time>2026-03-28T10:37:51.298Z</time></trkpt><trkpt lat="44.3104039" lon="8.3508787"><ele>506.0</ele><time>2026-03-28T10:37:52.285Z</time></trkpt><trkpt lat="44.3103419" lon="8.3509413"><ele>503.0</ele><time>2026-03-28T10:37:53.291Z</time></trkpt><trkpt lat="44.3102693" lon="8.3510084"><ele>500.0</ele><time>2026-03-28T10:37:54.291Z</time></trkpt><trkpt lat="44.3101969" lon="8.3510738"><ele>496.99999999999994</ele><time>2026-03-28T10:37:55.295Z</time></trkpt><trkpt lat="44.3101193" lon="8.3511129"><ele>494.0</ele><time>2026-03-28T10:37:56.29Z</time></trkpt><trkpt lat="44.3100427" lon="8.3511394"><ele>494.0</ele><time>2026-03-28T10:37:57.3Z</time></trkpt><trkpt lat="44.3099568" lon="8.351146"><ele>494.0</ele><time>2026-03-28T10:37:58.284Z</time></trkpt><trkpt lat="44.3098683" lon="8.3511576"><ele>494.0</ele><time>2026-03-28T10:37:59.3Z</time></trkpt><trkpt lat="44.3097781" lon="8.3511378"><ele>494.0</ele><time>2026-03-28T10:38:00.288Z</time></trkpt><trkpt lat="44.3096868" lon="8.3511017"><ele>494.0</ele><time>2026-03-28T10:38:01.294Z</time></trkpt><trkpt lat="44.309594" lon="8.3510589"><ele>491.79999999999995</ele><time>2026-03-28T10:38:02.287Z</time></trkpt><trkpt lat="44.3095015" lon="8.351006"><ele>489.59999999999997</ele><time>2026-03-28T10:38:03.293Z</time></trkpt><trkpt lat="44.3094099" lon="8.3509491"><ele>487.4</ele><time>2026-03-28T10:38:04.284Z</time></trkpt><trkpt lat="44.3093328" lon="8.350887"><ele>485.2</ele><time>2026-03-28T10:38:05.295Z</time></trkpt><trkpt lat="44.3092615" lon="8.3508156"><ele>483.0</ele><time>2026-03-28T10:38:06.287Z</time></trkpt><trkpt lat="44.3092001" lon="8.3507344"><ele>483.0</ele><time>2026-03-28T10:38:07.289Z</time></trkpt><trkpt lat="44.3091488" lon="8.3506575"><ele>483.0</ele><time>2026-03-28T10:38:08.283Z</time></trkpt><trkpt lat="44.3091018" lon="8.3505863"><ele>483.0</ele><time>2026-03-28T10:38:09.284Z</time></trkpt><trkpt lat="44.3090567" lon="8.3505205"><ele>483.0</ele><time>2026-03-28T10:38:10.287Z</time></trkpt><trkpt lat="44.3089569" lon="8.3504509"><ele>483.0</ele><time>2026-03-28T10:38:12.299Z</time></trkpt><trkpt lat="44.3088922" lon="8.3504922"><ele>483.0</ele><time>2026-03-28T10:38:14.294Z</time></trkpt><trkpt lat="44.3088746" lon="8.3506304"><ele>483.0</ele><time>2026-03-28T10:38:16.299Z</time></trkpt><trkpt lat="44.3088523" lon="8.3508056"><ele>483.0</ele><time>2026-03-28T10:38:18.297Z</time></trkpt><trkpt lat="44.3088465" lon="8.3509657"><ele>483.0</ele><time>2026-03-28T10:38:20.293Z</time></trkpt><trkpt lat="44.3088621" lon="8.3511129"><ele>483.0</ele><time>2026-03-28T10:38:22.313Z</time></trkpt><trkpt lat="44.3089334" lon="8.351234"><ele>483.0</ele><time>2026-03-28T10:38:24.291Z</time></trkpt><trkpt lat="44.309024" lon="8.3513606"><ele>483.0</ele><time>2026-03-28T10:38:26.295Z</time></trkpt><trkpt lat="44.3090649" lon="8.3514277"><ele>483.0</ele><time>2026-03-28T10:38:27.293Z</time></trkpt><trkpt lat="44.3091308" lon="8.3515402"><ele>483.0</ele><time>2026-03-28T10:38:29.294Z</time></trkpt><trkpt lat="44.3091757" lon="8.351604"><ele>483.0</ele><time>2026-03-28T10:38:31.295Z</time></trkpt><trkpt lat="44.3092508" lon="8.3516345"><ele>483.0</ele><time>2026-03-28T10:38:36.291Z</time></trkpt><trkpt lat="44.309321" lon="8.3516648"><ele>481.8333333333333</ele><time>2026-03-28T10:38:38.287Z</time></trkpt><trkpt lat="44.3094173" lon="8.3516733"><ele>480.66666666666663</ele><time>2026-03-28T10:38:40.29Z</time></trkpt><trkpt lat="44.3095281" lon="8.351699"><ele>479.5</ele><time>2026-03-28T10:38:42.291Z</time></trkpt><trkpt lat="44.3095856" lon="8.351735"><ele>478.3333333333333</ele><time>2026-03-28T10:38:43.297Z</time></trkpt><trkpt lat="44.3096415" lon="8.3517807"><ele>477.16666666666663</ele><time>2026-03-28T10:38:44.293Z</time></trkpt><trkpt lat="44.3096969" lon="8.3518331"><ele>476.0</ele><time>2026-03-28T10:38:45.302Z</time></trkpt><trkpt lat="44.3097598" lon="8.3519399"><ele>476.0</ele><time>2026-03-28T10:38:47.296Z</time></trkpt><trkpt lat="44.3097455" lon="8.3520357"><ele>476.0</ele><time>2026-03-28T10:38:49.292Z</time></trkpt><trkpt lat="44.3096608" lon="8.3520646"><ele>476.0</ele><time>2026-03-28T10:38:51.289Z</time></trkpt><trkpt lat="44.3095236" lon="8.3520393"><ele>476.0</ele><time>2026-03-28T10:38:53.302Z</time></trkpt><trkpt lat="44.3094402" lon="8.3520229"><ele>476.0</ele><time>2026-03-28T10:38:54.296Z</time></trkpt><trkpt lat="44.3093672" lon="8.3520076"><ele>473.8333333333333</ele><time>2026-03-28T10:38:55.301Z</time></trkpt><trkpt lat="44.3092939" lon="8.3520024"><ele>471.66666666666663</ele><time>2026-03-28T10:38:56.295Z</time></trkpt><trkpt lat="44.3092242" lon="8.3519933"><ele>469.5</ele><time>2026-03-28T10:38:57.299Z</time></trkpt><trkpt lat="44.3091065" lon="8.3519762"><ele>467.33333333333337</ele><time>2026-03-28T10:38:59.302Z</time></trkpt><trkpt lat="44.3090209" lon="8.3519723"><ele>465.1666666666667</ele><time>2026-03-28T10:39:01.3Z</time></trkpt><trkpt lat="44.3089387" lon="8.3519664"><ele>463.0</ele><time>2026-03-28T10:39:32.286Z</time></trkpt><trkpt lat="44.308808" lon="8.3519195"><ele>460.2</ele><time>2026-03-28T10:39:34.286Z</time></trkpt><trkpt lat="44.308735" lon="8.3518962"><ele>457.4</ele><time>2026-03-28T10:39:35.287Z</time></trkpt><trkpt lat="44.308637" lon="8.3518294"><ele>454.59999999999997</ele><time>2026-03-28T10:39:37.283Z</time></trkpt><trkpt lat="44.3085677" lon="8.3517261"><ele>451.79999999999995</ele><time>2026-03-28T10:39:39.285Z</time></trkpt><trkpt lat="44.308534" lon="8.3516007"><ele>449.0</ele><time>2026-03-28T10:39:41.293Z</time></trkpt><trkpt lat="44.3084842" lon="8.3515006"><ele>449.0</ele><time>2026-03-28T10:39:43.287Z</time></trkpt><trkpt lat="44.3083991" lon="8.3514786"><ele>449.0</ele><time>2026-03-28T10:39:45.287Z</time></trkpt><trkpt lat="44.3082848" lon="8.3514832"><ele>449.0</ele><time>2026-03-28T10:39:47.287Z</time></trkpt><trkpt lat="44.3081857" lon="8.3515019"><ele>449.0</ele><time>2026-03-28T10:39:49.287Z</time></trkpt><trkpt lat="44.3080885" lon="8.3515355"><ele>449.0</ele><time>2026-03-28T10:39:52.293Z</time></trkpt><trkpt lat="44.307988" lon="8.3515776"><ele>446.2</ele><time>2026-03-28T10:39:54.296Z</time></trkpt><trkpt lat="44.3078709" lon="8.3515925"><ele>443.4</ele><time>2026-03-28T10:39:56.29Z</time></trkpt><trkpt lat="44.3078071" lon="8.3515898"><ele>440.6</ele><time>2026-03-28T10:39:57.294Z</time></trkpt><trkpt lat="44.307689" lon="8.3515556"><ele>437.8</ele><time>2026-03-28T10:39:59.294Z</time></trkpt><trkpt lat="44.3075873" lon="8.3514815"><ele>435.0</ele><time>2026-03-28T10:40:01.292Z</time></trkpt><trkpt lat="44.3074966" lon="8.3513635"><ele>442.0</ele><time>2026-03-28T10:40:03.295Z</time></trkpt><trkpt lat="44.3074495" lon="8.3512343"><ele>449.0</ele><time>2026-03-28T10:40:05.295Z</time></trkpt><trkpt lat="44.3073744" lon="8.3511783"><ele>456.0</ele><time>2026-03-28T10:40:07.297Z</time></trkpt><trkpt lat="44.307261" lon="8.3512161"><ele>463.0</ele><time>2026-03-28T10:40:09.291Z</time></trkpt><trkpt lat="44.3071977" lon="8.3512517"><ele>470.0</ele><time>2026-03-28T10:40:10.285Z</time></trkpt><trkpt lat="44.3071263" lon="8.3512964"><ele>472.2</ele><time>2026-03-28T10:40:11.291Z</time></trkpt><trkpt lat="44.3070596" lon="8.3513285"><ele>474.4</ele><time>2026-03-28T10:40:12.286Z</time></trkpt><trkpt lat="44.3069447" lon="8.3514029"><ele>476.6</ele><time>2026-03-28T10:40:14.28Z</time></trkpt><trkpt lat="44.3068467" lon="8.3515216"><ele>478.8</ele><time>2026-03-28T10:40:16.28Z</time></trkpt><trkpt lat="44.3068071" lon="8.3515946"><ele>481.0</ele><time>2026-03-28T10:40:17.283Z</time></trkpt><trkpt lat="44.3067555" lon="8.3517518"><ele>476.33333333333337</ele><time>2026-03-28T10:40:19.286Z</time></trkpt><trkpt lat="44.3067248" lon="8.3518438"><ele>471.6666666666667</ele><time>2026-03-28T10:40:20.279Z</time></trkpt><trkpt lat="44.306696" lon="8.3519391"><ele>467.0</ele><time>2026-03-28T10:40:21.285Z</time></trkpt><trkpt lat="44.3066568" lon="8.3520383"><ele>462.33333333333337</ele><time>2026-03-28T10:40:22.282Z</time></trkpt><trkpt lat="44.306607" lon="8.3521332"><ele>457.6666666666667</ele><time>2026-03-28T10:40:23.284Z</time></trkpt><trkpt lat="44.3065558" lon="8.3522205"><ele>453.0</ele><time>2026-03-28T10:40:24.283Z</time></trkpt><trkpt lat="44.3064965" lon="8.3522978"><ele>454.0</ele><time>2026-03-28T10:40:25.284Z</time></trkpt><trkpt lat="44.3064434" lon="8.3523692"><ele>455.0</ele><time>2026-03-28T10:40:26.293Z</time></trkpt><trkpt lat="44.3064039" lon="8.3524578"><ele>456.0</ele><time>2026-03-28T10:40:27.28Z</time></trkpt><trkpt lat="44.3063809" lon="8.3525547"><ele>457.0</ele><time>2026-03-28T10:40:28.283Z</time></trkpt><trkpt lat="44.3063662" lon="8.3526593"><ele>458.0</ele><time>2026-03-28T10:40:29.279Z</time></trkpt><trkpt lat="44.3063764" lon="8.3527777"><ele>459.0</ele><time>2026-03-28T10:40:30.276Z</time></trkpt><trkpt lat="44.3064065" lon="8.3528991"><ele>455.6</ele><time>2026-03-28T10:40:31.276Z</time></trkpt><trkpt lat="44.3064403" lon="8.3530184"><ele>452.2</ele><time>2026-03-28T10:40:32.281Z</time></trkpt><trkpt lat="44.3064567" lon="8.3531139"><ele>448.80000000000007</ele><time>2026-03-28T10:40:33.273Z</time></trkpt><trkpt lat="44.3064396" lon="8.353255"><ele>445.40000000000003</ele><time>2026-03-28T10:40:35.283Z</time></trkpt><trkpt lat="44.3063664" lon="8.3533765"><ele>442.0</ele><time>2026-03-28T10:40:37.288Z</time></trkpt><trkpt lat="44.3063029" lon="8.3534338"><ele>442.00000000000006</ele><time>2026-03-28T10:40:38.29Z</time></trkpt><trkpt lat="44.3062313" lon="8.3534921"><ele>442.0</ele><time>2026-03-28T10:40:39.284Z</time></trkpt><trkpt lat="44.3061491" lon="8.3535636"><ele>442.0</ele><time>2026-03-28T10:40:40.292Z</time></trkpt><trkpt lat="44.3060625" lon="8.3536265"><ele>442.0</ele><time>2026-03-28T10:40:41.282Z</time></trkpt><trkpt lat="44.3059917" lon="8.3536882"><ele>442.00000000000006</ele><time>2026-03-28T10:40:42.294Z</time></trkpt><trkpt lat="44.3059112" lon="8.3537369"><ele>442.0</ele><time>2026-03-28T10:40:43.286Z</time></trkpt><trkpt lat="44.3058276" lon="8.3537493"><ele>442.00000000000006</ele><time>2026-03-28T10:40:44.294Z</time></trkpt><trkpt lat="44.3057341" lon="8.3537514"><ele>442.0</ele><time>2026-03-28T10:40:45.286Z</time></trkpt><trkpt lat="44.3056523" lon="8.3537401"><ele>442.0</ele><time>2026-03-28T10:40:46.291Z</time></trkpt><trkpt lat="44.305572" lon="8.3537225"><ele>442.0</ele><time>2026-03-28T10:40:47.284Z</time></trkpt><trkpt lat="44.3055077" lon="8.3536853"><ele>442.00000000000006</ele><time>2026-03-28T10:40:48.289Z</time></trkpt><trkpt lat="44.3054087" lon="8.3536021"><ele>442.0</ele><time>2026-03-28T10:40:50.293Z</time></trkpt><trkpt lat="44.3053385" lon="8.3535808"><ele>443.00000000000006</ele><time>2026-03-28T10:40:52.295Z</time></trkpt><trkpt lat="44.305261" lon="8.3535975"><ele>444.0</ele><time>2026-03-28T10:40:54.289Z</time></trkpt><trkpt lat="44.3051892" lon="8.3536537"><ele>445.0</ele><time>2026-03-28T10:40:56.295Z</time></trkpt><trkpt lat="44.3051055" lon="8.3537328"><ele>446.0</ele><time>2026-03-28T10:40:58.287Z</time></trkpt><trkpt lat="44.3050086" lon="8.3538241"><ele>447.00000000000006</ele><time>2026-03-28T10:41:00.287Z</time></trkpt><trkpt lat="44.304954" lon="8.3538705"><ele>448.0</ele><time>2026-03-28T10:41:01.296Z</time></trkpt><trkpt lat="44.3048885" lon="8.3539319"><ele>444.59999999999997</ele><time>2026-03-28T10:41:02.287Z</time></trkpt><trkpt lat="44.3048031" lon="8.3539751"><ele>441.19999999999993</ele><time>2026-03-28T10:41:03.288Z</time></trkpt><trkpt lat="44.304711" lon="8.3540251"><ele>437.8</ele><time>2026-03-28T10:41:04.29Z</time></trkpt><trkpt lat="44.3046181" lon="8.3540704"><ele>434.4</ele><time>2026-03-28T10:41:05.286Z</time></trkpt><trkpt lat="44.3045443" lon="8.3541183"><ele>431.0</ele><time>2026-03-28T10:41:06.29Z</time></trkpt><trkpt lat="44.3044638" lon="8.3541462"><ele>431.0</ele><time>2026-03-28T10:41:07.285Z</time></trkpt><trkpt lat="44.3043958" lon="8.3541631"><ele>431.0</ele><time>2026-03-28T10:41:08.286Z</time></trkpt><trkpt lat="44.3043086" lon="8.3542507"><ele>431.0</ele><time>2026-03-28T10:41:10.292Z</time></trkpt><trkpt lat="44.3042805" lon="8.3543598"><ele>431.0</ele><time>2026-03-28T10:41:12.29Z</time></trkpt><trkpt lat="44.3042555" lon="8.3545607"><ele>431.0</ele><time>2026-03-28T10:41:14.287Z</time></trkpt><trkpt lat="44.3042404" lon="8.3546855"><ele>428.8333333333333</ele><time>2026-03-28T10:41:15.287Z</time></trkpt><trkpt lat="44.3042192" lon="8.3548029"><ele>426.66666666666663</ele><time>2026-03-28T10:41:16.288Z</time></trkpt><trkpt lat="44.3041719" lon="8.3548897"><ele>424.5</ele><time>2026-03-28T10:41:17.281Z</time></trkpt><trkpt lat="44.3041113" lon="8.3549762"><ele>422.33333333333337</ele><time>2026-03-28T10:41:18.289Z</time></trkpt><trkpt lat="44.3040556" lon="8.3550773"><ele>420.1666666666667</ele><time>2026-03-28T10:41:19.283Z</time></trkpt><trkpt lat="44.3040185" lon="8.3551807"><ele>418.0</ele><time>2026-03-28T10:41:20.286Z</time></trkpt><trkpt lat="44.3039763" lon="8.355279"><ele>418.00000000000006</ele><time>2026-03-28T10:41:21.289Z</time></trkpt><trkpt lat="44.3039378" lon="8.3553993"><ele>418.0</ele><time>2026-03-28T10:41:22.285Z</time></trkpt><trkpt lat="44.3039034" lon="8.3555175"><ele>418.0</ele><time>2026-03-28T10:41:23.283Z</time></trkpt><trkpt lat="44.3038716" lon="8.3556213"><ele>418.0</ele><time>2026-03-28T10:41:24.284Z</time></trkpt><trkpt lat="44.3038353" lon="8.3557119"><ele>418.00000000000006</ele><time>2026-03-28T10:41:25.29Z</time></trkpt><trkpt lat="44.3037895" lon="8.3557868"><ele>418.0</ele><time>2026-03-28T10:41:26.292Z</time></trkpt><trkpt lat="44.3037359" lon="8.3558422"><ele>416.33333333333337</ele><time>2026-03-28T10:41:27.286Z</time></trkpt><trkpt lat="44.3036222" lon="8.355934"><ele>414.6666666666667</ele><time>2026-03-28T10:41:29.29Z</time></trkpt><trkpt lat="44.3035576" lon="8.3559785"><ele>413.0</ele><time>2026-03-28T10:41:30.289Z</time></trkpt><trkpt lat="44.3034925" lon="8.3560027"><ele>411.33333333333337</ele><time>2026-03-28T10:41:31.288Z</time></trkpt><trkpt lat="44.3034221" lon="8.3560248"><ele>409.6666666666667</ele><time>2026-03-28T10:41:32.29Z</time></trkpt><trkpt lat="44.3033449" lon="8.3560348"><ele>408.0</ele><time>2026-03-28T10:41:33.286Z</time></trkpt><trkpt lat="44.3032627" lon="8.3560405"><ele>408.0</ele><time>2026-03-28T10:41:34.296Z</time></trkpt><trkpt lat="44.3031818" lon="8.3560213"><ele>408.0</ele><time>2026-03-28T10:41:35.284Z</time></trkpt><trkpt lat="44.3031086" lon="8.3559874"><ele>408.0</ele><time>2026-03-28T10:41:36.293Z</time></trkpt><trkpt lat="44.3030406" lon="8.3559344"><ele>408.0</ele><time>2026-03-28T10:41:37.285Z</time></trkpt><trkpt lat="44.3029857" lon="8.3558737"><ele>408.0</ele><time>2026-03-28T10:41:38.294Z</time></trkpt><trkpt lat="44.3029349" lon="8.3557953"><ele>408.0</ele><time>2026-03-28T10:41:39.283Z</time></trkpt><trkpt lat="44.3028844" lon="8.3557175"><ele>408.0</ele><time>2026-03-28T10:41:40.292Z</time></trkpt><trkpt lat="44.3028478" lon="8.3556247"><ele>408.0</ele><time>2026-03-28T10:41:41.282Z</time></trkpt><trkpt lat="44.3028154" lon="8.3555367"><ele>408.0</ele><time>2026-03-28T10:41:42.29Z</time></trkpt><trkpt lat="44.3027588" lon="8.3553912"><ele>408.0</ele><time>2026-03-28T10:41:44.293Z</time></trkpt><trkpt lat="44.3026836" lon="8.3553884"><ele>408.0</ele><time>2026-03-28T10:41:47.283Z</time></trkpt><trkpt lat="44.3026356" lon="8.3555137"><ele>408.0</ele><time>2026-03-28T10:41:49.283Z</time></trkpt><trkpt lat="44.3025806" lon="8.3556472"><ele>408.0</ele><time>2026-03-28T10:41:51.281Z</time></trkpt><trkpt lat="44.3024803" lon="8.3557413"><ele>408.0</ele><time>2026-03-28T10:41:53.284Z</time></trkpt><trkpt lat="44.3024125" lon="8.3557786"><ele>408.0</ele><time>2026-03-28T10:41:54.288Z</time></trkpt><trkpt lat="44.3023308" lon="8.3558089"><ele>408.0</ele><time>2026-03-28T10:41:55.282Z</time></trkpt><trkpt lat="44.3022419" lon="8.355847"><ele>408.0</ele><time>2026-03-28T10:41:56.285Z</time></trkpt><trkpt lat="44.3021707" lon="8.3559001"><ele>407.3333333333333</ele><time>2026-03-28T10:41:57.282Z</time></trkpt><trkpt lat="44.3021022" lon="8.3559636"><ele>406.66666666666663</ele><time>2026-03-28T10:41:58.288Z</time></trkpt><trkpt lat="44.3020376" lon="8.3560452"><ele>406.0</ele><time>2026-03-28T10:41:59.31Z</time></trkpt><trkpt lat="44.3019723" lon="8.3561211"><ele>405.3333333333333</ele><time>2026-03-28T10:42:00.288Z</time></trkpt><trkpt lat="44.3019234" lon="8.356206"><ele>404.66666666666663</ele><time>2026-03-28T10:42:01.29Z</time></trkpt><trkpt lat="44.301886" lon="8.3562869"><ele>404.0</ele><time>2026-03-28T10:42:02.287Z</time></trkpt><trkpt lat="44.3018644" lon="8.3563767"><ele>404.0</ele><time>2026-03-28T10:42:03.297Z</time></trkpt><trkpt lat="44.3018696" lon="8.3564915"><ele>404.0</ele><time>2026-03-28T10:42:04.289Z</time></trkpt><trkpt lat="44.3018768" lon="8.3565977"><ele>404.0</ele><time>2026-03-28T10:42:05.291Z</time></trkpt><trkpt lat="44.3018779" lon="8.3566897"><ele>404.0</ele><time>2026-03-28T10:42:06.284Z</time></trkpt><trkpt lat="44.3018608" lon="8.3567751"><ele>404.0</ele><time>2026-03-28T10:42:07.289Z</time></trkpt><trkpt lat="44.301824" lon="8.3568473"><ele>404.0</ele><time>2026-03-28T10:42:08.283Z</time></trkpt><trkpt lat="44.3017804" lon="8.3569168"><ele>404.0</ele><time>2026-03-28T10:42:09.297Z</time></trkpt><trkpt lat="44.3016781" lon="8.3569859"><ele>404.0</ele><time>2026-03-28T10:42:11.29Z</time></trkpt><trkpt lat="44.3016051" lon="8.3571233"><ele>404.0</ele><time>2026-03-28T10:42:13.29Z</time></trkpt><trkpt lat="44.3015893" lon="8.3572288"><ele>404.0</ele><time>2026-03-28T10:42:14.285Z</time></trkpt><trkpt lat="44.3015772" lon="8.3573411"><ele>404.0</ele><time>2026-03-28T10:42:15.288Z</time></trkpt><trkpt lat="44.3015599" lon="8.3574595"><ele>404.0</ele><time>2026-03-28T10:42:16.282Z</time></trkpt><trkpt lat="44.3015231" lon="8.3575796"><ele>404.3333333333333</ele><time>2026-03-28T10:42:17.29Z</time></trkpt><trkpt lat="44.3014754" lon="8.3576922"><ele>404.66666666666663</ele><time>2026-03-28T10:42:18.286Z</time></trkpt><trkpt lat="44.3014334" lon="8.357801"><ele>405.0</ele><time>2026-03-28T10:42:19.288Z</time></trkpt><trkpt lat="44.3013924" lon="8.3578822"><ele>405.33333333333337</ele><time>2026-03-28T10:42:20.286Z</time></trkpt><trkpt lat="44.3013075" lon="8.3579833"><ele>405.6666666666667</ele><time>2026-03-28T10:42:22.285Z</time></trkpt><trkpt lat="44.3012668" lon="8.3580577"><ele>406.0</ele><time>2026-03-28T10:42:24.283Z</time></trkpt><trkpt lat="44.3013369" lon="8.3580742"><ele>402.8</ele><time>2026-03-28T10:42:28.288Z</time></trkpt><trkpt lat="44.3014248" lon="8.3579393"><ele>399.6</ele><time>2026-03-28T10:42:30.288Z</time></trkpt><trkpt lat="44.3014843" lon="8.3578447"><ele>396.4</ele><time>2026-03-28T10:42:31.289Z</time></trkpt><trkpt lat="44.3015543" lon="8.3577676"><ele>393.2</ele><time>2026-03-28T10:42:32.28Z</time></trkpt><trkpt lat="44.3016176" lon="8.3576872"><ele>390.0</ele><time>2026-03-28T10:42:33.293Z</time></trkpt><trkpt lat="44.3016765" lon="8.3576122"><ele>390.0</ele><time>2026-03-28T10:42:34.283Z</time></trkpt><trkpt lat="44.3017283" lon="8.3575424"><ele>390.0</ele><time>2026-03-28T10:42:35.291Z</time></trkpt><trkpt lat="44.3018076" lon="8.3574301"><ele>390.0</ele><time>2026-03-28T10:42:37.293Z</time></trkpt><trkpt lat="44.3018596" lon="8.3573777"><ele>390.0</ele><time>2026-03-28T10:42:39.293Z</time></trkpt><trkpt lat="44.3019305" lon="8.3573331"><ele>390.0</ele><time>2026-03-28T10:42:42.294Z</time></trkpt><trkpt lat="44.3019753" lon="8.3572691"><ele>390.0</ele><time>2026-03-28T10:42:45.286Z</time></trkpt><trkpt lat="44.3020266" lon="8.3572149"><ele>390.0</ele><time>2026-03-28T10:42:48.296Z</time></trkpt><trkpt lat="44.3021151" lon="8.3572402"><ele>390.0</ele><time>2026-03-28T10:43:08.291Z</time></trkpt><trkpt lat="44.3021522" lon="8.3573132"><ele>390.0</ele><time>2026-03-28T10:43:10.266Z</time></trkpt><trkpt lat="44.3020514" lon="8.3573894"><ele>390.0</ele><time>2026-03-28T10:43:14.283Z</time></trkpt><trkpt lat="44.3019899" lon="8.3574457"><ele>390.0</ele><time>2026-03-28T10:43:15.295Z</time></trkpt><trkpt lat="44.3019267" lon="8.3575121"><ele>390.0</ele><time>2026-03-28T10:43:16.287Z</time></trkpt><trkpt lat="44.3018693" lon="8.3575891"><ele>390.0</ele><time>2026-03-28T10:43:17.288Z</time></trkpt><trkpt lat="44.3018235" lon="8.3576613"><ele>390.0</ele><time>2026-03-28T10:43:18.288Z</time></trkpt><trkpt lat="44.3017654" lon="8.3578345"><ele>390.0</ele><time>2026-03-28T10:43:20.289Z</time></trkpt><trkpt lat="44.3017449" lon="8.3579496"><ele>390.0</ele><time>2026-03-28T10:43:21.295Z</time></trkpt><trkpt lat="44.3017325" lon="8.35806"><ele>390.0</ele><time>2026-03-28T10:43:22.288Z</time></trkpt><trkpt lat="44.3017078" lon="8.3581622"><ele>390.0</ele><time>2026-03-28T10:43:23.294Z</time></trkpt><trkpt lat="44.3016704" lon="8.3582651"><ele>389.1428571428571</ele><time>2026-03-28T10:43:24.287Z</time></trkpt><trkpt lat="44.3016268" lon="8.3583698"><ele>388.2857142857143</ele><time>2026-03-28T10:43:25.292Z</time></trkpt><trkpt lat="44.3015844" lon="8.3584602"><ele>387.42857142857144</ele><time>2026-03-28T10:43:26.286Z</time></trkpt><trkpt lat="44.3015371" lon="8.3585397"><ele>386.57142857142856</ele><time>2026-03-28T10:43:27.294Z</time></trkpt><trkpt lat="44.3014849" lon="8.3586005"><ele>385.7142857142857</ele><time>2026-03-28T10:43:28.285Z</time></trkpt><trkpt lat="44.3014341" lon="8.3586571"><ele>384.85714285714283</ele><time>2026-03-28T10:43:29.292Z</time></trkpt><trkpt lat="44.3013669" lon="8.3587066"><ele>384.0</ele><time>2026-03-28T10:43:30.286Z</time></trkpt><trkpt lat="44.3012828" lon="8.3587469"><ele>384.0</ele><time>2026-03-28T10:43:31.309Z</time></trkpt><trkpt lat="44.3011852" lon="8.3587669"><ele>384.0</ele><time>2026-03-28T10:43:32.289Z</time></trkpt><trkpt lat="44.3010678" lon="8.3587829"><ele>384.0</ele><time>2026-03-28T10:43:33.295Z</time></trkpt><trkpt lat="44.3009513" lon="8.3588005"><ele>384.0</ele><time>2026-03-28T10:43:34.286Z</time></trkpt><trkpt lat="44.3008495" lon="8.3588173"><ele>384.0</ele><time>2026-03-28T10:43:35.291Z</time></trkpt><trkpt lat="44.3007614" lon="8.3588205"><ele>384.0</ele><time>2026-03-28T10:43:36.284Z</time></trkpt><trkpt lat="44.3006745" lon="8.3588148"><ele>384.0</ele><time>2026-03-28T10:43:37.3Z</time></trkpt><trkpt lat="44.3005958" lon="8.3587872"><ele>384.0</ele><time>2026-03-28T10:43:38.285Z</time></trkpt><trkpt lat="44.300519" lon="8.3587651"><ele>384.0</ele><time>2026-03-28T10:43:39.288Z</time></trkpt><trkpt lat="44.3004125" lon="8.358756"><ele>384.0</ele><time>2026-03-28T10:43:41.293Z</time></trkpt><trkpt lat="44.3003591" lon="8.3588566"><ele>384.0</ele><time>2026-03-28T10:43:43.286Z</time></trkpt><trkpt lat="44.3003542" lon="8.3590335"><ele>384.1666666666667</ele><time>2026-03-28T10:43:45.287Z</time></trkpt><trkpt lat="44.300367" lon="8.3591419"><ele>384.33333333333337</ele><time>2026-03-28T10:43:46.278Z</time></trkpt><trkpt lat="44.3003843" lon="8.3592464"><ele>384.5</ele><time>2026-03-28T10:43:47.282Z</time></trkpt><trkpt lat="44.3003874" lon="8.3593499"><ele>384.6666666666667</ele><time>2026-03-28T10:43:48.277Z</time></trkpt><trkpt lat="44.3003929" lon="8.3594528"><ele>384.83333333333337</ele><time>2026-03-28T10:43:49.283Z</time></trkpt><trkpt lat="44.3004033" lon="8.3595432"><ele>385.0</ele><time>2026-03-28T10:43:50.275Z</time></trkpt><trkpt lat="44.3004238" lon="8.3596925"><ele>380.4</ele><time>2026-03-28T10:43:52.279Z</time></trkpt><trkpt lat="44.3004769" lon="8.3598329"><ele>375.8</ele><time>2026-03-28T10:43:54.278Z</time></trkpt><trkpt lat="44.3005049" lon="8.3599864"><ele>371.20000000000005</ele><time>2026-03-28T10:43:56.281Z</time></trkpt><trkpt lat="44.3005035" lon="8.360143"><ele>366.6</ele><time>2026-03-28T10:43:58.283Z</time></trkpt><trkpt lat="44.300462" lon="8.3602844"><ele>362.0</ele><time>2026-03-28T10:44:00.285Z</time></trkpt><trkpt lat="44.3003675" lon="8.3603876"><ele>362.0</ele><time>2026-03-28T10:44:02.298Z</time></trkpt><trkpt lat="44.3002608" lon="8.3604185"><ele>362.0</ele><time>2026-03-28T10:44:04.296Z</time></trkpt><trkpt lat="44.3001444" lon="8.3604303"><ele>362.0</ele><time>2026-03-28T10:44:06.288Z</time></trkpt><trkpt lat="44.3000808" lon="8.3604267"><ele>362.0</ele><time>2026-03-28T10:44:07.292Z</time></trkpt><trkpt lat="44.299999" lon="8.3604118"><ele>362.0</ele><time>2026-03-28T10:44:08.29Z</time></trkpt><trkpt lat="44.2999231" lon="8.3604024"><ele>362.0</ele><time>2026-03-28T10:44:09.29Z</time></trkpt><trkpt lat="44.2998441" lon="8.3603866"><ele>362.0</ele><time>2026-03-28T10:44:10.292Z</time></trkpt><trkpt lat="44.2997676" lon="8.3604"><ele>362.0</ele><time>2026-03-28T10:44:11.289Z</time></trkpt><trkpt lat="44.2996961" lon="8.360432"><ele>362.0</ele><time>2026-03-28T10:44:12.299Z</time></trkpt><trkpt lat="44.2996235" lon="8.3604544"><ele>362.0</ele><time>2026-03-28T10:44:13.295Z</time></trkpt><trkpt lat="44.2995493" lon="8.3604684"><ele>362.0</ele><time>2026-03-28T10:44:14.296Z</time></trkpt><trkpt lat="44.2994665" lon="8.3604749"><ele>362.0</ele><time>2026-03-28T10:44:15.289Z</time></trkpt><trkpt lat="44.2993862" lon="8.3604769"><ele>364.0</ele><time>2026-03-28T10:44:16.294Z</time></trkpt><trkpt lat="44.2993054" lon="8.3604657"><ele>366.0</ele><time>2026-03-28T10:44:17.296Z</time></trkpt><trkpt lat="44.2992311" lon="8.3604564"><ele>368.0</ele><time>2026-03-28T10:44:18.293Z</time></trkpt><trkpt lat="44.2991613" lon="8.3604511"><ele>370.0</ele><time>2026-03-28T10:44:19.287Z</time></trkpt><trkpt lat="44.2990527" lon="8.3604766"><ele>372.0</ele><time>2026-03-28T10:44:21.289Z</time></trkpt><trkpt lat="44.2989519" lon="8.3605558"><ele>371.8</ele><time>2026-03-28T10:44:23.285Z</time></trkpt><trkpt lat="44.2988936" lon="8.3606691"><ele>371.6</ele><time>2026-03-28T10:44:25.291Z</time></trkpt><trkpt lat="44.2988515" lon="8.3607912"><ele>371.40000000000003</ele><time>2026-03-28T10:44:27.288Z</time></trkpt><trkpt lat="44.2988048" lon="8.3608998"><ele>371.20000000000005</ele><time>2026-03-28T10:44:29.293Z</time></trkpt><trkpt lat="44.2987457" lon="8.3610169"><ele>371.0</ele><time>2026-03-28T10:44:31.29Z</time></trkpt><trkpt lat="44.2987137" lon="8.361154"><ele>371.0</ele><time>2026-03-28T10:44:33.298Z</time></trkpt><trkpt lat="44.2987381" lon="8.3612978"><ele>371.0</ele><time>2026-03-28T10:44:35.286Z</time></trkpt><trkpt lat="44.2988131" lon="8.3614328"><ele>371.0</ele><time>2026-03-28T10:44:37.288Z</time></trkpt><trkpt lat="44.298853" lon="8.3615343"><ele>371.0</ele><time>2026-03-28T10:44:38.288Z</time></trkpt><trkpt lat="44.2988843" lon="8.3616359"><ele>371.0</ele><time>2026-03-28T10:44:39.284Z</time></trkpt><trkpt lat="44.2989147" lon="8.3617375"><ele>369.0</ele><time>2026-03-28T10:44:40.289Z</time></trkpt><trkpt lat="44.2989246" lon="8.361832"><ele>367.0</ele><time>2026-03-28T10:44:41.284Z</time></trkpt><trkpt lat="44.2989228" lon="8.361922"><ele>365.0</ele><time>2026-03-28T10:44:42.306Z</time></trkpt><trkpt lat="44.2988716" lon="8.3620595"><ele>363.0</ele><time>2026-03-28T10:44:44.287Z</time></trkpt><trkpt lat="44.298821" lon="8.3621982"><ele>361.0</ele><time>2026-03-28T10:44:46.285Z</time></trkpt><trkpt lat="44.2987883" lon="8.3623229"><ele>359.16666666666663</ele><time>2026-03-28T10:44:48.284Z</time></trkpt><trkpt lat="44.2987669" lon="8.3624296"><ele>357.3333333333333</ele><time>2026-03-28T10:44:51.287Z</time></trkpt><trkpt lat="44.2987624" lon="8.3625233"><ele>355.5</ele><time>2026-03-28T10:45:00.278Z</time></trkpt><trkpt lat="44.2987656" lon="8.3626337"><ele>353.6666666666667</ele><time>2026-03-28T10:45:03.28Z</time></trkpt><trkpt lat="44.2987639" lon="8.3627507"><ele>351.83333333333337</ele><time>2026-03-28T10:45:05.28Z</time></trkpt><trkpt lat="44.2987397" lon="8.362901"><ele>350.0</ele><time>2026-03-28T10:45:07.283Z</time></trkpt><trkpt lat="44.2986995" lon="8.3630279"><ele>345.8</ele><time>2026-03-28T10:45:09.282Z</time></trkpt><trkpt lat="44.2986632" lon="8.3631491"><ele>341.6</ele><time>2026-03-28T10:45:11.281Z</time></trkpt><trkpt lat="44.2986126" lon="8.363236"><ele>337.4</ele><time>2026-03-28T10:45:13.281Z</time></trkpt><trkpt lat="44.2985078" lon="8.3632841"><ele>333.2</ele><time>2026-03-28T10:45:15.28Z</time></trkpt><trkpt lat="44.2983704" lon="8.3632957"><ele>329.0</ele><time>2026-03-28T10:45:17.281Z</time></trkpt><trkpt lat="44.2982861" lon="8.3632941"><ele>329.0</ele><time>2026-03-28T10:45:18.285Z</time></trkpt><trkpt lat="44.2982103" lon="8.3633175"><ele>329.0</ele><time>2026-03-28T10:45:19.279Z</time></trkpt><trkpt lat="44.2981471" lon="8.3633565"><ele>329.0</ele><time>2026-03-28T10:45:20.281Z</time></trkpt><trkpt lat="44.2980871" lon="8.3634041"><ele>329.0</ele><time>2026-03-28T10:45:21.279Z</time></trkpt><trkpt lat="44.2980141" lon="8.3634842"><ele>329.0</ele><time>2026-03-28T10:45:22.278Z</time></trkpt><trkpt lat="44.2979426" lon="8.3635552"><ele>329.0</ele><time>2026-03-28T10:45:23.277Z</time></trkpt><trkpt lat="44.2978708" lon="8.363634"><ele>329.83333333333337</ele><time>2026-03-28T10:45:24.28Z</time></trkpt><trkpt lat="44.2978011" lon="8.3637227"><ele>330.6666666666667</ele><time>2026-03-28T10:45:25.279Z</time></trkpt><trkpt lat="44.2977297" lon="8.3637817"><ele>331.5</ele><time>2026-03-28T10:45:26.284Z</time></trkpt><trkpt lat="44.2976528" lon="8.3638283"><ele>332.3333333333333</ele><time>2026-03-28T10:45:27.281Z</time></trkpt><trkpt lat="44.2975764" lon="8.3638786"><ele>333.16666666666663</ele><time>2026-03-28T10:45:28.28Z</time></trkpt><trkpt lat="44.2975126" lon="8.3639352"><ele>334.0</ele><time>2026-03-28T10:45:29.283Z</time></trkpt><trkpt lat="44.2974602" lon="8.3639999"><ele>334.0</ele><time>2026-03-28T10:45:30.282Z</time></trkpt><trkpt lat="44.2974268" lon="8.3640855"><ele>334.0</ele><time>2026-03-28T10:45:31.28Z</time></trkpt><trkpt lat="44.2973934" lon="8.3642036"><ele>334.0</ele><time>2026-03-28T10:45:32.28Z</time></trkpt><trkpt lat="44.2973505" lon="8.3643366"><ele>334.0</ele><time>2026-03-28T10:45:33.278Z</time></trkpt><trkpt lat="44.2973025" lon="8.3644744"><ele>334.0</ele><time>2026-03-28T10:45:34.281Z</time></trkpt><trkpt lat="44.29727" lon="8.3646211"><ele>335.2</ele><time>2026-03-28T10:45:35.289Z</time></trkpt><trkpt lat="44.2972408" lon="8.3647649"><ele>336.4</ele><time>2026-03-28T10:45:36.277Z</time></trkpt><trkpt lat="44.2972103" lon="8.3649031"><ele>337.6</ele><time>2026-03-28T10:45:37.277Z</time></trkpt><trkpt lat="44.2971891" lon="8.3650377"><ele>338.8</ele><time>2026-03-28T10:45:38.273Z</time></trkpt><trkpt lat="44.2971675" lon="8.3651846"><ele>340.0</ele><time>2026-03-28T10:45:39.28Z</time></trkpt><trkpt lat="44.2971474" lon="8.3653262"><ele>340.0</ele><time>2026-03-28T10:45:40.302Z</time></trkpt><trkpt lat="44.2971344" lon="8.3654742"><ele>340.0</ele><time>2026-03-28T10:45:41.301Z</time></trkpt><trkpt lat="44.2971217" lon="8.3656146"><ele>340.0</ele><time>2026-03-28T10:45:42.284Z</time></trkpt><trkpt lat="44.2970947" lon="8.365749"><ele>340.0</ele><time>2026-03-28T10:45:43.274Z</time></trkpt><trkpt lat="44.2970567" lon="8.3658742"><ele>340.0</ele><time>2026-03-28T10:45:44.283Z</time></trkpt><trkpt lat="44.2969927" lon="8.3659722"><ele>337.0</ele><time>2026-03-28T10:45:45.275Z</time></trkpt><trkpt lat="44.2969127" lon="8.3660725"><ele>334.0</ele><time>2026-03-28T10:45:46.279Z</time></trkpt><trkpt lat="44.2968472" lon="8.3661693"><ele>331.0</ele><time>2026-03-28T10:45:47.276Z</time></trkpt><trkpt lat="44.2967886" lon="8.3662702"><ele>328.0</ele><time>2026-03-28T10:45:48.278Z</time></trkpt><trkpt lat="44.2967412" lon="8.3663894"><ele>325.0</ele><time>2026-03-28T10:45:49.273Z</time></trkpt><trkpt lat="44.2967274" lon="8.3665136"><ele>322.75</ele><time>2026-03-28T10:45:50.277Z</time></trkpt><trkpt lat="44.2967481" lon="8.3666774"><ele>320.5</ele><time>2026-03-28T10:45:51.273Z</time></trkpt><trkpt lat="44.296763" lon="8.366837"><ele>318.25</ele><time>2026-03-28T10:45:52.301Z</time></trkpt><trkpt lat="44.2968095" lon="8.3669888"><ele>316.0</ele><time>2026-03-28T10:45:53.294Z</time></trkpt><trkpt lat="44.2968512" lon="8.3671328"><ele>315.0</ele><time>2026-03-28T10:45:54.276Z</time></trkpt><trkpt lat="44.2968917" lon="8.3672794"><ele>314.0</ele><time>2026-03-28T10:45:55.276Z</time></trkpt><trkpt lat="44.2969258" lon="8.3674158"><ele>313.0</ele><time>2026-03-28T10:45:56.273Z</time></trkpt><trkpt lat="44.2969477" lon="8.3675381"><ele>312.0</ele><time>2026-03-28T10:45:57.273Z</time></trkpt><trkpt lat="44.2969712" lon="8.3676578"><ele>311.0</ele><time>2026-03-28T10:45:58.278Z</time></trkpt><trkpt lat="44.297" lon="8.367773"><ele>311.0</ele><time>2026-03-28T10:45:59.281Z</time></trkpt><trkpt lat="44.2970152" lon="8.3678719"><ele>311.0</ele><time>2026-03-28T10:46:00.283Z</time></trkpt><trkpt lat="44.2969957" lon="8.3680455"><ele>311.0</ele><time>2026-03-28T10:46:02.281Z</time></trkpt><trkpt lat="44.2969554" lon="8.3681293"><ele>311.0</ele><time>2026-03-28T10:46:03.287Z</time></trkpt><trkpt lat="44.2969162" lon="8.3682075"><ele>311.0</ele><time>2026-03-28T10:46:04.28Z</time></trkpt><trkpt lat="44.2968734" lon="8.3682964"><ele>311.0</ele><time>2026-03-28T10:46:05.279Z</time></trkpt><trkpt lat="44.2968343" lon="8.3683877"><ele>307.83333333333337</ele><time>2026-03-28T10:46:06.289Z</time></trkpt><trkpt lat="44.2967852" lon="8.3684696"><ele>304.6666666666667</ele><time>2026-03-28T10:46:07.281Z</time></trkpt><trkpt lat="44.2967427" lon="8.368537"><ele>301.5</ele><time>2026-03-28T10:46:08.275Z</time></trkpt><trkpt lat="44.2966375" lon="8.3685819"><ele>298.3333333333333</ele><time>2026-03-28T10:46:10.282Z</time></trkpt><trkpt lat="44.2965531" lon="8.3685274"><ele>295.16666666666663</ele><time>2026-03-28T10:46:11.28Z</time></trkpt><trkpt lat="44.2964628" lon="8.3684676"><ele>292.0</ele><time>2026-03-28T10:46:12.283Z</time></trkpt><trkpt lat="44.2963551" lon="8.3684015"><ele>295.0</ele><time>2026-03-28T10:46:13.28Z</time></trkpt><trkpt lat="44.2962581" lon="8.3683079"><ele>298.0</ele><time>2026-03-28T10:46:14.285Z</time></trkpt><trkpt lat="44.2961739" lon="8.3682108"><ele>301.0</ele><time>2026-03-28T10:46:15.282Z</time></trkpt><trkpt lat="44.2960926" lon="8.3681146"><ele>304.0</ele><time>2026-03-28T10:46:16.287Z</time></trkpt><trkpt lat="44.2960148" lon="8.3680284"><ele>307.0</ele><time>2026-03-28T10:46:17.278Z</time></trkpt><trkpt lat="44.2959374" lon="8.3679308"><ele>307.0</ele><time>2026-03-28T10:46:18.281Z</time></trkpt><trkpt lat="44.2958714" lon="8.3678315"><ele>307.0</ele><time>2026-03-28T10:46:19.276Z</time></trkpt><trkpt lat="44.2958086" lon="8.3677339"><ele>307.0</ele><time>2026-03-28T10:46:20.279Z</time></trkpt><trkpt lat="44.2957228" lon="8.3676522"><ele>307.0</ele><time>2026-03-28T10:46:21.275Z</time></trkpt><trkpt lat="44.2956368" lon="8.3675657"><ele>307.0</ele><time>2026-03-28T10:46:22.283Z</time></trkpt><trkpt lat="44.2955463" lon="8.3674953"><ele>301.8</ele><time>2026-03-28T10:46:23.276Z</time></trkpt><trkpt lat="44.295436" lon="8.3674564"><ele>296.6</ele><time>2026-03-28T10:46:24.281Z</time></trkpt><trkpt lat="44.2953272" lon="8.3674149"><ele>291.40000000000003</ele><time>2026-03-28T10:46:25.276Z</time></trkpt><trkpt lat="44.2952301" lon="8.3673787"><ele>286.2</ele><time>2026-03-28T10:46:26.283Z</time></trkpt><trkpt lat="44.2951358" lon="8.367354"><ele>281.0</ele><time>2026-03-28T10:46:27.269Z</time></trkpt><trkpt lat="44.2950382" lon="8.3673405"><ele>281.0</ele><time>2026-03-28T10:46:28.284Z</time></trkpt><trkpt lat="44.2949484" lon="8.3673517"><ele>281.0</ele><time>2026-03-28T10:46:29.277Z</time></trkpt><trkpt lat="44.2948563" lon="8.3673952"><ele>281.0</ele><time>2026-03-28T10:46:30.278Z</time></trkpt><trkpt lat="44.294771" lon="8.3674411"><ele>281.0</ele><time>2026-03-28T10:46:31.283Z</time></trkpt><trkpt lat="44.2946955" lon="8.3674738"><ele>281.0</ele><time>2026-03-28T10:46:32.285Z</time></trkpt><trkpt lat="44.2945886" lon="8.3674854"><ele>277.6</ele><time>2026-03-28T10:46:34.285Z</time></trkpt><trkpt lat="44.2945318" lon="8.3673575"><ele>274.20000000000005</ele><time>2026-03-28T10:46:36.286Z</time></trkpt><trkpt lat="44.294536" lon="8.3672565"><ele>270.79999999999995</ele><time>2026-03-28T10:46:37.305Z</time></trkpt><trkpt lat="44.2945559" lon="8.3671446"><ele>267.4</ele><time>2026-03-28T10:46:38.285Z</time></trkpt><trkpt lat="44.2945951" lon="8.3670068"><ele>264.0</ele><time>2026-03-28T10:46:39.283Z</time></trkpt><trkpt lat="44.2946332" lon="8.366847"><ele>264.0</ele><time>2026-03-28T10:46:40.281Z</time></trkpt><trkpt lat="44.2946547" lon="8.3666994"><ele>264.0</ele><time>2026-03-28T10:46:41.28Z</time></trkpt><trkpt lat="44.2946684" lon="8.3665384"><ele>264.0</ele><time>2026-03-28T10:46:42.279Z</time></trkpt><trkpt lat="44.2946727" lon="8.3663805"><ele>264.0</ele><time>2026-03-28T10:46:43.277Z</time></trkpt><trkpt lat="44.294656" lon="8.3662277"><ele>264.0</ele><time>2026-03-28T10:46:44.277Z</time></trkpt><trkpt lat="44.2946297" lon="8.3660697"><ele>264.0</ele><time>2026-03-28T10:46:45.28Z</time></trkpt><trkpt lat="44.2946051" lon="8.3659041"><ele>264.0</ele><time>2026-03-28T10:46:46.278Z</time></trkpt><trkpt lat="44.2945883" lon="8.3657432"><ele>264.0</ele><time>2026-03-28T10:46:47.285Z</time></trkpt><trkpt lat="44.2945819" lon="8.3655917"><ele>264.0</ele><time>2026-03-28T10:46:48.28Z</time></trkpt><trkpt lat="44.294573" lon="8.3654458"><ele>263.59999999999997</ele><time>2026-03-28T10:46:49.282Z</time></trkpt><trkpt lat="44.294562" lon="8.3653067"><ele>263.2</ele><time>2026-03-28T10:46:50.278Z</time></trkpt><trkpt lat="44.2945508" lon="8.3651677"><ele>262.79999999999995</ele><time>2026-03-28T10:46:51.285Z</time></trkpt><trkpt lat="44.2945338" lon="8.3650277"><ele>262.4</ele><time>2026-03-28T10:46:52.278Z</time></trkpt><trkpt lat="44.2945154" lon="8.3649005"><ele>262.0</ele><time>2026-03-28T10:46:53.286Z</time></trkpt><trkpt lat="44.2944955" lon="8.3647702"><ele>262.8</ele><time>2026-03-28T10:46:54.284Z</time></trkpt><trkpt lat="44.2944726" lon="8.3646428"><ele>263.6</ele><time>2026-03-28T10:46:55.287Z</time></trkpt><trkpt lat="44.2944384" lon="8.3645191"><ele>264.40000000000003</ele><time>2026-03-28T10:46:56.285Z</time></trkpt><trkpt lat="44.2943925" lon="8.3644091"><ele>265.2</ele><time>2026-03-28T10:46:57.29Z</time></trkpt><trkpt lat="44.2943455" lon="8.3643082"><ele>266.0</ele><time>2026-03-28T10:46:58.287Z</time></trkpt><trkpt lat="44.2942855" lon="8.3642112"><ele>266.0</ele><time>2026-03-28T10:46:59.289Z</time></trkpt><trkpt lat="44.2942272" lon="8.3641078"><ele>266.0</ele><time>2026-03-28T10:47:00.286Z</time></trkpt><trkpt lat="44.2941689" lon="8.364"><ele>266.0</ele><time>2026-03-28T10:47:01.29Z</time></trkpt><trkpt lat="44.2941273" lon="8.3638897"><ele>266.0</ele><time>2026-03-28T10:47:02.278Z</time></trkpt><trkpt lat="44.2940879" lon="8.363796"><ele>266.0</ele><time>2026-03-28T10:47:03.284Z</time></trkpt><trkpt lat="44.2940705" lon="8.3636943"><ele>266.0</ele><time>2026-03-28T10:47:04.287Z</time></trkpt><trkpt lat="44.2940667" lon="8.3636047"><ele>268.0</ele><time>2026-03-28T10:47:05.282Z</time></trkpt><trkpt lat="44.2940074" lon="8.3634629"><ele>270.0</ele><time>2026-03-28T10:47:07.289Z</time></trkpt><trkpt lat="44.2939464" lon="8.3633776"><ele>272.0</ele><time>2026-03-28T10:47:08.284Z</time></trkpt><trkpt lat="44.2938711" lon="8.3632963"><ele>274.0</ele><time>2026-03-28T10:47:09.286Z</time></trkpt><trkpt lat="44.2937837" lon="8.363212"><ele>276.0</ele><time>2026-03-28T10:47:10.28Z</time></trkpt><trkpt lat="44.2937143" lon="8.3631117"><ele>270.2</ele><time>2026-03-28T10:47:11.276Z</time></trkpt><trkpt lat="44.2936589" lon="8.3629989"><ele>264.40000000000003</ele><time>2026-03-28T10:47:12.283Z</time></trkpt><trkpt lat="44.2936134" lon="8.362881"><ele>258.6</ele><time>2026-03-28T10:47:13.286Z</time></trkpt><trkpt lat="44.2935738" lon="8.3627421"><ele>252.8</ele><time>2026-03-28T10:47:14.279Z</time></trkpt><trkpt lat="44.293553" lon="8.3625836"><ele>247.0</ele><time>2026-03-28T10:47:15.286Z</time></trkpt><trkpt lat="44.293534" lon="8.3624218"><ele>247.0</ele><time>2026-03-28T10:47:16.282Z</time></trkpt><trkpt lat="44.2934963" lon="8.3622779"><ele>247.0</ele><time>2026-03-28T10:47:17.285Z</time></trkpt><trkpt lat="44.2934459" lon="8.3621407"><ele>247.0</ele><time>2026-03-28T10:47:18.283Z</time></trkpt><trkpt lat="44.2933884" lon="8.3620049"><ele>247.0</ele><time>2026-03-28T10:47:19.287Z</time></trkpt><trkpt lat="44.2933184" lon="8.3618786"><ele>247.0</ele><time>2026-03-28T10:47:20.284Z</time></trkpt><trkpt lat="44.2932452" lon="8.3617716"><ele>245.2</ele><time>2026-03-28T10:47:21.286Z</time></trkpt><trkpt lat="44.2931861" lon="8.3616723"><ele>243.39999999999998</ele><time>2026-03-28T10:47:22.285Z</time></trkpt><trkpt lat="44.293121" lon="8.3616027"><ele>241.60000000000002</ele><time>2026-03-28T10:47:23.283Z</time></trkpt><trkpt lat="44.2930507" lon="8.3614724"><ele>239.8</ele><time>2026-03-28T10:47:25.285Z</time></trkpt><trkpt lat="44.2930414" lon="8.3612795"><ele>238.0</ele><time>2026-03-28T10:47:27.278Z</time></trkpt><trkpt lat="44.29303" lon="8.36119"><ele>238.0</ele><time>2026-03-28T10:47:28.288Z</time></trkpt><trkpt lat="44.2929771" lon="8.3611012"><ele>238.0</ele><time>2026-03-28T10:47:30.288Z</time></trkpt><trkpt lat="44.2929374" lon="8.3612704"><ele>238.0</ele><time>2026-03-28T10:47:32.28Z</time></trkpt><trkpt lat="44.2929248" lon="8.3614149"><ele>238.0</ele><time>2026-03-28T10:47:33.284Z</time></trkpt><trkpt lat="44.2929333" lon="8.3615984"><ele>238.0</ele><time>2026-03-28T10:47:34.279Z</time></trkpt><trkpt lat="44.2929545" lon="8.361775"><ele>240.25</ele><time>2026-03-28T10:47:35.287Z</time></trkpt><trkpt lat="44.2929955" lon="8.361925"><ele>242.5</ele><time>2026-03-28T10:47:36.285Z</time></trkpt><trkpt lat="44.2930662" lon="8.3620703"><ele>244.75</ele><time>2026-03-28T10:47:37.288Z</time></trkpt><trkpt lat="44.2931517" lon="8.3622084"><ele>247.0</ele><time>2026-03-28T10:47:38.29Z</time></trkpt><trkpt lat="44.2932324" lon="8.3623417"><ele>247.0</ele><time>2026-03-28T10:47:39.28Z</time></trkpt><trkpt lat="44.2932983" lon="8.3624745"><ele>247.0</ele><time>2026-03-28T10:47:40.288Z</time></trkpt><trkpt lat="44.2933405" lon="8.3626163"><ele>247.0</ele><time>2026-03-28T10:47:41.288Z</time></trkpt><trkpt lat="44.293356" lon="8.3627517"><ele>247.0</ele><time>2026-03-28T10:47:42.289Z</time></trkpt><trkpt lat="44.293341" lon="8.3628887"><ele>247.0</ele><time>2026-03-28T10:47:43.284Z</time></trkpt><trkpt lat="44.2933411" lon="8.3630262"><ele>245.2</ele><time>2026-03-28T10:47:44.283Z</time></trkpt><trkpt lat="44.2933495" lon="8.3631659"><ele>243.39999999999998</ele><time>2026-03-28T10:47:45.283Z</time></trkpt><trkpt lat="44.2933649" lon="8.3633061"><ele>241.60000000000002</ele><time>2026-03-28T10:47:46.283Z</time></trkpt><trkpt lat="44.2933882" lon="8.3634465"><ele>239.8</ele><time>2026-03-28T10:47:47.286Z</time></trkpt><trkpt lat="44.2934145" lon="8.3635708"><ele>238.0</ele><time>2026-03-28T10:47:48.288Z</time></trkpt><trkpt lat="44.2934404" lon="8.3636836"><ele>238.0</ele><time>2026-03-28T10:47:49.285Z</time></trkpt><trkpt lat="44.293461" lon="8.3637767"><ele>238.0</ele><time>2026-03-28T10:47:50.289Z</time></trkpt><trkpt lat="44.2934088" lon="8.3639218"><ele>238.0</ele><time>2026-03-28T10:47:52.287Z</time></trkpt><trkpt lat="44.2933311" lon="8.3639804"><ele>238.0</ele><time>2026-03-28T10:47:53.275Z</time></trkpt><trkpt lat="44.2932384" lon="8.3640603"><ele>238.0</ele><time>2026-03-28T10:47:54.277Z</time></trkpt><trkpt lat="44.2931612" lon="8.3641496"><ele>238.0</ele><time>2026-03-28T10:47:55.274Z</time></trkpt><trkpt lat="44.2931134" lon="8.3642399"><ele>238.0</ele><time>2026-03-28T10:47:56.281Z</time></trkpt><trkpt lat="44.2930801" lon="8.3643597"><ele>238.0</ele><time>2026-03-28T10:47:57.28Z</time></trkpt><trkpt lat="44.2930553" lon="8.3644833"><ele>238.0</ele><time>2026-03-28T10:47:58.283Z</time></trkpt><trkpt lat="44.293042" lon="8.3646173"><ele>238.0</ele><time>2026-03-28T10:47:59.286Z</time></trkpt><trkpt lat="44.2930295" lon="8.3647565"><ele>233.16666666666666</ele><time>2026-03-28T10:48:00.283Z</time></trkpt><trkpt lat="44.2930277" lon="8.3648945"><ele>228.33333333333331</ele><time>2026-03-28T10:48:01.288Z</time></trkpt><trkpt lat="44.2930276" lon="8.3650149"><ele>223.5</ele><time>2026-03-28T10:48:02.285Z</time></trkpt><trkpt lat="44.2930274" lon="8.3651297"><ele>218.66666666666669</ele><time>2026-03-28T10:48:03.289Z</time></trkpt><trkpt lat="44.2930276" lon="8.365232"><ele>213.83333333333334</ele><time>2026-03-28T10:48:04.283Z</time></trkpt><trkpt lat="44.2930323" lon="8.3653276"><ele>209.0</ele><time>2026-03-28T10:48:05.288Z</time></trkpt><trkpt lat="44.2930407" lon="8.3654223"><ele>209.0</ele><time>2026-03-28T10:48:06.286Z</time></trkpt><trkpt lat="44.2930508" lon="8.365514"><ele>209.0</ele><time>2026-03-28T10:48:07.285Z</time></trkpt><trkpt lat="44.293066" lon="8.3656228"><ele>209.0</ele><time>2026-03-28T10:48:09.295Z</time></trkpt><trkpt lat="44.2930723" lon="8.3657179"><ele>209.0</ele><time>2026-03-28T10:48:12.284Z</time></trkpt><trkpt lat="44.2930303" lon="8.3657968"><ele>209.0</ele><time>2026-03-28T10:48:17.284Z</time></trkpt><trkpt lat="44.2929458" lon="8.3658071"><ele>209.0</ele><time>2026-03-28T10:48:37.292Z</time></trkpt><trkpt lat="44.2929635" lon="8.3658988"><ele>209.0</ele><time>2026-03-28T10:48:39.289Z</time></trkpt><trkpt lat="44.2930491" lon="8.3659008"><ele>209.2</ele><time>2026-03-28T10:48:42.277Z</time></trkpt><trkpt lat="44.293081" lon="8.3657835"><ele>209.39999999999998</ele><time>2026-03-28T10:48:44.28Z</time></trkpt><trkpt lat="44.2930891" lon="8.3656789"><ele>209.6</ele><time>2026-03-28T10:53:26.301Z</time></trkpt><trkpt lat="44.2929879" lon="8.3656917"><ele>209.8</ele><time>2026-03-28T10:53:47.288Z</time></trkpt><trkpt lat="44.2928742" lon="8.3657534"><ele>210.0</ele><time>2026-03-28T10:53:49.3Z</time></trkpt><trkpt lat="44.2927504" lon="8.365815"><ele>210.0</ele><time>2026-03-28T10:53:51.292Z</time></trkpt><trkpt lat="44.2926785" lon="8.365883"><ele>210.0</ele><time>2026-03-28T10:53:53.293Z</time></trkpt><trkpt lat="44.2926404" lon="8.3659889"><ele>210.0</ele><time>2026-03-28T10:53:56.294Z</time></trkpt><trkpt lat="44.2926082" lon="8.3660953"><ele>210.0</ele><time>2026-03-28T10:53:58.299Z</time></trkpt><trkpt lat="44.2925672" lon="8.366216"><ele>210.0</ele><time>2026-03-28T10:54:00.301Z</time></trkpt><trkpt lat="44.2925205" lon="8.3663411"><ele>209.33333333333334</ele><time>2026-03-28T10:54:02.293Z</time></trkpt><trkpt lat="44.2925009" lon="8.3664743"><ele>208.66666666666669</ele><time>2026-03-28T10:54:04.294Z</time></trkpt><trkpt lat="44.2924838" lon="8.3665897"><ele>208.0</ele><time>2026-03-28T10:54:06.3Z</time></trkpt><trkpt lat="44.292471" lon="8.3666961"><ele>207.33333333333334</ele><time>2026-03-28T10:54:08.3Z</time></trkpt><trkpt lat="44.2924576" lon="8.3668115"><ele>206.66666666666669</ele><time>2026-03-28T10:54:11.298Z</time></trkpt><trkpt lat="44.2924688" lon="8.3669167"><ele>206.0</ele><time>2026-03-28T10:54:14.297Z</time></trkpt><trkpt lat="44.2924696" lon="8.3670094"><ele>205.99999999999997</ele><time>2026-03-28T10:54:16.296Z</time></trkpt><trkpt lat="44.2924392" lon="8.3671104"><ele>206.0</ele><time>2026-03-28T10:54:19.298Z</time></trkpt><trkpt lat="44.2924386" lon="8.3672079"><ele>206.0</ele><time>2026-03-28T10:54:23.298Z</time></trkpt><trkpt lat="44.2924564" lon="8.3672971"><ele>206.0</ele><time>2026-03-28T10:54:28.295Z</time></trkpt><trkpt lat="44.2924526" lon="8.3671922"><ele>206.0</ele><time>2026-03-28T10:54:38.283Z</time></trkpt><trkpt lat="44.292427" lon="8.3670711"><ele>205.99999999999997</ele><time>2026-03-28T10:54:43.289Z</time></trkpt><trkpt lat="44.2923851" lon="8.367"><ele>206.0</ele><time>2026-03-28T10:54:45.297Z</time></trkpt><trkpt lat="44.292362" lon="8.3668876"><ele>206.0</ele><time>2026-03-28T10:57:33.295Z</time></trkpt><trkpt lat="44.2923323" lon="8.3667912"><ele>206.0</ele><time>2026-03-28T10:57:35.291Z</time></trkpt><trkpt lat="44.2922888" lon="8.3666794"><ele>206.0</ele><time>2026-03-28T10:57:37.289Z</time></trkpt><trkpt lat="44.2922567" lon="8.3665408"><ele>206.0</ele><time>2026-03-28T10:57:39.29Z</time></trkpt><trkpt lat="44.2922266" lon="8.3663849"><ele>206.0</ele><time>2026-03-28T10:57:41.296Z</time></trkpt><trkpt lat="44.2922266" lon="8.3662486"><ele>206.8</ele><time>2026-03-28T10:57:43.291Z</time></trkpt><trkpt lat="44.2922597" lon="8.3661072"><ele>207.60000000000002</ele><time>2026-03-28T10:57:45.295Z</time></trkpt><trkpt lat="44.2922612" lon="8.3659654"><ele>208.4</ele><time>2026-03-28T10:57:47.301Z</time></trkpt><trkpt lat="44.2921935" lon="8.3659013"><ele>209.2</ele><time>2026-03-28T10:57:49.298Z</time></trkpt><trkpt lat="44.2920917" lon="8.3660362"><ele>210.0</ele><time>2026-03-28T10:57:51.287Z</time></trkpt><trkpt lat="44.2920791" lon="8.3661334"><ele>201.0</ele><time>2026-03-28T10:57:52.297Z</time></trkpt><trkpt lat="44.292077" lon="8.3662752"><ele>192.0</ele><time>2026-03-28T10:57:53.281Z</time></trkpt><trkpt lat="44.2920891" lon="8.3664344"><ele>183.0</ele><time>2026-03-28T10:57:54.291Z</time></trkpt><trkpt lat="44.2921128" lon="8.3666018"><ele>174.0</ele><time>2026-03-28T10:57:55.282Z</time></trkpt><trkpt lat="44.2921412" lon="8.3667558"><ele>173.2</ele><time>2026-03-28T10:57:56.304Z</time></trkpt><trkpt lat="44.292158" lon="8.3668978"><ele>172.39999999999998</ele><time>2026-03-28T10:57:57.291Z</time></trkpt><trkpt lat="44.2921655" lon="8.3670201"><ele>171.6</ele><time>2026-03-28T10:57:58.292Z</time></trkpt><trkpt lat="44.2921496" lon="8.3671385"><ele>170.8</ele><time>2026-03-28T10:57:59.289Z</time></trkpt><trkpt lat="44.2921206" lon="8.3672541"><ele>170.0</ele><time>2026-03-28T10:58:00.298Z</time></trkpt><trkpt lat="44.2920772" lon="8.3673655"><ele>169.33333333333331</ele><time>2026-03-28T10:58:01.293Z</time></trkpt><trkpt lat="44.2920461" lon="8.3674709"><ele>168.66666666666666</ele><time>2026-03-28T10:58:02.292Z</time></trkpt><trkpt lat="44.2920229" lon="8.3675808"><ele>168.0</ele><time>2026-03-28T10:58:03.284Z</time></trkpt><trkpt lat="44.292022" lon="8.36768"><ele>167.33333333333334</ele><time>2026-03-28T10:58:04.296Z</time></trkpt><trkpt lat="44.2920467" lon="8.3677987"><ele>166.66666666666669</ele><time>2026-03-28T10:58:05.296Z</time></trkpt><trkpt lat="44.2921044" lon="8.3679113"><ele>166.0</ele><time>2026-03-28T10:58:06.288Z</time></trkpt><trkpt lat="44.2921886" lon="8.3680173"><ele>171.25</ele><time>2026-03-28T10:58:07.295Z</time></trkpt><trkpt lat="44.2922953" lon="8.3681088"><ele>176.5</ele><time>2026-03-28T10:58:08.288Z</time></trkpt><trkpt lat="44.2924059" lon="8.368207"><ele>181.75</ele><time>2026-03-28T10:58:09.289Z</time></trkpt><trkpt lat="44.2925033" lon="8.3683268"><ele>187.0</ele><time>2026-03-28T10:58:10.303Z</time></trkpt><trkpt lat="44.2925914" lon="8.3684562"><ele>187.0</ele><time>2026-03-28T10:58:11.292Z</time></trkpt><trkpt lat="44.2926598" lon="8.3685873"><ele>187.0</ele><time>2026-03-28T10:58:12.298Z</time></trkpt><trkpt lat="44.29271" lon="8.3687235"><ele>187.0</ele><time>2026-03-28T10:58:13.295Z</time></trkpt><trkpt lat="44.2927615" lon="8.3688701"><ele>187.0</ele><time>2026-03-28T10:58:14.293Z</time></trkpt><trkpt lat="44.2927966" lon="8.3690209"><ele>183.39999999999998</ele><time>2026-03-28T10:58:15.296Z</time></trkpt><trkpt lat="44.2928387" lon="8.3691667"><ele>179.79999999999998</ele><time>2026-03-28T10:58:16.3Z</time></trkpt><trkpt lat="44.2928728" lon="8.369314"><ele>176.2</ele><time>2026-03-28T10:58:17.303Z</time></trkpt><trkpt lat="44.2929038" lon="8.3694481"><ele>172.6</ele><time>2026-03-28T10:58:18.3Z</time></trkpt><trkpt lat="44.2929438" lon="8.3695611"><ele>169.0</ele><time>2026-03-28T10:58:19.29Z</time></trkpt><trkpt lat="44.2929905" lon="8.3696486"><ele>167.0</ele><time>2026-03-28T10:58:20.299Z</time></trkpt><trkpt lat="44.2930407" lon="8.3697123"><ele>165.0</ele><time>2026-03-28T10:58:21.292Z</time></trkpt><trkpt lat="44.2931037" lon="8.3697577"><ele>163.0</ele><time>2026-03-28T10:58:22.305Z</time></trkpt><trkpt lat="44.2931704" lon="8.3697654"><ele>161.0</ele><time>2026-03-28T10:58:23.295Z</time></trkpt><trkpt lat="44.2932451" lon="8.3697283"><ele>159.0</ele><time>2026-03-28T10:58:24.29Z</time></trkpt><trkpt lat="44.2933422" lon="8.3696786"><ele>157.0</ele><time>2026-03-28T10:58:25.287Z</time></trkpt><trkpt lat="44.2934336" lon="8.369656"><ele>157.0</ele><time>2026-03-28T10:58:26.291Z</time></trkpt><trkpt lat="44.2935046" lon="8.369664"><ele>157.0</ele><time>2026-03-28T10:58:27.303Z</time></trkpt><trkpt lat="44.2935779" lon="8.3697476"><ele>157.0</ele><time>2026-03-28T10:58:29.3Z</time></trkpt><trkpt lat="44.2935302" lon="8.3698606"><ele>157.0</ele><time>2026-03-28T10:58:31.291Z</time></trkpt><trkpt lat="44.2934445" lon="8.3698795"><ele>157.0</ele><time>2026-03-28T10:58:32.292Z</time></trkpt><trkpt lat="44.2933239" lon="8.3698712"><ele>157.0</ele><time>2026-03-28T10:58:33.289Z</time></trkpt><trkpt lat="44.293189" lon="8.3698642"><ele>157.0</ele><time>2026-03-28T10:58:34.288Z</time></trkpt><trkpt lat="44.2930516" lon="8.3698642"><ele>157.0</ele><time>2026-03-28T10:58:35.299Z</time></trkpt><trkpt lat="44.2929102" lon="8.3698458"><ele>157.0</ele><time>2026-03-28T10:58:36.286Z</time></trkpt><trkpt lat="44.2927761" lon="8.3698166"><ele>154.0</ele><time>2026-03-28T10:58:37.295Z</time></trkpt><trkpt lat="44.2926656" lon="8.3697442"><ele>151.0</ele><time>2026-03-28T10:58:38.286Z</time></trkpt><trkpt lat="44.2925587" lon="8.3696234"><ele>148.0</ele><time>2026-03-28T10:58:39.295Z</time></trkpt><trkpt lat="44.2924489" lon="8.3694979"><ele>145.0</ele><time>2026-03-28T10:58:40.306Z</time></trkpt><trkpt lat="44.2923575" lon="8.3693908"><ele>143.6</ele><time>2026-03-28T10:58:41.295Z</time></trkpt><trkpt lat="44.2922792" lon="8.3692776"><ele>142.2</ele><time>2026-03-28T10:58:42.299Z</time></trkpt><trkpt lat="44.2922059" lon="8.3691768"><ele>140.8</ele><time>2026-03-28T10:58:43.296Z</time></trkpt><trkpt lat="44.2921352" lon="8.3690871"><ele>139.4</ele><time>2026-03-28T10:58:44.293Z</time></trkpt><trkpt lat="44.2920836" lon="8.3690011"><ele>138.0</ele><time>2026-03-28T10:58:45.296Z</time></trkpt><trkpt lat="44.2920351" lon="8.3689334"><ele>138.0</ele><time>2026-03-28T10:58:46.302Z</time></trkpt><trkpt lat="44.2919444" lon="8.3688787"><ele>138.0</ele><time>2026-03-28T10:58:48.306Z</time></trkpt><trkpt lat="44.2919115" lon="8.36901"><ele>138.0</ele><time>2026-03-28T10:58:50.297Z</time></trkpt><trkpt lat="44.2919594" lon="8.369136"><ele>138.0</ele><time>2026-03-28T10:58:51.296Z</time></trkpt><trkpt lat="44.2920416" lon="8.3692807"><ele>138.0</ele><time>2026-03-28T10:58:52.297Z</time></trkpt><trkpt lat="44.2921521" lon="8.3694254"><ele>140.33333333333334</ele><time>2026-03-28T10:58:53.293Z</time></trkpt><trkpt lat="44.292264" lon="8.3695754"><ele>142.66666666666669</ele><time>2026-03-28T10:58:54.293Z</time></trkpt><trkpt lat="44.2923731" lon="8.3697337"><ele>145.0</ele><time>2026-03-28T10:58:55.289Z</time></trkpt><trkpt lat="44.2924892" lon="8.3698874"><ele>145.0</ele><time>2026-03-28T10:58:56.299Z</time></trkpt><trkpt lat="44.2925993" lon="8.3700309"><ele>145.0</ele><time>2026-03-28T10:58:57.294Z</time></trkpt><trkpt lat="44.2926767" lon="8.3701802"><ele>145.0</ele><time>2026-03-28T10:58:58.314Z</time></trkpt><trkpt lat="44.2927314" lon="8.3703404"><ele>145.0</ele><time>2026-03-28T10:58:59.291Z</time></trkpt><trkpt lat="44.2927719" lon="8.3705127"><ele>141.4</ele><time>2026-03-28T10:59:00.298Z</time></trkpt><trkpt lat="44.2927967" lon="8.3706857"><ele>137.8</ele><time>2026-03-28T10:59:01.296Z</time></trkpt><trkpt lat="44.2928228" lon="8.3708311"><ele>134.2</ele><time>2026-03-28T10:59:02.296Z</time></trkpt><trkpt lat="44.2928524" lon="8.370955"><ele>130.6</ele><time>2026-03-28T10:59:03.294Z</time></trkpt><trkpt lat="44.2928935" lon="8.371054"><ele>127.0</ele><time>2026-03-28T10:59:04.312Z</time></trkpt><trkpt lat="44.2929488" lon="8.3711267"><ele>127.0</ele><time>2026-03-28T10:59:05.286Z</time></trkpt><trkpt lat="44.293032" lon="8.3711563"><ele>126.99999999999999</ele><time>2026-03-28T10:59:06.305Z</time></trkpt><trkpt lat="44.2931319" lon="8.3711568"><ele>126.99999999999999</ele><time>2026-03-28T10:59:07.285Z</time></trkpt><trkpt lat="44.2932543" lon="8.3711425"><ele>127.0</ele><time>2026-03-28T10:59:08.289Z</time></trkpt><trkpt lat="44.293392" lon="8.3711276"><ele>127.0</ele><time>2026-03-28T10:59:09.292Z</time></trkpt><trkpt lat="44.2935334" lon="8.3711229"><ele>130.25</ele><time>2026-03-28T10:59:10.289Z</time></trkpt><trkpt lat="44.2936691" lon="8.3711228"><ele>133.5</ele><time>2026-03-28T10:59:11.297Z</time></trkpt><trkpt lat="44.293784" lon="8.3711344"><ele>136.75</ele><time>2026-03-28T10:59:12.286Z</time></trkpt><trkpt lat="44.2939064" lon="8.3711595"><ele>140.0</ele><time>2026-03-28T10:59:13.299Z</time></trkpt><trkpt lat="44.2940166" lon="8.3711959"><ele>138.0</ele><time>2026-03-28T10:59:14.288Z</time></trkpt><trkpt lat="44.2941017" lon="8.3712866"><ele>136.0</ele><time>2026-03-28T10:59:15.292Z</time></trkpt><trkpt lat="44.2941622" lon="8.3714188"><ele>134.0</ele><time>2026-03-28T10:59:16.286Z</time></trkpt><trkpt lat="44.2942053" lon="8.3715642"><ele>132.0</ele><time>2026-03-28T10:59:17.301Z</time></trkpt><trkpt lat="44.2942385" lon="8.3716953"><ele>130.0</ele><time>2026-03-28T10:59:18.293Z</time></trkpt><trkpt lat="44.2942799" lon="8.3717972"><ele>130.0</ele><time>2026-03-28T10:59:19.301Z</time></trkpt><trkpt lat="44.2943257" lon="8.3718649"><ele>130.0</ele><time>2026-03-28T10:59:20.29Z</time></trkpt><trkpt lat="44.2943902" lon="8.3719029"><ele>130.0</ele><time>2026-03-28T10:59:21.297Z</time></trkpt><trkpt lat="44.2944817" lon="8.3719182"><ele>130.0</ele><time>2026-03-28T10:59:22.291Z</time></trkpt><trkpt lat="44.2945765" lon="8.3719523"><ele>130.0</ele><time>2026-03-28T10:59:23.291Z</time></trkpt><trkpt lat="44.2947048" lon="8.3719895"><ele>134.25</ele><time>2026-03-28T10:59:24.281Z</time></trkpt><trkpt lat="44.2948443" lon="8.3720412"><ele>138.5</ele><time>2026-03-28T10:59:25.298Z</time></trkpt><trkpt lat="44.2949842" lon="8.3720711"><ele>142.75</ele><time>2026-03-28T10:59:26.297Z</time></trkpt><trkpt lat="44.2951151" lon="8.3721196"><ele>147.0</ele><time>2026-03-28T10:59:27.296Z</time></trkpt><trkpt lat="44.2952564" lon="8.3721615"><ele>143.0</ele><time>2026-03-28T10:59:28.282Z</time></trkpt><trkpt lat="44.2953894" lon="8.3722135"><ele>139.0</ele><time>2026-03-28T10:59:29.31Z</time></trkpt><trkpt lat="44.29551" lon="8.3722763"><ele>135.0</ele><time>2026-03-28T10:59:30.299Z</time></trkpt><trkpt lat="44.2956137" lon="8.3723539"><ele>131.0</ele><time>2026-03-28T10:59:31.303Z</time></trkpt><trkpt lat="44.2957067" lon="8.3724487"><ele>131.0</ele><time>2026-03-28T10:59:32.299Z</time></trkpt><trkpt lat="44.2957987" lon="8.3725789"><ele>131.0</ele><time>2026-03-28T10:59:33.297Z</time></trkpt><trkpt lat="44.2958927" lon="8.3727206"><ele>131.0</ele><time>2026-03-28T10:59:34.301Z</time></trkpt><trkpt lat="44.2959989" lon="8.3728507"><ele>131.0</ele><time>2026-03-28T10:59:35.296Z</time></trkpt><trkpt lat="44.296121" lon="8.3729987"><ele>127.5</ele><time>2026-03-28T10:59:36.298Z</time></trkpt><trkpt lat="44.2962415" lon="8.3731247"><ele>124.0</ele><time>2026-03-28T10:59:37.295Z</time></trkpt><trkpt lat="44.2963712" lon="8.3732451"><ele>120.5</ele><time>2026-03-28T10:59:38.296Z</time></trkpt><trkpt lat="44.2964865" lon="8.3733605"><ele>117.0</ele><time>2026-03-28T10:59:39.299Z</time></trkpt><trkpt lat="44.2966077" lon="8.3734496"><ele>117.0</ele><time>2026-03-28T10:59:40.302Z</time></trkpt><trkpt lat="44.296735" lon="8.3735176"><ele>117.0</ele><time>2026-03-28T10:59:41.299Z</time></trkpt><trkpt lat="44.2968505" lon="8.3735785"><ele>117.0</ele><time>2026-03-28T10:59:42.273Z</time></trkpt><trkpt lat="44.2969558" lon="8.3736404"><ele>117.0</ele><time>2026-03-28T10:59:43.277Z</time></trkpt><trkpt lat="44.2970562" lon="8.3736828"><ele>117.0</ele><time>2026-03-28T10:59:44.27Z</time></trkpt><trkpt lat="44.2971522" lon="8.3737183"><ele>117.0</ele><time>2026-03-28T10:59:45.269Z</time></trkpt><trkpt lat="44.2972112" lon="8.3737626"><ele>117.0</ele><time>2026-03-28T10:59:46.277Z</time></trkpt><trkpt lat="44.2972592" lon="8.3738408"><ele>117.0</ele><time>2026-03-28T10:59:47.274Z</time></trkpt><trkpt lat="44.2973033" lon="8.3739268"><ele>117.0</ele><time>2026-03-28T10:59:48.279Z</time></trkpt><trkpt lat="44.2973469" lon="8.3740285"><ele>117.0</ele><time>2026-03-28T10:59:49.28Z</time></trkpt><trkpt lat="44.2973818" lon="8.374176"><ele>114.8</ele><time>2026-03-28T10:59:50.278Z</time></trkpt><trkpt lat="44.2974206" lon="8.3743113"><ele>112.6</ele><time>2026-03-28T10:59:51.268Z</time></trkpt><trkpt lat="44.2974684" lon="8.3744191"><ele>110.39999999999999</ele><time>2026-03-28T10:59:52.287Z</time></trkpt><trkpt lat="44.297538" lon="8.3744967"><ele>108.19999999999999</ele><time>2026-03-28T10:59:53.279Z</time></trkpt><trkpt lat="44.2976224" lon="8.3745388"><ele>106.0</ele><time>2026-03-28T10:59:54.276Z</time></trkpt><trkpt lat="44.2977271" lon="8.3745679"><ele>106.00000000000001</ele><time>2026-03-28T10:59:55.267Z</time></trkpt><trkpt lat="44.2978189" lon="8.374601"><ele>106.0</ele><time>2026-03-28T10:59:56.273Z</time></trkpt><trkpt lat="44.297889" lon="8.374655"><ele>106.0</ele><time>2026-03-28T10:59:57.256Z</time></trkpt><trkpt lat="44.2979228" lon="8.374735"><ele>106.0</ele><time>2026-03-28T10:59:58.267Z</time></trkpt><trkpt lat="44.2979235" lon="8.3748547"><ele>106.00000000000001</ele><time>2026-03-28T10:59:59.251Z</time></trkpt><trkpt lat="44.2979158" lon="8.3749963"><ele>106.0</ele><time>2026-03-28T11:00:00.257Z</time></trkpt><trkpt lat="44.2978815" lon="8.3751841"><ele>110.0</ele><time>2026-03-28T11:00:01.25Z</time></trkpt><trkpt lat="44.2978564" lon="8.3753845"><ele>114.0</ele><time>2026-03-28T11:00:02.253Z</time></trkpt><trkpt lat="44.2978299" lon="8.3755944"><ele>118.0</ele><time>2026-03-28T11:00:03.248Z</time></trkpt><trkpt lat="44.2977911" lon="8.3757865"><ele>122.0</ele><time>2026-03-28T11:00:04.254Z</time></trkpt><trkpt lat="44.2977585" lon="8.3759701"><ele>122.19999999999999</ele><time>2026-03-28T11:00:05.246Z</time></trkpt><trkpt lat="44.2977328" lon="8.3761353"><ele>122.39999999999999</ele><time>2026-03-28T11:00:06.255Z</time></trkpt><trkpt lat="44.2977101" lon="8.3762857"><ele>122.60000000000001</ele><time>2026-03-28T11:00:07.241Z</time></trkpt><trkpt lat="44.2976934" lon="8.3764317"><ele>122.80000000000001</ele><time>2026-03-28T11:00:08.244Z</time></trkpt><trkpt lat="44.2976961" lon="8.3765818"><ele>123.0</ele><time>2026-03-28T11:00:09.251Z</time></trkpt><trkpt lat="44.297721" lon="8.3767196"><ele>123.0</ele><time>2026-03-28T11:00:10.247Z</time></trkpt><trkpt lat="44.2977526" lon="8.3768279"><ele>123.0</ele><time>2026-03-28T11:00:11.261Z</time></trkpt><trkpt lat="44.2978018" lon="8.376918"><ele>123.0</ele><time>2026-03-28T11:00:12.248Z</time></trkpt><trkpt lat="44.2978666" lon="8.377007"><ele>123.0</ele><time>2026-03-28T11:00:13.246Z</time></trkpt><trkpt lat="44.2979107" lon="8.3771005"><ele>123.0</ele><time>2026-03-28T11:00:14.244Z</time></trkpt><trkpt lat="44.2979359" lon="8.3772024"><ele>123.0</ele><time>2026-03-28T11:00:15.251Z</time></trkpt><trkpt lat="44.2979382" lon="8.3773369"><ele>123.5</ele><time>2026-03-28T11:00:16.246Z</time></trkpt><trkpt lat="44.2979374" lon="8.3774887"><ele>124.0</ele><time>2026-03-28T11:00:17.254Z</time></trkpt><trkpt lat="44.2979291" lon="8.3776467"><ele>124.5</ele><time>2026-03-28T11:00:18.241Z</time></trkpt><trkpt lat="44.2979201" lon="8.3778138"><ele>125.0</ele><time>2026-03-28T11:00:19.25Z</time></trkpt><trkpt lat="44.297914" lon="8.3779774"><ele>123.75</ele><time>2026-03-28T11:00:20.244Z</time></trkpt><trkpt lat="44.2978913" lon="8.3781406"><ele>122.5</ele><time>2026-03-28T11:00:21.244Z</time></trkpt><trkpt lat="44.2978576" lon="8.3783085"><ele>121.25</ele><time>2026-03-28T11:00:22.241Z</time></trkpt><trkpt lat="44.2978446" lon="8.3784702"><ele>120.0</ele><time>2026-03-28T11:00:23.247Z</time></trkpt><trkpt lat="44.2978382" lon="8.3786231"><ele>120.0</ele><time>2026-03-28T11:00:24.245Z</time></trkpt><trkpt lat="44.2978431" lon="8.3787636"><ele>120.0</ele><time>2026-03-28T11:00:25.248Z</time></trkpt><trkpt lat="44.297843" lon="8.3788915"><ele>120.0</ele><time>2026-03-28T11:00:26.244Z</time></trkpt><trkpt lat="44.2978284" lon="8.3790121"><ele>120.0</ele><time>2026-03-28T11:00:27.254Z</time></trkpt><trkpt lat="44.2978059" lon="8.3791312"><ele>120.0</ele><time>2026-03-28T11:00:28.251Z</time></trkpt><trkpt lat="44.2977736" lon="8.3792518"><ele>115.4</ele><time>2026-03-28T11:00:29.257Z</time></trkpt><trkpt lat="44.297734" lon="8.3793718"><ele>110.8</ele><time>2026-03-28T11:00:30.245Z</time></trkpt><trkpt lat="44.2976972" lon="8.3795012"><ele>106.19999999999999</ele><time>2026-03-28T11:00:31.245Z</time></trkpt><trkpt lat="44.2976539" lon="8.3796195"><ele>101.6</ele><time>2026-03-28T11:00:32.241Z</time></trkpt><trkpt lat="44.2975951" lon="8.3797352"><ele>97.0</ele><time>2026-03-28T11:00:33.252Z</time></trkpt><trkpt lat="44.2975347" lon="8.3798381"><ele>94.5</ele><time>2026-03-28T11:00:34.241Z</time></trkpt><trkpt lat="44.2974358" lon="8.3799069"><ele>92.0</ele><time>2026-03-28T11:00:35.255Z</time></trkpt><trkpt lat="44.2972933" lon="8.379948"><ele>89.5</ele><time>2026-03-28T11:00:36.245Z</time></trkpt><trkpt lat="44.2971273" lon="8.3799782"><ele>87.0</ele><time>2026-03-28T11:00:37.253Z</time></trkpt><trkpt lat="44.2969754" lon="8.3800156"><ele>86.25</ele><time>2026-03-28T11:00:38.245Z</time></trkpt><trkpt lat="44.2968299" lon="8.3800532"><ele>85.5</ele><time>2026-03-28T11:00:39.24Z</time></trkpt><trkpt lat="44.2966977" lon="8.3800804"><ele>84.75</ele><time>2026-03-28T11:00:40.242Z</time></trkpt><trkpt lat="44.2965663" lon="8.3800965"><ele>84.0</ele><time>2026-03-28T11:00:41.251Z</time></trkpt><trkpt lat="44.29644" lon="8.3801027"><ele>91.0</ele><time>2026-03-28T11:00:42.243Z</time></trkpt><trkpt lat="44.2963182" lon="8.3801049"><ele>98.0</ele><time>2026-03-28T11:00:43.248Z</time></trkpt><trkpt lat="44.2962089" lon="8.3801128"><ele>105.0</ele><time>2026-03-28T11:00:44.239Z</time></trkpt><trkpt lat="44.2961096" lon="8.3801561"><ele>112.0</ele><time>2026-03-28T11:00:45.245Z</time></trkpt><trkpt lat="44.2960279" lon="8.3802728"><ele>112.0</ele><time>2026-03-28T11:00:46.244Z</time></trkpt><trkpt lat="44.2959801" lon="8.3804173"><ele>112.0</ele><time>2026-03-28T11:00:47.251Z</time></trkpt><trkpt lat="44.2959641" lon="8.3805877"><ele>112.0</ele><time>2026-03-28T11:00:48.237Z</time></trkpt><trkpt lat="44.2959337" lon="8.3807375"><ele>112.0</ele><time>2026-03-28T11:00:49.249Z</time></trkpt><trkpt lat="44.2958966" lon="8.380879"><ele>111.50000000000001</ele><time>2026-03-28T11:00:50.242Z</time></trkpt><trkpt lat="44.295854" lon="8.3809905"><ele>111.0</ele><time>2026-03-28T11:00:51.248Z</time></trkpt><trkpt lat="44.2958087" lon="8.3810736"><ele>110.5</ele><time>2026-03-28T11:00:52.249Z</time></trkpt><trkpt lat="44.2957743" lon="8.3811518"><ele>110.0</ele><time>2026-03-28T11:00:53.241Z</time></trkpt><trkpt lat="44.2957335" lon="8.3812227"><ele>109.50000000000001</ele><time>2026-03-28T11:00:54.244Z</time></trkpt><trkpt lat="44.2956696" lon="8.3812675"><ele>109.0</ele><time>2026-03-28T11:00:55.248Z</time></trkpt><trkpt lat="44.2955817" lon="8.3812956"><ele>109.0</ele><time>2026-03-28T11:00:56.243Z</time></trkpt><trkpt lat="44.2954781" lon="8.3813407"><ele>109.0</ele><time>2026-03-28T11:00:57.255Z</time></trkpt><trkpt lat="44.2954064" lon="8.3814151"><ele>109.0</ele><time>2026-03-28T11:00:58.246Z</time></trkpt><trkpt lat="44.2953087" lon="8.3814907"><ele>109.0</ele><time>2026-03-28T11:00:59.248Z</time></trkpt><trkpt lat="44.295243" lon="8.3815679"><ele>109.0</ele><time>2026-03-28T11:01:00.238Z</time></trkpt><trkpt lat="44.2951772" lon="8.3816223"><ele>105.66666666666667</ele><time>2026-03-28T11:01:01.246Z</time></trkpt><trkpt lat="44.2951067" lon="8.3816788"><ele>102.33333333333334</ele><time>2026-03-28T11:01:02.249Z</time></trkpt><trkpt lat="44.2950377" lon="8.3816968"><ele>99.0</ele><time>2026-03-28T11:01:03.246Z</time></trkpt><trkpt lat="44.2949577" lon="8.381688"><ele>95.66666666666667</ele><time>2026-03-28T11:01:04.249Z</time></trkpt><trkpt lat="44.2948603" lon="8.3816735"><ele>92.33333333333334</ele><time>2026-03-28T11:01:05.249Z</time></trkpt><trkpt lat="44.2947593" lon="8.381674"><ele>89.0</ele><time>2026-03-28T11:01:06.259Z</time></trkpt><trkpt lat="44.294665" lon="8.3816909"><ele>89.0</ele><time>2026-03-28T11:01:07.257Z</time></trkpt><trkpt lat="44.2945724" lon="8.3817272"><ele>89.0</ele><time>2026-03-28T11:01:08.259Z</time></trkpt><trkpt lat="44.2944856" lon="8.3817689"><ele>89.0</ele><time>2026-03-28T11:01:09.258Z</time></trkpt><trkpt lat="44.2943902" lon="8.3818166"><ele>89.0</ele><time>2026-03-28T11:01:10.264Z</time></trkpt><trkpt lat="44.294298" lon="8.3818695"><ele>89.0</ele><time>2026-03-28T11:01:11.247Z</time></trkpt><trkpt lat="44.2941979" lon="8.3819346"><ele>89.0</ele><time>2026-03-28T11:01:12.263Z</time></trkpt><trkpt lat="44.2941124" lon="8.3820181"><ele>89.0</ele><time>2026-03-28T11:01:13.253Z</time></trkpt><trkpt lat="44.2940362" lon="8.3820951"><ele>89.0</ele><time>2026-03-28T11:01:14.26Z</time></trkpt><trkpt lat="44.2939726" lon="8.3821812"><ele>89.0</ele><time>2026-03-28T11:01:15.255Z</time></trkpt><trkpt lat="44.2939126" lon="8.3822701"><ele>89.0</ele><time>2026-03-28T11:01:16.262Z</time></trkpt><trkpt lat="44.2938462" lon="8.3823468"><ele>86.83333333333334</ele><time>2026-03-28T11:01:17.262Z</time></trkpt><trkpt lat="44.2937841" lon="8.3824249"><ele>84.66666666666667</ele><time>2026-03-28T11:01:18.255Z</time></trkpt><trkpt lat="44.2937228" lon="8.3825"><ele>82.5</ele><time>2026-03-28T11:01:19.255Z</time></trkpt><trkpt lat="44.2936595" lon="8.3825757"><ele>80.33333333333333</ele><time>2026-03-28T11:01:20.256Z</time></trkpt><trkpt lat="44.2935927" lon="8.38264"><ele>78.16666666666666</ele><time>2026-03-28T11:01:21.253Z</time></trkpt><trkpt lat="44.2935252" lon="8.3827062"><ele>76.0</ele><time>2026-03-28T11:01:22.257Z</time></trkpt><trkpt lat="44.2934609" lon="8.3827669"><ele>76.0</ele><time>2026-03-28T11:01:23.253Z</time></trkpt><trkpt lat="44.2933945" lon="8.3828335"><ele>76.0</ele><time>2026-03-28T11:01:24.27Z</time></trkpt><trkpt lat="44.2933288" lon="8.3829014"><ele>76.0</ele><time>2026-03-28T11:01:25.254Z</time></trkpt><trkpt lat="44.2932668" lon="8.382981"><ele>76.0</ele><time>2026-03-28T11:01:26.253Z</time></trkpt><trkpt lat="44.2932059" lon="8.3830627"><ele>76.0</ele><time>2026-03-28T11:01:27.255Z</time></trkpt><trkpt lat="44.2931536" lon="8.3831547"><ele>76.0</ele><time>2026-03-28T11:01:28.258Z</time></trkpt><trkpt lat="44.2931027" lon="8.3832553"><ele>76.39999999999999</ele><time>2026-03-28T11:01:29.257Z</time></trkpt><trkpt lat="44.2930537" lon="8.3833654"><ele>76.8</ele><time>2026-03-28T11:01:30.261Z</time></trkpt><trkpt lat="44.2929869" lon="8.3834686"><ele>77.19999999999999</ele><time>2026-03-28T11:01:31.251Z</time></trkpt><trkpt lat="44.2929174" lon="8.3835646"><ele>77.6</ele><time>2026-03-28T11:01:32.251Z</time></trkpt><trkpt lat="44.2928416" lon="8.3836555"><ele>78.0</ele><time>2026-03-28T11:01:33.248Z</time></trkpt><trkpt lat="44.2927609" lon="8.3837346"><ele>78.0</ele><time>2026-03-28T11:01:34.253Z</time></trkpt><trkpt lat="44.292687" lon="8.3838041"><ele>78.0</ele><time>2026-03-28T11:01:35.246Z</time></trkpt><trkpt lat="44.2926092" lon="8.3838746"><ele>78.0</ele><time>2026-03-28T11:01:36.26Z</time></trkpt><trkpt lat="44.292522" lon="8.3839472"><ele>78.0</ele><time>2026-03-28T11:01:37.245Z</time></trkpt><trkpt lat="44.2924357" lon="8.3840213"><ele>78.0</ele><time>2026-03-28T11:01:38.267Z</time></trkpt><trkpt lat="44.2923575" lon="8.3841031"><ele>77.6</ele><time>2026-03-28T11:01:39.257Z</time></trkpt><trkpt lat="44.2922804" lon="8.3841811"><ele>77.19999999999999</ele><time>2026-03-28T11:01:40.265Z</time></trkpt><trkpt lat="44.2921978" lon="8.3842611"><ele>76.8</ele><time>2026-03-28T11:01:41.251Z</time></trkpt><trkpt lat="44.2921154" lon="8.3843341"><ele>76.39999999999999</ele><time>2026-03-28T11:01:42.263Z</time></trkpt><trkpt lat="44.2920278" lon="8.38441"><ele>76.0</ele><time>2026-03-28T11:01:43.253Z</time></trkpt><trkpt lat="44.2919409" lon="8.3844952"><ele>76.0</ele><time>2026-03-28T11:01:44.257Z</time></trkpt><trkpt lat="44.2918669" lon="8.3845859"><ele>76.0</ele><time>2026-03-28T11:01:45.248Z</time></trkpt><trkpt lat="44.2917873" lon="8.3846805"><ele>76.0</ele><time>2026-03-28T11:01:46.267Z</time></trkpt><trkpt lat="44.291717" lon="8.3847759"><ele>76.0</ele><time>2026-03-28T11:01:47.254Z</time></trkpt><trkpt lat="44.2916502" lon="8.3848752"><ele>76.0</ele><time>2026-03-28T11:01:48.26Z</time></trkpt><trkpt lat="44.291582" lon="8.3849737"><ele>75.0</ele><time>2026-03-28T11:01:49.255Z</time></trkpt><trkpt lat="44.2915053" lon="8.3850793"><ele>74.0</ele><time>2026-03-28T11:01:50.264Z</time></trkpt><trkpt lat="44.2914273" lon="8.3851957"><ele>73.0</ele><time>2026-03-28T11:01:51.252Z</time></trkpt><trkpt lat="44.2913518" lon="8.3853206"><ele>72.0</ele><time>2026-03-28T11:01:52.261Z</time></trkpt><trkpt lat="44.2912846" lon="8.3854369"><ele>71.0</ele><time>2026-03-28T11:01:53.256Z</time></trkpt><trkpt lat="44.2912176" lon="8.3855458"><ele>69.0</ele><time>2026-03-28T11:01:54.267Z</time></trkpt><trkpt lat="44.2911604" lon="8.3856639"><ele>67.0</ele><time>2026-03-28T11:01:55.258Z</time></trkpt><trkpt lat="44.2911025" lon="8.3857841"><ele>65.0</ele><time>2026-03-28T11:01:56.258Z</time></trkpt><trkpt lat="44.2910424" lon="8.3858932"><ele>63.0</ele><time>2026-03-28T11:01:57.254Z</time></trkpt><trkpt lat="44.2909886" lon="8.386001"><ele>61.0</ele><time>2026-03-28T11:01:58.262Z</time></trkpt><trkpt lat="44.2909446" lon="8.3861011"><ele>60.99999999999999</ele><time>2026-03-28T11:01:59.263Z</time></trkpt><trkpt lat="44.2909116" lon="8.3862024"><ele>61.0</ele><time>2026-03-28T11:02:00.26Z</time></trkpt><trkpt lat="44.2908783" lon="8.3863015"><ele>61.0</ele><time>2026-03-28T11:02:01.251Z</time></trkpt><trkpt lat="44.2908492" lon="8.3864086"><ele>61.0</ele><time>2026-03-28T11:02:02.247Z</time></trkpt><trkpt lat="44.2908193" lon="8.3865192"><ele>60.99999999999999</ele><time>2026-03-28T11:02:03.254Z</time></trkpt><trkpt lat="44.2907843" lon="8.3866397"><ele>61.0</ele><time>2026-03-28T11:02:04.251Z</time></trkpt><trkpt lat="44.2907576" lon="8.3867646"><ele>60.83333333333333</ele><time>2026-03-28T11:02:05.257Z</time></trkpt><trkpt lat="44.2907314" lon="8.3868856"><ele>60.666666666666664</ele><time>2026-03-28T11:02:06.247Z</time></trkpt><trkpt lat="44.2906979" lon="8.3869884"><ele>60.5</ele><time>2026-03-28T11:02:07.259Z</time></trkpt><trkpt lat="44.2906782" lon="8.3871"><ele>60.33333333333333</ele><time>2026-03-28T11:02:08.239Z</time></trkpt><trkpt lat="44.2906618" lon="8.3871987"><ele>60.166666666666664</ele><time>2026-03-28T11:02:09.257Z</time></trkpt><trkpt lat="44.2906608" lon="8.387296"><ele>60.0</ele><time>2026-03-28T11:02:10.252Z</time></trkpt><trkpt lat="44.2906643" lon="8.3873893"><ele>59.8</ele><time>2026-03-28T11:02:11.267Z</time></trkpt><trkpt lat="44.2906568" lon="8.3874784"><ele>59.6</ele><time>2026-03-28T11:02:12.249Z</time></trkpt><trkpt lat="44.290595" lon="8.3876173"><ele>59.400000000000006</ele><time>2026-03-28T11:02:14.243Z</time></trkpt><trkpt lat="44.2905326" lon="8.387669"><ele>59.2</ele><time>2026-03-28T11:02:15.253Z</time></trkpt><trkpt lat="44.2904332" lon="8.3877152"><ele>59.0</ele><time>2026-03-28T11:02:16.247Z</time></trkpt><trkpt lat="44.2903121" lon="8.3877453"><ele>59.0</ele><time>2026-03-28T11:02:17.256Z</time></trkpt><trkpt lat="44.2901967" lon="8.387781"><ele>59.00000000000001</ele><time>2026-03-28T11:02:18.25Z</time></trkpt><trkpt lat="44.2901061" lon="8.3878283"><ele>59.00000000000001</ele><time>2026-03-28T11:02:19.253Z</time></trkpt><trkpt lat="44.2900548" lon="8.3878984"><ele>59.0</ele><time>2026-03-28T11:02:20.246Z</time></trkpt><trkpt lat="44.2900048" lon="8.3880386"><ele>59.0</ele><time>2026-03-28T11:02:22.249Z</time></trkpt><trkpt lat="44.289999" lon="8.3882014"><ele>59.0</ele><time>2026-03-28T11:02:24.242Z</time></trkpt><trkpt lat="44.2900075" lon="8.3882968"><ele>59.0</ele><time>2026-03-28T11:02:25.253Z</time></trkpt><trkpt lat="44.2900144" lon="8.3883938"><ele>59.0</ele><time>2026-03-28T11:02:26.25Z</time></trkpt><trkpt lat="44.2900159" lon="8.3884879"><ele>59.0</ele><time>2026-03-28T11:02:27.249Z</time></trkpt><trkpt lat="44.2900147" lon="8.3885868"><ele>59.0</ele><time>2026-03-28T11:02:28.258Z</time></trkpt><trkpt lat="44.2900349" lon="8.3886809"><ele>59.0</ele><time>2026-03-28T11:02:29.256Z</time></trkpt><trkpt lat="44.2900763" lon="8.3887835"><ele>59.0</ele><time>2026-03-28T11:02:30.254Z</time></trkpt><trkpt lat="44.2901218" lon="8.3888944"><ele>58.800000000000004</ele><time>2026-03-28T11:02:31.246Z</time></trkpt><trkpt lat="44.2901701" lon="8.3890299"><ele>58.60000000000001</ele><time>2026-03-28T11:02:32.253Z</time></trkpt><trkpt lat="44.2902199" lon="8.3891567"><ele>58.4</ele><time>2026-03-28T11:02:33.241Z</time></trkpt><trkpt lat="44.290274" lon="8.3892799"><ele>58.2</ele><time>2026-03-28T11:02:34.25Z</time></trkpt><trkpt lat="44.2903301" lon="8.3894048"><ele>58.0</ele><time>2026-03-28T11:02:35.244Z</time></trkpt><trkpt lat="44.2903803" lon="8.3895191"><ele>58.0</ele><time>2026-03-28T11:02:36.252Z</time></trkpt><trkpt lat="44.2904453" lon="8.3896302"><ele>58.0</ele><time>2026-03-28T11:02:37.246Z</time></trkpt><trkpt lat="44.2904949" lon="8.3897363"><ele>58.0</ele><time>2026-03-28T11:02:38.249Z</time></trkpt><trkpt lat="44.2905258" lon="8.3898536"><ele>58.0</ele><time>2026-03-28T11:02:39.245Z</time></trkpt><trkpt lat="44.2905485" lon="8.3899841"><ele>58.0</ele><time>2026-03-28T11:02:40.257Z</time></trkpt><trkpt lat="44.2905774" lon="8.3901174"><ele>57.4</ele><time>2026-03-28T11:02:41.254Z</time></trkpt><trkpt lat="44.2906029" lon="8.3902538"><ele>56.8</ele><time>2026-03-28T11:02:42.26Z</time></trkpt><trkpt lat="44.2906348" lon="8.3903918"><ele>56.2</ele><time>2026-03-28T11:02:43.249Z</time></trkpt><trkpt lat="44.2906706" lon="8.3905251"><ele>55.6</ele><time>2026-03-28T11:02:44.254Z</time></trkpt><trkpt lat="44.2907162" lon="8.3906512"><ele>55.0</ele><time>2026-03-28T11:02:45.248Z</time></trkpt><trkpt lat="44.2907494" lon="8.3907726"><ele>55.0</ele><time>2026-03-28T11:02:46.252Z</time></trkpt><trkpt lat="44.2907585" lon="8.3909133"><ele>55.0</ele><time>2026-03-28T11:02:47.256Z</time></trkpt><trkpt lat="44.2907463" lon="8.3910749"><ele>55.0</ele><time>2026-03-28T11:02:48.251Z</time></trkpt><trkpt lat="44.2907322" lon="8.3912501"><ele>55.0</ele><time>2026-03-28T11:02:49.25Z</time></trkpt><trkpt lat="44.2907152" lon="8.3914208"><ele>55.25</ele><time>2026-03-28T11:02:50.246Z</time></trkpt><trkpt lat="44.290668" lon="8.391586"><ele>55.5</ele><time>2026-03-28T11:02:51.251Z</time></trkpt><trkpt lat="44.2906056" lon="8.3917462"><ele>55.75</ele><time>2026-03-28T11:02:52.246Z</time></trkpt><trkpt lat="44.2905339" lon="8.3919066"><ele>56.0</ele><time>2026-03-28T11:02:53.246Z</time></trkpt><trkpt lat="44.290454" lon="8.3920681"><ele>54.75</ele><time>2026-03-28T11:02:54.242Z</time></trkpt><trkpt lat="44.2903784" lon="8.3922278"><ele>53.5</ele><time>2026-03-28T11:02:55.246Z</time></trkpt><trkpt lat="44.2903035" lon="8.3923807"><ele>52.25</ele><time>2026-03-28T11:02:56.246Z</time></trkpt><trkpt lat="44.290237" lon="8.3925322"><ele>51.0</ele><time>2026-03-28T11:02:57.256Z</time></trkpt><trkpt lat="44.2901756" lon="8.3926787"><ele>51.0</ele><time>2026-03-28T11:02:58.245Z</time></trkpt><trkpt lat="44.2901102" lon="8.3928331"><ele>51.0</ele><time>2026-03-28T11:02:59.247Z</time></trkpt><trkpt lat="44.2900448" lon="8.3929894"><ele>51.0</ele><time>2026-03-28T11:03:00.242Z</time></trkpt><trkpt lat="44.2899843" lon="8.3931516"><ele>51.0</ele><time>2026-03-28T11:03:01.253Z</time></trkpt><trkpt lat="44.2899359" lon="8.393314"><ele>51.199999999999996</ele><time>2026-03-28T11:03:02.241Z</time></trkpt><trkpt lat="44.2899024" lon="8.3934664"><ele>51.4</ele><time>2026-03-28T11:03:03.247Z</time></trkpt><trkpt lat="44.2898782" lon="8.3936151"><ele>51.6</ele><time>2026-03-28T11:03:04.241Z</time></trkpt><trkpt lat="44.2898495" lon="8.3937567"><ele>51.8</ele><time>2026-03-28T11:03:05.251Z</time></trkpt><trkpt lat="44.2898308" lon="8.3939063"><ele>52.0</ele><time>2026-03-28T11:03:06.238Z</time></trkpt><trkpt lat="44.2898146" lon="8.3940562"><ele>51.6</ele><time>2026-03-28T11:03:07.243Z</time></trkpt><trkpt lat="44.2898143" lon="8.3942242"><ele>51.2</ele><time>2026-03-28T11:03:08.24Z</time></trkpt><trkpt lat="44.2898218" lon="8.3943772"><ele>50.8</ele><time>2026-03-28T11:03:09.247Z</time></trkpt><trkpt lat="44.2898391" lon="8.3945289"><ele>50.4</ele><time>2026-03-28T11:03:10.242Z</time></trkpt><trkpt lat="44.2898686" lon="8.3946643"><ele>50.0</ele><time>2026-03-28T11:03:11.248Z</time></trkpt><trkpt lat="44.2899082" lon="8.3948077"><ele>49.0</ele><time>2026-03-28T11:03:12.24Z</time></trkpt><trkpt lat="44.289969" lon="8.3949426"><ele>48.0</ele><time>2026-03-28T11:03:13.25Z</time></trkpt><trkpt lat="44.2900367" lon="8.3950907"><ele>47.0</ele><time>2026-03-28T11:03:14.24Z</time></trkpt><trkpt lat="44.2901169" lon="8.3952385"><ele>46.0</ele><time>2026-03-28T11:03:15.247Z</time></trkpt><trkpt lat="44.2902002" lon="8.3953841"><ele>45.25</ele><time>2026-03-28T11:03:16.246Z</time></trkpt><trkpt lat="44.2902892" lon="8.3955246"><ele>44.5</ele><time>2026-03-28T11:03:17.254Z</time></trkpt><trkpt lat="44.2903666" lon="8.3956615"><ele>43.75</ele><time>2026-03-28T11:03:18.241Z</time></trkpt><trkpt lat="44.290459" lon="8.3957822"><ele>43.0</ele><time>2026-03-28T11:03:19.251Z</time></trkpt><trkpt lat="44.2905316" lon="8.3959214"><ele>46.5</ele><time>2026-03-28T11:03:20.245Z</time></trkpt><trkpt lat="44.2905918" lon="8.3960569"><ele>50.0</ele><time>2026-03-28T11:03:21.249Z</time></trkpt><trkpt lat="44.2906471" lon="8.3962047"><ele>53.5</ele><time>2026-03-28T11:03:22.242Z</time></trkpt><trkpt lat="44.2907008" lon="8.3963616"><ele>57.0</ele><time>2026-03-28T11:03:23.254Z</time></trkpt><trkpt lat="44.2907228" lon="8.3965323"><ele>57.0</ele><time>2026-03-28T11:03:24.25Z</time></trkpt><trkpt lat="44.2907244" lon="8.3967076"><ele>57.0</ele><time>2026-03-28T11:03:25.256Z</time></trkpt><trkpt lat="44.2907124" lon="8.3968833"><ele>57.0</ele><time>2026-03-28T11:03:26.251Z</time></trkpt><trkpt lat="44.2906924" lon="8.3970558"><ele>57.0</ele><time>2026-03-28T11:03:27.249Z</time></trkpt><trkpt lat="44.2906456" lon="8.3972384"><ele>54.75</ele><time>2026-03-28T11:03:28.244Z</time></trkpt><trkpt lat="44.2905882" lon="8.3974127"><ele>52.5</ele><time>2026-03-28T11:03:29.249Z</time></trkpt><trkpt lat="44.290545" lon="8.3975748"><ele>50.25</ele><time>2026-03-28T11:03:30.255Z</time></trkpt><trkpt lat="44.2905257" lon="8.3977331"><ele>48.0</ele><time>2026-03-28T11:03:31.252Z</time></trkpt><trkpt lat="44.2905256" lon="8.3978862"><ele>48.25</ele><time>2026-03-28T11:03:32.255Z</time></trkpt><trkpt lat="44.2905522" lon="8.3980426"><ele>48.5</ele><time>2026-03-28T11:03:33.246Z</time></trkpt><trkpt lat="44.2905817" lon="8.3982077"><ele>48.75</ele><time>2026-03-28T11:03:34.251Z</time></trkpt><trkpt lat="44.2906265" lon="8.3983764"><ele>49.0</ele><time>2026-03-28T11:03:35.25Z</time></trkpt><trkpt lat="44.2906964" lon="8.3985462"><ele>49.0</ele><time>2026-03-28T11:03:36.252Z</time></trkpt><trkpt lat="44.2907686" lon="8.3986877"><ele>49.0</ele><time>2026-03-28T11:03:37.241Z</time></trkpt><trkpt lat="44.2908479" lon="8.3988107"><ele>49.0</ele><time>2026-03-28T11:03:38.256Z</time></trkpt><trkpt lat="44.2909294" lon="8.3989171"><ele>49.0</ele><time>2026-03-28T11:03:39.247Z</time></trkpt><trkpt lat="44.2910133" lon="8.3990182"><ele>47.83333333333333</ele><time>2026-03-28T11:03:40.252Z</time></trkpt><trkpt lat="44.2910908" lon="8.3991208"><ele>46.666666666666664</ele><time>2026-03-28T11:03:41.25Z</time></trkpt><trkpt lat="44.2911503" lon="8.3992262"><ele>45.5</ele><time>2026-03-28T11:03:42.259Z</time></trkpt><trkpt lat="44.2912018" lon="8.3993292"><ele>44.33333333333333</ele><time>2026-03-28T11:03:43.241Z</time></trkpt><trkpt lat="44.2912493" lon="8.399418"><ele>43.166666666666664</ele><time>2026-03-28T11:03:44.245Z</time></trkpt><trkpt lat="44.2912951" lon="8.3994862"><ele>42.0</ele><time>2026-03-28T11:03:45.249Z</time></trkpt><trkpt lat="44.2913508" lon="8.3995766"><ele>42.0</ele><time>2026-03-28T11:03:47.249Z</time></trkpt><trkpt lat="44.2913292" lon="8.3996601"><ele>42.0</ele><time>2026-03-28T11:03:50.265Z</time></trkpt><trkpt lat="44.2912621" lon="8.3996823"><ele>42.0</ele><time>2026-03-28T11:03:51.255Z</time></trkpt><trkpt lat="44.2911848" lon="8.3997323"><ele>42.0</ele><time>2026-03-28T11:03:52.258Z</time></trkpt><trkpt lat="44.2911037" lon="8.3997983"><ele>42.0</ele><time>2026-03-28T11:03:53.246Z</time></trkpt><trkpt lat="44.2910284" lon="8.3998788"><ele>42.0</ele><time>2026-03-28T11:03:54.264Z</time></trkpt><trkpt lat="44.2909739" lon="8.3999684"><ele>42.25</ele><time>2026-03-28T11:03:55.258Z</time></trkpt><trkpt lat="44.2909753" lon="8.400141"><ele>42.5</ele><time>2026-03-28T11:03:57.258Z</time></trkpt><trkpt lat="44.2910446" lon="8.4002357"><ele>42.75</ele><time>2026-03-28T11:03:58.256Z</time></trkpt><trkpt lat="44.291154" lon="8.4003315"><ele>43.0</ele><time>2026-03-28T11:03:59.252Z</time></trkpt><trkpt lat="44.2912747" lon="8.4004526"><ele>41.5</ele><time>2026-03-28T11:04:00.248Z</time></trkpt><trkpt lat="44.2913922" lon="8.4005807"><ele>40.0</ele><time>2026-03-28T11:04:01.244Z</time></trkpt><trkpt lat="44.2915078" lon="8.4007243"><ele>38.5</ele><time>2026-03-28T11:04:02.248Z</time></trkpt><trkpt lat="44.2916128" lon="8.4008601"><ele>37.0</ele><time>2026-03-28T11:04:03.241Z</time></trkpt><trkpt lat="44.2917108" lon="8.4009701"><ele>37.0</ele><time>2026-03-28T11:04:04.255Z</time></trkpt><trkpt lat="44.2917876" lon="8.4010628"><ele>37.0</ele><time>2026-03-28T11:04:05.249Z</time></trkpt><trkpt lat="44.2918625" lon="8.4011465"><ele>37.0</ele><time>2026-03-28T11:04:06.257Z</time></trkpt><trkpt lat="44.2919421" lon="8.4012215"><ele>37.0</ele><time>2026-03-28T11:04:07.246Z</time></trkpt><trkpt lat="44.29203" lon="8.401315"><ele>37.0</ele><time>2026-03-28T11:04:08.248Z</time></trkpt><trkpt lat="44.2921242" lon="8.4014094"><ele>37.25</ele><time>2026-03-28T11:04:09.244Z</time></trkpt><trkpt lat="44.2922179" lon="8.4014994"><ele>37.5</ele><time>2026-03-28T11:04:10.252Z</time></trkpt><trkpt lat="44.2923217" lon="8.4015855"><ele>37.75</ele><time>2026-03-28T11:04:11.25Z</time></trkpt><trkpt lat="44.2924173" lon="8.4016971"><ele>38.0</ele><time>2026-03-28T11:04:12.247Z</time></trkpt><trkpt lat="44.2925156" lon="8.4018018"><ele>38.0</ele><time>2026-03-28T11:04:13.257Z</time></trkpt><trkpt lat="44.2926048" lon="8.4019039"><ele>38.0</ele><time>2026-03-28T11:04:14.242Z</time></trkpt><trkpt lat="44.2926967" lon="8.4019818"><ele>38.0</ele><time>2026-03-28T11:04:15.251Z</time></trkpt><trkpt lat="44.2927865" lon="8.4020596"><ele>38.0</ele><time>2026-03-28T11:04:16.237Z</time></trkpt><trkpt lat="44.292849" lon="8.4021503"><ele>38.0</ele><time>2026-03-28T11:04:17.256Z</time></trkpt><trkpt lat="44.2928884" lon="8.4022622"><ele>38.75</ele><time>2026-03-28T11:04:18.249Z</time></trkpt><trkpt lat="44.2929108" lon="8.4023911"><ele>39.5</ele><time>2026-03-28T11:04:19.253Z</time></trkpt><trkpt lat="44.2929076" lon="8.4025442"><ele>40.25</ele><time>2026-03-28T11:04:20.243Z</time></trkpt><trkpt lat="44.292888" lon="8.4027142"><ele>41.0</ele><time>2026-03-28T11:04:21.253Z</time></trkpt><trkpt lat="44.2928832" lon="8.4028928"><ele>41.5</ele><time>2026-03-28T11:04:22.248Z</time></trkpt><trkpt lat="44.2929024" lon="8.4030478"><ele>42.0</ele><time>2026-03-28T11:04:23.256Z</time></trkpt><trkpt lat="44.2929393" lon="8.4031998"><ele>42.5</ele><time>2026-03-28T11:04:24.245Z</time></trkpt><trkpt lat="44.29299" lon="8.4033583"><ele>43.0</ele><time>2026-03-28T11:04:25.251Z</time></trkpt><trkpt lat="44.2930506" lon="8.4035043"><ele>40.8</ele><time>2026-03-28T11:04:26.253Z</time></trkpt><trkpt lat="44.2931092" lon="8.4036418"><ele>38.599999999999994</ele><time>2026-03-28T11:04:27.247Z</time></trkpt><trkpt lat="44.2931599" lon="8.4037609"><ele>36.400000000000006</ele><time>2026-03-28T11:04:28.261Z</time></trkpt><trkpt lat="44.2931968" lon="8.4038824"><ele>34.2</ele><time>2026-03-28T11:04:29.248Z</time></trkpt><trkpt lat="44.2932313" lon="8.4040129"><ele>32.0</ele><time>2026-03-28T11:04:30.258Z</time></trkpt><trkpt lat="44.29324" lon="8.4041562"><ele>31.8</ele><time>2026-03-28T11:04:31.255Z</time></trkpt><trkpt lat="44.2932341" lon="8.4043117"><ele>31.6</ele><time>2026-03-28T11:04:32.256Z</time></trkpt><trkpt lat="44.293227" lon="8.4044697"><ele>31.400000000000002</ele><time>2026-03-28T11:04:33.256Z</time></trkpt><trkpt lat="44.2932176" lon="8.4046119"><ele>31.200000000000003</ele><time>2026-03-28T11:04:34.256Z</time></trkpt><trkpt lat="44.2931967" lon="8.4047517"><ele>31.0</ele><time>2026-03-28T11:04:35.259Z</time></trkpt><trkpt lat="44.2931811" lon="8.4048756"><ele>30.833333333333336</ele><time>2026-03-28T11:04:36.253Z</time></trkpt><trkpt lat="44.2931707" lon="8.4049927"><ele>30.666666666666668</ele><time>2026-03-28T11:04:37.26Z</time></trkpt><trkpt lat="44.2931514" lon="8.4051449"><ele>30.5</ele><time>2026-03-28T11:04:39.255Z</time></trkpt><trkpt lat="44.2931389" lon="8.4052438"><ele>30.333333333333336</ele><time>2026-03-28T11:04:41.257Z</time></trkpt><trkpt lat="44.2931088" lon="8.4053464"><ele>30.166666666666668</ele><time>2026-03-28T11:04:44.283Z</time></trkpt><trkpt lat="44.2930937" lon="8.4054541"><ele>30.0</ele><time>2026-03-28T11:04:46.258Z</time></trkpt><trkpt lat="44.2931781" lon="8.4055148"><ele>30.333333333333332</ele><time>2026-03-28T11:04:50.252Z</time></trkpt><trkpt lat="44.2932646" lon="8.4055345"><ele>30.666666666666664</ele><time>2026-03-28T11:04:52.244Z</time></trkpt><trkpt lat="44.2933243" lon="8.4055778"><ele>31.0</ele><time>2026-03-28T11:04:54.244Z</time></trkpt><trkpt lat="44.2933474" lon="8.4056748"><ele>31.333333333333332</ele><time>2026-03-28T11:04:56.244Z</time></trkpt><trkpt lat="44.2933144" lon="8.405863"><ele>31.666666666666664</ele><time>2026-03-28T11:04:58.249Z</time></trkpt><trkpt lat="44.2932906" lon="8.4059569"><ele>32.0</ele><time>2026-03-28T11:04:59.256Z</time></trkpt><trkpt lat="44.2932557" lon="8.4060535"><ele>31.999999999999996</ele><time>2026-03-28T11:05:00.255Z</time></trkpt><trkpt lat="44.2932317" lon="8.4061593"><ele>32.0</ele><time>2026-03-28T11:05:01.253Z</time></trkpt><trkpt lat="44.2932076" lon="8.4062732"><ele>32.0</ele><time>2026-03-28T11:05:02.243Z</time></trkpt><trkpt lat="44.2931824" lon="8.4064029"><ele>32.0</ele><time>2026-03-28T11:05:03.254Z</time></trkpt><trkpt lat="44.2931616" lon="8.4065302"><ele>31.999999999999996</ele><time>2026-03-28T11:05:04.245Z</time></trkpt><trkpt lat="44.2931372" lon="8.4066505"><ele>32.0</ele><time>2026-03-28T11:05:05.251Z</time></trkpt><trkpt lat="44.2931077" lon="8.4067574"><ele>31.333333333333332</ele><time>2026-03-28T11:05:06.248Z</time></trkpt><trkpt lat="44.2930751" lon="8.4068506"><ele>30.666666666666664</ele><time>2026-03-28T11:05:07.252Z</time></trkpt><trkpt lat="44.2930351" lon="8.4069471"><ele>30.0</ele><time>2026-03-28T11:05:08.248Z</time></trkpt><trkpt lat="44.292993" lon="8.4070449"><ele>29.333333333333336</ele><time>2026-03-28T11:05:09.249Z</time></trkpt><trkpt lat="44.2929528" lon="8.40714"><ele>28.666666666666668</ele><time>2026-03-28T11:05:10.25Z</time></trkpt><trkpt lat="44.2929199" lon="8.4072562"><ele>28.0</ele><time>2026-03-28T11:05:11.241Z</time></trkpt><trkpt lat="44.2928838" lon="8.4073578"><ele>27.857142857142858</ele><time>2026-03-28T11:05:12.256Z</time></trkpt><trkpt lat="44.2928502" lon="8.4074611"><ele>27.714285714285715</ele><time>2026-03-28T11:05:13.25Z</time></trkpt><trkpt lat="44.2928286" lon="8.4075627"><ele>27.57142857142857</ele><time>2026-03-28T11:05:14.255Z</time></trkpt><trkpt lat="44.2928124" lon="8.4076649"><ele>27.42857142857143</ele><time>2026-03-28T11:05:15.258Z</time></trkpt><trkpt lat="44.2928061" lon="8.4077609"><ele>27.285714285714285</ele><time>2026-03-28T11:05:16.247Z</time></trkpt><trkpt lat="44.2927987" lon="8.4078518"><ele>27.142857142857142</ele><time>2026-03-28T11:05:17.257Z</time></trkpt><trkpt lat="44.2927797" lon="8.4079462"><ele>27.0</ele><time>2026-03-28T11:05:18.248Z</time></trkpt><trkpt lat="44.2927452" lon="8.4080629"><ele>27.0</ele><time>2026-03-28T11:05:19.246Z</time></trkpt><trkpt lat="44.2927107" lon="8.4081898"><ele>27.000000000000004</ele><time>2026-03-28T11:05:20.249Z</time></trkpt><trkpt lat="44.2926805" lon="8.4083062"><ele>27.000000000000004</ele><time>2026-03-28T11:05:21.252Z</time></trkpt><trkpt lat="44.292642" lon="8.4084092"><ele>27.0</ele><time>2026-03-28T11:05:22.257Z</time></trkpt><trkpt lat="44.29259" lon="8.4085159"><ele>27.0</ele><time>2026-03-28T11:05:23.247Z</time></trkpt><trkpt lat="44.2925321" lon="8.4086324"><ele>27.0</ele><time>2026-03-28T11:05:24.258Z</time></trkpt><trkpt lat="44.2924877" lon="8.4087486"><ele>27.000000000000004</ele><time>2026-03-28T11:05:25.251Z</time></trkpt><trkpt lat="44.2924488" lon="8.408869"><ele>27.000000000000004</ele><time>2026-03-28T11:05:26.264Z</time></trkpt><trkpt lat="44.2924151" lon="8.4089939"><ele>27.0</ele><time>2026-03-28T11:05:27.252Z</time></trkpt><trkpt lat="44.2923787" lon="8.4091229"><ele>27.0</ele><time>2026-03-28T11:05:28.254Z</time></trkpt><trkpt lat="44.292346" lon="8.4092428"><ele>26.833333333333332</ele><time>2026-03-28T11:05:29.258Z</time></trkpt><trkpt lat="44.292318" lon="8.4093452"><ele>26.666666666666664</ele><time>2026-03-28T11:05:30.26Z</time></trkpt><trkpt lat="44.2922874" lon="8.4094333"><ele>26.5</ele><time>2026-03-28T11:05:31.252Z</time></trkpt><trkpt lat="44.292269" lon="8.4095306"><ele>26.333333333333332</ele><time>2026-03-28T11:05:32.261Z</time></trkpt><trkpt lat="44.292252" lon="8.4096264"><ele>26.166666666666664</ele><time>2026-03-28T11:05:33.244Z</time></trkpt><trkpt lat="44.2922331" lon="8.4097275"><ele>26.0</ele><time>2026-03-28T11:05:34.249Z</time></trkpt><trkpt lat="44.2922135" lon="8.4098431"><ele>25.6</ele><time>2026-03-28T11:05:35.256Z</time></trkpt><trkpt lat="44.2921978" lon="8.4099718"><ele>25.200000000000003</ele><time>2026-03-28T11:05:36.256Z</time></trkpt><trkpt lat="44.2921772" lon="8.4100965"><ele>24.799999999999997</ele><time>2026-03-28T11:05:37.247Z</time></trkpt><trkpt lat="44.29215" lon="8.4102296"><ele>24.4</ele><time>2026-03-28T11:05:38.265Z</time></trkpt><trkpt lat="44.2921204" lon="8.4103736"><ele>24.0</ele><time>2026-03-28T11:05:39.256Z</time></trkpt><trkpt lat="44.2920847" lon="8.4105159"><ele>24.0</ele><time>2026-03-28T11:05:40.27Z</time></trkpt><trkpt lat="44.2920431" lon="8.4106754"><ele>24.0</ele><time>2026-03-28T11:05:41.258Z</time></trkpt><trkpt lat="44.2919964" lon="8.4108343"><ele>24.0</ele><time>2026-03-28T11:05:42.265Z</time></trkpt><trkpt lat="44.2919553" lon="8.411002"><ele>24.0</ele><time>2026-03-28T11:05:43.254Z</time></trkpt><trkpt lat="44.2919167" lon="8.411168"><ele>24.25</ele><time>2026-03-28T11:05:44.268Z</time></trkpt><trkpt lat="44.2918848" lon="8.4113263"><ele>24.5</ele><time>2026-03-28T11:05:45.257Z</time></trkpt><trkpt lat="44.291864" lon="8.4114815"><ele>24.75</ele><time>2026-03-28T11:05:46.264Z</time></trkpt><trkpt lat="44.2918466" lon="8.4116409"><ele>25.0</ele><time>2026-03-28T11:05:47.26Z</time></trkpt><trkpt lat="44.2918379" lon="8.4117894"><ele>25.0</ele><time>2026-03-28T11:05:48.26Z</time></trkpt><trkpt lat="44.2918307" lon="8.4119397"><ele>25.0</ele><time>2026-03-28T11:05:49.252Z</time></trkpt><trkpt lat="44.2918294" lon="8.4120961"><ele>25.0</ele><time>2026-03-28T11:05:50.257Z</time></trkpt><trkpt lat="44.2918221" lon="8.4122624"><ele>25.0</ele><time>2026-03-28T11:05:51.249Z</time></trkpt><trkpt lat="44.2918159" lon="8.4124325"><ele>24.5</ele><time>2026-03-28T11:05:52.257Z</time></trkpt><trkpt lat="44.2918093" lon="8.4126022"><ele>24.0</ele><time>2026-03-28T11:05:53.251Z</time></trkpt><trkpt lat="44.291805" lon="8.4127712"><ele>23.5</ele><time>2026-03-28T11:05:54.265Z</time></trkpt><trkpt lat="44.2918075" lon="8.4129371"><ele>23.0</ele><time>2026-03-28T11:05:55.256Z</time></trkpt><trkpt lat="44.2918039" lon="8.4130847"><ele>22.799999999999997</ele><time>2026-03-28T11:05:56.255Z</time></trkpt><trkpt lat="44.2917989" lon="8.4132189"><ele>22.6</ele><time>2026-03-28T11:05:57.263Z</time></trkpt><trkpt lat="44.2917936" lon="8.4133466"><ele>22.4</ele><time>2026-03-28T11:05:58.262Z</time></trkpt><trkpt lat="44.2917857" lon="8.4134811"><ele>22.200000000000003</ele><time>2026-03-28T11:05:59.264Z</time></trkpt><trkpt lat="44.2917792" lon="8.4136206"><ele>22.0</ele><time>2026-03-28T11:06:00.259Z</time></trkpt><trkpt lat="44.2917702" lon="8.4137756"><ele>22.200000000000003</ele><time>2026-03-28T11:06:01.267Z</time></trkpt><trkpt lat="44.2917533" lon="8.4139435"><ele>22.4</ele><time>2026-03-28T11:06:02.258Z</time></trkpt><trkpt lat="44.2917411" lon="8.4140921"><ele>22.6</ele><time>2026-03-28T11:06:03.257Z</time></trkpt><trkpt lat="44.2917358" lon="8.4142238"><ele>22.799999999999997</ele><time>2026-03-28T11:06:04.249Z</time></trkpt><trkpt lat="44.2917411" lon="8.4143288"><ele>23.0</ele><time>2026-03-28T11:06:05.257Z</time></trkpt><trkpt lat="44.2917497" lon="8.4144918"><ele>23.0</ele><time>2026-03-28T11:06:07.244Z</time></trkpt><trkpt lat="44.2917596" lon="8.4146127"><ele>23.0</ele><time>2026-03-28T11:06:09.255Z</time></trkpt><trkpt lat="44.2917608" lon="8.4147468"><ele>23.0</ele><time>2026-03-28T11:06:11.255Z</time></trkpt><trkpt lat="44.2917662" lon="8.4148411"><ele>23.0</ele><time>2026-03-28T11:06:12.258Z</time></trkpt><trkpt lat="44.2917691" lon="8.414958"><ele>23.0</ele><time>2026-03-28T11:06:13.258Z</time></trkpt><trkpt lat="44.291771" lon="8.4150698"><ele>23.0</ele><time>2026-03-28T11:06:14.256Z</time></trkpt><trkpt lat="44.2917696" lon="8.4151853"><ele>23.166666666666668</ele><time>2026-03-28T11:06:15.266Z</time></trkpt><trkpt lat="44.2917667" lon="8.4153041"><ele>23.333333333333336</ele><time>2026-03-28T11:06:16.258Z</time></trkpt><trkpt lat="44.291757" lon="8.4154214"><ele>23.5</ele><time>2026-03-28T11:06:17.275Z</time></trkpt><trkpt lat="44.2917516" lon="8.4155391"><ele>23.666666666666668</ele><time>2026-03-28T11:06:18.255Z</time></trkpt><trkpt lat="44.2917409" lon="8.4156687"><ele>23.833333333333332</ele><time>2026-03-28T11:06:19.253Z</time></trkpt><trkpt lat="44.2917295" lon="8.4157909"><ele>24.0</ele><time>2026-03-28T11:06:20.259Z</time></trkpt><trkpt lat="44.2917227" lon="8.4159275"><ele>23.6</ele><time>2026-03-28T11:06:21.258Z</time></trkpt><trkpt lat="44.2917128" lon="8.4160575"><ele>23.2</ele><time>2026-03-28T11:06:22.263Z</time></trkpt><trkpt lat="44.2917095" lon="8.4161994"><ele>22.8</ele><time>2026-03-28T11:06:23.261Z</time></trkpt><trkpt lat="44.2916998" lon="8.4163446"><ele>22.400000000000002</ele><time>2026-03-28T11:06:24.268Z</time></trkpt><trkpt lat="44.2916883" lon="8.4164755"><ele>22.0</ele><time>2026-03-28T11:06:25.261Z</time></trkpt><trkpt lat="44.2916831" lon="8.416607"><ele>22.0</ele><time>2026-03-28T11:06:26.266Z</time></trkpt><trkpt lat="44.2916683" lon="8.4167302"><ele>22.0</ele><time>2026-03-28T11:06:27.259Z</time></trkpt><trkpt lat="44.2916496" lon="8.4168614"><ele>22.0</ele><time>2026-03-28T11:06:28.264Z</time></trkpt><trkpt lat="44.2916386" lon="8.416979"><ele>22.0</ele><time>2026-03-28T11:06:29.263Z</time></trkpt><trkpt lat="44.2916287" lon="8.4170899"><ele>22.0</ele><time>2026-03-28T11:06:30.271Z</time></trkpt><trkpt lat="44.2916167" lon="8.4172013"><ele>22.0</ele><time>2026-03-28T11:06:31.265Z</time></trkpt><trkpt lat="44.2916052" lon="8.4173103"><ele>21.400000000000002</ele><time>2026-03-28T11:06:32.269Z</time></trkpt><trkpt lat="44.291591" lon="8.4174204"><ele>20.8</ele><time>2026-03-28T11:06:33.254Z</time></trkpt><trkpt lat="44.2915802" lon="8.4175084"><ele>20.2</ele><time>2026-03-28T11:06:34.273Z</time></trkpt><trkpt lat="44.2915784" lon="8.4176575"><ele>19.6</ele><time>2026-03-28T11:06:36.257Z</time></trkpt><trkpt lat="44.2916263" lon="8.417749"><ele>19.0</ele><time>2026-03-28T11:06:38.254Z</time></trkpt><trkpt lat="44.2917501" lon="8.4177614"><ele>19.0</ele><time>2026-03-28T11:06:40.251Z</time></trkpt><trkpt lat="44.2918245" lon="8.4177358"><ele>19.0</ele><time>2026-03-28T11:06:41.248Z</time></trkpt><trkpt lat="44.2919101" lon="8.4177086"><ele>19.0</ele><time>2026-03-28T11:06:42.253Z</time></trkpt><trkpt lat="44.2919919" lon="8.4176825"><ele>19.0</ele><time>2026-03-28T11:06:43.248Z</time></trkpt><trkpt lat="44.2920708" lon="8.4176682"><ele>19.0</ele><time>2026-03-28T11:06:44.256Z</time></trkpt><trkpt lat="44.292155" lon="8.4176672"><ele>19.0</ele><time>2026-03-28T11:06:45.249Z</time></trkpt><trkpt lat="44.292241" lon="8.4176747"><ele>19.166666666666664</ele><time>2026-03-28T11:06:46.258Z</time></trkpt><trkpt lat="44.2923249" lon="8.4176588"><ele>19.333333333333332</ele><time>2026-03-28T11:06:47.25Z</time></trkpt><trkpt lat="44.2924144" lon="8.417645"><ele>19.5</ele><time>2026-03-28T11:06:48.263Z</time></trkpt><trkpt lat="44.2925001" lon="8.4176302"><ele>19.666666666666668</ele><time>2026-03-28T11:06:49.252Z</time></trkpt><trkpt lat="44.2925845" lon="8.4176069"><ele>19.833333333333336</ele><time>2026-03-28T11:06:50.262Z</time></trkpt><trkpt lat="44.2926689" lon="8.4175818"><ele>20.0</ele><time>2026-03-28T11:06:51.262Z</time></trkpt><trkpt lat="44.2927568" lon="8.4175501"><ele>20.0</ele><time>2026-03-28T11:06:52.267Z</time></trkpt><trkpt lat="44.2928523" lon="8.417517"><ele>20.0</ele><time>2026-03-28T11:06:53.259Z</time></trkpt><trkpt lat="44.2929455" lon="8.4174773"><ele>20.0</ele><time>2026-03-28T11:06:54.258Z</time></trkpt><trkpt lat="44.2930368" lon="8.4174286"><ele>20.0</ele><time>2026-03-28T11:06:55.252Z</time></trkpt><trkpt lat="44.293128" lon="8.4173748"><ele>20.0</ele><time>2026-03-28T11:06:56.256Z</time></trkpt><trkpt lat="44.2932196" lon="8.4173133"><ele>20.25</ele><time>2026-03-28T11:06:57.264Z</time></trkpt><trkpt lat="44.2933059" lon="8.4172334"><ele>20.5</ele><time>2026-03-28T11:06:58.248Z</time></trkpt><trkpt lat="44.293383" lon="8.4171248"><ele>20.75</ele><time>2026-03-28T11:06:59.265Z</time></trkpt><trkpt lat="44.2934539" lon="8.4169925"><ele>21.0</ele><time>2026-03-28T11:07:00.261Z</time></trkpt><trkpt lat="44.2935282" lon="8.4168595"><ele>21.25</ele><time>2026-03-28T11:07:01.264Z</time></trkpt><trkpt lat="44.2936047" lon="8.4167205"><ele>21.5</ele><time>2026-03-28T11:07:02.264Z</time></trkpt><trkpt lat="44.2936817" lon="8.4165921"><ele>21.75</ele><time>2026-03-28T11:07:03.265Z</time></trkpt><trkpt lat="44.2937626" lon="8.416455"><ele>22.0</ele><time>2026-03-28T11:07:04.262Z</time></trkpt><trkpt lat="44.2938515" lon="8.4163273"><ele>22.0</ele><time>2026-03-28T11:07:05.261Z</time></trkpt><trkpt lat="44.2939267" lon="8.4161917"><ele>22.0</ele><time>2026-03-28T11:07:06.255Z</time></trkpt><trkpt lat="44.2939891" lon="8.4160559"><ele>22.0</ele><time>2026-03-28T11:07:07.254Z</time></trkpt><trkpt lat="44.2940477" lon="8.4159181"><ele>22.0</ele><time>2026-03-28T11:07:08.257Z</time></trkpt><trkpt lat="44.2941066" lon="8.4157738"><ele>22.0</ele><time>2026-03-28T11:07:09.258Z</time></trkpt><trkpt lat="44.2941607" lon="8.4156195"><ele>22.0</ele><time>2026-03-28T11:07:10.275Z</time></trkpt><trkpt lat="44.2942221" lon="8.4154832"><ele>22.0</ele><time>2026-03-28T11:07:11.266Z</time></trkpt><trkpt lat="44.2942707" lon="8.4153524"><ele>22.0</ele><time>2026-03-28T11:07:12.262Z</time></trkpt><trkpt lat="44.294329" lon="8.4152352"><ele>22.0</ele><time>2026-03-28T11:07:13.267Z</time></trkpt><trkpt lat="44.2943886" lon="8.4151593"><ele>22.200000000000003</ele><time>2026-03-28T11:07:14.266Z</time></trkpt><trkpt lat="44.294468" lon="8.4151182"><ele>22.4</ele><time>2026-03-28T11:07:15.266Z</time></trkpt><trkpt lat="44.2945721" lon="8.4151143"><ele>22.6</ele><time>2026-03-28T11:07:16.258Z</time></trkpt><trkpt lat="44.2946904" lon="8.415117"><ele>22.799999999999997</ele><time>2026-03-28T11:07:17.27Z</time></trkpt><trkpt lat="44.2948297" lon="8.4151321"><ele>23.0</ele><time>2026-03-28T11:07:18.26Z</time></trkpt><trkpt lat="44.2949716" lon="8.4151612"><ele>23.0</ele><time>2026-03-28T11:07:19.271Z</time></trkpt><trkpt lat="44.2951127" lon="8.4151814"><ele>23.0</ele><time>2026-03-28T11:07:20.256Z</time></trkpt><trkpt lat="44.2952416" lon="8.4152098"><ele>23.0</ele><time>2026-03-28T11:07:21.265Z</time></trkpt><trkpt lat="44.2953672" lon="8.4152447"><ele>23.0</ele><time>2026-03-28T11:07:22.254Z</time></trkpt><trkpt lat="44.2954815" lon="8.4152898"><ele>23.0</ele><time>2026-03-28T11:07:23.261Z</time></trkpt><trkpt lat="44.295586" lon="8.4153424"><ele>23.0</ele><time>2026-03-28T11:07:24.256Z</time></trkpt><trkpt lat="44.2956878" lon="8.4154025"><ele>23.0</ele><time>2026-03-28T11:07:25.265Z</time></trkpt><trkpt lat="44.2957989" lon="8.4154684"><ele>23.0</ele><time>2026-03-28T11:07:26.258Z</time></trkpt><trkpt lat="44.2958993" lon="8.4155193"><ele>23.0</ele><time>2026-03-28T11:07:27.268Z</time></trkpt><trkpt lat="44.2959873" lon="8.4155206"><ele>23.0</ele><time>2026-03-28T11:07:28.27Z</time></trkpt><trkpt lat="44.2960846" lon="8.4154804"><ele>23.0</ele><time>2026-03-28T11:07:29.262Z</time></trkpt><trkpt lat="44.2961853" lon="8.4154059"><ele>23.0</ele><time>2026-03-28T11:07:30.268Z</time></trkpt><trkpt lat="44.2962917" lon="8.4153246"><ele>23.0</ele><time>2026-03-28T11:07:31.265Z</time></trkpt><trkpt lat="44.2964019" lon="8.4152439"><ele>23.4</ele><time>2026-03-28T11:07:32.264Z</time></trkpt><trkpt lat="44.296503" lon="8.4151711"><ele>23.799999999999997</ele><time>2026-03-28T11:07:33.26Z</time></trkpt><trkpt lat="44.2966025" lon="8.415113"><ele>24.2</ele><time>2026-03-28T11:07:34.268Z</time></trkpt><trkpt lat="44.2967055" lon="8.4150581"><ele>24.6</ele><time>2026-03-28T11:07:35.264Z</time></trkpt><trkpt lat="44.2968074" lon="8.4150112"><ele>25.0</ele><time>2026-03-28T11:07:36.267Z</time></trkpt><trkpt lat="44.2969098" lon="8.4149579"><ele>25.0</ele><time>2026-03-28T11:07:37.258Z</time></trkpt><trkpt lat="44.297007" lon="8.4149031"><ele>25.0</ele><time>2026-03-28T11:07:38.261Z</time></trkpt><trkpt lat="44.2971058" lon="8.4148449"><ele>25.0</ele><time>2026-03-28T11:07:39.254Z</time></trkpt><trkpt lat="44.2972023" lon="8.4147839"><ele>25.0</ele><time>2026-03-28T11:07:40.263Z</time></trkpt><trkpt lat="44.2972997" lon="8.4147173"><ele>25.0</ele><time>2026-03-28T11:07:41.26Z</time></trkpt><trkpt lat="44.2973902" lon="8.4146409"><ele>26.0</ele><time>2026-03-28T11:07:42.265Z</time></trkpt><trkpt lat="44.2974786" lon="8.4145536"><ele>27.0</ele><time>2026-03-28T11:07:43.258Z</time></trkpt><trkpt lat="44.2975666" lon="8.4144519"><ele>28.0</ele><time>2026-03-28T11:07:44.267Z</time></trkpt><trkpt lat="44.2976486" lon="8.4143391"><ele>29.0</ele><time>2026-03-28T11:07:45.256Z</time></trkpt><trkpt lat="44.2977112" lon="8.4142155"><ele>30.0</ele><time>2026-03-28T11:07:46.259Z</time></trkpt><trkpt lat="44.2977691" lon="8.4140765"><ele>30.0</ele><time>2026-03-28T11:07:47.259Z</time></trkpt><trkpt lat="44.2978214" lon="8.4139264"><ele>30.0</ele><time>2026-03-28T11:07:48.257Z</time></trkpt><trkpt lat="44.297863" lon="8.4137805"><ele>30.0</ele><time>2026-03-28T11:07:49.263Z</time></trkpt><trkpt lat="44.2978963" lon="8.4136363"><ele>30.0</ele><time>2026-03-28T11:07:50.249Z</time></trkpt><trkpt lat="44.297919" lon="8.4134706"><ele>29.75</ele><time>2026-03-28T11:07:51.263Z</time></trkpt><trkpt lat="44.2979487" lon="8.413283"><ele>29.5</ele><time>2026-03-28T11:07:52.259Z</time></trkpt><trkpt lat="44.297974" lon="8.4130864"><ele>29.25</ele><time>2026-03-28T11:07:53.263Z</time></trkpt><trkpt lat="44.2979961" lon="8.4128892"><ele>29.0</ele><time>2026-03-28T11:07:54.258Z</time></trkpt><trkpt lat="44.298019" lon="8.4126949"><ele>29.5</ele><time>2026-03-28T11:07:55.257Z</time></trkpt><trkpt lat="44.2980381" lon="8.4124965"><ele>30.0</ele><time>2026-03-28T11:07:56.255Z</time></trkpt><trkpt lat="44.298063" lon="8.4122953"><ele>30.5</ele><time>2026-03-28T11:07:57.264Z</time></trkpt><trkpt lat="44.2980763" lon="8.412093"><ele>31.0</ele><time>2026-03-28T11:07:58.255Z</time></trkpt><trkpt lat="44.298103" lon="8.4119285"><ele>31.0</ele><time>2026-03-28T11:07:59.258Z</time></trkpt><trkpt lat="44.2981199" lon="8.4117601"><ele>31.0</ele><time>2026-03-28T11:08:00.255Z</time></trkpt><trkpt lat="44.2981737" lon="8.4116308"><ele>31.0</ele><time>2026-03-28T11:08:01.256Z</time></trkpt><trkpt lat="44.2982568" lon="8.4115368"><ele>31.0</ele><time>2026-03-28T11:08:02.256Z</time></trkpt><trkpt lat="44.2983732" lon="8.4114767"><ele>31.0</ele><time>2026-03-28T11:08:03.25Z</time></trkpt><trkpt lat="44.2984802" lon="8.4114369"><ele>31.0</ele><time>2026-03-28T11:08:04.257Z</time></trkpt><trkpt lat="44.2985909" lon="8.4114495"><ele>31.0</ele><time>2026-03-28T11:08:05.248Z</time></trkpt><trkpt lat="44.2987175" lon="8.4114631"><ele>31.0</ele><time>2026-03-28T11:08:06.254Z</time></trkpt><trkpt lat="44.2988693" lon="8.4115194"><ele>33.333333333333336</ele><time>2026-03-28T11:08:07.245Z</time></trkpt><trkpt lat="44.299035" lon="8.4115635"><ele>35.666666666666664</ele><time>2026-03-28T11:08:08.256Z</time></trkpt><trkpt lat="44.2991962" lon="8.4115975"><ele>38.0</ele><time>2026-03-28T11:08:09.249Z</time></trkpt><trkpt lat="44.2993194" lon="8.4115939"><ele>38.0</ele><time>2026-03-28T11:08:10.252Z</time></trkpt><trkpt lat="44.2994253" lon="8.4115643"><ele>38.0</ele><time>2026-03-28T11:08:11.246Z</time></trkpt><trkpt lat="44.2995288" lon="8.4114758"><ele>38.0</ele><time>2026-03-28T11:08:12.259Z</time></trkpt><trkpt lat="44.2996288" lon="8.4113562"><ele>38.0</ele><time>2026-03-28T11:08:13.26Z</time></trkpt><trkpt lat="44.2996981" lon="8.4111611"><ele>38.75</ele><time>2026-03-28T11:08:14.251Z</time></trkpt><trkpt lat="44.299774" lon="8.41099"><ele>39.5</ele><time>2026-03-28T11:08:15.257Z</time></trkpt><trkpt lat="44.2998429" lon="8.4108112"><ele>40.25</ele><time>2026-03-28T11:08:16.246Z</time></trkpt><trkpt lat="44.2999009" lon="8.4106447"><ele>41.0</ele><time>2026-03-28T11:08:17.262Z</time></trkpt><trkpt lat="44.2999496" lon="8.4104969"><ele>39.83333333333333</ele><time>2026-03-28T11:08:18.255Z</time></trkpt><trkpt lat="44.2999867" lon="8.4103443"><ele>38.666666666666664</ele><time>2026-03-28T11:08:19.257Z</time></trkpt><trkpt lat="44.3000354" lon="8.4102152"><ele>37.5</ele><time>2026-03-28T11:08:20.261Z</time></trkpt><trkpt lat="44.3000809" lon="8.4101358"><ele>36.333333333333336</ele><time>2026-03-28T11:08:21.254Z</time></trkpt><trkpt lat="44.3001454" lon="8.4100672"><ele>35.16666666666667</ele><time>2026-03-28T11:08:22.26Z</time></trkpt><trkpt lat="44.3002052" lon="8.4100091"><ele>34.0</ele><time>2026-03-28T11:08:23.252Z</time></trkpt><trkpt lat="44.3002846" lon="8.4100106"><ele>34.0</ele><time>2026-03-28T11:08:24.258Z</time></trkpt><trkpt lat="44.3003853" lon="8.4100173"><ele>34.0</ele><time>2026-03-28T11:08:25.256Z</time></trkpt><trkpt lat="44.3005202" lon="8.4100228"><ele>34.0</ele><time>2026-03-28T11:08:26.254Z</time></trkpt><trkpt lat="44.3006594" lon="8.4100093"><ele>34.0</ele><time>2026-03-28T11:08:27.26Z</time></trkpt><trkpt lat="44.3007989" lon="8.4099811"><ele>35.25</ele><time>2026-03-28T11:08:28.251Z</time></trkpt><trkpt lat="44.30094" lon="8.4099577"><ele>36.5</ele><time>2026-03-28T11:08:29.259Z</time></trkpt><trkpt lat="44.3010659" lon="8.4099458"><ele>37.75</ele><time>2026-03-28T11:08:30.252Z</time></trkpt><trkpt lat="44.3011914" lon="8.4099434"><ele>39.0</ele><time>2026-03-28T11:08:31.256Z</time></trkpt><trkpt lat="44.3013152" lon="8.4099546"><ele>40.25</ele><time>2026-03-28T11:08:32.245Z</time></trkpt><trkpt lat="44.3014429" lon="8.4099871"><ele>41.5</ele><time>2026-03-28T11:08:33.255Z</time></trkpt><trkpt lat="44.3015712" lon="8.4100361"><ele>42.75</ele><time>2026-03-28T11:08:34.244Z</time></trkpt><trkpt lat="44.3016951" lon="8.4100895"><ele>44.0</ele><time>2026-03-28T11:08:35.25Z</time></trkpt><trkpt lat="44.301805" lon="8.4101462"><ele>44.0</ele><time>2026-03-28T11:08:36.25Z</time></trkpt><trkpt lat="44.3019196" lon="8.410213"><ele>44.0</ele><time>2026-03-28T11:08:37.252Z</time></trkpt><trkpt lat="44.3020201" lon="8.4102662"><ele>44.0</ele><time>2026-03-28T11:08:38.25Z</time></trkpt><trkpt lat="44.302121" lon="8.410336"><ele>44.0</ele><time>2026-03-28T11:08:39.254Z</time></trkpt><trkpt lat="44.3021979" lon="8.4104055"><ele>44.0</ele><time>2026-03-28T11:08:40.258Z</time></trkpt><trkpt lat="44.302267" lon="8.410484"><ele>45.2</ele><time>2026-03-28T11:08:41.251Z</time></trkpt><trkpt lat="44.3023308" lon="8.4105572"><ele>46.400000000000006</ele><time>2026-03-28T11:08:42.253Z</time></trkpt><trkpt lat="44.3023979" lon="8.4106444"><ele>47.6</ele><time>2026-03-28T11:08:43.245Z</time></trkpt><trkpt lat="44.3024551" lon="8.4107565"><ele>48.8</ele><time>2026-03-28T11:08:44.259Z</time></trkpt><trkpt lat="44.302515" lon="8.4108727"><ele>50.0</ele><time>2026-03-28T11:08:45.25Z</time></trkpt><trkpt lat="44.3025692" lon="8.4110155"><ele>50.0</ele><time>2026-03-28T11:08:46.251Z</time></trkpt><trkpt lat="44.3026308" lon="8.4111598"><ele>50.0</ele><time>2026-03-28T11:08:47.245Z</time></trkpt><trkpt lat="44.3027009" lon="8.411302"><ele>50.0</ele><time>2026-03-28T11:08:48.253Z</time></trkpt><trkpt lat="44.3027776" lon="8.41141"><ele>50.0</ele><time>2026-03-28T11:08:49.243Z</time></trkpt><trkpt lat="44.3028558" lon="8.4115021"><ele>53.0</ele><time>2026-03-28T11:08:50.253Z</time></trkpt><trkpt lat="44.3029324" lon="8.4115868"><ele>56.0</ele><time>2026-03-28T11:08:51.248Z</time></trkpt><trkpt lat="44.3030318" lon="8.411674"><ele>59.0</ele><time>2026-03-28T11:08:52.257Z</time></trkpt><trkpt lat="44.3031253" lon="8.4117365"><ele>62.0</ele><time>2026-03-28T11:08:53.252Z</time></trkpt><trkpt lat="44.3032228" lon="8.4117501"><ele>65.0</ele><time>2026-03-28T11:08:54.254Z</time></trkpt><trkpt lat="44.3033237" lon="8.4117092"><ele>65.0</ele><time>2026-03-28T11:08:55.242Z</time></trkpt><trkpt lat="44.303427" lon="8.4116571"><ele>65.0</ele><time>2026-03-28T11:08:56.247Z</time></trkpt><trkpt lat="44.3035186" lon="8.4115859"><ele>65.0</ele><time>2026-03-28T11:08:57.25Z</time></trkpt><trkpt lat="44.3036111" lon="8.4115071"><ele>65.0</ele><time>2026-03-28T11:08:58.248Z</time></trkpt><trkpt lat="44.3037058" lon="8.4114291"><ele>65.0</ele><time>2026-03-28T11:08:59.248Z</time></trkpt><trkpt lat="44.3037886" lon="8.4113597"><ele>63.00000000000001</ele><time>2026-03-28T11:09:00.243Z</time></trkpt><trkpt lat="44.3038565" lon="8.4113097"><ele>61.0</ele><time>2026-03-28T11:09:01.256Z</time></trkpt><trkpt lat="44.3039132" lon="8.4112491"><ele>59.0</ele><time>2026-03-28T11:09:02.246Z</time></trkpt><trkpt lat="44.3039711" lon="8.4112039"><ele>57.0</ele><time>2026-03-28T11:09:04.248Z</time></trkpt><trkpt lat="44.3039186" lon="8.4111445"><ele>55.00000000000001</ele><time>2026-03-28T11:09:37.245Z</time></trkpt><trkpt lat="44.303852" lon="8.4110333"><ele>53.0</ele><time>2026-03-28T11:09:39.25Z</time></trkpt><trkpt lat="44.303798" lon="8.4109833"><ele>53.0</ele><time>2026-03-28T11:09:40.251Z</time></trkpt><trkpt lat="44.3037423" lon="8.4109265"><ele>53.0</ele><time>2026-03-28T11:09:41.26Z</time></trkpt><trkpt lat="44.3036984" lon="8.4108054"><ele>53.0</ele><time>2026-03-28T11:09:43.252Z</time></trkpt><trkpt lat="44.3037394" lon="8.4106397"><ele>53.0</ele><time>2026-03-28T11:09:45.257Z</time></trkpt><trkpt lat="44.3037959" lon="8.4105591"><ele>53.0</ele><time>2026-03-28T11:09:46.251Z</time></trkpt><trkpt lat="44.3038609" lon="8.4104722"><ele>55.2</ele><time>2026-03-28T11:09:47.262Z</time></trkpt><trkpt lat="44.3039321" lon="8.4103817"><ele>57.4</ele><time>2026-03-28T11:09:48.247Z</time></trkpt><trkpt lat="44.3040038" lon="8.4102898"><ele>59.60000000000001</ele><time>2026-03-28T11:09:49.253Z</time></trkpt><trkpt lat="44.3040699" lon="8.4101835"><ele>61.800000000000004</ele><time>2026-03-28T11:09:50.245Z</time></trkpt><trkpt lat="44.3041609" lon="8.4100799"><ele>64.0</ele><time>2026-03-28T11:09:51.256Z</time></trkpt><trkpt lat="44.3042549" lon="8.4099761"><ele>64.0</ele><time>2026-03-28T11:09:52.254Z</time></trkpt><trkpt lat="44.3043448" lon="8.409872"><ele>64.0</ele><time>2026-03-28T11:09:53.255Z</time></trkpt><trkpt lat="44.3044203" lon="8.4097796"><ele>64.0</ele><time>2026-03-28T11:09:54.243Z</time></trkpt><trkpt lat="44.3044775" lon="8.4096894"><ele>64.0</ele><time>2026-03-28T11:09:55.254Z</time></trkpt><trkpt lat="44.3045314" lon="8.4096149"><ele>64.0</ele><time>2026-03-28T11:09:56.251Z</time></trkpt><trkpt lat="44.3045844" lon="8.4095235"><ele>66.16666666666666</ele><time>2026-03-28T11:09:57.26Z</time></trkpt><trkpt lat="44.3046223" lon="8.4094406"><ele>68.33333333333333</ele><time>2026-03-28T11:09:58.251Z</time></trkpt><trkpt lat="44.3046518" lon="8.4093435"><ele>70.5</ele><time>2026-03-28T11:09:59.258Z</time></trkpt><trkpt lat="44.3046679" lon="8.409242"><ele>72.66666666666667</ele><time>2026-03-28T11:10:00.246Z</time></trkpt><trkpt lat="44.304679" lon="8.4091413"><ele>74.83333333333334</ele><time>2026-03-28T11:10:01.249Z</time></trkpt><trkpt lat="44.3046924" lon="8.4090486"><ele>77.0</ele><time>2026-03-28T11:10:02.247Z</time></trkpt><trkpt lat="44.3047428" lon="8.4089079"><ele>73.66666666666667</ele><time>2026-03-28T11:10:04.25Z</time></trkpt><trkpt lat="44.3047979" lon="8.4087746"><ele>70.33333333333334</ele><time>2026-03-28T11:10:06.245Z</time></trkpt><trkpt lat="44.3048367" lon="8.4086929"><ele>67.0</ele><time>2026-03-28T11:10:07.257Z</time></trkpt><trkpt lat="44.3048741" lon="8.4086063"><ele>63.66666666666667</ele><time>2026-03-28T11:10:08.248Z</time></trkpt><trkpt lat="44.3049351" lon="8.4085417"><ele>60.333333333333336</ele><time>2026-03-28T11:10:09.255Z</time></trkpt><trkpt lat="44.3049934" lon="8.408477"><ele>57.0</ele><time>2026-03-28T11:10:10.247Z</time></trkpt><trkpt lat="44.3050582" lon="8.4084081"><ele>57.0</ele><time>2026-03-28T11:10:11.252Z</time></trkpt><trkpt lat="44.3051275" lon="8.4083385"><ele>57.0</ele><time>2026-03-28T11:10:12.248Z</time></trkpt><trkpt lat="44.3051982" lon="8.4082619"><ele>57.0</ele><time>2026-03-28T11:10:13.251Z</time></trkpt><trkpt lat="44.3052665" lon="8.4081788"><ele>57.0</ele><time>2026-03-28T11:10:14.244Z</time></trkpt><trkpt lat="44.3053373" lon="8.4080913"><ele>57.0</ele><time>2026-03-28T11:10:15.254Z</time></trkpt><trkpt lat="44.3053992" lon="8.4079859"><ele>57.8</ele><time>2026-03-28T11:10:16.246Z</time></trkpt><trkpt lat="44.3054568" lon="8.4078851"><ele>58.6</ele><time>2026-03-28T11:10:17.248Z</time></trkpt><trkpt lat="44.3055113" lon="8.40777"><ele>59.39999999999999</ele><time>2026-03-28T11:10:18.245Z</time></trkpt><trkpt lat="44.3055693" lon="8.4076531"><ele>60.199999999999996</ele><time>2026-03-28T11:10:19.253Z</time></trkpt><trkpt lat="44.3056364" lon="8.4075278"><ele>61.0</ele><time>2026-03-28T11:10:20.247Z</time></trkpt><trkpt lat="44.3057006" lon="8.4074012"><ele>61.0</ele><time>2026-03-28T11:10:21.249Z</time></trkpt><trkpt lat="44.3057539" lon="8.4072644"><ele>60.99999999999999</ele><time>2026-03-28T11:10:22.241Z</time></trkpt><trkpt lat="44.3057914" lon="8.4071399"><ele>60.99999999999999</ele><time>2026-03-28T11:10:23.252Z</time></trkpt><trkpt lat="44.305832" lon="8.4070169"><ele>61.0</ele><time>2026-03-28T11:10:24.25Z</time></trkpt><trkpt lat="44.305868" lon="8.406905"><ele>61.0</ele><time>2026-03-28T11:10:25.258Z</time></trkpt><trkpt lat="44.3059057" lon="8.4068071"><ele>61.666666666666664</ele><time>2026-03-28T11:10:26.248Z</time></trkpt><trkpt lat="44.3059764" lon="8.4067238"><ele>62.33333333333333</ele><time>2026-03-28T11:10:28.255Z</time></trkpt><trkpt lat="44.3060512" lon="8.4066424"><ele>63.0</ele><time>2026-03-28T11:10:46.254Z</time></trkpt><trkpt lat="44.3060786" lon="8.4065618"><ele>63.66666666666667</ele><time>2026-03-28T11:10:47.263Z</time></trkpt><trkpt lat="44.3061156" lon="8.4064763"><ele>64.33333333333334</ele><time>2026-03-28T11:10:48.245Z</time></trkpt><trkpt lat="44.3061498" lon="8.4063903"><ele>65.0</ele><time>2026-03-28T11:10:49.261Z</time></trkpt><trkpt lat="44.3062165" lon="8.4063091"><ele>64.4</ele><time>2026-03-28T11:10:50.238Z</time></trkpt><trkpt lat="44.3062763" lon="8.4062138"><ele>63.8</ele><time>2026-03-28T11:10:51.253Z</time></trkpt><trkpt lat="44.3063419" lon="8.4060982"><ele>63.2</ele><time>2026-03-28T11:10:52.255Z</time></trkpt><trkpt lat="44.3064203" lon="8.4059661"><ele>62.6</ele><time>2026-03-28T11:10:53.252Z</time></trkpt><trkpt lat="44.3064914" lon="8.4058245"><ele>62.0</ele><time>2026-03-28T11:10:54.252Z</time></trkpt><trkpt lat="44.3065619" lon="8.4056938"><ele>62.0</ele><time>2026-03-28T11:10:55.247Z</time></trkpt><trkpt lat="44.3066043" lon="8.4055545"><ele>62.0</ele><time>2026-03-28T11:10:56.25Z</time></trkpt><trkpt lat="44.3066514" lon="8.405424"><ele>62.0</ele><time>2026-03-28T11:10:57.249Z</time></trkpt><trkpt lat="44.3066893" lon="8.4053"><ele>62.0</ele><time>2026-03-28T11:10:58.25Z</time></trkpt><trkpt lat="44.3067186" lon="8.4051804"><ele>62.0</ele><time>2026-03-28T11:10:59.244Z</time></trkpt><trkpt lat="44.3067614" lon="8.4050607"><ele>62.0</ele><time>2026-03-28T11:11:00.252Z</time></trkpt><trkpt lat="44.3068098" lon="8.4049568"><ele>62.0</ele><time>2026-03-28T11:11:01.245Z</time></trkpt><trkpt lat="44.3068616" lon="8.4048484"><ele>62.0</ele><time>2026-03-28T11:11:02.25Z</time></trkpt><trkpt lat="44.3069184" lon="8.4047404"><ele>62.0</ele><time>2026-03-28T11:11:03.247Z</time></trkpt><trkpt lat="44.3069766" lon="8.4046394"><ele>62.0</ele><time>2026-03-28T11:11:04.256Z</time></trkpt><trkpt lat="44.3070361" lon="8.4045368"><ele>62.8</ele><time>2026-03-28T11:11:05.249Z</time></trkpt><trkpt lat="44.3070864" lon="8.4044326"><ele>63.6</ele><time>2026-03-28T11:11:06.26Z</time></trkpt><trkpt lat="44.307141" lon="8.4043293"><ele>64.39999999999999</ele><time>2026-03-28T11:11:07.252Z</time></trkpt><trkpt lat="44.3071835" lon="8.4042168"><ele>65.2</ele><time>2026-03-28T11:11:08.259Z</time></trkpt><trkpt lat="44.3072332" lon="8.4040996"><ele>66.0</ele><time>2026-03-28T11:11:09.257Z</time></trkpt><trkpt lat="44.3072799" lon="8.4039895"><ele>66.0</ele><time>2026-03-28T11:11:10.268Z</time></trkpt><trkpt lat="44.3073307" lon="8.4038914"><ele>66.0</ele><time>2026-03-28T11:11:11.255Z</time></trkpt><trkpt lat="44.307384" lon="8.4037925"><ele>66.0</ele><time>2026-03-28T11:11:12.255Z</time></trkpt><trkpt lat="44.3074316" lon="8.4036855"><ele>66.0</ele><time>2026-03-28T11:11:13.259Z</time></trkpt><trkpt lat="44.3074727" lon="8.4035788"><ele>66.0</ele><time>2026-03-28T11:11:14.257Z</time></trkpt><trkpt lat="44.3075357" lon="8.4034828"><ele>66.0</ele><time>2026-03-28T11:11:15.259Z</time></trkpt><trkpt lat="44.3076082" lon="8.4033813"><ele>67.6</ele><time>2026-03-28T11:11:16.248Z</time></trkpt><trkpt lat="44.3076652" lon="8.40327"><ele>69.19999999999999</ele><time>2026-03-28T11:11:17.26Z</time></trkpt><trkpt lat="44.307721" lon="8.403161"><ele>70.80000000000001</ele><time>2026-03-28T11:11:18.253Z</time></trkpt><trkpt lat="44.3077672" lon="8.4030458"><ele>72.4</ele><time>2026-03-28T11:11:19.254Z</time></trkpt><trkpt lat="44.3078102" lon="8.4029301"><ele>74.0</ele><time>2026-03-28T11:11:20.25Z</time></trkpt><trkpt lat="44.3078528" lon="8.4027951"><ele>77.0</ele><time>2026-03-28T11:11:21.249Z</time></trkpt><trkpt lat="44.3078956" lon="8.4026623"><ele>80.0</ele><time>2026-03-28T11:11:22.245Z</time></trkpt><trkpt lat="44.3079322" lon="8.4025229"><ele>83.0</ele><time>2026-03-28T11:11:23.247Z</time></trkpt><trkpt lat="44.3079654" lon="8.4023884"><ele>86.0</ele><time>2026-03-28T11:11:24.246Z</time></trkpt><trkpt lat="44.3080057" lon="8.4022504"><ele>89.0</ele><time>2026-03-28T11:11:25.252Z</time></trkpt><trkpt lat="44.3080208" lon="8.4021"><ele>91.33333333333334</ele><time>2026-03-28T11:11:26.246Z</time></trkpt><trkpt lat="44.3080403" lon="8.4019578"><ele>93.66666666666667</ele><time>2026-03-28T11:11:27.26Z</time></trkpt><trkpt lat="44.3080523" lon="8.4018368"><ele>96.0</ele><time>2026-03-28T11:11:28.25Z</time></trkpt><trkpt lat="44.3080661" lon="8.4017308"><ele>98.33333333333334</ele><time>2026-03-28T11:11:29.263Z</time></trkpt><trkpt lat="44.3080756" lon="8.401614"><ele>100.66666666666667</ele><time>2026-03-28T11:11:30.254Z</time></trkpt><trkpt lat="44.3080921" lon="8.4014986"><ele>103.0</ele><time>2026-03-28T11:11:31.258Z</time></trkpt><trkpt lat="44.308106" lon="8.4013749"><ele>97.4</ele><time>2026-03-28T11:11:32.252Z</time></trkpt><trkpt lat="44.3081208" lon="8.4012587"><ele>91.80000000000001</ele><time>2026-03-28T11:11:33.256Z</time></trkpt><trkpt lat="44.3081399" lon="8.4011369"><ele>86.2</ele><time>2026-03-28T11:11:34.248Z</time></trkpt><trkpt lat="44.3081759" lon="8.4010127"><ele>80.6</ele><time>2026-03-28T11:11:35.259Z</time></trkpt><trkpt lat="44.3082162" lon="8.4008867"><ele>75.0</ele><time>2026-03-28T11:11:36.252Z</time></trkpt><trkpt lat="44.3082589" lon="8.4007634"><ele>75.0</ele><time>2026-03-28T11:11:37.256Z</time></trkpt><trkpt lat="44.3083035" lon="8.4006572"><ele>75.0</ele><time>2026-03-28T11:11:38.251Z</time></trkpt><trkpt lat="44.3083527" lon="8.4005623"><ele>75.0</ele><time>2026-03-28T11:11:39.252Z</time></trkpt><trkpt lat="44.3084075" lon="8.4004699"><ele>75.0</ele><time>2026-03-28T11:11:40.248Z</time></trkpt><trkpt lat="44.3084633" lon="8.4003753"><ele>75.0</ele><time>2026-03-28T11:11:41.259Z</time></trkpt><trkpt lat="44.3085291" lon="8.4002667"><ele>75.0</ele><time>2026-03-28T11:11:42.251Z</time></trkpt><trkpt lat="44.3086021" lon="8.4001603"><ele>74.6</ele><time>2026-03-28T11:11:43.248Z</time></trkpt><trkpt lat="44.3086792" lon="8.4000755"><ele>74.2</ele><time>2026-03-28T11:11:44.25Z</time></trkpt><trkpt lat="44.3087513" lon="8.3999931"><ele>73.8</ele><time>2026-03-28T11:11:45.247Z</time></trkpt><trkpt lat="44.3088219" lon="8.3999048"><ele>73.4</ele><time>2026-03-28T11:11:46.256Z</time></trkpt><trkpt lat="44.3088787" lon="8.3998031"><ele>73.0</ele><time>2026-03-28T11:11:47.257Z</time></trkpt><trkpt lat="44.3089364" lon="8.3996949"><ele>75.6</ele><time>2026-03-28T11:11:48.255Z</time></trkpt><trkpt lat="44.3089941" lon="8.3995868"><ele>78.19999999999999</ele><time>2026-03-28T11:11:49.262Z</time></trkpt><trkpt lat="44.3090592" lon="8.3994884"><ele>80.8</ele><time>2026-03-28T11:11:50.252Z</time></trkpt><trkpt lat="44.30912" lon="8.3993837"><ele>83.39999999999999</ele><time>2026-03-28T11:11:51.257Z</time></trkpt><trkpt lat="44.3091749" lon="8.3992679"><ele>86.0</ele><time>2026-03-28T11:11:52.246Z</time></trkpt><trkpt lat="44.3092379" lon="8.3991651"><ele>86.0</ele><time>2026-03-28T11:11:53.257Z</time></trkpt><trkpt lat="44.3093114" lon="8.3990902"><ele>86.0</ele><time>2026-03-28T11:11:54.249Z</time></trkpt><trkpt lat="44.3093753" lon="8.3990228"><ele>86.0</ele><time>2026-03-28T11:11:55.26Z</time></trkpt><trkpt lat="44.3094427" lon="8.3989701"><ele>86.0</ele><time>2026-03-28T11:11:56.255Z</time></trkpt><trkpt lat="44.3094925" lon="8.3989082"><ele>86.0</ele><time>2026-03-28T11:11:57.26Z</time></trkpt><trkpt lat="44.3095424" lon="8.3988319"><ele>86.0</ele><time>2026-03-28T11:11:58.257Z</time></trkpt><trkpt lat="44.3095756" lon="8.3987488"><ele>87.28571428571429</ele><time>2026-03-28T11:11:59.259Z</time></trkpt><trkpt lat="44.3096066" lon="8.3986634"><ele>88.57142857142857</ele><time>2026-03-28T11:12:00.256Z</time></trkpt><trkpt lat="44.3096274" lon="8.3985708"><ele>89.85714285714286</ele><time>2026-03-28T11:12:01.256Z</time></trkpt><trkpt lat="44.3096395" lon="8.3984665"><ele>91.14285714285714</ele><time>2026-03-28T11:12:02.246Z</time></trkpt><trkpt lat="44.3096323" lon="8.3983698"><ele>92.42857142857143</ele><time>2026-03-28T11:12:03.257Z</time></trkpt><trkpt lat="44.3096359" lon="8.3982607"><ele>93.71428571428572</ele><time>2026-03-28T11:12:04.252Z</time></trkpt><trkpt lat="44.3096413" lon="8.398161"><ele>95.0</ele><time>2026-03-28T11:12:05.253Z</time></trkpt><trkpt lat="44.3096725" lon="8.3980818"><ele>95.0</ele><time>2026-03-28T11:12:06.25Z</time></trkpt><trkpt lat="44.3097198" lon="8.3980104"><ele>95.0</ele><time>2026-03-28T11:12:07.256Z</time></trkpt><trkpt lat="44.3097801" lon="8.397944"><ele>95.0</ele><time>2026-03-28T11:12:08.247Z</time></trkpt><trkpt lat="44.3098347" lon="8.397868"><ele>95.0</ele><time>2026-03-28T11:12:09.251Z</time></trkpt><trkpt lat="44.3099021" lon="8.39778"><ele>95.0</ele><time>2026-03-28T11:12:10.251Z</time></trkpt><trkpt lat="44.3099734" lon="8.3976822"><ele>95.0</ele><time>2026-03-28T11:12:11.252Z</time></trkpt><trkpt lat="44.310051" lon="8.3975794"><ele>94.25</ele><time>2026-03-28T11:12:12.255Z</time></trkpt><trkpt lat="44.3101299" lon="8.3974676"><ele>93.5</ele><time>2026-03-28T11:12:13.245Z</time></trkpt><trkpt lat="44.3102129" lon="8.3973363"><ele>92.75</ele><time>2026-03-28T11:12:14.254Z</time></trkpt><trkpt lat="44.3103032" lon="8.397197"><ele>92.0</ele><time>2026-03-28T11:12:15.245Z</time></trkpt><trkpt lat="44.3103909" lon="8.3970551"><ele>89.25</ele><time>2026-03-28T11:12:16.249Z</time></trkpt><trkpt lat="44.3104866" lon="8.3969009"><ele>86.5</ele><time>2026-03-28T11:12:17.25Z</time></trkpt><trkpt lat="44.3105716" lon="8.3967541"><ele>83.75</ele><time>2026-03-28T11:12:18.258Z</time></trkpt><trkpt lat="44.310648" lon="8.3966146"><ele>81.0</ele><time>2026-03-28T11:12:19.246Z</time></trkpt><trkpt lat="44.3107166" lon="8.3964854"><ele>81.0</ele><time>2026-03-28T11:12:20.248Z</time></trkpt><trkpt lat="44.3107798" lon="8.3963625"><ele>81.0</ele><time>2026-03-28T11:12:21.247Z</time></trkpt><trkpt lat="44.3108331" lon="8.3962512"><ele>81.0</ele><time>2026-03-28T11:12:22.25Z</time></trkpt><trkpt lat="44.3109003" lon="8.3961443"><ele>81.0</ele><time>2026-03-28T11:12:23.245Z</time></trkpt><trkpt lat="44.3109693" lon="8.3960182"><ele>81.0</ele><time>2026-03-28T11:12:24.256Z</time></trkpt><trkpt lat="44.3110544" lon="8.3958916"><ele>84.5</ele><time>2026-03-28T11:12:25.246Z</time></trkpt><trkpt lat="44.3111322" lon="8.3957562"><ele>88.0</ele><time>2026-03-28T11:12:26.26Z</time></trkpt><trkpt lat="44.3112041" lon="8.3956049"><ele>91.5</ele><time>2026-03-28T11:12:27.252Z</time></trkpt><trkpt lat="44.3112784" lon="8.3954655"><ele>95.0</ele><time>2026-03-28T11:12:28.252Z</time></trkpt><trkpt lat="44.311353" lon="8.3953217"><ele>92.25</ele><time>2026-03-28T11:12:29.255Z</time></trkpt><trkpt lat="44.3114171" lon="8.395188"><ele>89.5</ele><time>2026-03-28T11:12:30.252Z</time></trkpt><trkpt lat="44.3114912" lon="8.3950573"><ele>86.75</ele><time>2026-03-28T11:12:31.265Z</time></trkpt><trkpt lat="44.3115644" lon="8.3949134"><ele>84.0</ele><time>2026-03-28T11:12:32.257Z</time></trkpt><trkpt lat="44.3116259" lon="8.3947648"><ele>87.2</ele><time>2026-03-28T11:12:33.258Z</time></trkpt><trkpt lat="44.3116907" lon="8.3946251"><ele>90.4</ele><time>2026-03-28T11:12:34.25Z</time></trkpt><trkpt lat="44.3117536" lon="8.3944975"><ele>93.6</ele><time>2026-03-28T11:12:35.253Z</time></trkpt><trkpt lat="44.311818" lon="8.3943801"><ele>96.8</ele><time>2026-03-28T11:12:36.251Z</time></trkpt><trkpt lat="44.31188" lon="8.3942598"><ele>100.0</ele><time>2026-03-28T11:12:37.255Z</time></trkpt><trkpt lat="44.311947" lon="8.3941514"><ele>100.0</ele><time>2026-03-28T11:12:38.259Z</time></trkpt><trkpt lat="44.3120172" lon="8.394033"><ele>100.0</ele><time>2026-03-28T11:12:39.259Z</time></trkpt><trkpt lat="44.3120917" lon="8.3939013"><ele>100.0</ele><time>2026-03-28T11:12:40.256Z</time></trkpt><trkpt lat="44.3121566" lon="8.3937681"><ele>100.0</ele><time>2026-03-28T11:12:41.254Z</time></trkpt><trkpt lat="44.3122259" lon="8.3936314"><ele>97.75</ele><time>2026-03-28T11:12:42.25Z</time></trkpt><trkpt lat="44.3122994" lon="8.3934934"><ele>95.5</ele><time>2026-03-28T11:12:43.258Z</time></trkpt><trkpt lat="44.3123725" lon="8.3933652"><ele>93.25</ele><time>2026-03-28T11:12:44.245Z</time></trkpt><trkpt lat="44.3124497" lon="8.3932491"><ele>91.0</ele><time>2026-03-28T11:12:45.254Z</time></trkpt><trkpt lat="44.3125177" lon="8.39312"><ele>95.4</ele><time>2026-03-28T11:12:46.243Z</time></trkpt><trkpt lat="44.3125899" lon="8.3929906"><ele>99.8</ele><time>2026-03-28T11:12:47.258Z</time></trkpt><trkpt lat="44.3126664" lon="8.3928799"><ele>104.20000000000002</ele><time>2026-03-28T11:12:48.249Z</time></trkpt><trkpt lat="44.3127374" lon="8.3927829"><ele>108.60000000000001</ele><time>2026-03-28T11:12:49.252Z</time></trkpt><trkpt lat="44.3128155" lon="8.3927151"><ele>113.0</ele><time>2026-03-28T11:12:50.246Z</time></trkpt><trkpt lat="44.3129007" lon="8.3926776"><ele>113.0</ele><time>2026-03-28T11:12:51.257Z</time></trkpt><trkpt lat="44.3129778" lon="8.392651"><ele>113.0</ele><time>2026-03-28T11:12:52.247Z</time></trkpt><trkpt lat="44.3130541" lon="8.3926243"><ele>113.0</ele><time>2026-03-28T11:12:53.247Z</time></trkpt><trkpt lat="44.3131171" lon="8.3925927"><ele>113.0</ele><time>2026-03-28T11:12:54.246Z</time></trkpt><trkpt lat="44.3131848" lon="8.3925621"><ele>113.0</ele><time>2026-03-28T11:12:55.253Z</time></trkpt><trkpt lat="44.3132557" lon="8.3925311"><ele>113.0</ele><time>2026-03-28T11:12:56.242Z</time></trkpt><trkpt lat="44.3133159" lon="8.3924912"><ele>113.0</ele><time>2026-03-28T11:12:57.256Z</time></trkpt><trkpt lat="44.3134222" lon="8.3924288"><ele>113.16666666666666</ele><time>2026-03-28T11:12:59.258Z</time></trkpt><trkpt lat="44.3134893" lon="8.392404"><ele>113.33333333333333</ele><time>2026-03-28T11:13:00.248Z</time></trkpt><trkpt lat="44.3135888" lon="8.3923253"><ele>113.5</ele><time>2026-03-28T11:13:02.251Z</time></trkpt><trkpt lat="44.313644" lon="8.3922579"><ele>113.66666666666666</ele><time>2026-03-28T11:13:03.255Z</time></trkpt><trkpt lat="44.3137026" lon="8.3921647"><ele>113.83333333333333</ele><time>2026-03-28T11:13:04.248Z</time></trkpt><trkpt lat="44.3137572" lon="8.3920689"><ele>114.0</ele><time>2026-03-28T11:13:05.25Z</time></trkpt><trkpt lat="44.3138054" lon="8.3919422"><ele>114.0</ele><time>2026-03-28T11:13:06.243Z</time></trkpt><trkpt lat="44.3138532" lon="8.3918056"><ele>114.0</ele><time>2026-03-28T11:13:07.251Z</time></trkpt><trkpt lat="44.313902" lon="8.3916697"><ele>114.0</ele><time>2026-03-28T11:13:08.246Z</time></trkpt><trkpt lat="44.3139506" lon="8.3915291"><ele>114.0</ele><time>2026-03-28T11:13:09.25Z</time></trkpt><trkpt lat="44.3140104" lon="8.391399"><ele>114.0</ele><time>2026-03-28T11:13:10.242Z</time></trkpt><trkpt lat="44.3140737" lon="8.3912673"><ele>111.4</ele><time>2026-03-28T11:13:11.252Z</time></trkpt><trkpt lat="44.3141262" lon="8.3911196"><ele>108.80000000000001</ele><time>2026-03-28T11:13:12.249Z</time></trkpt><trkpt lat="44.3141791" lon="8.3909888"><ele>106.19999999999999</ele><time>2026-03-28T11:13:13.248Z</time></trkpt><trkpt lat="44.3142241" lon="8.3908477"><ele>103.6</ele><time>2026-03-28T11:13:14.249Z</time></trkpt><trkpt lat="44.3142804" lon="8.3907323"><ele>101.0</ele><time>2026-03-28T11:13:15.252Z</time></trkpt><trkpt lat="44.3143461" lon="8.3906299"><ele>101.0</ele><time>2026-03-28T11:13:16.255Z</time></trkpt><trkpt lat="44.3144227" lon="8.3905271"><ele>101.0</ele><time>2026-03-28T11:13:17.245Z</time></trkpt><trkpt lat="44.3145044" lon="8.3904353"><ele>101.0</ele><time>2026-03-28T11:13:18.254Z</time></trkpt><trkpt lat="44.3145877" lon="8.3903592"><ele>101.0</ele><time>2026-03-28T11:13:19.247Z</time></trkpt><trkpt lat="44.3146714" lon="8.390293"><ele>101.0</ele><time>2026-03-28T11:13:20.251Z</time></trkpt><trkpt lat="44.31476" lon="8.3902132"><ele>101.4</ele><time>2026-03-28T11:13:21.245Z</time></trkpt><trkpt lat="44.3148478" lon="8.3901262"><ele>101.8</ele><time>2026-03-28T11:13:22.251Z</time></trkpt><trkpt lat="44.3149235" lon="8.3900292"><ele>102.2</ele><time>2026-03-28T11:13:23.242Z</time></trkpt><trkpt lat="44.3150039" lon="8.3899385"><ele>102.60000000000001</ele><time>2026-03-28T11:13:24.244Z</time></trkpt><trkpt lat="44.3150805" lon="8.3898374"><ele>103.0</ele><time>2026-03-28T11:13:25.247Z</time></trkpt><trkpt lat="44.3151556" lon="8.3897319"><ele>105.4</ele><time>2026-03-28T11:13:26.246Z</time></trkpt><trkpt lat="44.3152305" lon="8.3896224"><ele>107.80000000000001</ele><time>2026-03-28T11:13:27.246Z</time></trkpt><trkpt lat="44.3153096" lon="8.3895201"><ele>110.2</ele><time>2026-03-28T11:13:28.25Z</time></trkpt><trkpt lat="44.3153662" lon="8.3894009"><ele>112.6</ele><time>2026-03-28T11:13:29.248Z</time></trkpt><trkpt lat="44.3154133" lon="8.3892996"><ele>115.0</ele><time>2026-03-28T11:13:30.244Z</time></trkpt><trkpt lat="44.3154526" lon="8.3892137"><ele>115.00000000000001</ele><time>2026-03-28T11:13:31.25Z</time></trkpt><trkpt lat="44.3154665" lon="8.3891139"><ele>115.0</ele><time>2026-03-28T11:13:32.244Z</time></trkpt><trkpt lat="44.3154959" lon="8.389018"><ele>115.0</ele><time>2026-03-28T11:13:34.248Z</time></trkpt><trkpt lat="44.3154943" lon="8.388918"><ele>115.0</ele><time>2026-03-28T11:13:52.254Z</time></trkpt><trkpt lat="44.315547" lon="8.3888596"><ele>115.00000000000001</ele><time>2026-03-28T11:13:54.247Z</time></trkpt><trkpt lat="44.3156233" lon="8.388769"><ele>115.0</ele><time>2026-03-28T11:13:56.256Z</time></trkpt><trkpt lat="44.315689" lon="8.3886229"><ele>115.50000000000001</ele><time>2026-03-28T11:13:58.256Z</time></trkpt><trkpt lat="44.315694" lon="8.3885126"><ele>116.0</ele><time>2026-03-28T11:13:59.245Z</time></trkpt><trkpt lat="44.3156944" lon="8.388394"><ele>116.5</ele><time>2026-03-28T11:14:00.248Z</time></trkpt><trkpt lat="44.3156978" lon="8.3882797"><ele>117.0</ele><time>2026-03-28T11:14:01.247Z</time></trkpt><trkpt lat="44.3157103" lon="8.3881534"><ele>117.50000000000001</ele><time>2026-03-28T11:14:02.236Z</time></trkpt><trkpt lat="44.3156919" lon="8.3880394"><ele>118.0</ele><time>2026-03-28T11:14:03.25Z</time></trkpt><trkpt lat="44.3156612" lon="8.3879196"><ele>118.4</ele><time>2026-03-28T11:14:04.241Z</time></trkpt><trkpt lat="44.3156249" lon="8.3877851"><ele>118.80000000000001</ele><time>2026-03-28T11:14:05.244Z</time></trkpt><trkpt lat="44.3155938" lon="8.3876405"><ele>119.2</ele><time>2026-03-28T11:14:06.242Z</time></trkpt><trkpt lat="44.3155716" lon="8.3874869"><ele>119.6</ele><time>2026-03-28T11:14:07.243Z</time></trkpt><trkpt lat="44.315563" lon="8.3873363"><ele>120.0</ele><time>2026-03-28T11:14:08.25Z</time></trkpt><trkpt lat="44.3155765" lon="8.3871977"><ele>121.0</ele><time>2026-03-28T11:14:09.246Z</time></trkpt><trkpt lat="44.3155922" lon="8.3870632"><ele>122.0</ele><time>2026-03-28T11:14:10.251Z</time></trkpt><trkpt lat="44.3155974" lon="8.3869341"><ele>123.0</ele><time>2026-03-28T11:14:11.244Z</time></trkpt><trkpt lat="44.315604" lon="8.3868165"><ele>124.0</ele><time>2026-03-28T11:14:12.256Z</time></trkpt><trkpt lat="44.3156118" lon="8.3866873"><ele>125.0</ele><time>2026-03-28T11:14:13.247Z</time></trkpt><trkpt lat="44.3156326" lon="8.3865705"><ele>124.99999999999999</ele><time>2026-03-28T11:14:14.259Z</time></trkpt><trkpt lat="44.3156744" lon="8.3864711"><ele>125.0</ele><time>2026-03-28T11:14:15.251Z</time></trkpt><trkpt lat="44.3157365" lon="8.3863945"><ele>125.0</ele><time>2026-03-28T11:14:16.256Z</time></trkpt><trkpt lat="44.3158166" lon="8.3863637"><ele>125.0</ele><time>2026-03-28T11:14:17.248Z</time></trkpt><trkpt lat="44.3159086" lon="8.3863527"><ele>124.99999999999999</ele><time>2026-03-28T11:14:18.253Z</time></trkpt><trkpt lat="44.315994" lon="8.3863385"><ele>125.0</ele><time>2026-03-28T11:14:19.248Z</time></trkpt><trkpt lat="44.3161026" lon="8.386319"><ele>122.8</ele><time>2026-03-28T11:14:20.247Z</time></trkpt><trkpt lat="44.3162113" lon="8.3862925"><ele>120.6</ele><time>2026-03-28T11:14:21.247Z</time></trkpt><trkpt lat="44.3163033" lon="8.3862621"><ele>118.4</ele><time>2026-03-28T11:14:22.252Z</time></trkpt><trkpt lat="44.3163983" lon="8.3862238"><ele>116.2</ele><time>2026-03-28T11:14:23.246Z</time></trkpt><trkpt lat="44.3164854" lon="8.3861768"><ele>114.0</ele><time>2026-03-28T11:14:24.252Z</time></trkpt><trkpt lat="44.3165617" lon="8.3861207"><ele>118.0</ele><time>2026-03-28T11:14:25.245Z</time></trkpt><trkpt lat="44.316645" lon="8.3860809"><ele>122.0</ele><time>2026-03-28T11:14:26.244Z</time></trkpt><trkpt lat="44.316725" lon="8.3860253"><ele>126.0</ele><time>2026-03-28T11:14:27.241Z</time></trkpt><trkpt lat="44.3167995" lon="8.3859619"><ele>130.0</ele><time>2026-03-28T11:14:28.249Z</time></trkpt><trkpt lat="44.3168561" lon="8.3858767"><ele>134.0</ele><time>2026-03-28T11:14:29.245Z</time></trkpt><trkpt lat="44.3168998" lon="8.3857864"><ele>138.0</ele><time>2026-03-28T11:14:30.255Z</time></trkpt><trkpt lat="44.316921" lon="8.3856791"><ele>138.0</ele><time>2026-03-28T11:14:31.241Z</time></trkpt><trkpt lat="44.3169309" lon="8.3855598"><ele>138.0</ele><time>2026-03-28T11:14:32.245Z</time></trkpt><trkpt lat="44.3169325" lon="8.3854476"><ele>138.0</ele><time>2026-03-28T11:14:33.239Z</time></trkpt><trkpt lat="44.3169263" lon="8.3853338"><ele>138.0</ele><time>2026-03-28T11:14:34.249Z</time></trkpt><trkpt lat="44.3168991" lon="8.3852208"><ele>138.0</ele><time>2026-03-28T11:14:35.242Z</time></trkpt><trkpt lat="44.3168529" lon="8.3850999"><ele>138.0</ele><time>2026-03-28T11:14:36.254Z</time></trkpt><trkpt lat="44.3167981" lon="8.3849552"><ele>137.6</ele><time>2026-03-28T11:14:37.249Z</time></trkpt><trkpt lat="44.3167532" lon="8.3848225"><ele>137.20000000000002</ele><time>2026-03-28T11:14:38.253Z</time></trkpt><trkpt lat="44.3167219" lon="8.3846998"><ele>136.8</ele><time>2026-03-28T11:14:39.248Z</time></trkpt><trkpt lat="44.3166931" lon="8.3845661"><ele>136.4</ele><time>2026-03-28T11:14:40.252Z</time></trkpt><trkpt lat="44.3166779" lon="8.3844329"><ele>136.0</ele><time>2026-03-28T11:14:41.249Z</time></trkpt><trkpt lat="44.3166739" lon="8.3842935"><ele>134.8</ele><time>2026-03-28T11:14:42.26Z</time></trkpt><trkpt lat="44.3167085" lon="8.3841699"><ele>133.6</ele><time>2026-03-28T11:14:43.256Z</time></trkpt><trkpt lat="44.3167527" lon="8.3840561"><ele>132.4</ele><time>2026-03-28T11:14:44.256Z</time></trkpt><trkpt lat="44.3168226" lon="8.3839868"><ele>131.2</ele><time>2026-03-28T11:14:45.25Z</time></trkpt><trkpt lat="44.3168957" lon="8.3839342"><ele>130.0</ele><time>2026-03-28T11:14:46.258Z</time></trkpt><trkpt lat="44.3169932" lon="8.3839097"><ele>130.0</ele><time>2026-03-28T11:14:47.259Z</time></trkpt><trkpt lat="44.3170941" lon="8.3838861"><ele>130.0</ele><time>2026-03-28T11:14:48.254Z</time></trkpt><trkpt lat="44.3172129" lon="8.3838545"><ele>130.0</ele><time>2026-03-28T11:14:49.254Z</time></trkpt><trkpt lat="44.3173006" lon="8.3837869"><ele>130.0</ele><time>2026-03-28T11:14:50.255Z</time></trkpt><trkpt lat="44.3173945" lon="8.3837177"><ele>130.0</ele><time>2026-03-28T11:14:51.255Z</time></trkpt><trkpt lat="44.3174756" lon="8.383653"><ele>131.33333333333334</ele><time>2026-03-28T11:14:52.253Z</time></trkpt><trkpt lat="44.3175489" lon="8.3835769"><ele>132.66666666666669</ele><time>2026-03-28T11:14:53.25Z</time></trkpt><trkpt lat="44.3176227" lon="8.3835216"><ele>134.0</ele><time>2026-03-28T11:14:54.25Z</time></trkpt><trkpt lat="44.3176937" lon="8.3834646"><ele>135.33333333333334</ele><time>2026-03-28T11:14:55.257Z</time></trkpt><trkpt lat="44.3177676" lon="8.3834059"><ele>136.66666666666666</ele><time>2026-03-28T11:14:56.247Z</time></trkpt><trkpt lat="44.3178496" lon="8.3833461"><ele>138.0</ele><time>2026-03-28T11:14:57.248Z</time></trkpt><trkpt lat="44.3179356" lon="8.3832918"><ele>138.0</ele><time>2026-03-28T11:14:58.252Z</time></trkpt><trkpt lat="44.3180306" lon="8.3832616"><ele>138.0</ele><time>2026-03-28T11:14:59.254Z</time></trkpt><trkpt lat="44.3181159" lon="8.3832239"><ele>138.0</ele><time>2026-03-28T11:15:00.249Z</time></trkpt><trkpt lat="44.3181908" lon="8.3831759"><ele>138.0</ele><time>2026-03-28T11:15:01.257Z</time></trkpt><trkpt lat="44.3182709" lon="8.3831477"><ele>138.0</ele><time>2026-03-28T11:15:02.244Z</time></trkpt><trkpt lat="44.3183422" lon="8.3831211"><ele>138.0</ele><time>2026-03-28T11:15:03.248Z</time></trkpt><trkpt lat="44.3184177" lon="8.3830754"><ele>141.6</ele><time>2026-03-28T11:15:04.245Z</time></trkpt><trkpt lat="44.3184755" lon="8.383012"><ele>145.20000000000002</ele><time>2026-03-28T11:15:05.246Z</time></trkpt><trkpt lat="44.3185224" lon="8.3829425"><ele>148.8</ele><time>2026-03-28T11:15:06.241Z</time></trkpt><trkpt lat="44.3186135" lon="8.3828486"><ele>152.4</ele><time>2026-03-28T11:15:08.243Z</time></trkpt><trkpt lat="44.3187401" lon="8.3828602"><ele>156.0</ele><time>2026-03-28T11:15:10.246Z</time></trkpt><trkpt lat="44.3188127" lon="8.3828955"><ele>156.0</ele><time>2026-03-28T11:15:11.247Z</time></trkpt><trkpt lat="44.3188876" lon="8.3829405"><ele>156.0</ele><time>2026-03-28T11:15:12.25Z</time></trkpt><trkpt lat="44.3189844" lon="8.3829918"><ele>156.0</ele><time>2026-03-28T11:15:13.253Z</time></trkpt><trkpt lat="44.3190822" lon="8.3830265"><ele>156.0</ele><time>2026-03-28T11:15:14.255Z</time></trkpt><trkpt lat="44.3191799" lon="8.3830245"><ele>156.0</ele><time>2026-03-28T11:15:15.253Z</time></trkpt><trkpt lat="44.319301" lon="8.3830011"><ele>157.25</ele><time>2026-03-28T11:15:16.257Z</time></trkpt><trkpt lat="44.3194367" lon="8.3829599"><ele>158.5</ele><time>2026-03-28T11:15:17.248Z</time></trkpt><trkpt lat="44.3195778" lon="8.3829174"><ele>159.75</ele><time>2026-03-28T11:15:18.253Z</time></trkpt><trkpt lat="44.3197181" lon="8.3828923"><ele>161.0</ele><time>2026-03-28T11:15:19.244Z</time></trkpt><trkpt lat="44.3198525" lon="8.3828633"><ele>163.25</ele><time>2026-03-28T11:15:20.246Z</time></trkpt><trkpt lat="44.3199895" lon="8.3828709"><ele>165.5</ele><time>2026-03-28T11:15:21.248Z</time></trkpt><trkpt lat="44.3201304" lon="8.3828973"><ele>167.75</ele><time>2026-03-28T11:15:22.25Z</time></trkpt><trkpt lat="44.3202723" lon="8.3829395"><ele>170.0</ele><time>2026-03-28T11:15:23.254Z</time></trkpt><trkpt lat="44.320404" lon="8.3829986"><ele>167.5</ele><time>2026-03-28T11:15:24.251Z</time></trkpt><trkpt lat="44.3205307" lon="8.3830713"><ele>165.0</ele><time>2026-03-28T11:15:25.253Z</time></trkpt><trkpt lat="44.3206499" lon="8.383154"><ele>162.5</ele><time>2026-03-28T11:15:26.249Z</time></trkpt><trkpt lat="44.3207682" lon="8.3832295"><ele>160.0</ele><time>2026-03-28T11:15:27.251Z</time></trkpt><trkpt lat="44.3208805" lon="8.3832985"><ele>160.0</ele><time>2026-03-28T11:15:28.255Z</time></trkpt><trkpt lat="44.3209815" lon="8.3833653"><ele>160.0</ele><time>2026-03-28T11:15:29.247Z</time></trkpt><trkpt lat="44.3210841" lon="8.3834379"><ele>160.0</ele><time>2026-03-28T11:15:30.247Z</time></trkpt><trkpt lat="44.3211952" lon="8.3834967"><ele>160.0</ele><time>2026-03-28T11:15:31.256Z</time></trkpt><trkpt lat="44.3212906" lon="8.3835116"><ele>160.0</ele><time>2026-03-28T11:15:32.251Z</time></trkpt><trkpt lat="44.3213792" lon="8.3834979"><ele>158.2</ele><time>2026-03-28T11:15:33.247Z</time></trkpt><trkpt lat="44.3214665" lon="8.3834723"><ele>156.4</ele><time>2026-03-28T11:15:34.243Z</time></trkpt><trkpt lat="44.3215609" lon="8.3834548"><ele>154.6</ele><time>2026-03-28T11:15:35.251Z</time></trkpt><trkpt lat="44.3216467" lon="8.3833902"><ele>152.8</ele><time>2026-03-28T11:15:36.246Z</time></trkpt><trkpt lat="44.3217348" lon="8.3832988"><ele>151.0</ele><time>2026-03-28T11:15:37.246Z</time></trkpt><trkpt lat="44.3218452" lon="8.3831942"><ele>151.0</ele><time>2026-03-28T11:15:38.249Z</time></trkpt><trkpt lat="44.3219614" lon="8.383075"><ele>151.0</ele><time>2026-03-28T11:15:39.245Z</time></trkpt><trkpt lat="44.3220587" lon="8.3829258"><ele>151.0</ele><time>2026-03-28T11:15:40.251Z</time></trkpt><trkpt lat="44.3221555" lon="8.3827876"><ele>151.0</ele><time>2026-03-28T11:15:41.244Z</time></trkpt><trkpt lat="44.3222373" lon="8.3826388"><ele>149.8</ele><time>2026-03-28T11:15:42.253Z</time></trkpt><trkpt lat="44.3222842" lon="8.3824802"><ele>148.6</ele><time>2026-03-28T11:15:43.248Z</time></trkpt><trkpt lat="44.3223129" lon="8.3823185"><ele>147.4</ele><time>2026-03-28T11:15:44.252Z</time></trkpt><trkpt lat="44.3223155" lon="8.3821515"><ele>146.2</ele><time>2026-03-28T11:15:45.246Z</time></trkpt><trkpt lat="44.3223394" lon="8.3820594"><ele>145.0</ele><time>2026-03-28T11:15:46.249Z</time></trkpt><trkpt lat="44.3224313" lon="8.3819332"><ele>147.8</ele><time>2026-03-28T11:15:48.249Z</time></trkpt><trkpt lat="44.3225246" lon="8.3818803"><ele>150.6</ele><time>2026-03-28T11:15:49.245Z</time></trkpt><trkpt lat="44.3226326" lon="8.3818405"><ele>153.4</ele><time>2026-03-28T11:15:50.254Z</time></trkpt><trkpt lat="44.3227214" lon="8.3817702"><ele>156.2</ele><time>2026-03-28T11:15:51.248Z</time></trkpt><trkpt lat="44.3228026" lon="8.381663"><ele>159.0</ele><time>2026-03-28T11:15:52.253Z</time></trkpt><trkpt lat="44.3228868" lon="8.3815234"><ele>159.0</ele><time>2026-03-28T11:15:53.249Z</time></trkpt><trkpt lat="44.3229692" lon="8.3813625"><ele>159.0</ele><time>2026-03-28T11:15:54.252Z</time></trkpt><trkpt lat="44.3230469" lon="8.3811794"><ele>159.0</ele><time>2026-03-28T11:15:55.245Z</time></trkpt><trkpt lat="44.323148" lon="8.3810234"><ele>159.0</ele><time>2026-03-28T11:15:56.245Z</time></trkpt><trkpt lat="44.3232314" lon="8.3808845"><ele>158.8</ele><time>2026-03-28T11:15:57.254Z</time></trkpt><trkpt lat="44.3232774" lon="8.3807495"><ele>158.60000000000002</ele><time>2026-03-28T11:15:58.248Z</time></trkpt><trkpt lat="44.3233088" lon="8.3806111"><ele>158.4</ele><time>2026-03-28T11:15:59.246Z</time></trkpt><trkpt lat="44.3233397" lon="8.3804833"><ele>158.20000000000002</ele><time>2026-03-28T11:16:00.252Z</time></trkpt><trkpt lat="44.3233466" lon="8.3803721"><ele>158.0</ele><time>2026-03-28T11:16:01.259Z</time></trkpt><trkpt lat="44.3233099" lon="8.3802643"><ele>159.75</ele><time>2026-03-28T11:16:02.243Z</time></trkpt><trkpt lat="44.3232615" lon="8.3801283"><ele>161.5</ele><time>2026-03-28T11:16:03.25Z</time></trkpt><trkpt lat="44.3232117" lon="8.3799708"><ele>163.25</ele><time>2026-03-28T11:16:04.238Z</time></trkpt><trkpt lat="44.3231787" lon="8.3798074"><ele>165.0</ele><time>2026-03-28T11:16:05.249Z</time></trkpt><trkpt lat="44.3231312" lon="8.3796615"><ele>165.8</ele><time>2026-03-28T11:16:06.243Z</time></trkpt><trkpt lat="44.3230737" lon="8.3795176"><ele>166.6</ele><time>2026-03-28T11:16:07.245Z</time></trkpt><trkpt lat="44.3230419" lon="8.3793653"><ele>167.39999999999998</ele><time>2026-03-28T11:16:08.244Z</time></trkpt><trkpt lat="44.3230366" lon="8.3792474"><ele>168.2</ele><time>2026-03-28T11:16:09.245Z</time></trkpt><trkpt lat="44.3230625" lon="8.3791427"><ele>169.0</ele><time>2026-03-28T11:16:10.24Z</time></trkpt><trkpt lat="44.3230833" lon="8.3790262"><ele>169.0</ele><time>2026-03-28T11:16:11.252Z</time></trkpt><trkpt lat="44.323131" lon="8.3788864"><ele>169.0</ele><time>2026-03-28T11:16:12.24Z</time></trkpt><trkpt lat="44.3231746" lon="8.3787368"><ele>169.0</ele><time>2026-03-28T11:16:13.248Z</time></trkpt><trkpt lat="44.3232042" lon="8.3785678"><ele>169.0</ele><time>2026-03-28T11:16:14.241Z</time></trkpt><trkpt lat="44.3232263" lon="8.3783741"><ele>171.5</ele><time>2026-03-28T11:16:15.245Z</time></trkpt><trkpt lat="44.3232388" lon="8.3781751"><ele>174.0</ele><time>2026-03-28T11:16:16.244Z</time></trkpt><trkpt lat="44.3232682" lon="8.3779995"><ele>176.5</ele><time>2026-03-28T11:16:17.25Z</time></trkpt><trkpt lat="44.3233034" lon="8.3778133"><ele>179.0</ele><time>2026-03-28T11:16:18.241Z</time></trkpt><trkpt lat="44.32335" lon="8.3776358"><ele>179.0</ele><time>2026-03-28T11:16:19.247Z</time></trkpt><trkpt lat="44.3233998" lon="8.3774596"><ele>179.0</ele><time>2026-03-28T11:16:20.247Z</time></trkpt><trkpt lat="44.3234881" lon="8.3772908"><ele>179.0</ele><time>2026-03-28T11:16:21.237Z</time></trkpt><trkpt lat="44.3236146" lon="8.3771866"><ele>179.0</ele><time>2026-03-28T11:16:22.247Z</time></trkpt><trkpt lat="44.3237509" lon="8.3771086"><ele>180.75</ele><time>2026-03-28T11:16:23.243Z</time></trkpt><trkpt lat="44.3238749" lon="8.377028"><ele>182.5</ele><time>2026-03-28T11:16:24.256Z</time></trkpt><trkpt lat="44.3240028" lon="8.3769515"><ele>184.25</ele><time>2026-03-28T11:16:25.241Z</time></trkpt><trkpt lat="44.324105" lon="8.3769027"><ele>186.0</ele><time>2026-03-28T11:16:26.24Z</time></trkpt><trkpt lat="44.3242172" lon="8.376911"><ele>186.0</ele><time>2026-03-28T11:16:27.239Z</time></trkpt><trkpt lat="44.3243349" lon="8.376924"><ele>186.0</ele><time>2026-03-28T11:16:28.247Z</time></trkpt><trkpt lat="44.324453" lon="8.3769109"><ele>186.0</ele><time>2026-03-28T11:16:29.242Z</time></trkpt><trkpt lat="44.3245548" lon="8.3768609"><ele>186.0</ele><time>2026-03-28T11:16:30.249Z</time></trkpt><trkpt lat="44.3246444" lon="8.3767667"><ele>189.0</ele><time>2026-03-28T11:16:31.242Z</time></trkpt><trkpt lat="44.3247322" lon="8.3766783"><ele>192.0</ele><time>2026-03-28T11:16:32.253Z</time></trkpt><trkpt lat="44.324809" lon="8.3765596"><ele>195.0</ele><time>2026-03-28T11:16:33.243Z</time></trkpt><trkpt lat="44.3248732" lon="8.3764373"><ele>198.0</ele><time>2026-03-28T11:16:34.254Z</time></trkpt><trkpt lat="44.3249054" lon="8.3763231"><ele>201.0</ele><time>2026-03-28T11:16:35.239Z</time></trkpt><trkpt lat="44.3249221" lon="8.3762279"><ele>201.0</ele><time>2026-03-28T11:16:36.252Z</time></trkpt><trkpt lat="44.3249013" lon="8.3761198"><ele>201.0</ele><time>2026-03-28T11:16:37.243Z</time></trkpt><trkpt lat="44.3248636" lon="8.3759915"><ele>201.0</ele><time>2026-03-28T11:16:38.246Z</time></trkpt><trkpt lat="44.3248371" lon="8.3758259"><ele>201.0</ele><time>2026-03-28T11:16:39.241Z</time></trkpt><trkpt lat="44.3248161" lon="8.3756486"><ele>201.0</ele><time>2026-03-28T11:16:40.247Z</time></trkpt><trkpt lat="44.3247991" lon="8.375483"><ele>199.5</ele><time>2026-03-28T11:16:41.253Z</time></trkpt><trkpt lat="44.3247993" lon="8.375353"><ele>198.0</ele><time>2026-03-28T11:16:42.235Z</time></trkpt><trkpt lat="44.3248052" lon="8.3752573"><ele>196.5</ele><time>2026-03-28T11:16:43.25Z</time></trkpt><trkpt lat="44.3248595" lon="8.3752007"><ele>195.0</ele><time>2026-03-28T11:17:08.247Z</time></trkpt><trkpt lat="44.3248535" lon="8.3753288"><ele>193.5</ele><time>2026-03-28T11:18:07.241Z</time></trkpt><trkpt lat="44.3248242" lon="8.3754176"><ele>192.0</ele><time>2026-03-28T11:18:08.244Z</time></trkpt><trkpt lat="44.3247945" lon="8.3755164"><ele>193.5</ele><time>2026-03-28T11:18:09.245Z</time></trkpt><trkpt lat="44.3247929" lon="8.375622"><ele>195.0</ele><time>2026-03-28T11:18:10.246Z</time></trkpt><trkpt lat="44.3247985" lon="8.3757273"><ele>196.5</ele><time>2026-03-28T11:18:11.248Z</time></trkpt><trkpt lat="44.3248247" lon="8.3758411"><ele>198.0</ele><time>2026-03-28T11:18:12.246Z</time></trkpt><trkpt lat="44.3248498" lon="8.3759682"><ele>199.5</ele><time>2026-03-28T11:18:14.248Z</time></trkpt><trkpt lat="44.3249222" lon="8.3760399"><ele>201.0</ele><time>2026-03-28T11:18:16.249Z</time></trkpt><trkpt lat="44.3249815" lon="8.3760729"><ele>201.0</ele><time>2026-03-28T11:18:17.261Z</time></trkpt><trkpt lat="44.3250546" lon="8.3761284"><ele>201.0</ele><time>2026-03-28T11:18:18.25Z</time></trkpt><trkpt lat="44.3251237" lon="8.3761976"><ele>201.0</ele><time>2026-03-28T11:18:19.257Z</time></trkpt><trkpt lat="44.3251851" lon="8.3762765"><ele>201.0</ele><time>2026-03-28T11:18:20.25Z</time></trkpt><trkpt lat="44.3252101" lon="8.3763628"><ele>201.0</ele><time>2026-03-28T11:18:21.253Z</time></trkpt><trkpt lat="44.3251788" lon="8.376521"><ele>201.0</ele><time>2026-03-28T11:18:23.248Z</time></trkpt><trkpt lat="44.3251343" lon="8.3766014"><ele>202.0</ele><time>2026-03-28T11:18:24.256Z</time></trkpt><trkpt lat="44.3250727" lon="8.3766764"><ele>203.0</ele><time>2026-03-28T11:18:25.243Z</time></trkpt><trkpt lat="44.3250048" lon="8.3767627"><ele>204.0</ele><time>2026-03-28T11:18:26.25Z</time></trkpt><trkpt lat="44.3249525" lon="8.3768614"><ele>205.0</ele><time>2026-03-28T11:18:27.246Z</time></trkpt><trkpt lat="44.324928" lon="8.3769506"><ele>206.0</ele><time>2026-03-28T11:18:28.257Z</time></trkpt><trkpt lat="44.3249103" lon="8.3770378"><ele>207.0</ele><time>2026-03-28T11:18:29.253Z</time></trkpt><trkpt lat="44.3248711" lon="8.3772096"><ele>206.0</ele><time>2026-03-28T11:18:31.252Z</time></trkpt><trkpt lat="44.3248344" lon="8.3772853"><ele>205.0</ele><time>2026-03-28T11:18:32.251Z</time></trkpt><trkpt lat="44.3247783" lon="8.3773529"><ele>204.0</ele><time>2026-03-28T11:18:33.249Z</time></trkpt><trkpt lat="44.3247192" lon="8.3774194"><ele>203.0</ele><time>2026-03-28T11:18:34.244Z</time></trkpt><trkpt lat="44.3246466" lon="8.3774953"><ele>202.0</ele><time>2026-03-28T11:18:35.256Z</time></trkpt><trkpt lat="44.324563" lon="8.3775711"><ele>201.0</ele><time>2026-03-28T11:18:36.246Z</time></trkpt><trkpt lat="44.3244844" lon="8.3776408"><ele>201.0</ele><time>2026-03-28T11:18:37.256Z</time></trkpt><trkpt lat="44.3244011" lon="8.3777023"><ele>201.0</ele><time>2026-03-28T11:18:38.24Z</time></trkpt><trkpt lat="44.3243191" lon="8.3777598"><ele>201.0</ele><time>2026-03-28T11:18:39.244Z</time></trkpt><trkpt lat="44.3242439" lon="8.3778153"><ele>201.0</ele><time>2026-03-28T11:18:40.248Z</time></trkpt><trkpt lat="44.3241915" lon="8.3778808"><ele>201.0</ele><time>2026-03-28T11:18:42.248Z</time></trkpt><trkpt lat="44.3242687" lon="8.3778493"><ele>201.0</ele><time>2026-03-28T11:18:45.25Z</time></trkpt><trkpt lat="44.3243972" lon="8.3777712"><ele>201.0</ele><time>2026-03-28T11:18:47.259Z</time></trkpt><trkpt lat="44.3244954" lon="8.3777048"><ele>201.0</ele><time>2026-03-28T11:18:48.25Z</time></trkpt><trkpt lat="44.3245969" lon="8.3776631"><ele>201.0</ele><time>2026-03-28T11:18:49.254Z</time></trkpt><trkpt lat="44.3246887" lon="8.3776679"><ele>201.0</ele><time>2026-03-28T11:18:50.244Z</time></trkpt><trkpt lat="44.324777" lon="8.3776978"><ele>201.0</ele><time>2026-03-28T11:18:51.248Z</time></trkpt><trkpt lat="44.3248578" lon="8.377733"><ele>205.20000000000002</ele><time>2026-03-28T11:18:52.246Z</time></trkpt><trkpt lat="44.3249348" lon="8.3777724"><ele>209.4</ele><time>2026-03-28T11:18:53.249Z</time></trkpt><trkpt lat="44.3250053" lon="8.3777921"><ele>213.6</ele><time>2026-03-28T11:18:54.245Z</time></trkpt><trkpt lat="44.3251297" lon="8.377749"><ele>217.8</ele><time>2026-03-28T11:18:56.24Z</time></trkpt><trkpt lat="44.3252006" lon="8.3777133"><ele>222.0</ele><time>2026-03-28T11:18:57.25Z</time></trkpt><trkpt lat="44.325295" lon="8.3776423"><ele>222.0</ele><time>2026-03-28T11:18:59.253Z</time></trkpt><trkpt lat="44.3253648" lon="8.3775595"><ele>222.0</ele><time>2026-03-28T11:19:01.257Z</time></trkpt><trkpt lat="44.3254273" lon="8.377469"><ele>222.0</ele><time>2026-03-28T11:19:03.253Z</time></trkpt><trkpt lat="44.3254876" lon="8.3774277"><ele>222.0</ele><time>2026-03-28T11:19:05.251Z</time></trkpt><trkpt lat="44.3254562" lon="8.3775258"><ele>222.0</ele><time>2026-03-28T11:19:09.249Z</time></trkpt><trkpt lat="44.3253586" lon="8.3776406"><ele>222.0</ele><time>2026-03-28T11:19:11.248Z</time></trkpt><trkpt lat="44.3253061" lon="8.3777039"><ele>222.0</ele><time>2026-03-28T11:19:12.242Z</time></trkpt><trkpt lat="44.3252595" lon="8.3777697"><ele>222.0</ele><time>2026-03-28T11:19:13.255Z</time></trkpt><trkpt lat="44.3251753" lon="8.3778736"><ele>222.0</ele><time>2026-03-28T11:19:15.253Z</time></trkpt><trkpt lat="44.3251053" lon="8.3779655"><ele>222.0</ele><time>2026-03-28T11:19:17.257Z</time></trkpt><trkpt lat="44.3250466" lon="8.3780347"><ele>222.0</ele><time>2026-03-28T11:19:20.249Z</time></trkpt><trkpt lat="44.3251389" lon="8.3780117"><ele>222.0</ele><time>2026-03-28T11:19:24.25Z</time></trkpt><trkpt lat="44.3252102" lon="8.3779697"><ele>222.0</ele><time>2026-03-28T11:19:25.254Z</time></trkpt><trkpt lat="44.3252772" lon="8.3779154"><ele>222.0</ele><time>2026-03-28T11:19:26.242Z</time></trkpt><trkpt lat="44.3253397" lon="8.3778589"><ele>222.0</ele><time>2026-03-28T11:19:27.254Z</time></trkpt><trkpt lat="44.3254208" lon="8.3778495"><ele>222.0</ele><time>2026-03-28T11:19:29.254Z</time></trkpt><trkpt lat="44.3254241" lon="8.3780114"><ele>222.0</ele><time>2026-03-28T11:19:31.258Z</time></trkpt><trkpt lat="44.3254139" lon="8.3781252"><ele>223.83333333333334</ele><time>2026-03-28T11:19:32.249Z</time></trkpt><trkpt lat="44.3254169" lon="8.3782325"><ele>225.66666666666669</ele><time>2026-03-28T11:19:33.256Z</time></trkpt><trkpt lat="44.3254334" lon="8.3783239"><ele>227.5</ele><time>2026-03-28T11:19:34.252Z</time></trkpt><trkpt lat="44.3254662" lon="8.3784074"><ele>229.33333333333334</ele><time>2026-03-28T11:19:35.259Z</time></trkpt><trkpt lat="44.3255212" lon="8.3784707"><ele>231.16666666666669</ele><time>2026-03-28T11:19:36.255Z</time></trkpt><trkpt lat="44.3256393" lon="8.3785204"><ele>233.0</ele><time>2026-03-28T11:19:38.253Z</time></trkpt><trkpt lat="44.3257088" lon="8.3785448"><ele>237.00000000000003</ele><time>2026-03-28T11:19:39.257Z</time></trkpt><trkpt lat="44.3257738" lon="8.3785771"><ele>241.0</ele><time>2026-03-28T11:19:40.253Z</time></trkpt><trkpt lat="44.3258309" lon="8.3786169"><ele>245.0</ele><time>2026-03-28T11:19:41.257Z</time></trkpt><trkpt lat="44.325891" lon="8.3786626"><ele>249.0</ele><time>2026-03-28T11:19:42.252Z</time></trkpt><trkpt lat="44.3259958" lon="8.3787327"><ele>253.00000000000003</ele><time>2026-03-28T11:19:44.248Z</time></trkpt><trkpt lat="44.3260692" lon="8.3787804"><ele>257.0</ele><time>2026-03-28T11:19:46.248Z</time></trkpt><trkpt lat="44.3261173" lon="8.3787082"><ele>257.0</ele><time>2026-03-28T11:19:49.264Z</time></trkpt><trkpt lat="44.3260409" lon="8.3785727"><ele>257.0</ele><time>2026-03-28T11:19:51.253Z</time></trkpt><trkpt lat="44.3259969" lon="8.3784794"><ele>257.0</ele><time>2026-03-28T11:19:52.25Z</time></trkpt><trkpt lat="44.325948" lon="8.3783791"><ele>257.0</ele><time>2026-03-28T11:19:53.259Z</time></trkpt><trkpt lat="44.3259013" lon="8.3783037"><ele>257.0</ele><time>2026-03-28T11:19:54.252Z</time></trkpt><trkpt lat="44.3258617" lon="8.3782314"><ele>257.0</ele><time>2026-03-28T11:19:55.253Z</time></trkpt><trkpt lat="44.3257916" lon="8.3781226"><ele>257.0</ele><time>2026-03-28T11:19:57.262Z</time></trkpt><trkpt lat="44.3257866" lon="8.378023"><ele>257.0</ele><time>2026-03-28T11:19:59.262Z</time></trkpt><trkpt lat="44.3258495" lon="8.3780023"><ele>257.0</ele><time>2026-03-28T11:20:01.261Z</time></trkpt><trkpt lat="44.3258963" lon="8.3780804"><ele>257.0</ele><time>2026-03-28T11:20:30.266Z</time></trkpt><trkpt lat="44.3259559" lon="8.3781762"><ele>257.0</ele><time>2026-03-28T11:20:32.258Z</time></trkpt><trkpt lat="44.3260413" lon="8.3782565"><ele>257.0</ele><time>2026-03-28T11:20:33.255Z</time></trkpt><trkpt lat="44.3261462" lon="8.3783487"><ele>257.0</ele><time>2026-03-28T11:20:34.256Z</time></trkpt><trkpt lat="44.3262551" lon="8.3784464"><ele>257.0</ele><time>2026-03-28T11:20:35.256Z</time></trkpt><trkpt lat="44.3263663" lon="8.3785559"><ele>257.0</ele><time>2026-03-28T11:20:36.258Z</time></trkpt><trkpt lat="44.3264733" lon="8.3786628"><ele>257.0</ele><time>2026-03-28T11:20:37.252Z</time></trkpt><trkpt lat="44.3265567" lon="8.3787615"><ele>260.33333333333337</ele><time>2026-03-28T11:20:38.255Z</time></trkpt><trkpt lat="44.3266227" lon="8.3788476"><ele>263.6666666666667</ele><time>2026-03-28T11:20:39.249Z</time></trkpt><trkpt lat="44.326674" lon="8.3789157"><ele>267.0</ele><time>2026-03-28T11:20:40.249Z</time></trkpt><trkpt lat="44.3267477" lon="8.3790485"><ele>270.3333333333333</ele><time>2026-03-28T11:20:42.257Z</time></trkpt><trkpt lat="44.3267547" lon="8.379148"><ele>273.66666666666663</ele><time>2026-03-28T11:20:43.249Z</time></trkpt><trkpt lat="44.326744" lon="8.3792618"><ele>277.0</ele><time>2026-03-28T11:20:44.256Z</time></trkpt><trkpt lat="44.3267214" lon="8.3793779"><ele>277.0</ele><time>2026-03-28T11:20:45.251Z</time></trkpt><trkpt lat="44.3266827" lon="8.3795068"><ele>277.0</ele><time>2026-03-28T11:20:46.261Z</time></trkpt><trkpt lat="44.3266366" lon="8.3796506"><ele>277.0</ele><time>2026-03-28T11:20:47.256Z</time></trkpt><trkpt lat="44.3265765" lon="8.3797943"><ele>277.0</ele><time>2026-03-28T11:20:48.26Z</time></trkpt><trkpt lat="44.326522" lon="8.3799323"><ele>277.0</ele><time>2026-03-28T11:20:49.25Z</time></trkpt><trkpt lat="44.3264835" lon="8.3800491"><ele>277.3333333333333</ele><time>2026-03-28T11:20:50.262Z</time></trkpt><trkpt lat="44.3264694" lon="8.3801386"><ele>277.66666666666663</ele><time>2026-03-28T11:20:51.256Z</time></trkpt><trkpt lat="44.3265453" lon="8.3801726"><ele>278.0</ele><time>2026-03-28T11:20:53.251Z</time></trkpt><trkpt lat="44.3265961" lon="8.380117"><ele>278.3333333333333</ele><time>2026-03-28T11:20:54.254Z</time></trkpt><trkpt lat="44.3266505" lon="8.3800512"><ele>278.6666666666667</ele><time>2026-03-28T11:20:55.256Z</time></trkpt><trkpt lat="44.3267209" lon="8.3799744"><ele>279.0</ele><time>2026-03-28T11:20:56.264Z</time></trkpt><trkpt lat="44.3268048" lon="8.3798965"><ele>279.0</ele><time>2026-03-28T11:20:57.258Z</time></trkpt><trkpt lat="44.3268966" lon="8.3798208"><ele>279.0</ele><time>2026-03-28T11:20:58.262Z</time></trkpt><trkpt lat="44.3269985" lon="8.3797519"><ele>279.0</ele><time>2026-03-28T11:20:59.253Z</time></trkpt><trkpt lat="44.327104" lon="8.3796952"><ele>279.0</ele><time>2026-03-28T11:21:00.259Z</time></trkpt><trkpt lat="44.3272159" lon="8.3796491"><ele>279.0</ele><time>2026-03-28T11:21:01.251Z</time></trkpt><trkpt lat="44.3273305" lon="8.3796103"><ele>284.2</ele><time>2026-03-28T11:21:02.261Z</time></trkpt><trkpt lat="44.3274455" lon="8.3795557"><ele>289.4</ele><time>2026-03-28T11:21:03.259Z</time></trkpt><trkpt lat="44.3275619" lon="8.3795041"><ele>294.6</ele><time>2026-03-28T11:21:04.256Z</time></trkpt><trkpt lat="44.3276706" lon="8.3794556"><ele>299.8</ele><time>2026-03-28T11:21:05.262Z</time></trkpt><trkpt lat="44.3277498" lon="8.3793977"><ele>305.0</ele><time>2026-03-28T11:21:06.258Z</time></trkpt><trkpt lat="44.3278038" lon="8.379329"><ele>305.0</ele><time>2026-03-28T11:21:07.266Z</time></trkpt><trkpt lat="44.32785" lon="8.3792169"><ele>305.0</ele><time>2026-03-28T11:21:08.249Z</time></trkpt><trkpt lat="44.3279025" lon="8.3791232"><ele>305.0</ele><time>2026-03-28T11:21:09.258Z</time></trkpt><trkpt lat="44.3279714" lon="8.3790469"><ele>305.0</ele><time>2026-03-28T11:21:10.254Z</time></trkpt><trkpt lat="44.3280471" lon="8.3789859"><ele>305.0</ele><time>2026-03-28T11:21:11.262Z</time></trkpt><trkpt lat="44.3281175" lon="8.3789379"><ele>305.0</ele><time>2026-03-28T11:21:12.262Z</time></trkpt><trkpt lat="44.3281884" lon="8.3789107"><ele>304.4</ele><time>2026-03-28T11:21:13.26Z</time></trkpt><trkpt lat="44.3282698" lon="8.3788907"><ele>303.8</ele><time>2026-03-28T11:21:14.257Z</time></trkpt><trkpt lat="44.3283631" lon="8.3788876"><ele>303.2</ele><time>2026-03-28T11:21:15.266Z</time></trkpt><trkpt lat="44.3284724" lon="8.3789018"><ele>302.6</ele><time>2026-03-28T11:21:16.254Z</time></trkpt><trkpt lat="44.3286004" lon="8.378918"><ele>302.0</ele><time>2026-03-28T11:21:17.271Z</time></trkpt><trkpt lat="44.3287294" lon="8.3789406"><ele>302.0</ele><time>2026-03-28T11:21:18.26Z</time></trkpt><trkpt lat="44.3288347" lon="8.3789522"><ele>302.0</ele><time>2026-03-28T11:21:19.273Z</time></trkpt><trkpt lat="44.3289132" lon="8.3789572"><ele>302.0</ele><time>2026-03-28T11:21:20.264Z</time></trkpt><trkpt lat="44.3289836" lon="8.3789655"><ele>302.0</ele><time>2026-03-28T11:21:21.264Z</time></trkpt><trkpt lat="44.329065" lon="8.3789806"><ele>302.0</ele><time>2026-03-28T11:21:22.261Z</time></trkpt><trkpt lat="44.3291632" lon="8.3789706"><ele>302.0</ele><time>2026-03-28T11:21:23.268Z</time></trkpt><trkpt lat="44.3292698" lon="8.3789352"><ele>302.0</ele><time>2026-03-28T11:21:24.263Z</time></trkpt><trkpt lat="44.3293828" lon="8.3788877"><ele>302.0</ele><time>2026-03-28T11:21:25.269Z</time></trkpt><trkpt lat="44.3294877" lon="8.3788381"><ele>302.0</ele><time>2026-03-28T11:21:26.255Z</time></trkpt><trkpt lat="44.3295888" lon="8.3788213"><ele>302.0</ele><time>2026-03-28T11:21:27.269Z</time></trkpt><trkpt lat="44.3296875" lon="8.3788376"><ele>302.0</ele><time>2026-03-28T11:21:28.253Z</time></trkpt><trkpt lat="44.3297805" lon="8.3788581"><ele>304.0</ele><time>2026-03-28T11:21:29.266Z</time></trkpt><trkpt lat="44.3298693" lon="8.3788936"><ele>306.0</ele><time>2026-03-28T11:21:30.258Z</time></trkpt><trkpt lat="44.3299605" lon="8.3789343"><ele>308.0</ele><time>2026-03-28T11:21:31.27Z</time></trkpt><trkpt lat="44.3300572" lon="8.3789743"><ele>310.0</ele><time>2026-03-28T11:21:32.261Z</time></trkpt><trkpt lat="44.3301526" lon="8.3790268"><ele>312.0</ele><time>2026-03-28T11:21:33.264Z</time></trkpt><trkpt lat="44.3302353" lon="8.3791015"><ele>312.0</ele><time>2026-03-28T11:21:34.256Z</time></trkpt><trkpt lat="44.3303164" lon="8.3791778"><ele>312.0</ele><time>2026-03-28T11:21:35.265Z</time></trkpt><trkpt lat="44.3303931" lon="8.3792555"><ele>312.0</ele><time>2026-03-28T11:21:36.251Z</time></trkpt><trkpt lat="44.3304758" lon="8.3793269"><ele>312.0</ele><time>2026-03-28T11:21:37.27Z</time></trkpt><trkpt lat="44.3305604" lon="8.3793882"><ele>312.0</ele><time>2026-03-28T11:21:38.254Z</time></trkpt><trkpt lat="44.3306573" lon="8.3794561"><ele>313.0</ele><time>2026-03-28T11:21:39.264Z</time></trkpt><trkpt lat="44.3307629" lon="8.3795189"><ele>314.0</ele><time>2026-03-28T11:21:40.255Z</time></trkpt><trkpt lat="44.3308724" lon="8.379592"><ele>315.0</ele><time>2026-03-28T11:21:41.26Z</time></trkpt><trkpt lat="44.3309652" lon="8.3796742"><ele>316.0</ele><time>2026-03-28T11:21:42.259Z</time></trkpt><trkpt lat="44.33104" lon="8.3797945"><ele>316.75</ele><time>2026-03-28T11:21:43.26Z</time></trkpt><trkpt lat="44.3311197" lon="8.3799354"><ele>317.5</ele><time>2026-03-28T11:21:44.263Z</time></trkpt><trkpt lat="44.3311814" lon="8.3800806"><ele>318.25</ele><time>2026-03-28T11:21:45.26Z</time></trkpt><trkpt lat="44.3312443" lon="8.3802201"><ele>319.0</ele><time>2026-03-28T11:21:46.262Z</time></trkpt><trkpt lat="44.3313008" lon="8.3803453"><ele>319.0</ele><time>2026-03-28T11:21:47.264Z</time></trkpt><trkpt lat="44.3313551" lon="8.3804665"><ele>319.0</ele><time>2026-03-28T11:21:48.26Z</time></trkpt><trkpt lat="44.3314002" lon="8.3805869"><ele>319.0</ele><time>2026-03-28T11:21:49.265Z</time></trkpt><trkpt lat="44.331442" lon="8.3807012"><ele>319.0</ele><time>2026-03-28T11:21:50.26Z</time></trkpt><trkpt lat="44.3314933" lon="8.3808058"><ele>319.0</ele><time>2026-03-28T11:21:51.258Z</time></trkpt><trkpt lat="44.3315606" lon="8.3809085"><ele>321.0</ele><time>2026-03-28T11:21:52.253Z</time></trkpt><trkpt lat="44.3316382" lon="8.3810076"><ele>323.0</ele><time>2026-03-28T11:21:53.266Z</time></trkpt><trkpt lat="44.3317293" lon="8.3811188"><ele>325.0</ele><time>2026-03-28T11:21:54.259Z</time></trkpt><trkpt lat="44.3318173" lon="8.3812228"><ele>327.0</ele><time>2026-03-28T11:21:55.262Z</time></trkpt><trkpt lat="44.331893" lon="8.3813216"><ele>329.0</ele><time>2026-03-28T11:21:56.252Z</time></trkpt><trkpt lat="44.3319621" lon="8.3814186"><ele>329.6666666666667</ele><time>2026-03-28T11:21:57.262Z</time></trkpt><trkpt lat="44.3320263" lon="8.3815001"><ele>330.33333333333337</ele><time>2026-03-28T11:21:58.252Z</time></trkpt><trkpt lat="44.332088" lon="8.381572"><ele>331.0</ele><time>2026-03-28T11:21:59.252Z</time></trkpt><trkpt lat="44.3321493" lon="8.3816373"><ele>331.6666666666667</ele><time>2026-03-28T11:22:00.249Z</time></trkpt><trkpt lat="44.3322095" lon="8.3816958"><ele>332.3333333333333</ele><time>2026-03-28T11:22:01.255Z</time></trkpt><trkpt lat="44.3323068" lon="8.3817613"><ele>333.0</ele><time>2026-03-28T11:22:03.251Z</time></trkpt><trkpt lat="44.332301" lon="8.3818585"><ele>334.79999999999995</ele><time>2026-03-28T11:22:14.259Z</time></trkpt><trkpt lat="44.3322676" lon="8.3819645"><ele>336.6</ele><time>2026-03-28T11:22:15.252Z</time></trkpt><trkpt lat="44.3322279" lon="8.3820956"><ele>338.4</ele><time>2026-03-28T11:22:16.254Z</time></trkpt><trkpt lat="44.3321984" lon="8.382243"><ele>340.20000000000005</ele><time>2026-03-28T11:22:17.257Z</time></trkpt><trkpt lat="44.3321941" lon="8.3824048"><ele>342.0</ele><time>2026-03-28T11:22:18.257Z</time></trkpt><trkpt lat="44.3321825" lon="8.3825605"><ele>336.75</ele><time>2026-03-28T11:22:19.257Z</time></trkpt><trkpt lat="44.3321696" lon="8.3827166"><ele>331.5</ele><time>2026-03-28T11:22:20.261Z</time></trkpt><trkpt lat="44.3321386" lon="8.3828776"><ele>326.25</ele><time>2026-03-28T11:22:21.255Z</time></trkpt><trkpt lat="44.3321002" lon="8.3830507"><ele>321.0</ele><time>2026-03-28T11:22:22.261Z</time></trkpt><trkpt lat="44.3320612" lon="8.3832153"><ele>321.0</ele><time>2026-03-28T11:22:23.251Z</time></trkpt><trkpt lat="44.3320273" lon="8.3833644"><ele>321.0</ele><time>2026-03-28T11:22:24.255Z</time></trkpt><trkpt lat="44.3320002" lon="8.3835213"><ele>321.0</ele><time>2026-03-28T11:22:25.253Z</time></trkpt><trkpt lat="44.3319769" lon="8.3836712"><ele>321.0</ele><time>2026-03-28T11:22:26.257Z</time></trkpt><trkpt lat="44.3319607" lon="8.3838168"><ele>321.0</ele><time>2026-03-28T11:22:27.253Z</time></trkpt><trkpt lat="44.3319728" lon="8.3839433"><ele>321.0</ele><time>2026-03-28T11:22:28.267Z</time></trkpt><trkpt lat="44.3319865" lon="8.3840482"><ele>321.0</ele><time>2026-03-28T11:22:29.263Z</time></trkpt><trkpt lat="44.3320032" lon="8.3841658"><ele>321.0</ele><time>2026-03-28T11:22:31.257Z</time></trkpt><trkpt lat="44.3320267" lon="8.3842818"><ele>321.0</ele><time>2026-03-28T11:22:55.262Z</time></trkpt><trkpt lat="44.3320362" lon="8.3844391"><ele>321.0</ele><time>2026-03-28T11:22:57.259Z</time></trkpt><trkpt lat="44.3320589" lon="8.3845445"><ele>321.0</ele><time>2026-03-28T11:22:58.265Z</time></trkpt><trkpt lat="44.3320994" lon="8.3846593"><ele>320.6</ele><time>2026-03-28T11:22:59.254Z</time></trkpt><trkpt lat="44.3321406" lon="8.3847821"><ele>320.20000000000005</ele><time>2026-03-28T11:23:00.262Z</time></trkpt><trkpt lat="44.3321776" lon="8.3848886"><ele>319.79999999999995</ele><time>2026-03-28T11:23:01.259Z</time></trkpt><trkpt lat="44.3322194" lon="8.3849849"><ele>319.4</ele><time>2026-03-28T11:23:02.259Z</time></trkpt><trkpt lat="44.3322849" lon="8.3851329"><ele>319.0</ele><time>2026-03-28T11:23:04.26Z</time></trkpt><trkpt lat="44.3323419" lon="8.385263"><ele>321.4</ele><time>2026-03-28T11:23:06.263Z</time></trkpt><trkpt lat="44.3324016" lon="8.3853723"><ele>323.79999999999995</ele><time>2026-03-28T11:23:08.247Z</time></trkpt><trkpt lat="44.3324724" lon="8.3853448"><ele>326.20000000000005</ele><time>2026-03-28T11:23:10.264Z</time></trkpt><trkpt lat="44.3325277" lon="8.3851686"><ele>328.6</ele><time>2026-03-28T11:23:12.257Z</time></trkpt><trkpt lat="44.3325732" lon="8.3850282"><ele>331.0</ele><time>2026-03-28T11:23:14.259Z</time></trkpt><trkpt lat="44.3326913" lon="8.3850076"><ele>331.0</ele><time>2026-03-28T11:23:16.267Z</time></trkpt><trkpt lat="44.3327567" lon="8.3850455"><ele>331.0</ele><time>2026-03-28T11:23:17.256Z</time></trkpt><trkpt lat="44.332831" lon="8.3851612"><ele>331.0</ele><time>2026-03-28T11:23:19.26Z</time></trkpt><trkpt lat="44.332812" lon="8.3852457"><ele>331.0</ele><time>2026-03-28T11:23:20.259Z</time></trkpt><trkpt lat="44.3327773" lon="8.3853524"><ele>331.0</ele><time>2026-03-28T11:23:21.247Z</time></trkpt><trkpt lat="44.3327318" lon="8.3854471"><ele>331.0</ele><time>2026-03-28T11:23:22.264Z</time></trkpt><trkpt lat="44.3326981" lon="8.3855507"><ele>329.0</ele><time>2026-03-28T11:23:23.258Z</time></trkpt><trkpt lat="44.3326642" lon="8.385639"><ele>327.0</ele><time>2026-03-28T11:23:24.263Z</time></trkpt><trkpt lat="44.3326323" lon="8.3857852"><ele>325.0</ele><time>2026-03-28T11:23:26.258Z</time></trkpt><trkpt lat="44.3326854" lon="8.3858777"><ele>323.0</ele><time>2026-03-28T11:23:28.263Z</time></trkpt><trkpt lat="44.332778" lon="8.3859367"><ele>321.0</ele><time>2026-03-28T11:23:30.26Z</time></trkpt><trkpt lat="44.3328805" lon="8.3860115"><ele>321.0</ele><time>2026-03-28T11:23:32.257Z</time></trkpt><trkpt lat="44.3329739" lon="8.3861125"><ele>321.0</ele><time>2026-03-28T11:23:34.259Z</time></trkpt><trkpt lat="44.3330247" lon="8.3862466"><ele>321.0</ele><time>2026-03-28T11:23:36.258Z</time></trkpt><trkpt lat="44.3330271" lon="8.3863353"><ele>321.0</ele><time>2026-03-28T11:23:37.259Z</time></trkpt><trkpt lat="44.3330204" lon="8.3865089"><ele>321.0</ele><time>2026-03-28T11:23:39.26Z</time></trkpt><trkpt lat="44.3330249" lon="8.3866558"><ele>326.25</ele><time>2026-03-28T11:23:41.253Z</time></trkpt><trkpt lat="44.3330727" lon="8.3867815"><ele>331.5</ele><time>2026-03-28T11:23:43.256Z</time></trkpt><trkpt lat="44.3331396" lon="8.3869259"><ele>336.75</ele><time>2026-03-28T11:23:45.251Z</time></trkpt><trkpt lat="44.3331733" lon="8.3870666"><ele>342.0</ele><time>2026-03-28T11:23:47.257Z</time></trkpt><trkpt lat="44.3331652" lon="8.3872321"><ele>342.0</ele><time>2026-03-28T11:23:49.254Z</time></trkpt><trkpt lat="44.3331509" lon="8.387363"><ele>342.0</ele><time>2026-03-28T11:23:51.256Z</time></trkpt><trkpt lat="44.3331987" lon="8.3874733"><ele>342.0</ele><time>2026-03-28T11:23:53.255Z</time></trkpt><trkpt lat="44.3332475" lon="8.3875441"><ele>342.0</ele><time>2026-03-28T11:23:54.266Z</time></trkpt><trkpt lat="44.3333146" lon="8.3876407"><ele>342.0</ele><time>2026-03-28T11:23:55.259Z</time></trkpt><trkpt lat="44.333367" lon="8.3877629"><ele>342.0</ele><time>2026-03-28T11:23:56.261Z</time></trkpt><trkpt lat="44.3334096" lon="8.3878978"><ele>342.0</ele><time>2026-03-28T11:23:57.255Z</time></trkpt><trkpt lat="44.3334316" lon="8.3880399"><ele>342.0</ele><time>2026-03-28T11:23:58.263Z</time></trkpt><trkpt lat="44.3334425" lon="8.3881632"><ele>342.0</ele><time>2026-03-28T11:23:59.256Z</time></trkpt><trkpt lat="44.3334573" lon="8.3882598"><ele>342.0</ele><time>2026-03-28T11:24:00.271Z</time></trkpt><trkpt lat="44.3335076" lon="8.388391"><ele>342.40000000000003</ele><time>2026-03-28T11:24:02.271Z</time></trkpt><trkpt lat="44.3336172" lon="8.3884156"><ele>342.8</ele><time>2026-03-28T11:24:04.264Z</time></trkpt><trkpt lat="44.3336946" lon="8.3883986"><ele>343.2</ele><time>2026-03-28T11:24:05.256Z</time></trkpt><trkpt lat="44.3337834" lon="8.3883737"><ele>343.6</ele><time>2026-03-28T11:24:06.262Z</time></trkpt><trkpt lat="44.3338743" lon="8.3883636"><ele>344.0</ele><time>2026-03-28T11:24:07.251Z</time></trkpt><trkpt lat="44.3339705" lon="8.3883578"><ele>344.0</ele><time>2026-03-28T11:24:08.259Z</time></trkpt><trkpt lat="44.3340585" lon="8.3883755"><ele>344.0</ele><time>2026-03-28T11:24:09.255Z</time></trkpt><trkpt lat="44.334147" lon="8.3884068"><ele>344.0</ele><time>2026-03-28T11:24:10.26Z</time></trkpt><trkpt lat="44.3342418" lon="8.3884636"><ele>344.0</ele><time>2026-03-28T11:24:11.264Z</time></trkpt><trkpt lat="44.3343333" lon="8.3885333"><ele>344.0</ele><time>2026-03-28T11:24:12.259Z</time></trkpt><trkpt lat="44.3344287" lon="8.3885939"><ele>344.0</ele><time>2026-03-28T11:24:13.268Z</time></trkpt><trkpt lat="44.3345091" lon="8.3886559"><ele>344.0</ele><time>2026-03-28T11:24:14.25Z</time></trkpt><trkpt lat="44.3345813" lon="8.3887289"><ele>344.0</ele><time>2026-03-28T11:24:15.264Z</time></trkpt><trkpt lat="44.3346378" lon="8.3888018"><ele>344.0</ele><time>2026-03-28T11:24:16.261Z</time></trkpt><trkpt lat="44.3346872" lon="8.3888851"><ele>344.0</ele><time>2026-03-28T11:24:17.269Z</time></trkpt><trkpt lat="44.3347363" lon="8.388991"><ele>344.0</ele><time>2026-03-28T11:24:18.26Z</time></trkpt><trkpt lat="44.3347893" lon="8.3891009"><ele>342.1666666666667</ele><time>2026-03-28T11:24:19.266Z</time></trkpt><trkpt lat="44.3348394" lon="8.3892089"><ele>340.33333333333337</ele><time>2026-03-28T11:24:20.261Z</time></trkpt><trkpt lat="44.3348779" lon="8.389305"><ele>338.5</ele><time>2026-03-28T11:24:21.267Z</time></trkpt><trkpt lat="44.3349122" lon="8.3894118"><ele>336.6666666666667</ele><time>2026-03-28T11:24:22.259Z</time></trkpt><trkpt lat="44.3349328" lon="8.389527"><ele>334.8333333333333</ele><time>2026-03-28T11:24:23.266Z</time></trkpt><trkpt lat="44.3349415" lon="8.389656"><ele>333.0</ele><time>2026-03-28T11:24:24.257Z</time></trkpt><trkpt lat="44.334955" lon="8.3897909"><ele>333.0</ele><time>2026-03-28T11:24:25.263Z</time></trkpt><trkpt lat="44.3349587" lon="8.3899142"><ele>333.0</ele><time>2026-03-28T11:24:26.255Z</time></trkpt><trkpt lat="44.3349575" lon="8.390029"><ele>333.0</ele><time>2026-03-28T11:24:27.265Z</time></trkpt><trkpt lat="44.3349576" lon="8.3901401"><ele>333.0</ele><time>2026-03-28T11:24:28.261Z</time></trkpt><trkpt lat="44.3349595" lon="8.3902544"><ele>333.0</ele><time>2026-03-28T11:24:29.263Z</time></trkpt><trkpt lat="44.3349611" lon="8.390369"><ele>333.0</ele><time>2026-03-28T11:24:30.257Z</time></trkpt><trkpt lat="44.3349582" lon="8.3904832"><ele>333.0</ele><time>2026-03-28T11:24:31.265Z</time></trkpt><trkpt lat="44.3349453" lon="8.3905872"><ele>333.0</ele><time>2026-03-28T11:24:32.264Z</time></trkpt><trkpt lat="44.3349265" lon="8.3906954"><ele>333.0</ele><time>2026-03-28T11:24:33.262Z</time></trkpt><trkpt lat="44.3349078" lon="8.3908108"><ele>333.0</ele><time>2026-03-28T11:24:34.261Z</time></trkpt><trkpt lat="44.3348896" lon="8.3909341"><ele>333.0</ele><time>2026-03-28T11:24:35.264Z</time></trkpt><trkpt lat="44.334869" lon="8.3910666"><ele>333.0</ele><time>2026-03-28T11:24:36.259Z</time></trkpt><trkpt lat="44.334859" lon="8.3911967"><ele>333.0</ele><time>2026-03-28T11:24:37.266Z</time></trkpt><trkpt lat="44.3348638" lon="8.3913205"><ele>333.0</ele><time>2026-03-28T11:24:38.257Z</time></trkpt><trkpt lat="44.3348782" lon="8.3914298"><ele>333.0</ele><time>2026-03-28T11:24:39.264Z</time></trkpt><trkpt lat="44.3348963" lon="8.3915404"><ele>333.0</ele><time>2026-03-28T11:24:40.257Z</time></trkpt><trkpt lat="44.3349274" lon="8.3916463"><ele>333.0</ele><time>2026-03-28T11:24:41.266Z</time></trkpt><trkpt lat="44.3349611" lon="8.3917341"><ele>333.0</ele><time>2026-03-28T11:24:42.258Z</time></trkpt><trkpt lat="44.3349976" lon="8.3918162"><ele>333.0</ele><time>2026-03-28T11:24:43.263Z</time></trkpt><trkpt lat="44.3350261" lon="8.3918988"><ele>333.0</ele><time>2026-03-28T11:24:44.26Z</time></trkpt><trkpt lat="44.3350582" lon="8.3919845"><ele>333.0</ele><time>2026-03-28T11:24:45.259Z</time></trkpt><trkpt lat="44.3350904" lon="8.3920706"><ele>333.0</ele><time>2026-03-28T11:24:46.26Z</time></trkpt><trkpt lat="44.3351069" lon="8.3921614"><ele>333.0</ele><time>2026-03-28T11:24:47.267Z</time></trkpt><trkpt lat="44.3351254" lon="8.3922473"><ele>333.0</ele><time>2026-03-28T11:24:48.261Z</time></trkpt><trkpt lat="44.3351463" lon="8.392336"><ele>333.0</ele><time>2026-03-28T11:24:49.265Z</time></trkpt><trkpt lat="44.3351692" lon="8.3924308"><ele>332.6666666666667</ele><time>2026-03-28T11:24:50.266Z</time></trkpt><trkpt lat="44.335191" lon="8.3925257"><ele>332.3333333333333</ele><time>2026-03-28T11:24:51.259Z</time></trkpt><trkpt lat="44.3352205" lon="8.392619"><ele>332.0</ele><time>2026-03-28T11:24:52.268Z</time></trkpt><trkpt lat="44.335249" lon="8.3927289"><ele>331.66666666666663</ele><time>2026-03-28T11:24:53.26Z</time></trkpt><trkpt lat="44.3352777" lon="8.3928339"><ele>331.3333333333333</ele><time>2026-03-28T11:24:54.268Z</time></trkpt><trkpt lat="44.3353007" lon="8.3929464"><ele>331.0</ele><time>2026-03-28T11:24:55.257Z</time></trkpt><trkpt lat="44.3353333" lon="8.3930682"><ele>331.0</ele><time>2026-03-28T11:24:56.26Z</time></trkpt><trkpt lat="44.3353587" lon="8.3931794"><ele>331.0</ele><time>2026-03-28T11:24:57.259Z</time></trkpt><trkpt lat="44.335386" lon="8.3932932"><ele>331.0</ele><time>2026-03-28T11:24:58.263Z</time></trkpt><trkpt lat="44.3354115" lon="8.3934"><ele>331.0</ele><time>2026-03-28T11:24:59.253Z</time></trkpt><trkpt lat="44.3354391" lon="8.3935114"><ele>331.0</ele><time>2026-03-28T11:25:00.268Z</time></trkpt><trkpt lat="44.3354778" lon="8.3936157"><ele>331.0</ele><time>2026-03-28T11:25:01.261Z</time></trkpt><trkpt lat="44.3355196" lon="8.3937146"><ele>331.66666666666663</ele><time>2026-03-28T11:25:02.26Z</time></trkpt><trkpt lat="44.3355656" lon="8.3938136"><ele>332.3333333333333</ele><time>2026-03-28T11:25:03.257Z</time></trkpt><trkpt lat="44.3355949" lon="8.3939039"><ele>333.0</ele><time>2026-03-28T11:25:04.261Z</time></trkpt><trkpt lat="44.3355637" lon="8.39406"><ele>333.6666666666667</ele><time>2026-03-28T11:25:06.253Z</time></trkpt><trkpt lat="44.3355251" lon="8.3941373"><ele>334.33333333333337</ele><time>2026-03-28T11:25:07.265Z</time></trkpt><trkpt lat="44.3354836" lon="8.3942123"><ele>335.0</ele><time>2026-03-28T11:25:08.253Z</time></trkpt><trkpt lat="44.33543" lon="8.3942713"><ele>335.0</ele><time>2026-03-28T11:25:09.259Z</time></trkpt><trkpt lat="44.3353136" lon="8.3943481"><ele>335.0</ele><time>2026-03-28T11:25:11.258Z</time></trkpt><trkpt lat="44.3352392" lon="8.394391"><ele>335.0</ele><time>2026-03-28T11:25:12.249Z</time></trkpt><trkpt lat="44.3351606" lon="8.3944296"><ele>335.0</ele><time>2026-03-28T11:25:13.256Z</time></trkpt><trkpt lat="44.3351053" lon="8.3944883"><ele>335.0</ele><time>2026-03-28T11:25:14.257Z</time></trkpt><trkpt lat="44.3350493" lon="8.3945888"><ele>335.0</ele><time>2026-03-28T11:25:16.249Z</time></trkpt><trkpt lat="44.3351065" lon="8.3946797"><ele>335.0</ele><time>2026-03-28T11:25:18.258Z</time></trkpt><trkpt lat="44.3352278" lon="8.3947129"><ele>335.0</ele><time>2026-03-28T11:25:20.257Z</time></trkpt><trkpt lat="44.3352999" lon="8.3947225"><ele>335.0</ele><time>2026-03-28T11:25:21.256Z</time></trkpt><trkpt lat="44.3353643" lon="8.3947556"><ele>335.0</ele><time>2026-03-28T11:25:22.26Z</time></trkpt><trkpt lat="44.3354221" lon="8.394817"><ele>335.0</ele><time>2026-03-28T11:25:23.259Z</time></trkpt><trkpt lat="44.3354744" lon="8.3949032"><ele>335.0</ele><time>2026-03-28T11:25:24.254Z</time></trkpt><trkpt lat="44.3355281" lon="8.3949843"><ele>335.0</ele><time>2026-03-28T11:25:25.265Z</time></trkpt><trkpt lat="44.3355906" lon="8.3950721"><ele>335.0</ele><time>2026-03-28T11:25:26.26Z</time></trkpt><trkpt lat="44.3356428" lon="8.3951633"><ele>335.0</ele><time>2026-03-28T11:25:27.266Z</time></trkpt><trkpt lat="44.3356864" lon="8.3952419"><ele>335.0</ele><time>2026-03-28T11:25:28.253Z</time></trkpt><trkpt lat="44.3357037" lon="8.3954252"><ele>339.83333333333337</ele><time>2026-03-28T11:25:30.262Z</time></trkpt><trkpt lat="44.3356889" lon="8.3955299"><ele>344.6666666666667</ele><time>2026-03-28T11:25:31.267Z</time></trkpt><trkpt lat="44.3356784" lon="8.3956428"><ele>349.5</ele><time>2026-03-28T11:25:32.256Z</time></trkpt><trkpt lat="44.3356732" lon="8.3957592"><ele>354.3333333333333</ele><time>2026-03-28T11:25:33.262Z</time></trkpt><trkpt lat="44.3356676" lon="8.3958773"><ele>359.16666666666663</ele><time>2026-03-28T11:25:34.259Z</time></trkpt><trkpt lat="44.3356542" lon="8.3960059"><ele>364.0</ele><time>2026-03-28T11:25:35.262Z</time></trkpt><trkpt lat="44.3356355" lon="8.3961181"><ele>364.0</ele><time>2026-03-28T11:25:36.254Z</time></trkpt><trkpt lat="44.3356085" lon="8.3962316"><ele>364.0</ele><time>2026-03-28T11:25:37.264Z</time></trkpt><trkpt lat="44.3355696" lon="8.3963394"><ele>364.0</ele><time>2026-03-28T11:25:38.253Z</time></trkpt><trkpt lat="44.3355216" lon="8.3964278"><ele>364.0</ele><time>2026-03-28T11:25:39.257Z</time></trkpt><trkpt lat="44.3354038" lon="8.3965028"><ele>364.0</ele><time>2026-03-28T11:25:41.253Z</time></trkpt><trkpt lat="44.335285" lon="8.3965337"><ele>361.79999999999995</ele><time>2026-03-28T11:25:43.252Z</time></trkpt><trkpt lat="44.3351976" lon="8.3965333"><ele>359.59999999999997</ele><time>2026-03-28T11:25:44.247Z</time></trkpt><trkpt lat="44.3351115" lon="8.3965478"><ele>357.4</ele><time>2026-03-28T11:25:45.255Z</time></trkpt><trkpt lat="44.3350161" lon="8.3965814"><ele>355.2</ele><time>2026-03-28T11:25:46.262Z</time></trkpt><trkpt lat="44.3349216" lon="8.3966277"><ele>353.0</ele><time>2026-03-28T11:25:47.261Z</time></trkpt><trkpt lat="44.3348489" lon="8.3966911"><ele>353.0</ele><time>2026-03-28T11:25:48.262Z</time></trkpt><trkpt lat="44.3347835" lon="8.3967771"><ele>353.0</ele><time>2026-03-28T11:25:50.27Z</time></trkpt><trkpt lat="44.334822" lon="8.396885"><ele>353.0</ele><time>2026-03-28T11:25:54.267Z</time></trkpt><trkpt lat="44.3349004" lon="8.3969446"><ele>353.0</ele><time>2026-03-28T11:25:56.266Z</time></trkpt><trkpt lat="44.3350202" lon="8.3969084"><ele>353.0</ele><time>2026-03-28T11:25:58.264Z</time></trkpt><trkpt lat="44.335105" lon="8.3968594"><ele>353.0</ele><time>2026-03-28T11:25:59.271Z</time></trkpt><trkpt lat="44.3351904" lon="8.3968177"><ele>353.0</ele><time>2026-03-28T11:26:00.266Z</time></trkpt><trkpt lat="44.3352825" lon="8.3967881"><ele>353.0</ele><time>2026-03-28T11:26:01.272Z</time></trkpt><trkpt lat="44.3353756" lon="8.3967584"><ele>353.0</ele><time>2026-03-28T11:26:02.257Z</time></trkpt><trkpt lat="44.3354659" lon="8.3967449"><ele>353.0</ele><time>2026-03-28T11:26:03.254Z</time></trkpt><trkpt lat="44.3355473" lon="8.3967373"><ele>354.7142857142857</ele><time>2026-03-28T11:26:04.26Z</time></trkpt><trkpt lat="44.3356159" lon="8.3967235"><ele>356.42857142857144</ele><time>2026-03-28T11:26:05.265Z</time></trkpt><trkpt lat="44.3356812" lon="8.3967004"><ele>358.14285714285717</ele><time>2026-03-28T11:26:06.256Z</time></trkpt><trkpt lat="44.3357494" lon="8.3966986"><ele>359.8571428571429</ele><time>2026-03-28T11:26:07.261Z</time></trkpt><trkpt lat="44.335812" lon="8.3967206"><ele>361.57142857142856</ele><time>2026-03-28T11:26:08.268Z</time></trkpt><trkpt lat="44.3358626" lon="8.3967753"><ele>363.28571428571433</ele><time>2026-03-28T11:26:09.254Z</time></trkpt><trkpt lat="44.3359162" lon="8.3968377"><ele>365.0</ele><time>2026-03-28T11:26:10.263Z</time></trkpt><trkpt lat="44.3359735" lon="8.3969096"><ele>365.0</ele><time>2026-03-28T11:26:11.261Z</time></trkpt><trkpt lat="44.3360241" lon="8.3969832"><ele>365.0</ele><time>2026-03-28T11:26:12.268Z</time></trkpt><trkpt lat="44.33608" lon="8.3970584"><ele>365.0</ele><time>2026-03-28T11:26:13.255Z</time></trkpt><trkpt lat="44.3361401" lon="8.3971569"><ele>365.0</ele><time>2026-03-28T11:26:14.264Z</time></trkpt><trkpt lat="44.3361987" lon="8.3972483"><ele>365.0</ele><time>2026-03-28T11:26:15.255Z</time></trkpt><trkpt lat="44.3362604" lon="8.3973473"><ele>365.0</ele><time>2026-03-28T11:26:16.263Z</time></trkpt><trkpt lat="44.3363156" lon="8.3974394"><ele>366.6</ele><time>2026-03-28T11:26:17.262Z</time></trkpt><trkpt lat="44.3363662" lon="8.397511"><ele>368.2</ele><time>2026-03-28T11:26:18.258Z</time></trkpt><trkpt lat="44.3364733" lon="8.3976277"><ele>369.79999999999995</ele><time>2026-03-28T11:26:20.261Z</time></trkpt><trkpt lat="44.3365309" lon="8.3976959"><ele>371.4</ele><time>2026-03-28T11:26:21.264Z</time></trkpt><trkpt lat="44.3365969" lon="8.397783"><ele>373.0</ele><time>2026-03-28T11:26:22.264Z</time></trkpt><trkpt lat="44.3366679" lon="8.3978766"><ele>373.0</ele><time>2026-03-28T11:26:23.263Z</time></trkpt><trkpt lat="44.3367354" lon="8.397967"><ele>373.0</ele><time>2026-03-28T11:26:24.261Z</time></trkpt><trkpt lat="44.3367985" lon="8.3980515"><ele>373.0</ele><time>2026-03-28T11:26:25.264Z</time></trkpt><trkpt lat="44.3368499" lon="8.3981518"><ele>373.0</ele><time>2026-03-28T11:26:26.262Z</time></trkpt><trkpt lat="44.3368939" lon="8.3982583"><ele>373.0</ele><time>2026-03-28T11:26:27.269Z</time></trkpt><trkpt lat="44.3369286" lon="8.3983773"><ele>373.0</ele><time>2026-03-28T11:26:28.265Z</time></trkpt><trkpt lat="44.3369509" lon="8.3985037"><ele>372.0</ele><time>2026-03-28T11:26:29.261Z</time></trkpt><trkpt lat="44.3369613" lon="8.3986365"><ele>371.0</ele><time>2026-03-28T11:26:30.262Z</time></trkpt><trkpt lat="44.3369637" lon="8.3987793"><ele>370.0</ele><time>2026-03-28T11:26:31.273Z</time></trkpt><trkpt lat="44.3369448" lon="8.3989192"><ele>369.0</ele><time>2026-03-28T11:26:32.259Z</time></trkpt><trkpt lat="44.3369326" lon="8.3990463"><ele>368.0</ele><time>2026-03-28T11:26:33.263Z</time></trkpt><trkpt lat="44.3369256" lon="8.3991635"><ele>367.1666666666667</ele><time>2026-03-28T11:26:34.257Z</time></trkpt><trkpt lat="44.3369374" lon="8.399264"><ele>366.33333333333337</ele><time>2026-03-28T11:26:35.265Z</time></trkpt><trkpt lat="44.3369621" lon="8.3993716"><ele>365.5</ele><time>2026-03-28T11:26:36.26Z</time></trkpt><trkpt lat="44.3369835" lon="8.3994949"><ele>364.6666666666667</ele><time>2026-03-28T11:26:37.26Z</time></trkpt><trkpt lat="44.3369974" lon="8.3996144"><ele>363.8333333333333</ele><time>2026-03-28T11:26:38.26Z</time></trkpt><trkpt lat="44.3370083" lon="8.3997247"><ele>363.0</ele><time>2026-03-28T11:26:39.266Z</time></trkpt><trkpt lat="44.3370107" lon="8.3998421"><ele>362.8333333333333</ele><time>2026-03-28T11:26:40.26Z</time></trkpt><trkpt lat="44.3370176" lon="8.3999423"><ele>362.6666666666667</ele><time>2026-03-28T11:26:41.26Z</time></trkpt><trkpt lat="44.3370134" lon="8.4000553"><ele>362.5</ele><time>2026-03-28T11:26:42.248Z</time></trkpt><trkpt lat="44.3369989" lon="8.4001698"><ele>362.33333333333337</ele><time>2026-03-28T11:26:43.255Z</time></trkpt><trkpt lat="44.3369781" lon="8.4002941"><ele>362.1666666666667</ele><time>2026-03-28T11:26:44.256Z</time></trkpt><trkpt lat="44.3369545" lon="8.4004183"><ele>362.0</ele><time>2026-03-28T11:26:45.256Z</time></trkpt><trkpt lat="44.3369369" lon="8.400536"><ele>362.33333333333337</ele><time>2026-03-28T11:26:46.255Z</time></trkpt><trkpt lat="44.3369238" lon="8.4006409"><ele>362.6666666666667</ele><time>2026-03-28T11:26:47.258Z</time></trkpt><trkpt lat="44.3369181" lon="8.4007822"><ele>363.0</ele><time>2026-03-28T11:26:49.26Z</time></trkpt><trkpt lat="44.3369713" lon="8.4008514"><ele>363.3333333333333</ele><time>2026-03-28T11:26:51.26Z</time></trkpt><trkpt lat="44.3370705" lon="8.4008428"><ele>363.66666666666663</ele><time>2026-03-28T11:26:53.258Z</time></trkpt><trkpt lat="44.3371396" lon="8.400852"><ele>364.0</ele><time>2026-03-28T11:26:54.26Z</time></trkpt><trkpt lat="44.3372029" lon="8.4008586"><ele>367.16666666666663</ele><time>2026-03-28T11:26:55.255Z</time></trkpt><trkpt lat="44.3372776" lon="8.4009025"><ele>370.3333333333333</ele><time>2026-03-28T11:26:56.264Z</time></trkpt><trkpt lat="44.3373574" lon="8.4009497"><ele>373.5</ele><time>2026-03-28T11:26:57.26Z</time></trkpt><trkpt lat="44.3374339" lon="8.4009889"><ele>376.6666666666667</ele><time>2026-03-28T11:26:58.26Z</time></trkpt><trkpt lat="44.3375186" lon="8.4010352"><ele>379.83333333333337</ele><time>2026-03-28T11:26:59.253Z</time></trkpt><trkpt lat="44.337605" lon="8.4010919"><ele>383.0</ele><time>2026-03-28T11:27:00.26Z</time></trkpt><trkpt lat="44.3377004" lon="8.4011517"><ele>383.0</ele><time>2026-03-28T11:27:01.252Z</time></trkpt><trkpt lat="44.3377852" lon="8.4012078"><ele>383.0</ele><time>2026-03-28T11:27:02.261Z</time></trkpt><trkpt lat="44.3378597" lon="8.4012796"><ele>383.0</ele><time>2026-03-28T11:27:03.25Z</time></trkpt><trkpt lat="44.3379376" lon="8.4013583"><ele>383.0</ele><time>2026-03-28T11:27:04.261Z</time></trkpt><trkpt lat="44.337997" lon="8.4014534"><ele>383.0</ele><time>2026-03-28T11:27:05.258Z</time></trkpt><trkpt lat="44.3380516" lon="8.4015597"><ele>383.0</ele><time>2026-03-28T11:27:06.253Z</time></trkpt><trkpt lat="44.3380861" lon="8.4016649"><ele>383.0</ele><time>2026-03-28T11:27:07.257Z</time></trkpt><trkpt lat="44.3381131" lon="8.4017733"><ele>383.0</ele><time>2026-03-28T11:27:08.253Z</time></trkpt><trkpt lat="44.3381352" lon="8.4018867"><ele>383.0</ele><time>2026-03-28T11:27:09.264Z</time></trkpt><trkpt lat="44.3381545" lon="8.4020039"><ele>383.0</ele><time>2026-03-28T11:27:10.257Z</time></trkpt><trkpt lat="44.3381607" lon="8.4021148"><ele>383.0</ele><time>2026-03-28T11:27:11.27Z</time></trkpt><trkpt lat="44.3381594" lon="8.4022457"><ele>382.2</ele><time>2026-03-28T11:27:13.271Z</time></trkpt><trkpt lat="44.3382151" lon="8.4023861"><ele>381.4</ele><time>2026-03-28T11:27:50.266Z</time></trkpt><trkpt lat="44.3382598" lon="8.4024654"><ele>380.59999999999997</ele><time>2026-03-28T11:27:51.255Z</time></trkpt><trkpt lat="44.3383021" lon="8.4025339"><ele>379.79999999999995</ele><time>2026-03-28T11:27:52.253Z</time></trkpt><trkpt lat="44.3383329" lon="8.4027021"><ele>379.0</ele><time>2026-03-28T11:27:54.261Z</time></trkpt><trkpt lat="44.3383473" lon="8.4028205"><ele>379.00000000000006</ele><time>2026-03-28T11:27:55.252Z</time></trkpt><trkpt lat="44.3383534" lon="8.4029184"><ele>379.0</ele><time>2026-03-28T11:27:56.258Z</time></trkpt><trkpt lat="44.3383678" lon="8.4030127"><ele>379.0</ele><time>2026-03-28T11:27:57.254Z</time></trkpt><trkpt lat="44.3383779" lon="8.4031221"><ele>379.0</ele><time>2026-03-28T11:27:58.263Z</time></trkpt><trkpt lat="44.3383774" lon="8.4032211"><ele>379.0</ele><time>2026-03-28T11:27:59.26Z</time></trkpt><trkpt lat="44.3383976" lon="8.4033367"><ele>379.00000000000006</ele><time>2026-03-28T11:28:00.256Z</time></trkpt><trkpt lat="44.3384068" lon="8.4034388"><ele>379.0</ele><time>2026-03-28T11:28:01.255Z</time></trkpt><trkpt lat="44.3384293" lon="8.4035534"><ele>382.0</ele><time>2026-03-28T11:28:02.255Z</time></trkpt><trkpt lat="44.3382771" lon="8.4045249"><ele>371.0</ele><time>2026-03-28T11:28:25.265Z</time></trkpt><trkpt lat="44.338078" lon="8.4064508"><ele>353.0</ele><time>2026-03-28T11:28:44.267Z</time></trkpt><trkpt lat="44.3379861" lon="8.4093089"><ele>360.0</ele><time>2026-03-28T11:36:01.279Z</time></trkpt><trkpt lat="44.3372907" lon="8.4109269"><ele>349.0</ele><time>2026-03-28T11:36:45.282Z</time></trkpt><trkpt lat="44.3364317" lon="8.4124263"><ele>356.0</ele><time>2026-03-28T11:37:16.282Z</time></trkpt><trkpt lat="44.3357302" lon="8.415103"><ele>353.0</ele><time>2026-03-28T11:37:42.258Z</time></trkpt><trkpt lat="44.3339405" lon="8.4165519"><ele>343.0</ele><time>2026-03-28T11:38:05.261Z</time></trkpt><trkpt lat="44.3328188" lon="8.4189806"><ele>333.0</ele><time>2026-03-28T11:38:45.281Z</time></trkpt><trkpt lat="44.3320747" lon="8.4206649"><ele>372.0</ele><time>2026-03-28T11:39:24.29Z</time></trkpt><trkpt lat="44.3327905" lon="8.423376"><ele>382.0</ele><time>2026-03-28T11:40:08.271Z</time></trkpt><trkpt lat="44.3329286" lon="8.4252984"><ele>396.0</ele><time>2026-03-28T11:40:25.254Z</time></trkpt><trkpt lat="44.3315885" lon="8.427511"><ele>386.0</ele><time>2026-03-28T11:40:54.263Z</time></trkpt><trkpt lat="44.3328317" lon="8.4282679"><ele>375.0</ele><time>2026-03-28T11:41:20.29Z</time></trkpt><trkpt lat="44.3334174" lon="8.4299938"><ele>366.0</ele><time>2026-03-28T11:42:01.26Z</time></trkpt><trkpt lat="44.3332979" lon="8.4328554"><ele>381.0</ele><time>2026-03-28T11:42:28.281Z</time></trkpt><trkpt lat="44.3331256" lon="8.434875"><ele>344.0</ele><time>2026-03-28T11:43:38.253Z</time></trkpt><trkpt lat="44.3322086" lon="8.4374016"><ele>316.0</ele><time>2026-03-28T11:44:13.274Z</time></trkpt><trkpt lat="44.3318891" lon="8.4402242"><ele>308.0</ele><time>2026-03-28T11:45:55.27Z</time></trkpt><trkpt lat="44.3318315" lon="8.4421309"><ele>292.0</ele><time>2026-03-28T11:46:32.277Z</time></trkpt><trkpt lat="44.3315783" lon="8.444058"><ele>249.0</ele><time>2026-03-28T11:46:45.268Z</time></trkpt><trkpt lat="44.330547" lon="8.4465763"><ele>249.0</ele><time>2026-03-28T11:47:09.268Z</time></trkpt><trkpt lat="44.3302348" lon="8.4493686"><ele>219.0</ele><time>2026-03-28T11:47:28.286Z</time></trkpt><trkpt lat="44.3296971" lon="8.4521256"><ele>216.0</ele><time>2026-03-28T11:47:51.275Z</time></trkpt><trkpt lat="44.3293967" lon="8.4502863"><ele>174.0</ele><time>2026-03-28T11:48:45.268Z</time></trkpt><trkpt lat="44.3285872" lon="8.4518016"><ele>180.0</ele><time>2026-03-28T11:49:38.257Z</time></trkpt><trkpt lat="44.3281894" lon="8.4536054"><ele>122.0</ele><time>2026-03-28T11:49:58.269Z</time></trkpt><trkpt lat="44.3271131" lon="8.4560572"><ele>113.0</ele><time>2026-03-28T11:50:25.262Z</time></trkpt><trkpt lat="44.3257029" lon="8.4582212"><ele>87.0</ele><time>2026-03-28T11:50:47.263Z</time></trkpt><trkpt lat="44.3248384" lon="8.4608232"><ele>52.0</ele><time>2026-03-28T11:51:08.267Z</time></trkpt><trkpt lat="44.3231146" lon="8.4624811"><ele>42.0</ele><time>2026-03-28T11:51:27.264Z</time></trkpt><trkpt lat="44.3256432" lon="8.4639208"><ele>42.0</ele><time>2026-03-28T11:52:23.253Z</time></trkpt><trkpt lat="44.3280976" lon="8.4656415"><ele>54.0</ele><time>2026-03-28T11:52:51.251Z</time></trkpt><trkpt lat="44.3308327" lon="8.4628059"><ele>67.0</ele><time>2026-03-28T11:53:11.259Z</time></trkpt><trkpt lat="44.3331341" lon="8.4590892"><ele>71.0</ele><time>2026-03-28T11:53:32.256Z</time></trkpt><trkpt lat="44.3363836" lon="8.4572628"><ele>78.0</ele><time>2026-03-28T11:53:58.252Z</time></trkpt><trkpt lat="44.3388037" lon="8.4538382"><ele>80.0</ele><time>2026-03-28T11:54:21.255Z</time></trkpt><trkpt lat="44.3415095" lon="8.4510207"><ele>86.0</ele><time>2026-03-28T11:54:53.267Z</time></trkpt><trkpt lat="44.3434921" lon="8.447209"><ele>92.0</ele><time>2026-03-28T11:55:13.281Z</time></trkpt><trkpt lat="44.3454062" lon="8.4443809"><ele>117.0</ele><time>2026-03-28T11:55:32.259Z</time></trkpt><trkpt lat="44.3442778" lon="8.4407011"><ele>98.0</ele><time>2026-03-28T11:55:51.26Z</time></trkpt><trkpt lat="44.3449737" lon="8.4360066"><ele>121.0</ele><time>2026-03-28T11:56:16.276Z</time></trkpt><trkpt lat="44.3451737" lon="8.4321715"><ele>154.0</ele><time>2026-03-28T11:58:32.286Z</time></trkpt><trkpt lat="44.3448464" lon="8.4302781"><ele>152.0</ele><time>2026-03-28T11:58:50.288Z</time></trkpt><trkpt lat="44.3435123" lon="8.4297812"><ele>178.0</ele><time>2026-03-28T11:59:17.283Z</time></trkpt><trkpt lat="44.3423929" lon="8.4286576"><ele>203.0</ele><time>2026-03-28T11:59:54.269Z</time></trkpt><trkpt lat="44.3422805" lon="8.4266984"><ele>234.0</ele><time>2026-03-28T12:00:12.265Z</time></trkpt><trkpt lat="44.3422303" lon="8.4238523"><ele>248.0</ele><time>2026-03-28T12:00:46.274Z</time></trkpt><trkpt lat="44.3441378" lon="8.4227408"><ele>253.0</ele><time>2026-03-28T12:01:23.257Z</time></trkpt><trkpt lat="44.3458427" lon="8.421166"><ele>293.0</ele><time>2026-03-28T12:01:46.253Z</time></trkpt><trkpt lat="44.3478032" lon="8.4220552"><ele>287.0</ele><time>2026-03-28T12:02:13.269Z</time></trkpt><trkpt lat="44.3499069" lon="8.4221942"><ele>301.0</ele><time>2026-03-28T12:02:43.252Z</time></trkpt><trkpt lat="44.351816" lon="8.4231865"><ele>348.0</ele><time>2026-03-28T12:03:03.263Z</time></trkpt><trkpt lat="44.3538965" lon="8.42277"><ele>380.0</ele><time>2026-03-28T12:03:25.271Z</time></trkpt><trkpt lat="44.3559654" lon="8.4232495"><ele>382.0</ele><time>2026-03-28T12:03:51.263Z</time></trkpt><trkpt lat="44.3571911" lon="8.4255479"><ele>432.0</ele><time>2026-03-28T12:04:21.261Z</time></trkpt><trkpt lat="44.3578022" lon="8.4283124"><ele>507.0</ele><time>2026-03-28T12:04:59.259Z</time></trkpt><trkpt lat="44.3593078" lon="8.4303212"><ele>503.0</ele><time>2026-03-28T12:06:06.252Z</time></trkpt><trkpt lat="44.3584283" lon="8.4329834"><ele>484.0</ele><time>2026-03-28T12:06:46.267Z</time></trkpt><trkpt lat="44.3585033" lon="8.4358962"><ele>455.0</ele><time>2026-03-28T12:07:15.261Z</time></trkpt><trkpt lat="44.3587825" lon="8.4387519"><ele>451.0</ele><time>2026-03-28T12:07:44.264Z</time></trkpt><trkpt lat="44.3577704" lon="8.4413002"><ele>428.0</ele><time>2026-03-28T12:08:14.254Z</time></trkpt><trkpt lat="44.3568919" lon="8.4438626"><ele>439.0</ele><time>2026-03-28T12:09:06.271Z</time></trkpt><trkpt lat="44.3578975" lon="8.4451633"><ele>429.0</ele><time>2026-03-28T12:09:24.252Z</time></trkpt><trkpt lat="44.3575269" lon="8.4469803"><ele>395.0</ele><time>2026-03-28T12:10:04.271Z</time></trkpt><trkpt lat="44.3579865" lon="8.4487801"><ele>407.0</ele><time>2026-03-28T12:10:26.267Z</time></trkpt><trkpt lat="44.3575345" lon="8.4506035"><ele>413.0</ele><time>2026-03-28T12:10:49.267Z</time></trkpt><trkpt lat="44.3572026" lon="8.4534869"><ele>413.0</ele><time>2026-03-28T12:11:16.265Z</time></trkpt><trkpt lat="44.3558068" lon="8.4556154"><ele>365.0</ele><time>2026-03-28T12:11:44.265Z</time></trkpt><trkpt lat="44.3541437" lon="8.4573406"><ele>360.0</ele><time>2026-03-28T12:12:35.254Z</time></trkpt><trkpt lat="44.3531818" lon="8.4587659"><ele>366.0</ele><time>2026-03-28T12:12:50.254Z</time></trkpt><trkpt lat="44.3514599" lon="8.4603204"><ele>363.0</ele><time>2026-03-28T12:13:19.263Z</time></trkpt><trkpt lat="44.3506662" lon="8.4629593"><ele>381.0</ele><time>2026-03-28T12:13:58.27Z</time></trkpt><trkpt lat="44.3499469" lon="8.4646626"><ele>416.0</ele><time>2026-03-28T12:14:15.268Z</time></trkpt><trkpt lat="44.3488639" lon="8.4671175"><ele>419.0</ele><time>2026-03-28T12:14:40.263Z</time></trkpt><trkpt lat="44.3477935" lon="8.4684233"><ele>412.0</ele><time>2026-03-28T12:14:56.266Z</time></trkpt><trkpt lat="44.3459348" lon="8.4695786"><ele>396.0</ele><time>2026-03-28T12:15:17.254Z</time></trkpt><trkpt lat="44.3442301" lon="8.4711956"><ele>365.0</ele><time>2026-03-28T12:15:41.256Z</time></trkpt><trkpt lat="44.3427361" lon="8.4731575"><ele>362.0</ele><time>2026-03-28T12:16:29.262Z</time></trkpt><trkpt lat="44.3413367" lon="8.4731958"><ele>348.0</ele><time>2026-03-28T12:16:46.26Z</time></trkpt><trkpt lat="44.3394286" lon="8.4741569"><ele>338.0</ele><time>2026-03-28T12:17:18.258Z</time></trkpt><trkpt lat="44.3386065" lon="8.4768261"><ele>298.0</ele><time>2026-03-28T12:17:51.26Z</time></trkpt><trkpt lat="44.3370541" lon="8.4788297"><ele>260.0</ele><time>2026-03-28T12:18:13.265Z</time></trkpt><trkpt lat="44.334778" lon="8.4809302"><ele>237.0</ele><time>2026-03-28T12:18:37.259Z</time></trkpt><trkpt lat="44.336254" lon="8.482869"><ele>199.0</ele><time>2026-03-28T12:21:03.252Z</time></trkpt><trkpt lat="44.3365532" lon="8.4857709"><ele>178.0</ele><time>2026-03-28T12:21:28.259Z</time></trkpt><trkpt lat="44.3370415" lon="8.4885944"><ele>139.0</ele><time>2026-03-28T12:21:48.251Z</time></trkpt><trkpt lat="44.3368977" lon="8.491425"><ele>86.0</ele><time>2026-03-28T12:22:09.254Z</time></trkpt><trkpt lat="44.3355266" lon="8.4935642"><ele>110.0</ele><time>2026-03-28T12:22:41.244Z</time></trkpt><trkpt lat="44.334165" lon="8.4957333"><ele>72.0</ele><time>2026-03-28T12:23:03.251Z</time></trkpt><trkpt lat="44.3330297" lon="8.4982424"><ele>31.0</ele><time>2026-03-28T12:23:22.251Z</time></trkpt><trkpt lat="44.3343336" lon="8.5005963"><ele>7.0</ele><time>2026-03-28T12:24:13.247Z</time></trkpt><trkpt lat="44.3355433" lon="8.5039699"><ele>8.0</ele><time>2026-03-28T12:24:45.257Z</time></trkpt><trkpt lat="44.3368249" lon="8.5030827"><ele>11.0</ele><time>2026-03-28T12:24:59.248Z</time></trkpt><trkpt lat="44.3382545" lon="8.5010546"><ele>10.0</ele><time>2026-03-28T12:25:19.261Z</time></trkpt><trkpt lat="44.3401682" lon="8.5020739"><ele>11.0</ele><time>2026-03-28T12:26:26.246Z</time></trkpt><trkpt lat="44.3414193" lon="8.504299"><ele>12.0</ele><time>2026-03-28T12:26:47.249Z</time></trkpt><trkpt lat="44.3425661" lon="8.503087"><ele>14.0</ele><time>2026-03-28T12:27:07.239Z</time></trkpt><trkpt lat="44.3446688" lon="8.5006493"><ele>17.0</ele><time>2026-03-28T12:27:28.246Z</time></trkpt><trkpt lat="44.3459102" lon="8.4984002"><ele>17.0</ele><time>2026-03-28T12:27:43.243Z</time></trkpt><trkpt lat="44.3468059" lon="8.49476"><ele>17.0</ele><time>2026-03-28T12:28:04.249Z</time></trkpt><trkpt lat="44.3468667" lon="8.4909446"><ele>21.0</ele><time>2026-03-28T12:28:22.239Z</time></trkpt><trkpt lat="44.3486199" lon="8.4878404"><ele>38.0</ele><time>2026-03-28T12:28:38.247Z</time></trkpt><trkpt lat="44.3516208" lon="8.4855244"><ele>36.0</ele><time>2026-03-28T12:28:58.248Z</time></trkpt><trkpt lat="44.3533232" lon="8.4813258"><ele>37.0</ele><time>2026-03-28T12:29:20.243Z</time></trkpt><trkpt lat="44.3551828" lon="8.4784661"><ele>55.0</ele><time>2026-03-28T12:29:37.252Z</time></trkpt><trkpt lat="44.3583025" lon="8.4803759"><ele>55.0</ele><time>2026-03-28T12:30:05.243Z</time></trkpt><trkpt lat="44.3605846" lon="8.4768784"><ele>107.0</ele><time>2026-03-28T12:30:34.25Z</time></trkpt><trkpt lat="44.3614333" lon="8.472309"><ele>76.0</ele><time>2026-03-28T12:31:01.24Z</time></trkpt><trkpt lat="44.3617726" lon="8.4676139"><ele>76.0</ele><time>2026-03-28T12:31:29.246Z</time></trkpt></trkseg></trk></gpx>